<?xml version="1.0" encoding="UTF-8" standalone="no" ?>
<gpx xmlns="http://www.topografix.com/GPX/1/1" xmlns:xsi="http://www.w3.org/2001/XMLSchema-instance" xsi:schemaLocation="http://www.topografix.com/GPX/1/1 http://www.topografix.com/GPX/1/1/gpx.xsd" version="1.1" creator="VisuGPX - https://www.visugpx.com">
  <metadata>
    <name>2017-07-31 Bike ride VTT-Amberieux-Saone O Quincieux O</name>
    <desc><![CDATA[2017-07-31 Bike ride VTT-Amberieux-Saone O Quincieux O]]></desc>
  </metadata>
  <wpt lat="45.92461" lon="4.73703">
    <ele>174</ele>
    <name><![CDATA[2017-07-31 11:25 (Start)]]></name>
  </wpt>
  <wpt lat="45.92466" lon="4.73714">
    <ele>174</ele>
    <name><![CDATA[2017-07-31 11:25 (End)]]></name>
    <desc><![CDATA[Created by Google My Tracks on Android  Name: 2017-07-31 11:25 Activity type: biking Description: - Total distance: 21.30 km (13.2 mi) Total time: 1:29:27 Moving time: 1:22:10 Average speed: 14.28 km/h (8.9 mi/h) Average moving speed: 15.55 km/h (9.7 mi/h) Max speed: 26.85 km/h (16.7 mi/h) Average pace: 4:12 min/km (6:46 min/mi) Average moving pace: 3:52 min/km (6:13 min/mi) Fastest pace: 2:14 min/km (3:36 min/mi) Max elevation: 200 m (655 ft) Min elevation: 130 m (427 ft) Elevation gain: 464 m (1521 ft) Max grade: 21 % Min grade: -12 % Recorded: 31/07/2017 11:25]]></desc>
  </wpt>
  <trk>
    <name><![CDATA[2017-07-31 11:25]]></name>
    <trkseg>
      <trkpt lat="45.92461" lon="4.73703">
        <ele>174</ele>
        <time>2017-07-31T09:25:30.247Z</time>
      </trkpt>
      <trkpt lat="45.92461" lon="4.73706">
        <ele>174</ele>
        <time>2017-07-31T09:25:47Z</time>
      </trkpt>
      <trkpt lat="45.92462" lon="4.73707">
        <ele>174</ele>
        <time>2017-07-31T09:25:49Z</time>
      </trkpt>
      <trkpt lat="45.92463" lon="4.73711">
        <ele>174</ele>
        <time>2017-07-31T09:26:38Z</time>
      </trkpt>
      <trkpt lat="45.9246" lon="4.73707">
        <ele>174</ele>
        <time>2017-07-31T09:26:39Z</time>
      </trkpt>
      <trkpt lat="45.92466" lon="4.73699">
        <ele>174</ele>
        <time>2017-07-31T09:26:45Z</time>
      </trkpt>
      <trkpt lat="45.92467" lon="4.73697">
        <ele>174</ele>
        <time>2017-07-31T09:26:46Z</time>
      </trkpt>
      <trkpt lat="45.92469" lon="4.73687">
        <ele>174</ele>
        <time>2017-07-31T09:26:50Z</time>
      </trkpt>
      <trkpt lat="45.9247" lon="4.73684">
        <ele>174</ele>
        <time>2017-07-31T09:26:51Z</time>
      </trkpt>
      <trkpt lat="45.92472" lon="4.73671">
        <ele>174</ele>
        <time>2017-07-31T09:26:54Z</time>
      </trkpt>
      <trkpt lat="45.92472" lon="4.73666">
        <ele>174</ele>
        <time>2017-07-31T09:26:55Z</time>
      </trkpt>
      <trkpt lat="45.92473" lon="4.73656">
        <ele>174</ele>
        <time>2017-07-31T09:26:57Z</time>
      </trkpt>
      <trkpt lat="45.92475" lon="4.73652">
        <ele>174</ele>
        <time>2017-07-31T09:26:58Z</time>
      </trkpt>
      <trkpt lat="45.92481" lon="4.73643">
        <ele>174</ele>
        <time>2017-07-31T09:27:01Z</time>
      </trkpt>
      <trkpt lat="45.92484" lon="4.73641">
        <ele>174</ele>
        <time>2017-07-31T09:27:02Z</time>
      </trkpt>
      <trkpt lat="45.92491" lon="4.7364">
        <ele>174</ele>
        <time>2017-07-31T09:27:04Z</time>
      </trkpt>
      <trkpt lat="45.92494" lon="4.7364">
        <ele>174</ele>
        <time>2017-07-31T09:27:05Z</time>
      </trkpt>
      <trkpt lat="45.92503" lon="4.73639">
        <ele>174</ele>
        <time>2017-07-31T09:27:07Z</time>
      </trkpt>
      <trkpt lat="45.92506" lon="4.73639">
        <ele>174</ele>
        <time>2017-07-31T09:27:08Z</time>
      </trkpt>
      <trkpt lat="45.92513" lon="4.7364">
        <ele>174</ele>
        <time>2017-07-31T09:27:10Z</time>
      </trkpt>
      <trkpt lat="45.92517" lon="4.73639">
        <ele>173</ele>
        <time>2017-07-31T09:27:11Z</time>
      </trkpt>
      <trkpt lat="45.92524" lon="4.73639">
        <ele>173</ele>
        <time>2017-07-31T09:27:13Z</time>
      </trkpt>
      <trkpt lat="45.92527" lon="4.73638">
        <ele>173</ele>
        <time>2017-07-31T09:27:14Z</time>
      </trkpt>
      <trkpt lat="45.92533" lon="4.73636">
        <ele>173</ele>
        <time>2017-07-31T09:27:16Z</time>
      </trkpt>
      <trkpt lat="45.92537" lon="4.73635">
        <ele>173</ele>
        <time>2017-07-31T09:27:17Z</time>
      </trkpt>
      <trkpt lat="45.92544" lon="4.73633">
        <ele>173</ele>
        <time>2017-07-31T09:27:19Z</time>
      </trkpt>
      <trkpt lat="45.92548" lon="4.73634">
        <ele>173</ele>
        <time>2017-07-31T09:27:20Z</time>
      </trkpt>
      <trkpt lat="45.92556" lon="4.73634">
        <ele>173</ele>
        <time>2017-07-31T09:27:22Z</time>
      </trkpt>
      <trkpt lat="45.9256" lon="4.73634">
        <ele>173</ele>
        <time>2017-07-31T09:27:23Z</time>
      </trkpt>
      <trkpt lat="45.92568" lon="4.73633">
        <ele>173</ele>
        <time>2017-07-31T09:27:25Z</time>
      </trkpt>
      <trkpt lat="45.92572" lon="4.73633">
        <ele>173</ele>
        <time>2017-07-31T09:27:26Z</time>
      </trkpt>
      <trkpt lat="45.92581" lon="4.73634">
        <ele>172</ele>
        <time>2017-07-31T09:27:28Z</time>
      </trkpt>
      <trkpt lat="45.92586" lon="4.73629">
        <ele>172</ele>
        <time>2017-07-31T09:27:29Z</time>
      </trkpt>
      <trkpt lat="45.92594" lon="4.73628">
        <ele>172</ele>
        <time>2017-07-31T09:27:31Z</time>
      </trkpt>
      <trkpt lat="45.92598" lon="4.73628">
        <ele>173</ele>
        <time>2017-07-31T09:27:32Z</time>
      </trkpt>
      <trkpt lat="45.92606" lon="4.73624">
        <ele>173</ele>
        <time>2017-07-31T09:27:34Z</time>
      </trkpt>
      <trkpt lat="45.92609" lon="4.73624">
        <ele>173</ele>
        <time>2017-07-31T09:27:35Z</time>
      </trkpt>
      <trkpt lat="45.92616" lon="4.73631">
        <ele>173</ele>
        <time>2017-07-31T09:27:38Z</time>
      </trkpt>
      <trkpt lat="45.92618" lon="4.73636">
        <ele>173</ele>
        <time>2017-07-31T09:27:39Z</time>
      </trkpt>
      <trkpt lat="45.92622" lon="4.73647">
        <ele>173</ele>
        <time>2017-07-31T09:27:41Z</time>
      </trkpt>
      <trkpt lat="45.92625" lon="4.73652">
        <ele>173</ele>
        <time>2017-07-31T09:27:42Z</time>
      </trkpt>
      <trkpt lat="45.92627" lon="4.73657">
        <ele>173</ele>
        <time>2017-07-31T09:27:43Z</time>
      </trkpt>
      <trkpt lat="45.9263" lon="4.73663">
        <ele>173</ele>
        <time>2017-07-31T09:27:44Z</time>
      </trkpt>
      <trkpt lat="45.92633" lon="4.73668">
        <ele>173</ele>
        <time>2017-07-31T09:27:45Z</time>
      </trkpt>
      <trkpt lat="45.92637" lon="4.73673">
        <ele>173</ele>
        <time>2017-07-31T09:27:46Z</time>
      </trkpt>
      <trkpt lat="45.92642" lon="4.73678">
        <ele>173</ele>
        <time>2017-07-31T09:27:47Z</time>
      </trkpt>
      <trkpt lat="45.92647" lon="4.73682">
        <ele>173</ele>
        <time>2017-07-31T09:27:48Z</time>
      </trkpt>
      <trkpt lat="45.92652" lon="4.73686">
        <ele>173</ele>
        <time>2017-07-31T09:27:49Z</time>
      </trkpt>
      <trkpt lat="45.92657" lon="4.73689">
        <ele>173</ele>
        <time>2017-07-31T09:27:50Z</time>
      </trkpt>
      <trkpt lat="45.92663" lon="4.73693">
        <ele>173</ele>
        <time>2017-07-31T09:27:51Z</time>
      </trkpt>
      <trkpt lat="45.9267" lon="4.73696">
        <ele>174</ele>
        <time>2017-07-31T09:27:52Z</time>
      </trkpt>
      <trkpt lat="45.92676" lon="4.73698">
        <ele>174</ele>
        <time>2017-07-31T09:27:53Z</time>
      </trkpt>
      <trkpt lat="45.92681" lon="4.737">
        <ele>173</ele>
        <time>2017-07-31T09:27:54Z</time>
      </trkpt>
      <trkpt lat="45.92686" lon="4.73703">
        <ele>173</ele>
        <time>2017-07-31T09:27:55Z</time>
      </trkpt>
      <trkpt lat="45.92691" lon="4.73705">
        <ele>173</ele>
        <time>2017-07-31T09:27:56Z</time>
      </trkpt>
      <trkpt lat="45.92697" lon="4.73707">
        <ele>173</ele>
        <time>2017-07-31T09:27:57Z</time>
      </trkpt>
      <trkpt lat="45.92702" lon="4.73709">
        <ele>173</ele>
        <time>2017-07-31T09:27:58Z</time>
      </trkpt>
      <trkpt lat="45.92711" lon="4.73712">
        <ele>173</ele>
        <time>2017-07-31T09:28:00Z</time>
      </trkpt>
      <trkpt lat="45.92715" lon="4.73714">
        <ele>173</ele>
        <time>2017-07-31T09:28:01Z</time>
      </trkpt>
      <trkpt lat="45.92719" lon="4.73715">
        <ele>173</ele>
        <time>2017-07-31T09:28:02Z</time>
      </trkpt>
      <trkpt lat="45.92724" lon="4.73717">
        <ele>173</ele>
        <time>2017-07-31T09:28:03Z</time>
      </trkpt>
      <trkpt lat="45.92729" lon="4.73718">
        <ele>173</ele>
        <time>2017-07-31T09:28:04Z</time>
      </trkpt>
      <trkpt lat="45.92733" lon="4.73719">
        <ele>173</ele>
        <time>2017-07-31T09:28:05Z</time>
      </trkpt>
      <trkpt lat="45.92738" lon="4.73721">
        <ele>173</ele>
        <time>2017-07-31T09:28:06Z</time>
      </trkpt>
      <trkpt lat="45.92744" lon="4.73723">
        <ele>173</ele>
        <time>2017-07-31T09:28:07Z</time>
      </trkpt>
      <trkpt lat="45.92749" lon="4.73724">
        <ele>173</ele>
        <time>2017-07-31T09:28:08Z</time>
      </trkpt>
      <trkpt lat="45.92752" lon="4.73726">
        <ele>172</ele>
        <time>2017-07-31T09:28:09Z</time>
      </trkpt>
      <trkpt lat="45.9276" lon="4.73728">
        <ele>172</ele>
        <time>2017-07-31T09:28:11Z</time>
      </trkpt>
      <trkpt lat="45.92763" lon="4.73731">
        <ele>172</ele>
        <time>2017-07-31T09:28:12Z</time>
      </trkpt>
      <trkpt lat="45.92767" lon="4.73734">
        <ele>172</ele>
        <time>2017-07-31T09:28:13Z</time>
      </trkpt>
      <trkpt lat="45.92771" lon="4.73736">
        <ele>172</ele>
        <time>2017-07-31T09:28:14Z</time>
      </trkpt>
      <trkpt lat="45.92779" lon="4.73739">
        <ele>172</ele>
        <time>2017-07-31T09:28:17Z</time>
      </trkpt>
      <trkpt lat="45.9278" lon="4.73741">
        <ele>172</ele>
        <time>2017-07-31T09:28:18Z</time>
      </trkpt>
      <trkpt lat="45.92778" lon="4.73753">
        <ele>173</ele>
        <time>2017-07-31T09:28:22Z</time>
      </trkpt>
      <trkpt lat="45.92781" lon="4.73758">
        <ele>173</ele>
        <time>2017-07-31T09:28:23Z</time>
      </trkpt>
      <trkpt lat="45.92788" lon="4.73757">
        <ele>173</ele>
        <time>2017-07-31T09:28:25Z</time>
      </trkpt>
      <trkpt lat="45.92793" lon="4.7376">
        <ele>173</ele>
        <time>2017-07-31T09:28:26Z</time>
      </trkpt>
      <trkpt lat="45.92798" lon="4.73763">
        <ele>173</ele>
        <time>2017-07-31T09:28:27Z</time>
      </trkpt>
      <trkpt lat="45.92802" lon="4.73766">
        <ele>173</ele>
        <time>2017-07-31T09:28:28Z</time>
      </trkpt>
      <trkpt lat="45.92808" lon="4.73769">
        <ele>173</ele>
        <time>2017-07-31T09:28:29Z</time>
      </trkpt>
      <trkpt lat="45.92814" lon="4.73772">
        <ele>173</ele>
        <time>2017-07-31T09:28:30Z</time>
      </trkpt>
      <trkpt lat="45.92819" lon="4.73776">
        <ele>173</ele>
        <time>2017-07-31T09:28:31Z</time>
      </trkpt>
      <trkpt lat="45.92824" lon="4.7378">
        <ele>173</ele>
        <time>2017-07-31T09:28:32Z</time>
      </trkpt>
      <trkpt lat="45.92829" lon="4.73784">
        <ele>173</ele>
        <time>2017-07-31T09:28:33Z</time>
      </trkpt>
      <trkpt lat="45.92835" lon="4.73788">
        <ele>173</ele>
        <time>2017-07-31T09:28:34Z</time>
      </trkpt>
      <trkpt lat="45.92839" lon="4.73791">
        <ele>173</ele>
        <time>2017-07-31T09:28:35Z</time>
      </trkpt>
      <trkpt lat="45.92844" lon="4.73796">
        <ele>173</ele>
        <time>2017-07-31T09:28:36Z</time>
      </trkpt>
      <trkpt lat="45.92847" lon="4.73801">
        <ele>173</ele>
        <time>2017-07-31T09:28:37Z</time>
      </trkpt>
      <trkpt lat="45.9285" lon="4.73808">
        <ele>173</ele>
        <time>2017-07-31T09:28:38Z</time>
      </trkpt>
      <trkpt lat="45.92852" lon="4.73815">
        <ele>173</ele>
        <time>2017-07-31T09:28:39Z</time>
      </trkpt>
      <trkpt lat="45.92854" lon="4.7382">
        <ele>173</ele>
        <time>2017-07-31T09:28:40Z</time>
      </trkpt>
      <trkpt lat="45.92857" lon="4.73827">
        <ele>173</ele>
        <time>2017-07-31T09:28:41Z</time>
      </trkpt>
      <trkpt lat="45.9286" lon="4.73834">
        <ele>173</ele>
        <time>2017-07-31T09:28:42Z</time>
      </trkpt>
      <trkpt lat="45.92863" lon="4.73841">
        <ele>173</ele>
        <time>2017-07-31T09:28:43Z</time>
      </trkpt>
      <trkpt lat="45.92864" lon="4.73848">
        <ele>173</ele>
        <time>2017-07-31T09:28:44Z</time>
      </trkpt>
      <trkpt lat="45.92866" lon="4.73854">
        <ele>173</ele>
        <time>2017-07-31T09:28:45Z</time>
      </trkpt>
      <trkpt lat="45.92868" lon="4.7386">
        <ele>173</ele>
        <time>2017-07-31T09:28:46Z</time>
      </trkpt>
      <trkpt lat="45.9287" lon="4.73868">
        <ele>173</ele>
        <time>2017-07-31T09:28:47Z</time>
      </trkpt>
      <trkpt lat="45.92873" lon="4.73875">
        <ele>173</ele>
        <time>2017-07-31T09:28:48Z</time>
      </trkpt>
      <trkpt lat="45.92876" lon="4.73884">
        <ele>173</ele>
        <time>2017-07-31T09:28:49Z</time>
      </trkpt>
      <trkpt lat="45.92878" lon="4.73892">
        <ele>173</ele>
        <time>2017-07-31T09:28:50Z</time>
      </trkpt>
      <trkpt lat="45.9288" lon="4.73899">
        <ele>173</ele>
        <time>2017-07-31T09:28:51Z</time>
      </trkpt>
      <trkpt lat="45.92881" lon="4.73907">
        <ele>173</ele>
        <time>2017-07-31T09:28:52Z</time>
      </trkpt>
      <trkpt lat="45.92881" lon="4.73915">
        <ele>173</ele>
        <time>2017-07-31T09:28:53Z</time>
      </trkpt>
      <trkpt lat="45.92881" lon="4.73922">
        <ele>172</ele>
        <time>2017-07-31T09:28:54Z</time>
      </trkpt>
      <trkpt lat="45.9288" lon="4.7393">
        <ele>172</ele>
        <time>2017-07-31T09:28:55Z</time>
      </trkpt>
      <trkpt lat="45.9288" lon="4.73938">
        <ele>172</ele>
        <time>2017-07-31T09:28:56Z</time>
      </trkpt>
      <trkpt lat="45.92876" lon="4.73945">
        <ele>172</ele>
        <time>2017-07-31T09:28:57Z</time>
      </trkpt>
      <trkpt lat="45.92877" lon="4.73952">
        <ele>172</ele>
        <time>2017-07-31T09:28:58Z</time>
      </trkpt>
      <trkpt lat="45.92877" lon="4.73959">
        <ele>172</ele>
        <time>2017-07-31T09:28:59Z</time>
      </trkpt>
      <trkpt lat="45.92877" lon="4.73968">
        <ele>172</ele>
        <time>2017-07-31T09:29:00Z</time>
      </trkpt>
      <trkpt lat="45.92877" lon="4.73975">
        <ele>172</ele>
        <time>2017-07-31T09:29:01Z</time>
      </trkpt>
      <trkpt lat="45.92876" lon="4.73981">
        <ele>172</ele>
        <time>2017-07-31T09:29:02Z</time>
      </trkpt>
      <trkpt lat="45.92869" lon="4.73987">
        <ele>173</ele>
        <time>2017-07-31T09:29:04Z</time>
      </trkpt>
      <trkpt lat="45.92867" lon="4.73993">
        <ele>173</ele>
        <time>2017-07-31T09:29:05Z</time>
      </trkpt>
      <trkpt lat="45.92866" lon="4.73999">
        <ele>173</ele>
        <time>2017-07-31T09:29:06Z</time>
      </trkpt>
      <trkpt lat="45.92864" lon="4.74006">
        <ele>172</ele>
        <time>2017-07-31T09:29:07Z</time>
      </trkpt>
      <trkpt lat="45.92864" lon="4.74015">
        <ele>172</ele>
        <time>2017-07-31T09:29:08Z</time>
      </trkpt>
      <trkpt lat="45.92868" lon="4.74024">
        <ele>172</ele>
        <time>2017-07-31T09:29:09Z</time>
      </trkpt>
      <trkpt lat="45.92872" lon="4.7403">
        <ele>172</ele>
        <time>2017-07-31T09:29:10Z</time>
      </trkpt>
      <trkpt lat="45.92876" lon="4.74034">
        <ele>172</ele>
        <time>2017-07-31T09:29:11Z</time>
      </trkpt>
      <trkpt lat="45.92881" lon="4.74037">
        <ele>172</ele>
        <time>2017-07-31T09:29:12Z</time>
      </trkpt>
      <trkpt lat="45.92886" lon="4.7404">
        <ele>172</ele>
        <time>2017-07-31T09:29:13Z</time>
      </trkpt>
      <trkpt lat="45.9289" lon="4.74043">
        <ele>172</ele>
        <time>2017-07-31T09:29:14Z</time>
      </trkpt>
      <trkpt lat="45.92893" lon="4.74047">
        <ele>172</ele>
        <time>2017-07-31T09:29:15Z</time>
      </trkpt>
      <trkpt lat="45.92898" lon="4.74057">
        <ele>172</ele>
        <time>2017-07-31T09:29:17Z</time>
      </trkpt>
      <trkpt lat="45.929" lon="4.74063">
        <ele>172</ele>
        <time>2017-07-31T09:29:18Z</time>
      </trkpt>
      <trkpt lat="45.92903" lon="4.74074">
        <ele>173</ele>
        <time>2017-07-31T09:29:20Z</time>
      </trkpt>
      <trkpt lat="45.92903" lon="4.74079">
        <ele>173</ele>
        <time>2017-07-31T09:29:21Z</time>
      </trkpt>
      <trkpt lat="45.929" lon="4.74089">
        <ele>172</ele>
        <time>2017-07-31T09:29:23Z</time>
      </trkpt>
      <trkpt lat="45.92898" lon="4.74093">
        <ele>172</ele>
        <time>2017-07-31T09:29:24Z</time>
      </trkpt>
      <trkpt lat="45.92894" lon="4.74099">
        <ele>172</ele>
        <time>2017-07-31T09:29:26Z</time>
      </trkpt>
      <trkpt lat="45.92892" lon="4.74102">
        <ele>172</ele>
        <time>2017-07-31T09:29:27Z</time>
      </trkpt>
      <trkpt lat="45.92886" lon="4.74108">
        <ele>172</ele>
        <time>2017-07-31T09:29:29Z</time>
      </trkpt>
      <trkpt lat="45.92883" lon="4.74112">
        <ele>172</ele>
        <time>2017-07-31T09:29:30Z</time>
      </trkpt>
      <trkpt lat="45.92878" lon="4.7412">
        <ele>172</ele>
        <time>2017-07-31T09:29:32Z</time>
      </trkpt>
      <trkpt lat="45.92877" lon="4.74124">
        <ele>172</ele>
        <time>2017-07-31T09:29:33Z</time>
      </trkpt>
      <trkpt lat="45.92875" lon="4.74134">
        <ele>172</ele>
        <time>2017-07-31T09:29:35Z</time>
      </trkpt>
      <trkpt lat="45.92875" lon="4.74139">
        <ele>172</ele>
        <time>2017-07-31T09:29:36Z</time>
      </trkpt>
      <trkpt lat="45.92876" lon="4.7415">
        <ele>172</ele>
        <time>2017-07-31T09:29:38Z</time>
      </trkpt>
      <trkpt lat="45.92878" lon="4.74154">
        <ele>172</ele>
        <time>2017-07-31T09:29:39Z</time>
      </trkpt>
      <trkpt lat="45.92883" lon="4.74163">
        <ele>172</ele>
        <time>2017-07-31T09:29:41Z</time>
      </trkpt>
      <trkpt lat="45.92887" lon="4.74167">
        <ele>171</ele>
        <time>2017-07-31T09:29:42Z</time>
      </trkpt>
      <trkpt lat="45.92892" lon="4.74171">
        <ele>171</ele>
        <time>2017-07-31T09:29:44Z</time>
      </trkpt>
      <trkpt lat="45.92896" lon="4.74173">
        <ele>172</ele>
        <time>2017-07-31T09:29:45Z</time>
      </trkpt>
      <trkpt lat="45.92904" lon="4.74178">
        <ele>172</ele>
        <time>2017-07-31T09:29:47Z</time>
      </trkpt>
      <trkpt lat="45.92908" lon="4.7418">
        <ele>172</ele>
        <time>2017-07-31T09:29:48Z</time>
      </trkpt>
      <trkpt lat="45.92915" lon="4.74186">
        <ele>172</ele>
        <time>2017-07-31T09:29:50Z</time>
      </trkpt>
      <trkpt lat="45.92918" lon="4.74188">
        <ele>171</ele>
        <time>2017-07-31T09:29:51Z</time>
      </trkpt>
      <trkpt lat="45.92925" lon="4.74192">
        <ele>171</ele>
        <time>2017-07-31T09:29:53Z</time>
      </trkpt>
      <trkpt lat="45.92928" lon="4.74194">
        <ele>170</ele>
        <time>2017-07-31T09:29:54Z</time>
      </trkpt>
      <trkpt lat="45.92934" lon="4.74197">
        <ele>170</ele>
        <time>2017-07-31T09:29:56Z</time>
      </trkpt>
      <trkpt lat="45.92937" lon="4.74198">
        <ele>170</ele>
        <time>2017-07-31T09:29:57Z</time>
      </trkpt>
      <trkpt lat="45.92944" lon="4.74201">
        <ele>170</ele>
        <time>2017-07-31T09:29:59Z</time>
      </trkpt>
      <trkpt lat="45.92948" lon="4.74203">
        <ele>170</ele>
        <time>2017-07-31T09:30:00Z</time>
      </trkpt>
      <trkpt lat="45.92957" lon="4.74204">
        <ele>170</ele>
        <time>2017-07-31T09:30:02Z</time>
      </trkpt>
      <trkpt lat="45.92961" lon="4.74202">
        <ele>170</ele>
        <time>2017-07-31T09:30:03Z</time>
      </trkpt>
      <trkpt lat="45.92968" lon="4.74193">
        <ele>170</ele>
        <time>2017-07-31T09:30:05Z</time>
      </trkpt>
      <trkpt lat="45.9297" lon="4.74188">
        <ele>170</ele>
        <time>2017-07-31T09:30:06Z</time>
      </trkpt>
      <trkpt lat="45.92973" lon="4.74182">
        <ele>170</ele>
        <time>2017-07-31T09:30:07Z</time>
      </trkpt>
      <trkpt lat="45.92976" lon="4.74175">
        <ele>170</ele>
        <time>2017-07-31T09:30:08Z</time>
      </trkpt>
      <trkpt lat="45.92979" lon="4.74168">
        <ele>170</ele>
        <time>2017-07-31T09:30:09Z</time>
      </trkpt>
      <trkpt lat="45.92982" lon="4.7416">
        <ele>170</ele>
        <time>2017-07-31T09:30:10Z</time>
      </trkpt>
      <trkpt lat="45.92983" lon="4.74152">
        <ele>170</ele>
        <time>2017-07-31T09:30:11Z</time>
      </trkpt>
      <trkpt lat="45.92986" lon="4.74143">
        <ele>171</ele>
        <time>2017-07-31T09:30:12Z</time>
      </trkpt>
      <trkpt lat="45.92988" lon="4.74134">
        <ele>171</ele>
        <time>2017-07-31T09:30:13Z</time>
      </trkpt>
      <trkpt lat="45.92991" lon="4.74124">
        <ele>171</ele>
        <time>2017-07-31T09:30:14Z</time>
      </trkpt>
      <trkpt lat="45.92994" lon="4.74114">
        <ele>171</ele>
        <time>2017-07-31T09:30:15Z</time>
      </trkpt>
      <trkpt lat="45.92995" lon="4.74103">
        <ele>171</ele>
        <time>2017-07-31T09:30:16Z</time>
      </trkpt>
      <trkpt lat="45.92996" lon="4.74091">
        <ele>171</ele>
        <time>2017-07-31T09:30:17Z</time>
      </trkpt>
      <trkpt lat="45.92995" lon="4.74079">
        <ele>171</ele>
        <time>2017-07-31T09:30:18Z</time>
      </trkpt>
      <trkpt lat="45.92995" lon="4.74066">
        <ele>171</ele>
        <time>2017-07-31T09:30:19Z</time>
      </trkpt>
      <trkpt lat="45.92995" lon="4.74055">
        <ele>171</ele>
        <time>2017-07-31T09:30:20Z</time>
      </trkpt>
      <trkpt lat="45.92996" lon="4.74045">
        <ele>171</ele>
        <time>2017-07-31T09:30:21Z</time>
      </trkpt>
      <trkpt lat="45.92997" lon="4.74033">
        <ele>171</ele>
        <time>2017-07-31T09:30:22Z</time>
      </trkpt>
      <trkpt lat="45.93" lon="4.74023">
        <ele>171</ele>
        <time>2017-07-31T09:30:23Z</time>
      </trkpt>
      <trkpt lat="45.93003" lon="4.74014">
        <ele>170</ele>
        <time>2017-07-31T09:30:24Z</time>
      </trkpt>
      <trkpt lat="45.93008" lon="4.74007">
        <ele>170</ele>
        <time>2017-07-31T09:30:25Z</time>
      </trkpt>
      <trkpt lat="45.93013" lon="4.74003">
        <ele>170</ele>
        <time>2017-07-31T09:30:26Z</time>
      </trkpt>
      <trkpt lat="45.9302" lon="4.73999">
        <ele>169</ele>
        <time>2017-07-31T09:30:27Z</time>
      </trkpt>
      <trkpt lat="45.93026" lon="4.73998">
        <ele>169</ele>
        <time>2017-07-31T09:30:28Z</time>
      </trkpt>
      <trkpt lat="45.93032" lon="4.73999">
        <ele>169</ele>
        <time>2017-07-31T09:30:29Z</time>
      </trkpt>
      <trkpt lat="45.93037" lon="4.73999">
        <ele>169</ele>
        <time>2017-07-31T09:30:30Z</time>
      </trkpt>
      <trkpt lat="45.93043" lon="4.74002">
        <ele>169</ele>
        <time>2017-07-31T09:30:31Z</time>
      </trkpt>
      <trkpt lat="45.93048" lon="4.74004">
        <ele>169</ele>
        <time>2017-07-31T09:30:32Z</time>
      </trkpt>
      <trkpt lat="45.93053" lon="4.74006">
        <ele>169</ele>
        <time>2017-07-31T09:30:33Z</time>
      </trkpt>
      <trkpt lat="45.93057" lon="4.74008">
        <ele>169</ele>
        <time>2017-07-31T09:30:34Z</time>
      </trkpt>
      <trkpt lat="45.93062" lon="4.74011">
        <ele>169</ele>
        <time>2017-07-31T09:30:35Z</time>
      </trkpt>
      <trkpt lat="45.9307" lon="4.74015">
        <ele>169</ele>
        <time>2017-07-31T09:30:37Z</time>
      </trkpt>
      <trkpt lat="45.93074" lon="4.74016">
        <ele>169</ele>
        <time>2017-07-31T09:30:38Z</time>
      </trkpt>
      <trkpt lat="45.93079" lon="4.74017">
        <ele>169</ele>
        <time>2017-07-31T09:30:39Z</time>
      </trkpt>
      <trkpt lat="45.93083" lon="4.74018">
        <ele>169</ele>
        <time>2017-07-31T09:30:40Z</time>
      </trkpt>
      <trkpt lat="45.93088" lon="4.74019">
        <ele>168</ele>
        <time>2017-07-31T09:30:41Z</time>
      </trkpt>
      <trkpt lat="45.93094" lon="4.7402">
        <ele>168</ele>
        <time>2017-07-31T09:30:42Z</time>
      </trkpt>
      <trkpt lat="45.93099" lon="4.74021">
        <ele>168</ele>
        <time>2017-07-31T09:30:43Z</time>
      </trkpt>
      <trkpt lat="45.93104" lon="4.74023">
        <ele>168</ele>
        <time>2017-07-31T09:30:44Z</time>
      </trkpt>
      <trkpt lat="45.9311" lon="4.74025">
        <ele>168</ele>
        <time>2017-07-31T09:30:45Z</time>
      </trkpt>
      <trkpt lat="45.93115" lon="4.74027">
        <ele>168</ele>
        <time>2017-07-31T09:30:46Z</time>
      </trkpt>
      <trkpt lat="45.93121" lon="4.7403">
        <ele>168</ele>
        <time>2017-07-31T09:30:47Z</time>
      </trkpt>
      <trkpt lat="45.93126" lon="4.74032">
        <ele>168</ele>
        <time>2017-07-31T09:30:48Z</time>
      </trkpt>
      <trkpt lat="45.93139" lon="4.74029">
        <ele>168</ele>
        <time>2017-07-31T09:30:49Z</time>
      </trkpt>
      <trkpt lat="45.93143" lon="4.74034">
        <ele>168</ele>
        <time>2017-07-31T09:30:50Z</time>
      </trkpt>
      <trkpt lat="45.93149" lon="4.74039">
        <ele>168</ele>
        <time>2017-07-31T09:30:51Z</time>
      </trkpt>
      <trkpt lat="45.93154" lon="4.74043">
        <ele>168</ele>
        <time>2017-07-31T09:30:52Z</time>
      </trkpt>
      <trkpt lat="45.93159" lon="4.74046">
        <ele>168</ele>
        <time>2017-07-31T09:30:53Z</time>
      </trkpt>
      <trkpt lat="45.93164" lon="4.74047">
        <ele>168</ele>
        <time>2017-07-31T09:30:54Z</time>
      </trkpt>
      <trkpt lat="45.93168" lon="4.74051">
        <ele>168</ele>
        <time>2017-07-31T09:30:55Z</time>
      </trkpt>
      <trkpt lat="45.93173" lon="4.74054">
        <ele>168</ele>
        <time>2017-07-31T09:30:56Z</time>
      </trkpt>
      <trkpt lat="45.93177" lon="4.74058">
        <ele>168</ele>
        <time>2017-07-31T09:30:57Z</time>
      </trkpt>
      <trkpt lat="45.93182" lon="4.74062">
        <ele>168</ele>
        <time>2017-07-31T09:30:58Z</time>
      </trkpt>
      <trkpt lat="45.93187" lon="4.74066">
        <ele>168</ele>
        <time>2017-07-31T09:30:59Z</time>
      </trkpt>
      <trkpt lat="45.93191" lon="4.7407">
        <ele>168</ele>
        <time>2017-07-31T09:31:00Z</time>
      </trkpt>
      <trkpt lat="45.93195" lon="4.74075">
        <ele>168</ele>
        <time>2017-07-31T09:31:01Z</time>
      </trkpt>
      <trkpt lat="45.932" lon="4.74079">
        <ele>168</ele>
        <time>2017-07-31T09:31:02Z</time>
      </trkpt>
      <trkpt lat="45.93205" lon="4.74083">
        <ele>168</ele>
        <time>2017-07-31T09:31:03Z</time>
      </trkpt>
      <trkpt lat="45.93209" lon="4.74087">
        <ele>167</ele>
        <time>2017-07-31T09:31:04Z</time>
      </trkpt>
      <trkpt lat="45.93214" lon="4.74092">
        <ele>167</ele>
        <time>2017-07-31T09:31:05Z</time>
      </trkpt>
      <trkpt lat="45.93218" lon="4.74095">
        <ele>167</ele>
        <time>2017-07-31T09:31:06Z</time>
      </trkpt>
      <trkpt lat="45.93222" lon="4.74099">
        <ele>167</ele>
        <time>2017-07-31T09:31:07Z</time>
      </trkpt>
      <trkpt lat="45.93226" lon="4.74102">
        <ele>167</ele>
        <time>2017-07-31T09:31:08Z</time>
      </trkpt>
      <trkpt lat="45.93231" lon="4.74103">
        <ele>167</ele>
        <time>2017-07-31T09:31:09Z</time>
      </trkpt>
      <trkpt lat="45.93238" lon="4.74102">
        <ele>167</ele>
        <time>2017-07-31T09:31:11Z</time>
      </trkpt>
      <trkpt lat="45.93242" lon="4.741">
        <ele>167</ele>
        <time>2017-07-31T09:31:12Z</time>
      </trkpt>
      <trkpt lat="45.93246" lon="4.74097">
        <ele>167</ele>
        <time>2017-07-31T09:31:13Z</time>
      </trkpt>
      <trkpt lat="45.9325" lon="4.74093">
        <ele>167</ele>
        <time>2017-07-31T09:31:14Z</time>
      </trkpt>
      <trkpt lat="45.93253" lon="4.74088">
        <ele>167</ele>
        <time>2017-07-31T09:31:15Z</time>
      </trkpt>
      <trkpt lat="45.93255" lon="4.74083">
        <ele>167</ele>
        <time>2017-07-31T09:31:16Z</time>
      </trkpt>
      <trkpt lat="45.93258" lon="4.74077">
        <ele>167</ele>
        <time>2017-07-31T09:31:17Z</time>
      </trkpt>
      <trkpt lat="45.93261" lon="4.74071">
        <ele>167</ele>
        <time>2017-07-31T09:31:18Z</time>
      </trkpt>
      <trkpt lat="45.93263" lon="4.74066">
        <ele>167</ele>
        <time>2017-07-31T09:31:19Z</time>
      </trkpt>
      <trkpt lat="45.93266" lon="4.74061">
        <ele>168</ele>
        <time>2017-07-31T09:31:20Z</time>
      </trkpt>
      <trkpt lat="45.93268" lon="4.74054">
        <ele>168</ele>
        <time>2017-07-31T09:31:21Z</time>
      </trkpt>
      <trkpt lat="45.9327" lon="4.74049">
        <ele>168</ele>
        <time>2017-07-31T09:31:22Z</time>
      </trkpt>
      <trkpt lat="45.93274" lon="4.7404">
        <ele>168</ele>
        <time>2017-07-31T09:31:24Z</time>
      </trkpt>
      <trkpt lat="45.93276" lon="4.74036">
        <ele>168</ele>
        <time>2017-07-31T09:31:25Z</time>
      </trkpt>
      <trkpt lat="45.9328" lon="4.74027">
        <ele>168</ele>
        <time>2017-07-31T09:31:27Z</time>
      </trkpt>
      <trkpt lat="45.93283" lon="4.74023">
        <ele>168</ele>
        <time>2017-07-31T09:31:28Z</time>
      </trkpt>
      <trkpt lat="45.93288" lon="4.74013">
        <ele>168</ele>
        <time>2017-07-31T09:31:30Z</time>
      </trkpt>
      <trkpt lat="45.9329" lon="4.74008">
        <ele>168</ele>
        <time>2017-07-31T09:31:31Z</time>
      </trkpt>
      <trkpt lat="45.93295" lon="4.73997">
        <ele>168</ele>
        <time>2017-07-31T09:31:33Z</time>
      </trkpt>
      <trkpt lat="45.93297" lon="4.73992">
        <ele>168</ele>
        <time>2017-07-31T09:31:34Z</time>
      </trkpt>
      <trkpt lat="45.933" lon="4.73986">
        <ele>168</ele>
        <time>2017-07-31T09:31:35Z</time>
      </trkpt>
      <trkpt lat="45.93303" lon="4.73981">
        <ele>168</ele>
        <time>2017-07-31T09:31:36Z</time>
      </trkpt>
      <trkpt lat="45.93306" lon="4.73975">
        <ele>168</ele>
        <time>2017-07-31T09:31:37Z</time>
      </trkpt>
      <trkpt lat="45.93309" lon="4.73968">
        <ele>168</ele>
        <time>2017-07-31T09:31:38Z</time>
      </trkpt>
      <trkpt lat="45.93312" lon="4.73962">
        <ele>168</ele>
        <time>2017-07-31T09:31:39Z</time>
      </trkpt>
      <trkpt lat="45.93315" lon="4.73956">
        <ele>168</ele>
        <time>2017-07-31T09:31:40Z</time>
      </trkpt>
      <trkpt lat="45.93318" lon="4.73951">
        <ele>168</ele>
        <time>2017-07-31T09:31:41Z</time>
      </trkpt>
      <trkpt lat="45.93321" lon="4.73946">
        <ele>168</ele>
        <time>2017-07-31T09:31:42Z</time>
      </trkpt>
      <trkpt lat="45.93326" lon="4.73936">
        <ele>168</ele>
        <time>2017-07-31T09:31:44Z</time>
      </trkpt>
      <trkpt lat="45.93328" lon="4.73931">
        <ele>168</ele>
        <time>2017-07-31T09:31:45Z</time>
      </trkpt>
      <trkpt lat="45.93333" lon="4.73923">
        <ele>168</ele>
        <time>2017-07-31T09:31:47Z</time>
      </trkpt>
      <trkpt lat="45.93335" lon="4.73918">
        <ele>168</ele>
        <time>2017-07-31T09:31:48Z</time>
      </trkpt>
      <trkpt lat="45.93338" lon="4.73913">
        <ele>168</ele>
        <time>2017-07-31T09:31:49Z</time>
      </trkpt>
      <trkpt lat="45.93341" lon="4.73908">
        <ele>168</ele>
        <time>2017-07-31T09:31:50Z</time>
      </trkpt>
      <trkpt lat="45.93345" lon="4.73902">
        <ele>168</ele>
        <time>2017-07-31T09:31:51Z</time>
      </trkpt>
      <trkpt lat="45.93348" lon="4.73897">
        <ele>168</ele>
        <time>2017-07-31T09:31:52Z</time>
      </trkpt>
      <trkpt lat="45.93353" lon="4.73887">
        <ele>168</ele>
        <time>2017-07-31T09:31:54Z</time>
      </trkpt>
      <trkpt lat="45.93356" lon="4.73882">
        <ele>168</ele>
        <time>2017-07-31T09:31:55Z</time>
      </trkpt>
      <trkpt lat="45.93362" lon="4.73876">
        <ele>168</ele>
        <time>2017-07-31T09:31:57Z</time>
      </trkpt>
      <trkpt lat="45.93365" lon="4.73873">
        <ele>169</ele>
        <time>2017-07-31T09:31:58Z</time>
      </trkpt>
      <trkpt lat="45.93372" lon="4.73866">
        <ele>169</ele>
        <time>2017-07-31T09:32:00Z</time>
      </trkpt>
      <trkpt lat="45.93376" lon="4.73862">
        <ele>169</ele>
        <time>2017-07-31T09:32:01Z</time>
      </trkpt>
      <trkpt lat="45.9338" lon="4.73858">
        <ele>169</ele>
        <time>2017-07-31T09:32:02Z</time>
      </trkpt>
      <trkpt lat="45.93384" lon="4.73856">
        <ele>169</ele>
        <time>2017-07-31T09:32:03Z</time>
      </trkpt>
      <trkpt lat="45.93392" lon="4.73852">
        <ele>169</ele>
        <time>2017-07-31T09:32:05Z</time>
      </trkpt>
      <trkpt lat="45.93396" lon="4.7385">
        <ele>169</ele>
        <time>2017-07-31T09:32:06Z</time>
      </trkpt>
      <trkpt lat="45.93403" lon="4.73845">
        <ele>169</ele>
        <time>2017-07-31T09:32:08Z</time>
      </trkpt>
      <trkpt lat="45.93406" lon="4.73843">
        <ele>169</ele>
        <time>2017-07-31T09:32:09Z</time>
      </trkpt>
      <trkpt lat="45.93414" lon="4.73839">
        <ele>169</ele>
        <time>2017-07-31T09:32:11Z</time>
      </trkpt>
      <trkpt lat="45.93418" lon="4.73837">
        <ele>169</ele>
        <time>2017-07-31T09:32:12Z</time>
      </trkpt>
      <trkpt lat="45.93426" lon="4.73833">
        <ele>169</ele>
        <time>2017-07-31T09:32:14Z</time>
      </trkpt>
      <trkpt lat="45.9343" lon="4.73831">
        <ele>169</ele>
        <time>2017-07-31T09:32:15Z</time>
      </trkpt>
      <trkpt lat="45.93437" lon="4.73827">
        <ele>169</ele>
        <time>2017-07-31T09:32:17Z</time>
      </trkpt>
      <trkpt lat="45.9344" lon="4.73826">
        <ele>169</ele>
        <time>2017-07-31T09:32:18Z</time>
      </trkpt>
      <trkpt lat="45.93446" lon="4.73822">
        <ele>169</ele>
        <time>2017-07-31T09:32:20Z</time>
      </trkpt>
      <trkpt lat="45.9345" lon="4.73821">
        <ele>169</ele>
        <time>2017-07-31T09:32:21Z</time>
      </trkpt>
      <trkpt lat="45.93455" lon="4.73819">
        <ele>169</ele>
        <time>2017-07-31T09:32:22Z</time>
      </trkpt>
      <trkpt lat="45.9346" lon="4.73817">
        <ele>169</ele>
        <time>2017-07-31T09:32:23Z</time>
      </trkpt>
      <trkpt lat="45.93468" lon="4.73814">
        <ele>169</ele>
        <time>2017-07-31T09:32:25Z</time>
      </trkpt>
      <trkpt lat="45.93472" lon="4.73813">
        <ele>169</ele>
        <time>2017-07-31T09:32:26Z</time>
      </trkpt>
      <trkpt lat="45.93479" lon="4.73809">
        <ele>169</ele>
        <time>2017-07-31T09:32:28Z</time>
      </trkpt>
      <trkpt lat="45.93482" lon="4.73806">
        <ele>169</ele>
        <time>2017-07-31T09:32:29Z</time>
      </trkpt>
      <trkpt lat="45.93489" lon="4.73802">
        <ele>169</ele>
        <time>2017-07-31T09:32:31Z</time>
      </trkpt>
      <trkpt lat="45.93494" lon="4.738">
        <ele>169</ele>
        <time>2017-07-31T09:32:32Z</time>
      </trkpt>
      <trkpt lat="45.93498" lon="4.73798">
        <ele>169</ele>
        <time>2017-07-31T09:32:33Z</time>
      </trkpt>
      <trkpt lat="45.93502" lon="4.73795">
        <ele>169</ele>
        <time>2017-07-31T09:32:34Z</time>
      </trkpt>
      <trkpt lat="45.93506" lon="4.73792">
        <ele>169</ele>
        <time>2017-07-31T09:32:35Z</time>
      </trkpt>
      <trkpt lat="45.9351" lon="4.73789">
        <ele>169</ele>
        <time>2017-07-31T09:32:36Z</time>
      </trkpt>
      <trkpt lat="45.93516" lon="4.73783">
        <ele>169</ele>
        <time>2017-07-31T09:32:38Z</time>
      </trkpt>
      <trkpt lat="45.93519" lon="4.73779">
        <ele>169</ele>
        <time>2017-07-31T09:32:39Z</time>
      </trkpt>
      <trkpt lat="45.93524" lon="4.73771">
        <ele>169</ele>
        <time>2017-07-31T09:32:41Z</time>
      </trkpt>
      <trkpt lat="45.93527" lon="4.73768">
        <ele>169</ele>
        <time>2017-07-31T09:32:42Z</time>
      </trkpt>
      <trkpt lat="45.93534" lon="4.73762">
        <ele>169</ele>
        <time>2017-07-31T09:32:44Z</time>
      </trkpt>
      <trkpt lat="45.93538" lon="4.73759">
        <ele>169</ele>
        <time>2017-07-31T09:32:45Z</time>
      </trkpt>
      <trkpt lat="45.93542" lon="4.73756">
        <ele>169</ele>
        <time>2017-07-31T09:32:46Z</time>
      </trkpt>
      <trkpt lat="45.93545" lon="4.73752">
        <ele>169</ele>
        <time>2017-07-31T09:32:47Z</time>
      </trkpt>
      <trkpt lat="45.93552" lon="4.73744">
        <ele>169</ele>
        <time>2017-07-31T09:32:49Z</time>
      </trkpt>
      <trkpt lat="45.93556" lon="4.7374">
        <ele>169</ele>
        <time>2017-07-31T09:32:50Z</time>
      </trkpt>
      <trkpt lat="45.9356" lon="4.73735">
        <ele>169</ele>
        <time>2017-07-31T09:32:51Z</time>
      </trkpt>
      <trkpt lat="45.93564" lon="4.73731">
        <ele>169</ele>
        <time>2017-07-31T09:32:52Z</time>
      </trkpt>
      <trkpt lat="45.93568" lon="4.73727">
        <ele>169</ele>
        <time>2017-07-31T09:32:53Z</time>
      </trkpt>
      <trkpt lat="45.93572" lon="4.73723">
        <ele>169</ele>
        <time>2017-07-31T09:32:54Z</time>
      </trkpt>
      <trkpt lat="45.93576" lon="4.73719">
        <ele>169</ele>
        <time>2017-07-31T09:32:55Z</time>
      </trkpt>
      <trkpt lat="45.93579" lon="4.73715">
        <ele>169</ele>
        <time>2017-07-31T09:32:56Z</time>
      </trkpt>
      <trkpt lat="45.93584" lon="4.73707">
        <ele>169</ele>
        <time>2017-07-31T09:32:58Z</time>
      </trkpt>
      <trkpt lat="45.93586" lon="4.73703">
        <ele>169</ele>
        <time>2017-07-31T09:32:59Z</time>
      </trkpt>
      <trkpt lat="45.93588" lon="4.73693">
        <ele>169</ele>
        <time>2017-07-31T09:33:01Z</time>
      </trkpt>
      <trkpt lat="45.93589" lon="4.73687">
        <ele>169</ele>
        <time>2017-07-31T09:33:02Z</time>
      </trkpt>
      <trkpt lat="45.93589" lon="4.7368">
        <ele>169</ele>
        <time>2017-07-31T09:33:03Z</time>
      </trkpt>
      <trkpt lat="45.93589" lon="4.73673">
        <ele>168</ele>
        <time>2017-07-31T09:33:04Z</time>
      </trkpt>
      <trkpt lat="45.93589" lon="4.73666">
        <ele>168</ele>
        <time>2017-07-31T09:33:05Z</time>
      </trkpt>
      <trkpt lat="45.93589" lon="4.73659">
        <ele>168</ele>
        <time>2017-07-31T09:33:06Z</time>
      </trkpt>
      <trkpt lat="45.93588" lon="4.73652">
        <ele>168</ele>
        <time>2017-07-31T09:33:07Z</time>
      </trkpt>
      <trkpt lat="45.93587" lon="4.73644">
        <ele>168</ele>
        <time>2017-07-31T09:33:08Z</time>
      </trkpt>
      <trkpt lat="45.93587" lon="4.73637">
        <ele>168</ele>
        <time>2017-07-31T09:33:09Z</time>
      </trkpt>
      <trkpt lat="45.93586" lon="4.7363">
        <ele>168</ele>
        <time>2017-07-31T09:33:10Z</time>
      </trkpt>
      <trkpt lat="45.93585" lon="4.73618">
        <ele>168</ele>
        <time>2017-07-31T09:33:12Z</time>
      </trkpt>
      <trkpt lat="45.93585" lon="4.73612">
        <ele>168</ele>
        <time>2017-07-31T09:33:13Z</time>
      </trkpt>
      <trkpt lat="45.93584" lon="4.736">
        <ele>168</ele>
        <time>2017-07-31T09:33:15Z</time>
      </trkpt>
      <trkpt lat="45.93584" lon="4.73594">
        <ele>168</ele>
        <time>2017-07-31T09:33:16Z</time>
      </trkpt>
      <trkpt lat="45.93584" lon="4.73587">
        <ele>168</ele>
        <time>2017-07-31T09:33:17Z</time>
      </trkpt>
      <trkpt lat="45.93583" lon="4.7358">
        <ele>168</ele>
        <time>2017-07-31T09:33:18Z</time>
      </trkpt>
      <trkpt lat="45.93582" lon="4.73573">
        <ele>168</ele>
        <time>2017-07-31T09:33:19Z</time>
      </trkpt>
      <trkpt lat="45.93582" lon="4.73566">
        <ele>168</ele>
        <time>2017-07-31T09:33:20Z</time>
      </trkpt>
      <trkpt lat="45.93581" lon="4.73553">
        <ele>168</ele>
        <time>2017-07-31T09:33:22Z</time>
      </trkpt>
      <trkpt lat="45.9358" lon="4.73547">
        <ele>168</ele>
        <time>2017-07-31T09:33:23Z</time>
      </trkpt>
      <trkpt lat="45.93577" lon="4.73535">
        <ele>168</ele>
        <time>2017-07-31T09:33:25Z</time>
      </trkpt>
      <trkpt lat="45.93576" lon="4.73529">
        <ele>168</ele>
        <time>2017-07-31T09:33:26Z</time>
      </trkpt>
      <trkpt lat="45.93572" lon="4.73523">
        <ele>168</ele>
        <time>2017-07-31T09:33:27Z</time>
      </trkpt>
      <trkpt lat="45.9357" lon="4.73517">
        <ele>168</ele>
        <time>2017-07-31T09:33:28Z</time>
      </trkpt>
      <trkpt lat="45.93566" lon="4.73505">
        <ele>168</ele>
        <time>2017-07-31T09:33:30Z</time>
      </trkpt>
      <trkpt lat="45.93565" lon="4.73499">
        <ele>169</ele>
        <time>2017-07-31T09:33:31Z</time>
      </trkpt>
      <trkpt lat="45.93564" lon="4.73492">
        <ele>169</ele>
        <time>2017-07-31T09:33:32Z</time>
      </trkpt>
      <trkpt lat="45.93563" lon="4.73485">
        <ele>169</ele>
        <time>2017-07-31T09:33:33Z</time>
      </trkpt>
      <trkpt lat="45.93561" lon="4.73478">
        <ele>169</ele>
        <time>2017-07-31T09:33:34Z</time>
      </trkpt>
      <trkpt lat="45.9356" lon="4.73471">
        <ele>169</ele>
        <time>2017-07-31T09:33:35Z</time>
      </trkpt>
      <trkpt lat="45.93558" lon="4.73465">
        <ele>169</ele>
        <time>2017-07-31T09:33:36Z</time>
      </trkpt>
      <trkpt lat="45.93556" lon="4.73459">
        <ele>169</ele>
        <time>2017-07-31T09:33:37Z</time>
      </trkpt>
      <trkpt lat="45.93552" lon="4.73448">
        <ele>169</ele>
        <time>2017-07-31T09:33:39Z</time>
      </trkpt>
      <trkpt lat="45.93551" lon="4.73443">
        <ele>169</ele>
        <time>2017-07-31T09:33:40Z</time>
      </trkpt>
      <trkpt lat="45.93549" lon="4.73432">
        <ele>169</ele>
        <time>2017-07-31T09:33:42Z</time>
      </trkpt>
      <trkpt lat="45.93547" lon="4.73428">
        <ele>169</ele>
        <time>2017-07-31T09:33:43Z</time>
      </trkpt>
      <trkpt lat="45.93544" lon="4.73419">
        <ele>169</ele>
        <time>2017-07-31T09:33:45Z</time>
      </trkpt>
      <trkpt lat="45.93542" lon="4.73414">
        <ele>169</ele>
        <time>2017-07-31T09:33:46Z</time>
      </trkpt>
      <trkpt lat="45.93539" lon="4.73402">
        <ele>169</ele>
        <time>2017-07-31T09:33:48Z</time>
      </trkpt>
      <trkpt lat="45.93539" lon="4.73395">
        <ele>169</ele>
        <time>2017-07-31T09:33:49Z</time>
      </trkpt>
      <trkpt lat="45.93538" lon="4.73389">
        <ele>169</ele>
        <time>2017-07-31T09:33:50Z</time>
      </trkpt>
      <trkpt lat="45.93537" lon="4.73382">
        <ele>169</ele>
        <time>2017-07-31T09:33:51Z</time>
      </trkpt>
      <trkpt lat="45.93536" lon="4.7337">
        <ele>169</ele>
        <time>2017-07-31T09:33:53Z</time>
      </trkpt>
      <trkpt lat="45.93535" lon="4.73364">
        <ele>169</ele>
        <time>2017-07-31T09:33:54Z</time>
      </trkpt>
      <trkpt lat="45.93534" lon="4.73353">
        <ele>169</ele>
        <time>2017-07-31T09:33:56Z</time>
      </trkpt>
      <trkpt lat="45.93533" lon="4.73348">
        <ele>169</ele>
        <time>2017-07-31T09:33:57Z</time>
      </trkpt>
      <trkpt lat="45.93531" lon="4.73338">
        <ele>169</ele>
        <time>2017-07-31T09:33:59Z</time>
      </trkpt>
      <trkpt lat="45.93529" lon="4.73332">
        <ele>169</ele>
        <time>2017-07-31T09:34:00Z</time>
      </trkpt>
      <trkpt lat="45.93528" lon="4.73326">
        <ele>169</ele>
        <time>2017-07-31T09:34:01Z</time>
      </trkpt>
      <trkpt lat="45.93527" lon="4.73319">
        <ele>169</ele>
        <time>2017-07-31T09:34:02Z</time>
      </trkpt>
      <trkpt lat="45.93526" lon="4.73313">
        <ele>169</ele>
        <time>2017-07-31T09:34:03Z</time>
      </trkpt>
      <trkpt lat="45.93525" lon="4.73306">
        <ele>169</ele>
        <time>2017-07-31T09:34:04Z</time>
      </trkpt>
      <trkpt lat="45.93523" lon="4.73296">
        <ele>169</ele>
        <time>2017-07-31T09:34:06Z</time>
      </trkpt>
      <trkpt lat="45.93523" lon="4.7329">
        <ele>169</ele>
        <time>2017-07-31T09:34:07Z</time>
      </trkpt>
      <trkpt lat="45.93522" lon="4.73279">
        <ele>169</ele>
        <time>2017-07-31T09:34:09Z</time>
      </trkpt>
      <trkpt lat="45.93522" lon="4.73274">
        <ele>169</ele>
        <time>2017-07-31T09:34:10Z</time>
      </trkpt>
      <trkpt lat="45.9352" lon="4.73266">
        <ele>169</ele>
        <time>2017-07-31T09:34:12Z</time>
      </trkpt>
      <trkpt lat="45.9352" lon="4.73261">
        <ele>169</ele>
        <time>2017-07-31T09:34:13Z</time>
      </trkpt>
      <trkpt lat="45.93517" lon="4.7325">
        <ele>169</ele>
        <time>2017-07-31T09:34:15Z</time>
      </trkpt>
      <trkpt lat="45.93515" lon="4.73244">
        <ele>169</ele>
        <time>2017-07-31T09:34:16Z</time>
      </trkpt>
      <trkpt lat="45.93514" lon="4.73232">
        <ele>169</ele>
        <time>2017-07-31T09:34:18Z</time>
      </trkpt>
      <trkpt lat="45.93513" lon="4.73225">
        <ele>169</ele>
        <time>2017-07-31T09:34:19Z</time>
      </trkpt>
      <trkpt lat="45.93513" lon="4.73218">
        <ele>169</ele>
        <time>2017-07-31T09:34:20Z</time>
      </trkpt>
      <trkpt lat="45.93511" lon="4.73211">
        <ele>169</ele>
        <time>2017-07-31T09:34:21Z</time>
      </trkpt>
      <trkpt lat="45.93511" lon="4.73204">
        <ele>169</ele>
        <time>2017-07-31T09:34:22Z</time>
      </trkpt>
      <trkpt lat="45.93509" lon="4.73197">
        <ele>169</ele>
        <time>2017-07-31T09:34:23Z</time>
      </trkpt>
      <trkpt lat="45.93507" lon="4.73191">
        <ele>169</ele>
        <time>2017-07-31T09:34:24Z</time>
      </trkpt>
      <trkpt lat="45.93504" lon="4.73185">
        <ele>169</ele>
        <time>2017-07-31T09:34:25Z</time>
      </trkpt>
      <trkpt lat="45.935" lon="4.73174">
        <ele>170</ele>
        <time>2017-07-31T09:34:27Z</time>
      </trkpt>
      <trkpt lat="45.93499" lon="4.73169">
        <ele>170</ele>
        <time>2017-07-31T09:34:28Z</time>
      </trkpt>
      <trkpt lat="45.93493" lon="4.73158">
        <ele>170</ele>
        <time>2017-07-31T09:34:30Z</time>
      </trkpt>
      <trkpt lat="45.93491" lon="4.73153">
        <ele>170</ele>
        <time>2017-07-31T09:34:31Z</time>
      </trkpt>
      <trkpt lat="45.93489" lon="4.73147">
        <ele>170</ele>
        <time>2017-07-31T09:34:32Z</time>
      </trkpt>
      <trkpt lat="45.93488" lon="4.73141">
        <ele>170</ele>
        <time>2017-07-31T09:34:33Z</time>
      </trkpt>
      <trkpt lat="45.93487" lon="4.73129">
        <ele>170</ele>
        <time>2017-07-31T09:34:35Z</time>
      </trkpt>
      <trkpt lat="45.93487" lon="4.73123">
        <ele>170</ele>
        <time>2017-07-31T09:34:36Z</time>
      </trkpt>
      <trkpt lat="45.93486" lon="4.73112">
        <ele>170</ele>
        <time>2017-07-31T09:34:38Z</time>
      </trkpt>
      <trkpt lat="45.93486" lon="4.73107">
        <ele>170</ele>
        <time>2017-07-31T09:34:39Z</time>
      </trkpt>
      <trkpt lat="45.93485" lon="4.73097">
        <ele>170</ele>
        <time>2017-07-31T09:34:41Z</time>
      </trkpt>
      <trkpt lat="45.93485" lon="4.7309">
        <ele>170</ele>
        <time>2017-07-31T09:34:42Z</time>
      </trkpt>
      <trkpt lat="45.93485" lon="4.73084">
        <ele>170</ele>
        <time>2017-07-31T09:34:43Z</time>
      </trkpt>
      <trkpt lat="45.93485" lon="4.73077">
        <ele>170</ele>
        <time>2017-07-31T09:34:44Z</time>
      </trkpt>
      <trkpt lat="45.93486" lon="4.73071">
        <ele>170</ele>
        <time>2017-07-31T09:34:45Z</time>
      </trkpt>
      <trkpt lat="45.93486" lon="4.73063">
        <ele>170</ele>
        <time>2017-07-31T09:34:46Z</time>
      </trkpt>
      <trkpt lat="45.93487" lon="4.73056">
        <ele>170</ele>
        <time>2017-07-31T09:34:47Z</time>
      </trkpt>
      <trkpt lat="45.93487" lon="4.73048">
        <ele>170</ele>
        <time>2017-07-31T09:34:48Z</time>
      </trkpt>
      <trkpt lat="45.93488" lon="4.73041">
        <ele>170</ele>
        <time>2017-07-31T09:34:49Z</time>
      </trkpt>
      <trkpt lat="45.93488" lon="4.73034">
        <ele>170</ele>
        <time>2017-07-31T09:34:50Z</time>
      </trkpt>
      <trkpt lat="45.93488" lon="4.73027">
        <ele>170</ele>
        <time>2017-07-31T09:34:51Z</time>
      </trkpt>
      <trkpt lat="45.93489" lon="4.7302">
        <ele>170</ele>
        <time>2017-07-31T09:34:52Z</time>
      </trkpt>
      <trkpt lat="45.93491" lon="4.73008">
        <ele>170</ele>
        <time>2017-07-31T09:34:54Z</time>
      </trkpt>
      <trkpt lat="45.93491" lon="4.73003">
        <ele>169</ele>
        <time>2017-07-31T09:34:55Z</time>
      </trkpt>
      <trkpt lat="45.93493" lon="4.72991">
        <ele>170</ele>
        <time>2017-07-31T09:34:57Z</time>
      </trkpt>
      <trkpt lat="45.93495" lon="4.72984">
        <ele>170</ele>
        <time>2017-07-31T09:34:58Z</time>
      </trkpt>
      <trkpt lat="45.93496" lon="4.72977">
        <ele>171</ele>
        <time>2017-07-31T09:34:59Z</time>
      </trkpt>
      <trkpt lat="45.93497" lon="4.72971">
        <ele>171</ele>
        <time>2017-07-31T09:35:00Z</time>
      </trkpt>
      <trkpt lat="45.93501" lon="4.7296">
        <ele>170</ele>
        <time>2017-07-31T09:35:02Z</time>
      </trkpt>
      <trkpt lat="45.93502" lon="4.72955">
        <ele>170</ele>
        <time>2017-07-31T09:35:03Z</time>
      </trkpt>
      <trkpt lat="45.93504" lon="4.72946">
        <ele>171</ele>
        <time>2017-07-31T09:35:05Z</time>
      </trkpt>
      <trkpt lat="45.93504" lon="4.7294">
        <ele>171</ele>
        <time>2017-07-31T09:35:06Z</time>
      </trkpt>
      <trkpt lat="45.93504" lon="4.72927">
        <ele>171</ele>
        <time>2017-07-31T09:35:08Z</time>
      </trkpt>
      <trkpt lat="45.93507" lon="4.72922">
        <ele>171</ele>
        <time>2017-07-31T09:35:09Z</time>
      </trkpt>
      <trkpt lat="45.93511" lon="4.72913">
        <ele>172</ele>
        <time>2017-07-31T09:35:11Z</time>
      </trkpt>
      <trkpt lat="45.93514" lon="4.7291">
        <ele>172</ele>
        <time>2017-07-31T09:35:12Z</time>
      </trkpt>
      <trkpt lat="45.9352" lon="4.72904">
        <ele>172</ele>
        <time>2017-07-31T09:35:14Z</time>
      </trkpt>
      <trkpt lat="45.93523" lon="4.729">
        <ele>172</ele>
        <time>2017-07-31T09:35:15Z</time>
      </trkpt>
      <trkpt lat="45.93527" lon="4.72896">
        <ele>172</ele>
        <time>2017-07-31T09:35:16Z</time>
      </trkpt>
      <trkpt lat="45.93531" lon="4.72891">
        <ele>172</ele>
        <time>2017-07-31T09:35:17Z</time>
      </trkpt>
      <trkpt lat="45.93535" lon="4.72886">
        <ele>172</ele>
        <time>2017-07-31T09:35:18Z</time>
      </trkpt>
      <trkpt lat="45.93539" lon="4.72882">
        <ele>172</ele>
        <time>2017-07-31T09:35:19Z</time>
      </trkpt>
      <trkpt lat="45.93545" lon="4.72874">
        <ele>172</ele>
        <time>2017-07-31T09:35:21Z</time>
      </trkpt>
      <trkpt lat="45.93548" lon="4.7287">
        <ele>172</ele>
        <time>2017-07-31T09:35:22Z</time>
      </trkpt>
      <trkpt lat="45.93554" lon="4.72864">
        <ele>172</ele>
        <time>2017-07-31T09:35:24Z</time>
      </trkpt>
      <trkpt lat="45.93557" lon="4.7286">
        <ele>172</ele>
        <time>2017-07-31T09:35:25Z</time>
      </trkpt>
      <trkpt lat="45.93564" lon="4.72852">
        <ele>172</ele>
        <time>2017-07-31T09:35:27Z</time>
      </trkpt>
      <trkpt lat="45.93568" lon="4.72848">
        <ele>172</ele>
        <time>2017-07-31T09:35:28Z</time>
      </trkpt>
      <trkpt lat="45.93576" lon="4.72842">
        <ele>172</ele>
        <time>2017-07-31T09:35:30Z</time>
      </trkpt>
      <trkpt lat="45.93579" lon="4.72837">
        <ele>172</ele>
        <time>2017-07-31T09:35:31Z</time>
      </trkpt>
      <trkpt lat="45.93583" lon="4.72833">
        <ele>172</ele>
        <time>2017-07-31T09:35:32Z</time>
      </trkpt>
      <trkpt lat="45.93587" lon="4.7283">
        <ele>172</ele>
        <time>2017-07-31T09:35:33Z</time>
      </trkpt>
      <trkpt lat="45.93594" lon="4.72824">
        <ele>173</ele>
        <time>2017-07-31T09:35:35Z</time>
      </trkpt>
      <trkpt lat="45.93598" lon="4.72822">
        <ele>173</ele>
        <time>2017-07-31T09:35:36Z</time>
      </trkpt>
      <trkpt lat="45.93605" lon="4.72817">
        <ele>173</ele>
        <time>2017-07-31T09:35:38Z</time>
      </trkpt>
      <trkpt lat="45.93608" lon="4.72814">
        <ele>173</ele>
        <time>2017-07-31T09:35:39Z</time>
      </trkpt>
      <trkpt lat="45.93612" lon="4.72812">
        <ele>173</ele>
        <time>2017-07-31T09:35:40Z</time>
      </trkpt>
      <trkpt lat="45.93616" lon="4.72808">
        <ele>173</ele>
        <time>2017-07-31T09:35:41Z</time>
      </trkpt>
      <trkpt lat="45.93624" lon="4.72802">
        <ele>173</ele>
        <time>2017-07-31T09:35:43Z</time>
      </trkpt>
      <trkpt lat="45.93627" lon="4.728">
        <ele>173</ele>
        <time>2017-07-31T09:35:44Z</time>
      </trkpt>
      <trkpt lat="45.93634" lon="4.72794">
        <ele>173</ele>
        <time>2017-07-31T09:35:46Z</time>
      </trkpt>
      <trkpt lat="45.93638" lon="4.72792">
        <ele>173</ele>
        <time>2017-07-31T09:35:47Z</time>
      </trkpt>
      <trkpt lat="45.93642" lon="4.72789">
        <ele>173</ele>
        <time>2017-07-31T09:35:48Z</time>
      </trkpt>
      <trkpt lat="45.93646" lon="4.72786">
        <ele>173</ele>
        <time>2017-07-31T09:35:49Z</time>
      </trkpt>
      <trkpt lat="45.93651" lon="4.72783">
        <ele>174</ele>
        <time>2017-07-31T09:35:50Z</time>
      </trkpt>
      <trkpt lat="45.93655" lon="4.7278">
        <ele>174</ele>
        <time>2017-07-31T09:35:51Z</time>
      </trkpt>
      <trkpt lat="45.9366" lon="4.72777">
        <ele>174</ele>
        <time>2017-07-31T09:35:52Z</time>
      </trkpt>
      <trkpt lat="45.93664" lon="4.72773">
        <ele>174</ele>
        <time>2017-07-31T09:35:53Z</time>
      </trkpt>
      <trkpt lat="45.93669" lon="4.7277">
        <ele>173</ele>
        <time>2017-07-31T09:35:54Z</time>
      </trkpt>
      <trkpt lat="45.93673" lon="4.72766">
        <ele>173</ele>
        <time>2017-07-31T09:35:55Z</time>
      </trkpt>
      <trkpt lat="45.9368" lon="4.72762">
        <ele>173</ele>
        <time>2017-07-31T09:35:57Z</time>
      </trkpt>
      <trkpt lat="45.93684" lon="4.72758">
        <ele>173</ele>
        <time>2017-07-31T09:35:58Z</time>
      </trkpt>
      <trkpt lat="45.93688" lon="4.72754">
        <ele>172</ele>
        <time>2017-07-31T09:35:59Z</time>
      </trkpt>
      <trkpt lat="45.93692" lon="4.7275">
        <ele>173</ele>
        <time>2017-07-31T09:36:00Z</time>
      </trkpt>
      <trkpt lat="45.93696" lon="4.72745">
        <ele>173</ele>
        <time>2017-07-31T09:36:01Z</time>
      </trkpt>
      <trkpt lat="45.937" lon="4.7274">
        <ele>173</ele>
        <time>2017-07-31T09:36:02Z</time>
      </trkpt>
      <trkpt lat="45.93704" lon="4.72736">
        <ele>173</ele>
        <time>2017-07-31T09:36:03Z</time>
      </trkpt>
      <trkpt lat="45.93707" lon="4.72732">
        <ele>173</ele>
        <time>2017-07-31T09:36:04Z</time>
      </trkpt>
      <trkpt lat="45.93711" lon="4.72728">
        <ele>173</ele>
        <time>2017-07-31T09:36:05Z</time>
      </trkpt>
      <trkpt lat="45.93715" lon="4.72725">
        <ele>173</ele>
        <time>2017-07-31T09:36:06Z</time>
      </trkpt>
      <trkpt lat="45.93722" lon="4.72718">
        <ele>173</ele>
        <time>2017-07-31T09:36:08Z</time>
      </trkpt>
      <trkpt lat="45.93726" lon="4.72715">
        <ele>173</ele>
        <time>2017-07-31T09:36:09Z</time>
      </trkpt>
      <trkpt lat="45.9373" lon="4.72712">
        <ele>173</ele>
        <time>2017-07-31T09:36:10Z</time>
      </trkpt>
      <trkpt lat="45.93734" lon="4.72709">
        <ele>173</ele>
        <time>2017-07-31T09:36:11Z</time>
      </trkpt>
      <trkpt lat="45.93739" lon="4.72704">
        <ele>173</ele>
        <time>2017-07-31T09:36:12Z</time>
      </trkpt>
      <trkpt lat="45.93744" lon="4.727">
        <ele>173</ele>
        <time>2017-07-31T09:36:13Z</time>
      </trkpt>
      <trkpt lat="45.93748" lon="4.72695">
        <ele>173</ele>
        <time>2017-07-31T09:36:14Z</time>
      </trkpt>
      <trkpt lat="45.93753" lon="4.7269">
        <ele>172</ele>
        <time>2017-07-31T09:36:15Z</time>
      </trkpt>
      <trkpt lat="45.93757" lon="4.72687">
        <ele>173</ele>
        <time>2017-07-31T09:36:16Z</time>
      </trkpt>
      <trkpt lat="45.93761" lon="4.72682">
        <ele>173</ele>
        <time>2017-07-31T09:36:17Z</time>
      </trkpt>
      <trkpt lat="45.93765" lon="4.72678">
        <ele>173</ele>
        <time>2017-07-31T09:36:18Z</time>
      </trkpt>
      <trkpt lat="45.93768" lon="4.72674">
        <ele>173</ele>
        <time>2017-07-31T09:36:19Z</time>
      </trkpt>
      <trkpt lat="45.93772" lon="4.7267">
        <ele>173</ele>
        <time>2017-07-31T09:36:20Z</time>
      </trkpt>
      <trkpt lat="45.93775" lon="4.72665">
        <ele>173</ele>
        <time>2017-07-31T09:36:21Z</time>
      </trkpt>
      <trkpt lat="45.93778" lon="4.7266">
        <ele>173</ele>
        <time>2017-07-31T09:36:22Z</time>
      </trkpt>
      <trkpt lat="45.93782" lon="4.72655">
        <ele>173</ele>
        <time>2017-07-31T09:36:23Z</time>
      </trkpt>
      <trkpt lat="45.93786" lon="4.7265">
        <ele>173</ele>
        <time>2017-07-31T09:36:24Z</time>
      </trkpt>
      <trkpt lat="45.93789" lon="4.72645">
        <ele>173</ele>
        <time>2017-07-31T09:36:25Z</time>
      </trkpt>
      <trkpt lat="45.93793" lon="4.72641">
        <ele>173</ele>
        <time>2017-07-31T09:36:26Z</time>
      </trkpt>
      <trkpt lat="45.93796" lon="4.72636">
        <ele>173</ele>
        <time>2017-07-31T09:36:27Z</time>
      </trkpt>
      <trkpt lat="45.93803" lon="4.72628">
        <ele>173</ele>
        <time>2017-07-31T09:36:29Z</time>
      </trkpt>
      <trkpt lat="45.93806" lon="4.72623">
        <ele>173</ele>
        <time>2017-07-31T09:36:30Z</time>
      </trkpt>
      <trkpt lat="45.93811" lon="4.72617">
        <ele>173</ele>
        <time>2017-07-31T09:36:32Z</time>
      </trkpt>
      <trkpt lat="45.93814" lon="4.72613">
        <ele>173</ele>
        <time>2017-07-31T09:36:33Z</time>
      </trkpt>
      <trkpt lat="45.93817" lon="4.72603">
        <ele>173</ele>
        <time>2017-07-31T09:36:35Z</time>
      </trkpt>
      <trkpt lat="45.93817" lon="4.72596">
        <ele>174</ele>
        <time>2017-07-31T09:36:36Z</time>
      </trkpt>
      <trkpt lat="45.93815" lon="4.72589">
        <ele>174</ele>
        <time>2017-07-31T09:36:37Z</time>
      </trkpt>
      <trkpt lat="45.93812" lon="4.72583">
        <ele>174</ele>
        <time>2017-07-31T09:36:38Z</time>
      </trkpt>
      <trkpt lat="45.93809" lon="4.72578">
        <ele>174</ele>
        <time>2017-07-31T09:36:39Z</time>
      </trkpt>
      <trkpt lat="45.93805" lon="4.72573">
        <ele>174</ele>
        <time>2017-07-31T09:36:40Z</time>
      </trkpt>
      <trkpt lat="45.938" lon="4.72564">
        <ele>174</ele>
        <time>2017-07-31T09:36:42Z</time>
      </trkpt>
      <trkpt lat="45.93797" lon="4.72559">
        <ele>174</ele>
        <time>2017-07-31T09:36:43Z</time>
      </trkpt>
      <trkpt lat="45.93792" lon="4.72551">
        <ele>173</ele>
        <time>2017-07-31T09:36:45Z</time>
      </trkpt>
      <trkpt lat="45.9379" lon="4.72549">
        <ele>173</ele>
        <time>2017-07-31T09:36:46Z</time>
      </trkpt>
      <trkpt lat="45.93787" lon="4.72543">
        <ele>173</ele>
        <time>2017-07-31T09:36:48Z</time>
      </trkpt>
      <trkpt lat="45.93783" lon="4.72539">
        <ele>173</ele>
        <time>2017-07-31T09:36:49Z</time>
      </trkpt>
      <trkpt lat="45.93777" lon="4.7253">
        <ele>173</ele>
        <time>2017-07-31T09:36:51Z</time>
      </trkpt>
      <trkpt lat="45.93774" lon="4.72526">
        <ele>173</ele>
        <time>2017-07-31T09:36:52Z</time>
      </trkpt>
      <trkpt lat="45.93769" lon="4.72523">
        <ele>172</ele>
        <time>2017-07-31T09:36:53Z</time>
      </trkpt>
      <trkpt lat="45.93766" lon="4.72519">
        <ele>172</ele>
        <time>2017-07-31T09:36:54Z</time>
      </trkpt>
      <trkpt lat="45.93762" lon="4.72516">
        <ele>172</ele>
        <time>2017-07-31T09:36:55Z</time>
      </trkpt>
      <trkpt lat="45.93758" lon="4.7251">
        <ele>171</ele>
        <time>2017-07-31T09:36:56Z</time>
      </trkpt>
      <trkpt lat="45.93753" lon="4.72509">
        <ele>171</ele>
        <time>2017-07-31T09:36:57Z</time>
      </trkpt>
      <trkpt lat="45.93748" lon="4.72506">
        <ele>171</ele>
        <time>2017-07-31T09:36:58Z</time>
      </trkpt>
      <trkpt lat="45.93744" lon="4.72502">
        <ele>171</ele>
        <time>2017-07-31T09:36:59Z</time>
      </trkpt>
      <trkpt lat="45.9374" lon="4.72499">
        <ele>170</ele>
        <time>2017-07-31T09:37:00Z</time>
      </trkpt>
      <trkpt lat="45.93736" lon="4.72496">
        <ele>170</ele>
        <time>2017-07-31T09:37:01Z</time>
      </trkpt>
      <trkpt lat="45.93732" lon="4.72493">
        <ele>171</ele>
        <time>2017-07-31T09:37:02Z</time>
      </trkpt>
      <trkpt lat="45.93727" lon="4.7249">
        <ele>171</ele>
        <time>2017-07-31T09:37:03Z</time>
      </trkpt>
      <trkpt lat="45.93723" lon="4.72487">
        <ele>171</ele>
        <time>2017-07-31T09:37:04Z</time>
      </trkpt>
      <trkpt lat="45.93714" lon="4.72483">
        <ele>171</ele>
        <time>2017-07-31T09:37:06Z</time>
      </trkpt>
      <trkpt lat="45.93711" lon="4.72478">
        <ele>171</ele>
        <time>2017-07-31T09:37:07Z</time>
      </trkpt>
      <trkpt lat="45.93706" lon="4.72473">
        <ele>171</ele>
        <time>2017-07-31T09:37:08Z</time>
      </trkpt>
      <trkpt lat="45.93702" lon="4.7247">
        <ele>171</ele>
        <time>2017-07-31T09:37:09Z</time>
      </trkpt>
      <trkpt lat="45.93699" lon="4.72466">
        <ele>171</ele>
        <time>2017-07-31T09:37:10Z</time>
      </trkpt>
      <trkpt lat="45.93693" lon="4.72461">
        <ele>171</ele>
        <time>2017-07-31T09:37:11Z</time>
      </trkpt>
      <trkpt lat="45.93688" lon="4.72457">
        <ele>171</ele>
        <time>2017-07-31T09:37:12Z</time>
      </trkpt>
      <trkpt lat="45.93684" lon="4.72453">
        <ele>171</ele>
        <time>2017-07-31T09:37:13Z</time>
      </trkpt>
      <trkpt lat="45.93679" lon="4.72449">
        <ele>171</ele>
        <time>2017-07-31T09:37:14Z</time>
      </trkpt>
      <trkpt lat="45.93676" lon="4.72445">
        <ele>171</ele>
        <time>2017-07-31T09:37:15Z</time>
      </trkpt>
      <trkpt lat="45.93671" lon="4.72441">
        <ele>171</ele>
        <time>2017-07-31T09:37:16Z</time>
      </trkpt>
      <trkpt lat="45.93667" lon="4.72442">
        <ele>172</ele>
        <time>2017-07-31T09:37:17Z</time>
      </trkpt>
      <trkpt lat="45.93663" lon="4.72444">
        <ele>172</ele>
        <time>2017-07-31T09:37:18Z</time>
      </trkpt>
      <trkpt lat="45.93659" lon="4.72451">
        <ele>172</ele>
        <time>2017-07-31T09:37:19Z</time>
      </trkpt>
      <trkpt lat="45.93656" lon="4.72456">
        <ele>172</ele>
        <time>2017-07-31T09:37:20Z</time>
      </trkpt>
      <trkpt lat="45.93653" lon="4.72461">
        <ele>172</ele>
        <time>2017-07-31T09:37:21Z</time>
      </trkpt>
      <trkpt lat="45.93647" lon="4.7247">
        <ele>172</ele>
        <time>2017-07-31T09:37:23Z</time>
      </trkpt>
      <trkpt lat="45.93644" lon="4.72474">
        <ele>172</ele>
        <time>2017-07-31T09:37:24Z</time>
      </trkpt>
      <trkpt lat="45.93638" lon="4.72482">
        <ele>172</ele>
        <time>2017-07-31T09:37:26Z</time>
      </trkpt>
      <trkpt lat="45.93634" lon="4.72484">
        <ele>172</ele>
        <time>2017-07-31T09:37:27Z</time>
      </trkpt>
      <trkpt lat="45.93629" lon="4.7249">
        <ele>172</ele>
        <time>2017-07-31T09:37:29Z</time>
      </trkpt>
      <trkpt lat="45.93627" lon="4.72494">
        <ele>172</ele>
        <time>2017-07-31T09:37:30Z</time>
      </trkpt>
      <trkpt lat="45.9362" lon="4.72501">
        <ele>172</ele>
        <time>2017-07-31T09:37:32Z</time>
      </trkpt>
      <trkpt lat="45.93618" lon="4.72506">
        <ele>172</ele>
        <time>2017-07-31T09:37:33Z</time>
      </trkpt>
      <trkpt lat="45.93615" lon="4.72513">
        <ele>172</ele>
        <time>2017-07-31T09:37:34Z</time>
      </trkpt>
      <trkpt lat="45.93612" lon="4.72519">
        <ele>172</ele>
        <time>2017-07-31T09:37:35Z</time>
      </trkpt>
      <trkpt lat="45.93609" lon="4.72524">
        <ele>172</ele>
        <time>2017-07-31T09:37:36Z</time>
      </trkpt>
      <trkpt lat="45.93605" lon="4.72528">
        <ele>172</ele>
        <time>2017-07-31T09:37:37Z</time>
      </trkpt>
      <trkpt lat="45.936" lon="4.72533">
        <ele>172</ele>
        <time>2017-07-31T09:37:38Z</time>
      </trkpt>
      <trkpt lat="45.93597" lon="4.72538">
        <ele>172</ele>
        <time>2017-07-31T09:37:39Z</time>
      </trkpt>
      <trkpt lat="45.93589" lon="4.72543">
        <ele>172</ele>
        <time>2017-07-31T09:37:41Z</time>
      </trkpt>
      <trkpt lat="45.93588" lon="4.72544">
        <ele>172</ele>
        <time>2017-07-31T09:37:42Z</time>
      </trkpt>
      <trkpt lat="45.93582" lon="4.72539">
        <ele>172</ele>
        <time>2017-07-31T09:37:44Z</time>
      </trkpt>
      <trkpt lat="45.93579" lon="4.72533">
        <ele>172</ele>
        <time>2017-07-31T09:37:45Z</time>
      </trkpt>
      <trkpt lat="45.93573" lon="4.72525">
        <ele>172</ele>
        <time>2017-07-31T09:37:47Z</time>
      </trkpt>
      <trkpt lat="45.93571" lon="4.7252">
        <ele>172</ele>
        <time>2017-07-31T09:37:48Z</time>
      </trkpt>
      <trkpt lat="45.93566" lon="4.7251">
        <ele>172</ele>
        <time>2017-07-31T09:37:50Z</time>
      </trkpt>
      <trkpt lat="45.93564" lon="4.72504">
        <ele>172</ele>
        <time>2017-07-31T09:37:51Z</time>
      </trkpt>
      <trkpt lat="45.9356" lon="4.72493">
        <ele>172</ele>
        <time>2017-07-31T09:37:53Z</time>
      </trkpt>
      <trkpt lat="45.93557" lon="4.72488">
        <ele>172</ele>
        <time>2017-07-31T09:37:54Z</time>
      </trkpt>
      <trkpt lat="45.93554" lon="4.72478">
        <ele>172</ele>
        <time>2017-07-31T09:37:56Z</time>
      </trkpt>
      <trkpt lat="45.93553" lon="4.72473">
        <ele>172</ele>
        <time>2017-07-31T09:37:57Z</time>
      </trkpt>
      <trkpt lat="45.93552" lon="4.72463">
        <ele>172</ele>
        <time>2017-07-31T09:37:59Z</time>
      </trkpt>
      <trkpt lat="45.93552" lon="4.72457">
        <ele>172</ele>
        <time>2017-07-31T09:38:00Z</time>
      </trkpt>
      <trkpt lat="45.93555" lon="4.72446">
        <ele>172</ele>
        <time>2017-07-31T09:38:02Z</time>
      </trkpt>
      <trkpt lat="45.93555" lon="4.72439">
        <ele>172</ele>
        <time>2017-07-31T09:38:03Z</time>
      </trkpt>
      <trkpt lat="45.93556" lon="4.72432">
        <ele>172</ele>
        <time>2017-07-31T09:38:04Z</time>
      </trkpt>
      <trkpt lat="45.93556" lon="4.72425">
        <ele>172</ele>
        <time>2017-07-31T09:38:05Z</time>
      </trkpt>
      <trkpt lat="45.93555" lon="4.72418">
        <ele>172</ele>
        <time>2017-07-31T09:38:06Z</time>
      </trkpt>
      <trkpt lat="45.93553" lon="4.72411">
        <ele>173</ele>
        <time>2017-07-31T09:38:07Z</time>
      </trkpt>
      <trkpt lat="45.93551" lon="4.72405">
        <ele>173</ele>
        <time>2017-07-31T09:38:08Z</time>
      </trkpt>
      <trkpt lat="45.93549" lon="4.72399">
        <ele>173</ele>
        <time>2017-07-31T09:38:09Z</time>
      </trkpt>
      <trkpt lat="45.93545" lon="4.72387">
        <ele>173</ele>
        <time>2017-07-31T09:38:11Z</time>
      </trkpt>
      <trkpt lat="45.93543" lon="4.72382">
        <ele>173</ele>
        <time>2017-07-31T09:38:12Z</time>
      </trkpt>
      <trkpt lat="45.93539" lon="4.72373">
        <ele>173</ele>
        <time>2017-07-31T09:38:14Z</time>
      </trkpt>
      <trkpt lat="45.93538" lon="4.72369">
        <ele>173</ele>
        <time>2017-07-31T09:38:15Z</time>
      </trkpt>
      <trkpt lat="45.93534" lon="4.72361">
        <ele>173</ele>
        <time>2017-07-31T09:38:17Z</time>
      </trkpt>
      <trkpt lat="45.93533" lon="4.72356">
        <ele>173</ele>
        <time>2017-07-31T09:38:18Z</time>
      </trkpt>
      <trkpt lat="45.93526" lon="4.72348">
        <ele>173</ele>
        <time>2017-07-31T09:38:20Z</time>
      </trkpt>
      <trkpt lat="45.93523" lon="4.72343">
        <ele>173</ele>
        <time>2017-07-31T09:38:21Z</time>
      </trkpt>
      <trkpt lat="45.93521" lon="4.72333">
        <ele>173</ele>
        <time>2017-07-31T09:38:23Z</time>
      </trkpt>
      <trkpt lat="45.93522" lon="4.72329">
        <ele>173</ele>
        <time>2017-07-31T09:38:24Z</time>
      </trkpt>
      <trkpt lat="45.93521" lon="4.72317">
        <ele>173</ele>
        <time>2017-07-31T09:38:27Z</time>
      </trkpt>
      <trkpt lat="45.93522" lon="4.72314">
        <ele>173</ele>
        <time>2017-07-31T09:38:28Z</time>
      </trkpt>
      <trkpt lat="45.93524" lon="4.72302">
        <ele>173</ele>
        <time>2017-07-31T09:38:31Z</time>
      </trkpt>
      <trkpt lat="45.93526" lon="4.72297">
        <ele>172</ele>
        <time>2017-07-31T09:38:32Z</time>
      </trkpt>
      <trkpt lat="45.93531" lon="4.72287">
        <ele>172</ele>
        <time>2017-07-31T09:38:34Z</time>
      </trkpt>
      <trkpt lat="45.93533" lon="4.72281">
        <ele>172</ele>
        <time>2017-07-31T09:38:35Z</time>
      </trkpt>
      <trkpt lat="45.93538" lon="4.72271">
        <ele>172</ele>
        <time>2017-07-31T09:38:37Z</time>
      </trkpt>
      <trkpt lat="45.93539" lon="4.72266">
        <ele>172</ele>
        <time>2017-07-31T09:38:38Z</time>
      </trkpt>
      <trkpt lat="45.93543" lon="4.72257">
        <ele>172</ele>
        <time>2017-07-31T09:38:40Z</time>
      </trkpt>
      <trkpt lat="45.93545" lon="4.72253">
        <ele>172</ele>
        <time>2017-07-31T09:38:41Z</time>
      </trkpt>
      <trkpt lat="45.93548" lon="4.72243">
        <ele>172</ele>
        <time>2017-07-31T09:38:43Z</time>
      </trkpt>
      <trkpt lat="45.93549" lon="4.72238">
        <ele>172</ele>
        <time>2017-07-31T09:38:44Z</time>
      </trkpt>
      <trkpt lat="45.93555" lon="4.72232">
        <ele>173</ele>
        <time>2017-07-31T09:38:46Z</time>
      </trkpt>
      <trkpt lat="45.93558" lon="4.72231">
        <ele>173</ele>
        <time>2017-07-31T09:38:47Z</time>
      </trkpt>
      <trkpt lat="45.93565" lon="4.72233">
        <ele>173</ele>
        <time>2017-07-31T09:38:50Z</time>
      </trkpt>
      <trkpt lat="45.93567" lon="4.72235">
        <ele>173</ele>
        <time>2017-07-31T09:38:51Z</time>
      </trkpt>
      <trkpt lat="45.93572" lon="4.7224">
        <ele>173</ele>
        <time>2017-07-31T09:38:53Z</time>
      </trkpt>
      <trkpt lat="45.93575" lon="4.72243">
        <ele>173</ele>
        <time>2017-07-31T09:38:54Z</time>
      </trkpt>
      <trkpt lat="45.93582" lon="4.72251">
        <ele>173</ele>
        <time>2017-07-31T09:38:56Z</time>
      </trkpt>
      <trkpt lat="45.93585" lon="4.72255">
        <ele>173</ele>
        <time>2017-07-31T09:38:57Z</time>
      </trkpt>
      <trkpt lat="45.9359" lon="4.72261">
        <ele>173</ele>
        <time>2017-07-31T09:38:59Z</time>
      </trkpt>
      <trkpt lat="45.93593" lon="4.72264">
        <ele>173</ele>
        <time>2017-07-31T09:39:00Z</time>
      </trkpt>
      <trkpt lat="45.93597" lon="4.7227">
        <ele>173</ele>
        <time>2017-07-31T09:39:02Z</time>
      </trkpt>
      <trkpt lat="45.936" lon="4.72273">
        <ele>173</ele>
        <time>2017-07-31T09:39:03Z</time>
      </trkpt>
      <trkpt lat="45.93607" lon="4.72281">
        <ele>172</ele>
        <time>2017-07-31T09:39:06Z</time>
      </trkpt>
      <trkpt lat="45.93609" lon="4.72284">
        <ele>172</ele>
        <time>2017-07-31T09:39:07Z</time>
      </trkpt>
      <trkpt lat="45.93614" lon="4.72289">
        <ele>172</ele>
        <time>2017-07-31T09:39:09Z</time>
      </trkpt>
      <trkpt lat="45.93617" lon="4.72293">
        <ele>172</ele>
        <time>2017-07-31T09:39:10Z</time>
      </trkpt>
      <trkpt lat="45.93623" lon="4.72299">
        <ele>172</ele>
        <time>2017-07-31T09:39:12Z</time>
      </trkpt>
      <trkpt lat="45.93626" lon="4.72301">
        <ele>172</ele>
        <time>2017-07-31T09:39:13Z</time>
      </trkpt>
      <trkpt lat="45.93632" lon="4.72306">
        <ele>172</ele>
        <time>2017-07-31T09:39:15Z</time>
      </trkpt>
      <trkpt lat="45.93634" lon="4.72308">
        <ele>172</ele>
        <time>2017-07-31T09:39:16Z</time>
      </trkpt>
      <trkpt lat="45.9364" lon="4.72313">
        <ele>172</ele>
        <time>2017-07-31T09:39:18Z</time>
      </trkpt>
      <trkpt lat="45.93643" lon="4.72316">
        <ele>172</ele>
        <time>2017-07-31T09:39:19Z</time>
      </trkpt>
      <trkpt lat="45.93649" lon="4.7232">
        <ele>172</ele>
        <time>2017-07-31T09:39:22Z</time>
      </trkpt>
      <trkpt lat="45.93652" lon="4.72322">
        <ele>172</ele>
        <time>2017-07-31T09:39:23Z</time>
      </trkpt>
      <trkpt lat="45.93655" lon="4.72326">
        <ele>172</ele>
        <time>2017-07-31T09:39:25Z</time>
      </trkpt>
      <trkpt lat="45.93662" lon="4.72331">
        <ele>171</ele>
        <time>2017-07-31T09:39:26Z</time>
      </trkpt>
      <trkpt lat="45.93668" lon="4.72333">
        <ele>171</ele>
        <time>2017-07-31T09:39:29Z</time>
      </trkpt>
      <trkpt lat="45.93672" lon="4.72335">
        <ele>171</ele>
        <time>2017-07-31T09:39:30Z</time>
      </trkpt>
      <trkpt lat="45.93678" lon="4.72342">
        <ele>171</ele>
        <time>2017-07-31T09:39:32Z</time>
      </trkpt>
      <trkpt lat="45.9368" lon="4.72345">
        <ele>171</ele>
        <time>2017-07-31T09:39:33Z</time>
      </trkpt>
      <trkpt lat="45.93686" lon="4.72354">
        <ele>171</ele>
        <time>2017-07-31T09:39:35Z</time>
      </trkpt>
      <trkpt lat="45.93691" lon="4.7236">
        <ele>171</ele>
        <time>2017-07-31T09:39:36Z</time>
      </trkpt>
      <trkpt lat="45.93695" lon="4.72363">
        <ele>171</ele>
        <time>2017-07-31T09:39:37Z</time>
      </trkpt>
      <trkpt lat="45.93703" lon="4.72372">
        <ele>171</ele>
        <time>2017-07-31T09:39:38Z</time>
      </trkpt>
      <trkpt lat="45.93708" lon="4.72374">
        <ele>171</ele>
        <time>2017-07-31T09:39:39Z</time>
      </trkpt>
      <trkpt lat="45.93712" lon="4.72378">
        <ele>171</ele>
        <time>2017-07-31T09:39:40Z</time>
      </trkpt>
      <trkpt lat="45.93719" lon="4.72384">
        <ele>171</ele>
        <time>2017-07-31T09:39:42Z</time>
      </trkpt>
      <trkpt lat="45.93723" lon="4.72387">
        <ele>171</ele>
        <time>2017-07-31T09:39:43Z</time>
      </trkpt>
      <trkpt lat="45.9373" lon="4.72393">
        <ele>171</ele>
        <time>2017-07-31T09:39:45Z</time>
      </trkpt>
      <trkpt lat="45.93733" lon="4.72396">
        <ele>171</ele>
        <time>2017-07-31T09:39:46Z</time>
      </trkpt>
      <trkpt lat="45.93737" lon="4.72401">
        <ele>171</ele>
        <time>2017-07-31T09:39:47Z</time>
      </trkpt>
      <trkpt lat="45.93743" lon="4.72406">
        <ele>171</ele>
        <time>2017-07-31T09:39:48Z</time>
      </trkpt>
      <trkpt lat="45.93751" lon="4.72413">
        <ele>171</ele>
        <time>2017-07-31T09:39:50Z</time>
      </trkpt>
      <trkpt lat="45.93753" lon="4.72416">
        <ele>171</ele>
        <time>2017-07-31T09:39:51Z</time>
      </trkpt>
      <trkpt lat="45.93758" lon="4.72421">
        <ele>171</ele>
        <time>2017-07-31T09:39:52Z</time>
      </trkpt>
      <trkpt lat="45.9376" lon="4.72425">
        <ele>171</ele>
        <time>2017-07-31T09:39:53Z</time>
      </trkpt>
      <trkpt lat="45.93764" lon="4.72428">
        <ele>171</ele>
        <time>2017-07-31T09:39:54Z</time>
      </trkpt>
      <trkpt lat="45.93768" lon="4.72432">
        <ele>171</ele>
        <time>2017-07-31T09:39:55Z</time>
      </trkpt>
      <trkpt lat="45.93773" lon="4.72437">
        <ele>171</ele>
        <time>2017-07-31T09:39:56Z</time>
      </trkpt>
      <trkpt lat="45.93776" lon="4.72441">
        <ele>172</ele>
        <time>2017-07-31T09:39:57Z</time>
      </trkpt>
      <trkpt lat="45.93781" lon="4.72445">
        <ele>172</ele>
        <time>2017-07-31T09:39:58Z</time>
      </trkpt>
      <trkpt lat="45.93785" lon="4.72448">
        <ele>172</ele>
        <time>2017-07-31T09:39:59Z</time>
      </trkpt>
      <trkpt lat="45.93789" lon="4.72452">
        <ele>172</ele>
        <time>2017-07-31T09:40:00Z</time>
      </trkpt>
      <trkpt lat="45.93792" lon="4.72456">
        <ele>172</ele>
        <time>2017-07-31T09:40:01Z</time>
      </trkpt>
      <trkpt lat="45.93799" lon="4.72463">
        <ele>172</ele>
        <time>2017-07-31T09:40:03Z</time>
      </trkpt>
      <trkpt lat="45.93805" lon="4.72466">
        <ele>172</ele>
        <time>2017-07-31T09:40:04Z</time>
      </trkpt>
      <trkpt lat="45.93811" lon="4.72468">
        <ele>172</ele>
        <time>2017-07-31T09:40:05Z</time>
      </trkpt>
      <trkpt lat="45.93815" lon="4.7247">
        <ele>172</ele>
        <time>2017-07-31T09:40:06Z</time>
      </trkpt>
      <trkpt lat="45.93822" lon="4.72473">
        <ele>172</ele>
        <time>2017-07-31T09:40:08Z</time>
      </trkpt>
      <trkpt lat="45.93826" lon="4.72476">
        <ele>173</ele>
        <time>2017-07-31T09:40:09Z</time>
      </trkpt>
      <trkpt lat="45.93833" lon="4.72479">
        <ele>173</ele>
        <time>2017-07-31T09:40:11Z</time>
      </trkpt>
      <trkpt lat="45.93835" lon="4.72477">
        <ele>173</ele>
        <time>2017-07-31T09:40:12Z</time>
      </trkpt>
      <trkpt lat="45.93837" lon="4.72499">
        <ele>174</ele>
        <time>2017-07-31T09:40:13Z</time>
      </trkpt>
      <trkpt lat="45.9385" lon="4.72511">
        <ele>174</ele>
        <time>2017-07-31T09:40:14Z</time>
      </trkpt>
      <trkpt lat="45.93861" lon="4.72516">
        <ele>173</ele>
        <time>2017-07-31T09:40:15Z</time>
      </trkpt>
      <trkpt lat="45.93864" lon="4.72517">
        <ele>173</ele>
        <time>2017-07-31T09:40:16Z</time>
      </trkpt>
      <trkpt lat="45.93871" lon="4.72513">
        <ele>173</ele>
        <time>2017-07-31T09:40:17Z</time>
      </trkpt>
      <trkpt lat="45.93877" lon="4.72508">
        <ele>173</ele>
        <time>2017-07-31T09:40:18Z</time>
      </trkpt>
      <trkpt lat="45.93881" lon="4.72504">
        <ele>173</ele>
        <time>2017-07-31T09:40:19Z</time>
      </trkpt>
      <trkpt lat="45.93886" lon="4.725">
        <ele>172</ele>
        <time>2017-07-31T09:40:20Z</time>
      </trkpt>
      <trkpt lat="45.9389" lon="4.72495">
        <ele>172</ele>
        <time>2017-07-31T09:40:21Z</time>
      </trkpt>
      <trkpt lat="45.93894" lon="4.72491">
        <ele>172</ele>
        <time>2017-07-31T09:40:22Z</time>
      </trkpt>
      <trkpt lat="45.93899" lon="4.72487">
        <ele>172</ele>
        <time>2017-07-31T09:40:23Z</time>
      </trkpt>
      <trkpt lat="45.93903" lon="4.72482">
        <ele>172</ele>
        <time>2017-07-31T09:40:24Z</time>
      </trkpt>
      <trkpt lat="45.93907" lon="4.72479">
        <ele>172</ele>
        <time>2017-07-31T09:40:25Z</time>
      </trkpt>
      <trkpt lat="45.93911" lon="4.72474">
        <ele>172</ele>
        <time>2017-07-31T09:40:26Z</time>
      </trkpt>
      <trkpt lat="45.93915" lon="4.72469">
        <ele>172</ele>
        <time>2017-07-31T09:40:27Z</time>
      </trkpt>
      <trkpt lat="45.93918" lon="4.72465">
        <ele>171</ele>
        <time>2017-07-31T09:40:28Z</time>
      </trkpt>
      <trkpt lat="45.93922" lon="4.7246">
        <ele>171</ele>
        <time>2017-07-31T09:40:29Z</time>
      </trkpt>
      <trkpt lat="45.93926" lon="4.72455">
        <ele>171</ele>
        <time>2017-07-31T09:40:30Z</time>
      </trkpt>
      <trkpt lat="45.9393" lon="4.7245">
        <ele>171</ele>
        <time>2017-07-31T09:40:31Z</time>
      </trkpt>
      <trkpt lat="45.93935" lon="4.72446">
        <ele>171</ele>
        <time>2017-07-31T09:40:32Z</time>
      </trkpt>
      <trkpt lat="45.93937" lon="4.72441">
        <ele>171</ele>
        <time>2017-07-31T09:40:33Z</time>
      </trkpt>
      <trkpt lat="45.93941" lon="4.72437">
        <ele>171</ele>
        <time>2017-07-31T09:40:34Z</time>
      </trkpt>
      <trkpt lat="45.93945" lon="4.72432">
        <ele>171</ele>
        <time>2017-07-31T09:40:35Z</time>
      </trkpt>
      <trkpt lat="45.9395" lon="4.72428">
        <ele>171</ele>
        <time>2017-07-31T09:40:36Z</time>
      </trkpt>
      <trkpt lat="45.93954" lon="4.72424">
        <ele>171</ele>
        <time>2017-07-31T09:40:37Z</time>
      </trkpt>
      <trkpt lat="45.93957" lon="4.7242">
        <ele>171</ele>
        <time>2017-07-31T09:40:38Z</time>
      </trkpt>
      <trkpt lat="45.93961" lon="4.72415">
        <ele>171</ele>
        <time>2017-07-31T09:40:39Z</time>
      </trkpt>
      <trkpt lat="45.93965" lon="4.72411">
        <ele>171</ele>
        <time>2017-07-31T09:40:40Z</time>
      </trkpt>
      <trkpt lat="45.93969" lon="4.72407">
        <ele>171</ele>
        <time>2017-07-31T09:40:41Z</time>
      </trkpt>
      <trkpt lat="45.93973" lon="4.72402">
        <ele>171</ele>
        <time>2017-07-31T09:40:42Z</time>
      </trkpt>
      <trkpt lat="45.93977" lon="4.72397">
        <ele>171</ele>
        <time>2017-07-31T09:40:43Z</time>
      </trkpt>
      <trkpt lat="45.93981" lon="4.72392">
        <ele>171</ele>
        <time>2017-07-31T09:40:44Z</time>
      </trkpt>
      <trkpt lat="45.93986" lon="4.72387">
        <ele>171</ele>
        <time>2017-07-31T09:40:45Z</time>
      </trkpt>
      <trkpt lat="45.93991" lon="4.72381">
        <ele>171</ele>
        <time>2017-07-31T09:40:46Z</time>
      </trkpt>
      <trkpt lat="45.93995" lon="4.72375">
        <ele>171</ele>
        <time>2017-07-31T09:40:47Z</time>
      </trkpt>
      <trkpt lat="45.93999" lon="4.72368">
        <ele>171</ele>
        <time>2017-07-31T09:40:48Z</time>
      </trkpt>
      <trkpt lat="45.94003" lon="4.72362">
        <ele>171</ele>
        <time>2017-07-31T09:40:49Z</time>
      </trkpt>
      <trkpt lat="45.94008" lon="4.72355">
        <ele>171</ele>
        <time>2017-07-31T09:40:50Z</time>
      </trkpt>
      <trkpt lat="45.94012" lon="4.72349">
        <ele>171</ele>
        <time>2017-07-31T09:40:51Z</time>
      </trkpt>
      <trkpt lat="45.94017" lon="4.72343">
        <ele>171</ele>
        <time>2017-07-31T09:40:52Z</time>
      </trkpt>
      <trkpt lat="45.94022" lon="4.72336">
        <ele>171</ele>
        <time>2017-07-31T09:40:53Z</time>
      </trkpt>
      <trkpt lat="45.94026" lon="4.72331">
        <ele>171</ele>
        <time>2017-07-31T09:40:54Z</time>
      </trkpt>
      <trkpt lat="45.9403" lon="4.72325">
        <ele>171</ele>
        <time>2017-07-31T09:40:55Z</time>
      </trkpt>
      <trkpt lat="45.94037" lon="4.72317">
        <ele>171</ele>
        <time>2017-07-31T09:40:57Z</time>
      </trkpt>
      <trkpt lat="45.9404" lon="4.72313">
        <ele>171</ele>
        <time>2017-07-31T09:40:58Z</time>
      </trkpt>
      <trkpt lat="45.94044" lon="4.7231">
        <ele>171</ele>
        <time>2017-07-31T09:40:59Z</time>
      </trkpt>
      <trkpt lat="45.94047" lon="4.72306">
        <ele>171</ele>
        <time>2017-07-31T09:41:00Z</time>
      </trkpt>
      <trkpt lat="45.94051" lon="4.72301">
        <ele>171</ele>
        <time>2017-07-31T09:41:01Z</time>
      </trkpt>
      <trkpt lat="45.94055" lon="4.72297">
        <ele>171</ele>
        <time>2017-07-31T09:41:02Z</time>
      </trkpt>
      <trkpt lat="45.94059" lon="4.72293">
        <ele>171</ele>
        <time>2017-07-31T09:41:03Z</time>
      </trkpt>
      <trkpt lat="45.94062" lon="4.72289">
        <ele>171</ele>
        <time>2017-07-31T09:41:04Z</time>
      </trkpt>
      <trkpt lat="45.94065" lon="4.72284">
        <ele>171</ele>
        <time>2017-07-31T09:41:05Z</time>
      </trkpt>
      <trkpt lat="45.94069" lon="4.72281">
        <ele>171</ele>
        <time>2017-07-31T09:41:06Z</time>
      </trkpt>
      <trkpt lat="45.94073" lon="4.72276">
        <ele>171</ele>
        <time>2017-07-31T09:41:07Z</time>
      </trkpt>
      <trkpt lat="45.94078" lon="4.72271">
        <ele>171</ele>
        <time>2017-07-31T09:41:08Z</time>
      </trkpt>
      <trkpt lat="45.94083" lon="4.72268">
        <ele>171</ele>
        <time>2017-07-31T09:41:09Z</time>
      </trkpt>
      <trkpt lat="45.9409" lon="4.72264">
        <ele>171</ele>
        <time>2017-07-31T09:41:10Z</time>
      </trkpt>
      <trkpt lat="45.94096" lon="4.72262">
        <ele>171</ele>
        <time>2017-07-31T09:41:11Z</time>
      </trkpt>
      <trkpt lat="45.94101" lon="4.7226">
        <ele>171</ele>
        <time>2017-07-31T09:41:12Z</time>
      </trkpt>
      <trkpt lat="45.94107" lon="4.72259">
        <ele>171</ele>
        <time>2017-07-31T09:41:13Z</time>
      </trkpt>
      <trkpt lat="45.94112" lon="4.7226">
        <ele>171</ele>
        <time>2017-07-31T09:41:14Z</time>
      </trkpt>
      <trkpt lat="45.94117" lon="4.72261">
        <ele>171</ele>
        <time>2017-07-31T09:41:15Z</time>
      </trkpt>
      <trkpt lat="45.94122" lon="4.72262">
        <ele>171</ele>
        <time>2017-07-31T09:41:16Z</time>
      </trkpt>
      <trkpt lat="45.9413" lon="4.72266">
        <ele>171</ele>
        <time>2017-07-31T09:41:18Z</time>
      </trkpt>
      <trkpt lat="45.94134" lon="4.72269">
        <ele>171</ele>
        <time>2017-07-31T09:41:19Z</time>
      </trkpt>
      <trkpt lat="45.94139" lon="4.72271">
        <ele>171</ele>
        <time>2017-07-31T09:41:20Z</time>
      </trkpt>
      <trkpt lat="45.94144" lon="4.72273">
        <ele>171</ele>
        <time>2017-07-31T09:41:21Z</time>
      </trkpt>
      <trkpt lat="45.94149" lon="4.72275">
        <ele>171</ele>
        <time>2017-07-31T09:41:22Z</time>
      </trkpt>
      <trkpt lat="45.94155" lon="4.72277">
        <ele>171</ele>
        <time>2017-07-31T09:41:23Z</time>
      </trkpt>
      <trkpt lat="45.9416" lon="4.72279">
        <ele>171</ele>
        <time>2017-07-31T09:41:24Z</time>
      </trkpt>
      <trkpt lat="45.94165" lon="4.72281">
        <ele>171</ele>
        <time>2017-07-31T09:41:25Z</time>
      </trkpt>
      <trkpt lat="45.9417" lon="4.72282">
        <ele>171</ele>
        <time>2017-07-31T09:41:26Z</time>
      </trkpt>
      <trkpt lat="45.94175" lon="4.72282">
        <ele>171</ele>
        <time>2017-07-31T09:41:27Z</time>
      </trkpt>
      <trkpt lat="45.9418" lon="4.72282">
        <ele>171</ele>
        <time>2017-07-31T09:41:28Z</time>
      </trkpt>
      <trkpt lat="45.94185" lon="4.72281">
        <ele>171</ele>
        <time>2017-07-31T09:41:29Z</time>
      </trkpt>
      <trkpt lat="45.94193" lon="4.72281">
        <ele>171</ele>
        <time>2017-07-31T09:41:31Z</time>
      </trkpt>
      <trkpt lat="45.94197" lon="4.72281">
        <ele>171</ele>
        <time>2017-07-31T09:41:32Z</time>
      </trkpt>
      <trkpt lat="45.94206" lon="4.72282">
        <ele>171</ele>
        <time>2017-07-31T09:41:34Z</time>
      </trkpt>
      <trkpt lat="45.9421" lon="4.72282">
        <ele>171</ele>
        <time>2017-07-31T09:41:35Z</time>
      </trkpt>
      <trkpt lat="45.94216" lon="4.72283">
        <ele>171</ele>
        <time>2017-07-31T09:41:36Z</time>
      </trkpt>
      <trkpt lat="45.9422" lon="4.72283">
        <ele>171</ele>
        <time>2017-07-31T09:41:37Z</time>
      </trkpt>
      <trkpt lat="45.94225" lon="4.72281">
        <ele>171</ele>
        <time>2017-07-31T09:41:38Z</time>
      </trkpt>
      <trkpt lat="45.9423" lon="4.72281">
        <ele>171</ele>
        <time>2017-07-31T09:41:39Z</time>
      </trkpt>
      <trkpt lat="45.94234" lon="4.7228">
        <ele>171</ele>
        <time>2017-07-31T09:41:40Z</time>
      </trkpt>
      <trkpt lat="45.94239" lon="4.72279">
        <ele>171</ele>
        <time>2017-07-31T09:41:41Z</time>
      </trkpt>
      <trkpt lat="45.94247" lon="4.72276">
        <ele>171</ele>
        <time>2017-07-31T09:41:43Z</time>
      </trkpt>
      <trkpt lat="45.94251" lon="4.72274">
        <ele>171</ele>
        <time>2017-07-31T09:41:44Z</time>
      </trkpt>
      <trkpt lat="45.94259" lon="4.7227">
        <ele>171</ele>
        <time>2017-07-31T09:41:46Z</time>
      </trkpt>
      <trkpt lat="45.94263" lon="4.72269">
        <ele>171</ele>
        <time>2017-07-31T09:41:47Z</time>
      </trkpt>
      <trkpt lat="45.94271" lon="4.72271">
        <ele>171</ele>
        <time>2017-07-31T09:41:49Z</time>
      </trkpt>
      <trkpt lat="45.94274" lon="4.72272">
        <ele>171</ele>
        <time>2017-07-31T09:41:50Z</time>
      </trkpt>
      <trkpt lat="45.94278" lon="4.72281">
        <ele>171</ele>
        <time>2017-07-31T09:41:52Z</time>
      </trkpt>
      <trkpt lat="45.9428" lon="4.72287">
        <ele>171</ele>
        <time>2017-07-31T09:41:53Z</time>
      </trkpt>
      <trkpt lat="45.94282" lon="4.72293">
        <ele>171</ele>
        <time>2017-07-31T09:41:54Z</time>
      </trkpt>
      <trkpt lat="45.94285" lon="4.72299">
        <ele>171</ele>
        <time>2017-07-31T09:41:55Z</time>
      </trkpt>
      <trkpt lat="45.94288" lon="4.72303">
        <ele>171</ele>
        <time>2017-07-31T09:41:56Z</time>
      </trkpt>
      <trkpt lat="45.94291" lon="4.72309">
        <ele>171</ele>
        <time>2017-07-31T09:41:57Z</time>
      </trkpt>
      <trkpt lat="45.94294" lon="4.72317">
        <ele>171</ele>
        <time>2017-07-31T09:41:58Z</time>
      </trkpt>
      <trkpt lat="45.94297" lon="4.72323">
        <ele>171</ele>
        <time>2017-07-31T09:41:59Z</time>
      </trkpt>
      <trkpt lat="45.943" lon="4.7233">
        <ele>171</ele>
        <time>2017-07-31T09:42:00Z</time>
      </trkpt>
      <trkpt lat="45.94303" lon="4.72335">
        <ele>172</ele>
        <time>2017-07-31T09:42:01Z</time>
      </trkpt>
      <trkpt lat="45.94306" lon="4.7234">
        <ele>172</ele>
        <time>2017-07-31T09:42:02Z</time>
      </trkpt>
      <trkpt lat="45.94309" lon="4.72346">
        <ele>172</ele>
        <time>2017-07-31T09:42:03Z</time>
      </trkpt>
      <trkpt lat="45.94311" lon="4.72351">
        <ele>172</ele>
        <time>2017-07-31T09:42:04Z</time>
      </trkpt>
      <trkpt lat="45.94314" lon="4.72357">
        <ele>172</ele>
        <time>2017-07-31T09:42:05Z</time>
      </trkpt>
      <trkpt lat="45.94317" lon="4.72361">
        <ele>172</ele>
        <time>2017-07-31T09:42:06Z</time>
      </trkpt>
      <trkpt lat="45.9432" lon="4.72366">
        <ele>172</ele>
        <time>2017-07-31T09:42:07Z</time>
      </trkpt>
      <trkpt lat="45.94323" lon="4.72372">
        <ele>172</ele>
        <time>2017-07-31T09:42:08Z</time>
      </trkpt>
      <trkpt lat="45.94325" lon="4.72377">
        <ele>172</ele>
        <time>2017-07-31T09:42:09Z</time>
      </trkpt>
      <trkpt lat="45.94327" lon="4.72385">
        <ele>172</ele>
        <time>2017-07-31T09:42:10Z</time>
      </trkpt>
      <trkpt lat="45.9433" lon="4.72392">
        <ele>172</ele>
        <time>2017-07-31T09:42:11Z</time>
      </trkpt>
      <trkpt lat="45.94333" lon="4.72399">
        <ele>173</ele>
        <time>2017-07-31T09:42:12Z</time>
      </trkpt>
      <trkpt lat="45.94337" lon="4.72406">
        <ele>173</ele>
        <time>2017-07-31T09:42:13Z</time>
      </trkpt>
      <trkpt lat="45.94339" lon="4.72411">
        <ele>173</ele>
        <time>2017-07-31T09:42:14Z</time>
      </trkpt>
      <trkpt lat="45.94343" lon="4.72418">
        <ele>173</ele>
        <time>2017-07-31T09:42:15Z</time>
      </trkpt>
      <trkpt lat="45.94346" lon="4.72425">
        <ele>173</ele>
        <time>2017-07-31T09:42:16Z</time>
      </trkpt>
      <trkpt lat="45.94348" lon="4.72431">
        <ele>173</ele>
        <time>2017-07-31T09:42:17Z</time>
      </trkpt>
      <trkpt lat="45.94351" lon="4.72437">
        <ele>173</ele>
        <time>2017-07-31T09:42:18Z</time>
      </trkpt>
      <trkpt lat="45.94354" lon="4.72443">
        <ele>173</ele>
        <time>2017-07-31T09:42:19Z</time>
      </trkpt>
      <trkpt lat="45.94356" lon="4.72449">
        <ele>173</ele>
        <time>2017-07-31T09:42:20Z</time>
      </trkpt>
      <trkpt lat="45.94359" lon="4.72455">
        <ele>173</ele>
        <time>2017-07-31T09:42:21Z</time>
      </trkpt>
      <trkpt lat="45.94363" lon="4.72464">
        <ele>173</ele>
        <time>2017-07-31T09:42:23Z</time>
      </trkpt>
      <trkpt lat="45.94367" lon="4.7247">
        <ele>173</ele>
        <time>2017-07-31T09:42:24Z</time>
      </trkpt>
      <trkpt lat="45.9437" lon="4.72475">
        <ele>173</ele>
        <time>2017-07-31T09:42:25Z</time>
      </trkpt>
      <trkpt lat="45.94372" lon="4.72481">
        <ele>173</ele>
        <time>2017-07-31T09:42:26Z</time>
      </trkpt>
      <trkpt lat="45.94374" lon="4.72487">
        <ele>173</ele>
        <time>2017-07-31T09:42:27Z</time>
      </trkpt>
      <trkpt lat="45.94379" lon="4.72495">
        <ele>173</ele>
        <time>2017-07-31T09:42:28Z</time>
      </trkpt>
      <trkpt lat="45.94382" lon="4.72503">
        <ele>174</ele>
        <time>2017-07-31T09:42:29Z</time>
      </trkpt>
      <trkpt lat="45.94384" lon="4.72511">
        <ele>174</ele>
        <time>2017-07-31T09:42:30Z</time>
      </trkpt>
      <trkpt lat="45.94385" lon="4.72521">
        <ele>174</ele>
        <time>2017-07-31T09:42:31Z</time>
      </trkpt>
      <trkpt lat="45.94387" lon="4.72529">
        <ele>174</ele>
        <time>2017-07-31T09:42:32Z</time>
      </trkpt>
      <trkpt lat="45.94386" lon="4.72538">
        <ele>174</ele>
        <time>2017-07-31T09:42:33Z</time>
      </trkpt>
      <trkpt lat="45.94387" lon="4.72547">
        <ele>173</ele>
        <time>2017-07-31T09:42:34Z</time>
      </trkpt>
      <trkpt lat="45.94389" lon="4.72555">
        <ele>173</ele>
        <time>2017-07-31T09:42:35Z</time>
      </trkpt>
      <trkpt lat="45.94391" lon="4.72562">
        <ele>173</ele>
        <time>2017-07-31T09:42:36Z</time>
      </trkpt>
      <trkpt lat="45.94392" lon="4.72569">
        <ele>173</ele>
        <time>2017-07-31T09:42:37Z</time>
      </trkpt>
      <trkpt lat="45.94392" lon="4.72576">
        <ele>173</ele>
        <time>2017-07-31T09:42:38Z</time>
      </trkpt>
      <trkpt lat="45.94393" lon="4.72583">
        <ele>173</ele>
        <time>2017-07-31T09:42:39Z</time>
      </trkpt>
      <trkpt lat="45.94395" lon="4.7259">
        <ele>173</ele>
        <time>2017-07-31T09:42:40Z</time>
      </trkpt>
      <trkpt lat="45.94396" lon="4.72596">
        <ele>173</ele>
        <time>2017-07-31T09:42:41Z</time>
      </trkpt>
      <trkpt lat="45.94397" lon="4.72604">
        <ele>173</ele>
        <time>2017-07-31T09:42:42Z</time>
      </trkpt>
      <trkpt lat="45.94398" lon="4.72612">
        <ele>173</ele>
        <time>2017-07-31T09:42:43Z</time>
      </trkpt>
      <trkpt lat="45.94399" lon="4.7262">
        <ele>173</ele>
        <time>2017-07-31T09:42:44Z</time>
      </trkpt>
      <trkpt lat="45.944" lon="4.72627">
        <ele>174</ele>
        <time>2017-07-31T09:42:45Z</time>
      </trkpt>
      <trkpt lat="45.94401" lon="4.72635">
        <ele>174</ele>
        <time>2017-07-31T09:42:46Z</time>
      </trkpt>
      <trkpt lat="45.94402" lon="4.72643">
        <ele>174</ele>
        <time>2017-07-31T09:42:47Z</time>
      </trkpt>
      <trkpt lat="45.94403" lon="4.72651">
        <ele>174</ele>
        <time>2017-07-31T09:42:48Z</time>
      </trkpt>
      <trkpt lat="45.94404" lon="4.7266">
        <ele>174</ele>
        <time>2017-07-31T09:42:49Z</time>
      </trkpt>
      <trkpt lat="45.94406" lon="4.72668">
        <ele>173</ele>
        <time>2017-07-31T09:42:50Z</time>
      </trkpt>
      <trkpt lat="45.94407" lon="4.72675">
        <ele>173</ele>
        <time>2017-07-31T09:42:51Z</time>
      </trkpt>
      <trkpt lat="45.94408" lon="4.72682">
        <ele>173</ele>
        <time>2017-07-31T09:42:52Z</time>
      </trkpt>
      <trkpt lat="45.94409" lon="4.7269">
        <ele>173</ele>
        <time>2017-07-31T09:42:53Z</time>
      </trkpt>
      <trkpt lat="45.9441" lon="4.72696">
        <ele>173</ele>
        <time>2017-07-31T09:42:54Z</time>
      </trkpt>
      <trkpt lat="45.94411" lon="4.72703">
        <ele>172</ele>
        <time>2017-07-31T09:42:55Z</time>
      </trkpt>
      <trkpt lat="45.94412" lon="4.7271">
        <ele>172</ele>
        <time>2017-07-31T09:42:56Z</time>
      </trkpt>
      <trkpt lat="45.94414" lon="4.72722">
        <ele>172</ele>
        <time>2017-07-31T09:42:58Z</time>
      </trkpt>
      <trkpt lat="45.94414" lon="4.72728">
        <ele>172</ele>
        <time>2017-07-31T09:42:59Z</time>
      </trkpt>
      <trkpt lat="45.94415" lon="4.72735">
        <ele>171</ele>
        <time>2017-07-31T09:43:00Z</time>
      </trkpt>
      <trkpt lat="45.94416" lon="4.72742">
        <ele>171</ele>
        <time>2017-07-31T09:43:01Z</time>
      </trkpt>
      <trkpt lat="45.94417" lon="4.72749">
        <ele>171</ele>
        <time>2017-07-31T09:43:02Z</time>
      </trkpt>
      <trkpt lat="45.94418" lon="4.72755">
        <ele>170</ele>
        <time>2017-07-31T09:43:03Z</time>
      </trkpt>
      <trkpt lat="45.94418" lon="4.72762">
        <ele>169</ele>
        <time>2017-07-31T09:43:04Z</time>
      </trkpt>
      <trkpt lat="45.94419" lon="4.7277">
        <ele>169</ele>
        <time>2017-07-31T09:43:05Z</time>
      </trkpt>
      <trkpt lat="45.94419" lon="4.72777">
        <ele>168</ele>
        <time>2017-07-31T09:43:06Z</time>
      </trkpt>
      <trkpt lat="45.94419" lon="4.72786">
        <ele>168</ele>
        <time>2017-07-31T09:43:07Z</time>
      </trkpt>
      <trkpt lat="45.9442" lon="4.72794">
        <ele>168</ele>
        <time>2017-07-31T09:43:08Z</time>
      </trkpt>
      <trkpt lat="45.9442" lon="4.72801">
        <ele>167</ele>
        <time>2017-07-31T09:43:09Z</time>
      </trkpt>
      <trkpt lat="45.94419" lon="4.72808">
        <ele>167</ele>
        <time>2017-07-31T09:43:10Z</time>
      </trkpt>
      <trkpt lat="45.94421" lon="4.72815">
        <ele>167</ele>
        <time>2017-07-31T09:43:11Z</time>
      </trkpt>
      <trkpt lat="45.94422" lon="4.72827">
        <ele>166</ele>
        <time>2017-07-31T09:43:13Z</time>
      </trkpt>
      <trkpt lat="45.94422" lon="4.72834">
        <ele>166</ele>
        <time>2017-07-31T09:43:14Z</time>
      </trkpt>
      <trkpt lat="45.94422" lon="4.72841">
        <ele>166</ele>
        <time>2017-07-31T09:43:15Z</time>
      </trkpt>
      <trkpt lat="45.94423" lon="4.72847">
        <ele>166</ele>
        <time>2017-07-31T09:43:16Z</time>
      </trkpt>
      <trkpt lat="45.94424" lon="4.72854">
        <ele>166</ele>
        <time>2017-07-31T09:43:17Z</time>
      </trkpt>
      <trkpt lat="45.94424" lon="4.7286">
        <ele>166</ele>
        <time>2017-07-31T09:43:18Z</time>
      </trkpt>
      <trkpt lat="45.94425" lon="4.72867">
        <ele>166</ele>
        <time>2017-07-31T09:43:19Z</time>
      </trkpt>
      <trkpt lat="45.94428" lon="4.72873">
        <ele>166</ele>
        <time>2017-07-31T09:43:20Z</time>
      </trkpt>
      <trkpt lat="45.94429" lon="4.72879">
        <ele>166</ele>
        <time>2017-07-31T09:43:21Z</time>
      </trkpt>
      <trkpt lat="45.9443" lon="4.72886">
        <ele>166</ele>
        <time>2017-07-31T09:43:22Z</time>
      </trkpt>
      <trkpt lat="45.9443" lon="4.72892">
        <ele>166</ele>
        <time>2017-07-31T09:43:23Z</time>
      </trkpt>
      <trkpt lat="45.94431" lon="4.72899">
        <ele>166</ele>
        <time>2017-07-31T09:43:24Z</time>
      </trkpt>
      <trkpt lat="45.94433" lon="4.72911">
        <ele>166</ele>
        <time>2017-07-31T09:43:26Z</time>
      </trkpt>
      <trkpt lat="45.94434" lon="4.72916">
        <ele>166</ele>
        <time>2017-07-31T09:43:27Z</time>
      </trkpt>
      <trkpt lat="45.94435" lon="4.72927">
        <ele>167</ele>
        <time>2017-07-31T09:43:29Z</time>
      </trkpt>
      <trkpt lat="45.94436" lon="4.72933">
        <ele>167</ele>
        <time>2017-07-31T09:43:30Z</time>
      </trkpt>
      <trkpt lat="45.94438" lon="4.72945">
        <ele>167</ele>
        <time>2017-07-31T09:43:32Z</time>
      </trkpt>
      <trkpt lat="45.94439" lon="4.72952">
        <ele>167</ele>
        <time>2017-07-31T09:43:33Z</time>
      </trkpt>
      <trkpt lat="45.94441" lon="4.72959">
        <ele>167</ele>
        <time>2017-07-31T09:43:34Z</time>
      </trkpt>
      <trkpt lat="45.94441" lon="4.72966">
        <ele>167</ele>
        <time>2017-07-31T09:43:35Z</time>
      </trkpt>
      <trkpt lat="45.94442" lon="4.72973">
        <ele>167</ele>
        <time>2017-07-31T09:43:36Z</time>
      </trkpt>
      <trkpt lat="45.94444" lon="4.72981">
        <ele>167</ele>
        <time>2017-07-31T09:43:37Z</time>
      </trkpt>
      <trkpt lat="45.94447" lon="4.7299">
        <ele>167</ele>
        <time>2017-07-31T09:43:38Z</time>
      </trkpt>
      <trkpt lat="45.94449" lon="4.72997">
        <ele>167</ele>
        <time>2017-07-31T09:43:39Z</time>
      </trkpt>
      <trkpt lat="45.9445" lon="4.73005">
        <ele>169</ele>
        <time>2017-07-31T09:43:40Z</time>
      </trkpt>
      <trkpt lat="45.94451" lon="4.73013">
        <ele>169</ele>
        <time>2017-07-31T09:43:41Z</time>
      </trkpt>
      <trkpt lat="45.94453" lon="4.73021">
        <ele>169</ele>
        <time>2017-07-31T09:43:42Z</time>
      </trkpt>
      <trkpt lat="45.94454" lon="4.73029">
        <ele>169</ele>
        <time>2017-07-31T09:43:43Z</time>
      </trkpt>
      <trkpt lat="45.94456" lon="4.73038">
        <ele>169</ele>
        <time>2017-07-31T09:43:44Z</time>
      </trkpt>
      <trkpt lat="45.94457" lon="4.73046">
        <ele>170</ele>
        <time>2017-07-31T09:43:45Z</time>
      </trkpt>
      <trkpt lat="45.94459" lon="4.73052">
        <ele>170</ele>
        <time>2017-07-31T09:43:46Z</time>
      </trkpt>
      <trkpt lat="45.94461" lon="4.7306">
        <ele>170</ele>
        <time>2017-07-31T09:43:47Z</time>
      </trkpt>
      <trkpt lat="45.94463" lon="4.73067">
        <ele>170</ele>
        <time>2017-07-31T09:43:48Z</time>
      </trkpt>
      <trkpt lat="45.94466" lon="4.73073">
        <ele>170</ele>
        <time>2017-07-31T09:43:49Z</time>
      </trkpt>
      <trkpt lat="45.94473" lon="4.73079">
        <ele>170</ele>
        <time>2017-07-31T09:43:51Z</time>
      </trkpt>
      <trkpt lat="45.94478" lon="4.7308">
        <ele>171</ele>
        <time>2017-07-31T09:43:52Z</time>
      </trkpt>
      <trkpt lat="45.94482" lon="4.73081">
        <ele>171</ele>
        <time>2017-07-31T09:43:53Z</time>
      </trkpt>
      <trkpt lat="45.94487" lon="4.73083">
        <ele>171</ele>
        <time>2017-07-31T09:43:54Z</time>
      </trkpt>
      <trkpt lat="45.94493" lon="4.73085">
        <ele>172</ele>
        <time>2017-07-31T09:43:55Z</time>
      </trkpt>
      <trkpt lat="45.94498" lon="4.73086">
        <ele>172</ele>
        <time>2017-07-31T09:43:56Z</time>
      </trkpt>
      <trkpt lat="45.94504" lon="4.73087">
        <ele>172</ele>
        <time>2017-07-31T09:43:57Z</time>
      </trkpt>
      <trkpt lat="45.94509" lon="4.73089">
        <ele>172</ele>
        <time>2017-07-31T09:43:58Z</time>
      </trkpt>
      <trkpt lat="45.94514" lon="4.7309">
        <ele>172</ele>
        <time>2017-07-31T09:43:59Z</time>
      </trkpt>
      <trkpt lat="45.94518" lon="4.73092">
        <ele>172</ele>
        <time>2017-07-31T09:44:00Z</time>
      </trkpt>
      <trkpt lat="45.94525" lon="4.73093">
        <ele>172</ele>
        <time>2017-07-31T09:44:02Z</time>
      </trkpt>
      <trkpt lat="45.94528" lon="4.73094">
        <ele>172</ele>
        <time>2017-07-31T09:44:03Z</time>
      </trkpt>
      <trkpt lat="45.94534" lon="4.73095">
        <ele>173</ele>
        <time>2017-07-31T09:44:05Z</time>
      </trkpt>
      <trkpt lat="45.94537" lon="4.73096">
        <ele>173</ele>
        <time>2017-07-31T09:44:06Z</time>
      </trkpt>
      <trkpt lat="45.94545" lon="4.73099">
        <ele>173</ele>
        <time>2017-07-31T09:44:09Z</time>
      </trkpt>
      <trkpt lat="45.94547" lon="4.731">
        <ele>173</ele>
        <time>2017-07-31T09:44:10Z</time>
      </trkpt>
      <trkpt lat="45.94554" lon="4.73093">
        <ele>172</ele>
        <time>2017-07-31T09:44:14Z</time>
      </trkpt>
      <trkpt lat="45.94554" lon="4.7309">
        <ele>172</ele>
        <time>2017-07-31T09:44:15Z</time>
      </trkpt>
      <trkpt lat="45.94556" lon="4.7308">
        <ele>172</ele>
        <time>2017-07-31T09:44:19Z</time>
      </trkpt>
      <trkpt lat="45.94556" lon="4.73077">
        <ele>172</ele>
        <time>2017-07-31T09:44:20Z</time>
      </trkpt>
      <trkpt lat="45.94557" lon="4.73068">
        <ele>172</ele>
        <time>2017-07-31T09:44:22Z</time>
      </trkpt>
      <trkpt lat="45.94557" lon="4.73063">
        <ele>172</ele>
        <time>2017-07-31T09:44:23Z</time>
      </trkpt>
      <trkpt lat="45.94556" lon="4.73053">
        <ele>172</ele>
        <time>2017-07-31T09:44:25Z</time>
      </trkpt>
      <trkpt lat="45.94555" lon="4.73048">
        <ele>172</ele>
        <time>2017-07-31T09:44:26Z</time>
      </trkpt>
      <trkpt lat="45.94553" lon="4.73036">
        <ele>171</ele>
        <time>2017-07-31T09:44:30Z</time>
      </trkpt>
      <trkpt lat="45.94551" lon="4.73034">
        <ele>171</ele>
        <time>2017-07-31T09:44:31Z</time>
      </trkpt>
      <trkpt lat="45.94546" lon="4.73026">
        <ele>171</ele>
        <time>2017-07-31T09:44:33Z</time>
      </trkpt>
      <trkpt lat="45.94543" lon="4.73023">
        <ele>171</ele>
        <time>2017-07-31T09:44:34Z</time>
      </trkpt>
      <trkpt lat="45.94537" lon="4.73015">
        <ele>171</ele>
        <time>2017-07-31T09:44:36Z</time>
      </trkpt>
      <trkpt lat="45.94534" lon="4.73013">
        <ele>171</ele>
        <time>2017-07-31T09:44:37Z</time>
      </trkpt>
      <trkpt lat="45.94527" lon="4.73009">
        <ele>171</ele>
        <time>2017-07-31T09:44:44Z</time>
      </trkpt>
      <trkpt lat="45.94525" lon="4.73008">
        <ele>171</ele>
        <time>2017-07-31T09:44:45Z</time>
      </trkpt>
      <trkpt lat="45.94518" lon="4.73002">
        <ele>171</ele>
        <time>2017-07-31T09:44:48Z</time>
      </trkpt>
      <trkpt lat="45.94514" lon="4.73002">
        <ele>171</ele>
        <time>2017-07-31T09:44:49Z</time>
      </trkpt>
      <trkpt lat="45.94506" lon="4.73002">
        <ele>171</ele>
        <time>2017-07-31T09:44:51Z</time>
      </trkpt>
      <trkpt lat="45.94501" lon="4.73003">
        <ele>171</ele>
        <time>2017-07-31T09:44:52Z</time>
      </trkpt>
      <trkpt lat="45.94495" lon="4.73003">
        <ele>171</ele>
        <time>2017-07-31T09:44:54Z</time>
      </trkpt>
      <trkpt lat="45.94491" lon="4.73003">
        <ele>170</ele>
        <time>2017-07-31T09:44:55Z</time>
      </trkpt>
      <trkpt lat="45.94484" lon="4.73003">
        <ele>170</ele>
        <time>2017-07-31T09:44:57Z</time>
      </trkpt>
      <trkpt lat="45.94481" lon="4.73002">
        <ele>170</ele>
        <time>2017-07-31T09:44:58Z</time>
      </trkpt>
      <trkpt lat="45.94475" lon="4.73002">
        <ele>170</ele>
        <time>2017-07-31T09:45:00Z</time>
      </trkpt>
      <trkpt lat="45.94472" lon="4.73001">
        <ele>170</ele>
        <time>2017-07-31T09:45:01Z</time>
      </trkpt>
      <trkpt lat="45.94467" lon="4.73">
        <ele>168</ele>
        <time>2017-07-31T09:45:03Z</time>
      </trkpt>
      <trkpt lat="45.94462" lon="4.73">
        <ele>169</ele>
        <time>2017-07-31T09:45:04Z</time>
      </trkpt>
      <trkpt lat="45.94456" lon="4.73005">
        <ele>169</ele>
        <time>2017-07-31T09:45:05Z</time>
      </trkpt>
      <trkpt lat="45.94452" lon="4.73008">
        <ele>169</ele>
        <time>2017-07-31T09:45:06Z</time>
      </trkpt>
      <trkpt lat="45.94445" lon="4.73015">
        <ele>169</ele>
        <time>2017-07-31T09:45:08Z</time>
      </trkpt>
      <trkpt lat="45.94442" lon="4.73019">
        <ele>169</ele>
        <time>2017-07-31T09:45:09Z</time>
      </trkpt>
      <trkpt lat="45.94434" lon="4.73025">
        <ele>169</ele>
        <time>2017-07-31T09:45:11Z</time>
      </trkpt>
      <trkpt lat="45.94431" lon="4.73028">
        <ele>169</ele>
        <time>2017-07-31T09:45:12Z</time>
      </trkpt>
      <trkpt lat="45.94426" lon="4.73031">
        <ele>169</ele>
        <time>2017-07-31T09:45:13Z</time>
      </trkpt>
      <trkpt lat="45.94423" lon="4.73034">
        <ele>169</ele>
        <time>2017-07-31T09:45:14Z</time>
      </trkpt>
      <trkpt lat="45.94418" lon="4.73037">
        <ele>169</ele>
        <time>2017-07-31T09:45:15Z</time>
      </trkpt>
      <trkpt lat="45.94414" lon="4.7304">
        <ele>167</ele>
        <time>2017-07-31T09:45:16Z</time>
      </trkpt>
      <trkpt lat="45.94408" lon="4.73045">
        <ele>167</ele>
        <time>2017-07-31T09:45:18Z</time>
      </trkpt>
      <trkpt lat="45.94405" lon="4.73048">
        <ele>167</ele>
        <time>2017-07-31T09:45:19Z</time>
      </trkpt>
      <trkpt lat="45.94399" lon="4.73049">
        <ele>167</ele>
        <time>2017-07-31T09:45:21Z</time>
      </trkpt>
      <trkpt lat="45.94395" lon="4.73054">
        <ele>167</ele>
        <time>2017-07-31T09:45:22Z</time>
      </trkpt>
      <trkpt lat="45.9439" lon="4.73057">
        <ele>167</ele>
        <time>2017-07-31T09:45:24Z</time>
      </trkpt>
      <trkpt lat="45.94387" lon="4.73059">
        <ele>167</ele>
        <time>2017-07-31T09:45:25Z</time>
      </trkpt>
      <trkpt lat="45.94381" lon="4.73062">
        <ele>167</ele>
        <time>2017-07-31T09:45:27Z</time>
      </trkpt>
      <trkpt lat="45.94378" lon="4.73064">
        <ele>167</ele>
        <time>2017-07-31T09:45:28Z</time>
      </trkpt>
      <trkpt lat="45.94373" lon="4.73065">
        <ele>167</ele>
        <time>2017-07-31T09:45:29Z</time>
      </trkpt>
      <trkpt lat="45.94367" lon="4.73068">
        <ele>167</ele>
        <time>2017-07-31T09:45:30Z</time>
      </trkpt>
      <trkpt lat="45.9436" lon="4.7307">
        <ele>167</ele>
        <time>2017-07-31T09:45:32Z</time>
      </trkpt>
      <trkpt lat="45.94357" lon="4.73071">
        <ele>167</ele>
        <time>2017-07-31T09:45:33Z</time>
      </trkpt>
      <trkpt lat="45.94349" lon="4.73074">
        <ele>166</ele>
        <time>2017-07-31T09:45:38Z</time>
      </trkpt>
      <trkpt lat="45.94346" lon="4.73076">
        <ele>166</ele>
        <time>2017-07-31T09:45:39Z</time>
      </trkpt>
      <trkpt lat="45.94343" lon="4.73076">
        <ele>166</ele>
        <time>2017-07-31T09:45:49Z</time>
      </trkpt>
      <trkpt lat="45.94335" lon="4.7308">
        <ele>166</ele>
        <time>2017-07-31T09:45:50Z</time>
      </trkpt>
      <trkpt lat="45.94327" lon="4.73087">
        <ele>166</ele>
        <time>2017-07-31T09:45:51Z</time>
      </trkpt>
      <trkpt lat="45.9432" lon="4.73093">
        <ele>167</ele>
        <time>2017-07-31T09:45:52Z</time>
      </trkpt>
      <trkpt lat="45.94311" lon="4.73101">
        <ele>167</ele>
        <time>2017-07-31T09:45:53Z</time>
      </trkpt>
      <trkpt lat="45.94303" lon="4.73107">
        <ele>167</ele>
        <time>2017-07-31T09:45:54Z</time>
      </trkpt>
      <trkpt lat="45.94298" lon="4.73112">
        <ele>167</ele>
        <time>2017-07-31T09:45:55Z</time>
      </trkpt>
      <trkpt lat="45.94294" lon="4.73122">
        <ele>167</ele>
        <time>2017-07-31T09:46:00Z</time>
      </trkpt>
      <trkpt lat="45.94292" lon="4.73124">
        <ele>167</ele>
        <time>2017-07-31T09:46:01Z</time>
      </trkpt>
      <trkpt lat="45.94287" lon="4.73128">
        <ele>167</ele>
        <time>2017-07-31T09:46:03Z</time>
      </trkpt>
      <trkpt lat="45.94282" lon="4.73131">
        <ele>167</ele>
        <time>2017-07-31T09:46:04Z</time>
      </trkpt>
      <trkpt lat="45.94277" lon="4.73134">
        <ele>167</ele>
        <time>2017-07-31T09:46:05Z</time>
      </trkpt>
      <trkpt lat="45.94273" lon="4.73138">
        <ele>167</ele>
        <time>2017-07-31T09:46:06Z</time>
      </trkpt>
      <trkpt lat="45.94268" lon="4.73141">
        <ele>167</ele>
        <time>2017-07-31T09:46:07Z</time>
      </trkpt>
      <trkpt lat="45.94264" lon="4.73144">
        <ele>166</ele>
        <time>2017-07-31T09:46:08Z</time>
      </trkpt>
      <trkpt lat="45.94257" lon="4.73148">
        <ele>166</ele>
        <time>2017-07-31T09:46:09Z</time>
      </trkpt>
      <trkpt lat="45.94254" lon="4.7315">
        <ele>166</ele>
        <time>2017-07-31T09:46:10Z</time>
      </trkpt>
      <trkpt lat="45.94246" lon="4.73156">
        <ele>165</ele>
        <time>2017-07-31T09:46:12Z</time>
      </trkpt>
      <trkpt lat="45.94241" lon="4.7316">
        <ele>165</ele>
        <time>2017-07-31T09:46:13Z</time>
      </trkpt>
      <trkpt lat="45.94238" lon="4.73163">
        <ele>165</ele>
        <time>2017-07-31T09:46:14Z</time>
      </trkpt>
      <trkpt lat="45.94234" lon="4.73168">
        <ele>167</ele>
        <time>2017-07-31T09:46:15Z</time>
      </trkpt>
      <trkpt lat="45.9423" lon="4.73173">
        <ele>167</ele>
        <time>2017-07-31T09:46:16Z</time>
      </trkpt>
      <trkpt lat="45.94227" lon="4.73177">
        <ele>167</ele>
        <time>2017-07-31T09:46:17Z</time>
      </trkpt>
      <trkpt lat="45.94223" lon="4.73181">
        <ele>167</ele>
        <time>2017-07-31T09:46:18Z</time>
      </trkpt>
      <trkpt lat="45.94218" lon="4.73186">
        <ele>168</ele>
        <time>2017-07-31T09:46:19Z</time>
      </trkpt>
      <trkpt lat="45.94212" lon="4.73191">
        <ele>168</ele>
        <time>2017-07-31T09:46:20Z</time>
      </trkpt>
      <trkpt lat="45.94207" lon="4.73195">
        <ele>168</ele>
        <time>2017-07-31T09:46:21Z</time>
      </trkpt>
      <trkpt lat="45.94202" lon="4.73198">
        <ele>168</ele>
        <time>2017-07-31T09:46:22Z</time>
      </trkpt>
      <trkpt lat="45.94198" lon="4.73201">
        <ele>168</ele>
        <time>2017-07-31T09:46:23Z</time>
      </trkpt>
      <trkpt lat="45.94192" lon="4.73206">
        <ele>168</ele>
        <time>2017-07-31T09:46:25Z</time>
      </trkpt>
      <trkpt lat="45.94189" lon="4.73209">
        <ele>168</ele>
        <time>2017-07-31T09:46:26Z</time>
      </trkpt>
      <trkpt lat="45.94182" lon="4.73214">
        <ele>169</ele>
        <time>2017-07-31T09:46:28Z</time>
      </trkpt>
      <trkpt lat="45.94179" lon="4.73217">
        <ele>169</ele>
        <time>2017-07-31T09:46:29Z</time>
      </trkpt>
      <trkpt lat="45.94174" lon="4.7322">
        <ele>169</ele>
        <time>2017-07-31T09:46:30Z</time>
      </trkpt>
      <trkpt lat="45.94168" lon="4.73224">
        <ele>169</ele>
        <time>2017-07-31T09:46:31Z</time>
      </trkpt>
      <trkpt lat="45.94163" lon="4.73227">
        <ele>168</ele>
        <time>2017-07-31T09:46:32Z</time>
      </trkpt>
      <trkpt lat="45.94157" lon="4.73231">
        <ele>168</ele>
        <time>2017-07-31T09:46:33Z</time>
      </trkpt>
      <trkpt lat="45.94152" lon="4.73236">
        <ele>168</ele>
        <time>2017-07-31T09:46:34Z</time>
      </trkpt>
      <trkpt lat="45.94146" lon="4.73241">
        <ele>168</ele>
        <time>2017-07-31T09:46:35Z</time>
      </trkpt>
      <trkpt lat="45.94141" lon="4.73245">
        <ele>168</ele>
        <time>2017-07-31T09:46:36Z</time>
      </trkpt>
      <trkpt lat="45.94136" lon="4.73249">
        <ele>168</ele>
        <time>2017-07-31T09:46:37Z</time>
      </trkpt>
      <trkpt lat="45.94129" lon="4.73255">
        <ele>169</ele>
        <time>2017-07-31T09:46:39Z</time>
      </trkpt>
      <trkpt lat="45.94126" lon="4.73258">
        <ele>169</ele>
        <time>2017-07-31T09:46:40Z</time>
      </trkpt>
      <trkpt lat="45.9412" lon="4.73265">
        <ele>169</ele>
        <time>2017-07-31T09:46:43Z</time>
      </trkpt>
      <trkpt lat="45.94117" lon="4.73269">
        <ele>169</ele>
        <time>2017-07-31T09:46:44Z</time>
      </trkpt>
      <trkpt lat="45.94111" lon="4.73275">
        <ele>169</ele>
        <time>2017-07-31T09:46:46Z</time>
      </trkpt>
      <trkpt lat="45.94107" lon="4.73279">
        <ele>169</ele>
        <time>2017-07-31T09:46:47Z</time>
      </trkpt>
      <trkpt lat="45.94101" lon="4.73285">
        <ele>169</ele>
        <time>2017-07-31T09:46:50Z</time>
      </trkpt>
      <trkpt lat="45.94098" lon="4.7329">
        <ele>169</ele>
        <time>2017-07-31T09:46:51Z</time>
      </trkpt>
      <trkpt lat="45.94094" lon="4.73295">
        <ele>170</ele>
        <time>2017-07-31T09:46:52Z</time>
      </trkpt>
      <trkpt lat="45.94091" lon="4.733">
        <ele>170</ele>
        <time>2017-07-31T09:46:53Z</time>
      </trkpt>
      <trkpt lat="45.94087" lon="4.73304">
        <ele>170</ele>
        <time>2017-07-31T09:46:54Z</time>
      </trkpt>
      <trkpt lat="45.94083" lon="4.7331">
        <ele>169</ele>
        <time>2017-07-31T09:46:55Z</time>
      </trkpt>
      <trkpt lat="45.9408" lon="4.73315">
        <ele>169</ele>
        <time>2017-07-31T09:46:56Z</time>
      </trkpt>
      <trkpt lat="45.94076" lon="4.73319">
        <ele>169</ele>
        <time>2017-07-31T09:46:57Z</time>
      </trkpt>
      <trkpt lat="45.94072" lon="4.73324">
        <ele>169</ele>
        <time>2017-07-31T09:46:58Z</time>
      </trkpt>
      <trkpt lat="45.9407" lon="4.73329">
        <ele>169</ele>
        <time>2017-07-31T09:46:59Z</time>
      </trkpt>
      <trkpt lat="45.94066" lon="4.73341">
        <ele>170</ele>
        <time>2017-07-31T09:47:01Z</time>
      </trkpt>
      <trkpt lat="45.94062" lon="4.73347">
        <ele>170</ele>
        <time>2017-07-31T09:47:02Z</time>
      </trkpt>
      <trkpt lat="45.9406" lon="4.73351">
        <ele>170</ele>
        <time>2017-07-31T09:47:03Z</time>
      </trkpt>
      <trkpt lat="45.94056" lon="4.73357">
        <ele>170</ele>
        <time>2017-07-31T09:47:04Z</time>
      </trkpt>
      <trkpt lat="45.94053" lon="4.73362">
        <ele>170</ele>
        <time>2017-07-31T09:47:05Z</time>
      </trkpt>
      <trkpt lat="45.94049" lon="4.73367">
        <ele>169</ele>
        <time>2017-07-31T09:47:06Z</time>
      </trkpt>
      <trkpt lat="45.94046" lon="4.73372">
        <ele>169</ele>
        <time>2017-07-31T09:47:07Z</time>
      </trkpt>
      <trkpt lat="45.94043" lon="4.73378">
        <ele>169</ele>
        <time>2017-07-31T09:47:08Z</time>
      </trkpt>
      <trkpt lat="45.94041" lon="4.73384">
        <ele>169</ele>
        <time>2017-07-31T09:47:09Z</time>
      </trkpt>
      <trkpt lat="45.94038" lon="4.73388">
        <ele>169</ele>
        <time>2017-07-31T09:47:10Z</time>
      </trkpt>
      <trkpt lat="45.94032" lon="4.73397">
        <ele>169</ele>
        <time>2017-07-31T09:47:12Z</time>
      </trkpt>
      <trkpt lat="45.94029" lon="4.734">
        <ele>169</ele>
        <time>2017-07-31T09:47:13Z</time>
      </trkpt>
      <trkpt lat="45.94024" lon="4.73409">
        <ele>168</ele>
        <time>2017-07-31T09:47:15Z</time>
      </trkpt>
      <trkpt lat="45.94022" lon="4.73414">
        <ele>168</ele>
        <time>2017-07-31T09:47:16Z</time>
      </trkpt>
      <trkpt lat="45.94019" lon="4.7342">
        <ele>169</ele>
        <time>2017-07-31T09:47:17Z</time>
      </trkpt>
      <trkpt lat="45.94015" lon="4.73426">
        <ele>169</ele>
        <time>2017-07-31T09:47:18Z</time>
      </trkpt>
      <trkpt lat="45.94013" lon="4.73432">
        <ele>169</ele>
        <time>2017-07-31T09:47:19Z</time>
      </trkpt>
      <trkpt lat="45.9401" lon="4.73437">
        <ele>169</ele>
        <time>2017-07-31T09:47:20Z</time>
      </trkpt>
      <trkpt lat="45.94004" lon="4.73444">
        <ele>169</ele>
        <time>2017-07-31T09:47:22Z</time>
      </trkpt>
      <trkpt lat="45.94001" lon="4.73449">
        <ele>169</ele>
        <time>2017-07-31T09:47:23Z</time>
      </trkpt>
      <trkpt lat="45.93995" lon="4.73458">
        <ele>167</ele>
        <time>2017-07-31T09:47:25Z</time>
      </trkpt>
      <trkpt lat="45.93993" lon="4.73464">
        <ele>167</ele>
        <time>2017-07-31T09:47:26Z</time>
      </trkpt>
      <trkpt lat="45.9399" lon="4.73474">
        <ele>167</ele>
        <time>2017-07-31T09:47:28Z</time>
      </trkpt>
      <trkpt lat="45.93988" lon="4.73478">
        <ele>167</ele>
        <time>2017-07-31T09:47:29Z</time>
      </trkpt>
      <trkpt lat="45.93982" lon="4.73488">
        <ele>167</ele>
        <time>2017-07-31T09:47:31Z</time>
      </trkpt>
      <trkpt lat="45.9398" lon="4.73495">
        <ele>167</ele>
        <time>2017-07-31T09:47:32Z</time>
      </trkpt>
      <trkpt lat="45.93979" lon="4.73501">
        <ele>168</ele>
        <time>2017-07-31T09:47:33Z</time>
      </trkpt>
      <trkpt lat="45.93977" lon="4.73508">
        <ele>167</ele>
        <time>2017-07-31T09:47:34Z</time>
      </trkpt>
      <trkpt lat="45.93973" lon="4.73514">
        <ele>167</ele>
        <time>2017-07-31T09:47:35Z</time>
      </trkpt>
      <trkpt lat="45.93972" lon="4.73524">
        <ele>167</ele>
        <time>2017-07-31T09:47:36Z</time>
      </trkpt>
      <trkpt lat="45.9397" lon="4.73533">
        <ele>167</ele>
        <time>2017-07-31T09:47:37Z</time>
      </trkpt>
      <trkpt lat="45.93969" lon="4.73541">
        <ele>167</ele>
        <time>2017-07-31T09:47:38Z</time>
      </trkpt>
      <trkpt lat="45.93968" lon="4.73548">
        <ele>167</ele>
        <time>2017-07-31T09:47:39Z</time>
      </trkpt>
      <trkpt lat="45.93967" lon="4.73554">
        <ele>167</ele>
        <time>2017-07-31T09:47:40Z</time>
      </trkpt>
      <trkpt lat="45.93965" lon="4.73565">
        <ele>167</ele>
        <time>2017-07-31T09:47:42Z</time>
      </trkpt>
      <trkpt lat="45.93963" lon="4.73571">
        <ele>167</ele>
        <time>2017-07-31T09:47:43Z</time>
      </trkpt>
      <trkpt lat="45.93962" lon="4.73577">
        <ele>167</ele>
        <time>2017-07-31T09:47:44Z</time>
      </trkpt>
      <trkpt lat="45.93961" lon="4.73584">
        <ele>169</ele>
        <time>2017-07-31T09:47:45Z</time>
      </trkpt>
      <trkpt lat="45.9396" lon="4.73593">
        <ele>169</ele>
        <time>2017-07-31T09:47:46Z</time>
      </trkpt>
      <trkpt lat="45.93959" lon="4.73601">
        <ele>169</ele>
        <time>2017-07-31T09:47:47Z</time>
      </trkpt>
      <trkpt lat="45.93958" lon="4.73609">
        <ele>169</ele>
        <time>2017-07-31T09:47:48Z</time>
      </trkpt>
      <trkpt lat="45.93958" lon="4.73618">
        <ele>170</ele>
        <time>2017-07-31T09:47:49Z</time>
      </trkpt>
      <trkpt lat="45.93958" lon="4.73626">
        <ele>170</ele>
        <time>2017-07-31T09:47:50Z</time>
      </trkpt>
      <trkpt lat="45.93957" lon="4.73632">
        <ele>170</ele>
        <time>2017-07-31T09:47:51Z</time>
      </trkpt>
      <trkpt lat="45.93956" lon="4.73644">
        <ele>170</ele>
        <time>2017-07-31T09:47:53Z</time>
      </trkpt>
      <trkpt lat="45.93955" lon="4.73649">
        <ele>170</ele>
        <time>2017-07-31T09:47:54Z</time>
      </trkpt>
      <trkpt lat="45.93953" lon="4.7366">
        <ele>171</ele>
        <time>2017-07-31T09:47:56Z</time>
      </trkpt>
      <trkpt lat="45.93952" lon="4.73665">
        <ele>171</ele>
        <time>2017-07-31T09:47:57Z</time>
      </trkpt>
      <trkpt lat="45.93949" lon="4.73677">
        <ele>172</ele>
        <time>2017-07-31T09:47:59Z</time>
      </trkpt>
      <trkpt lat="45.93948" lon="4.73683">
        <ele>172</ele>
        <time>2017-07-31T09:48:00Z</time>
      </trkpt>
      <trkpt lat="45.93947" lon="4.7369">
        <ele>172</ele>
        <time>2017-07-31T09:48:01Z</time>
      </trkpt>
      <trkpt lat="45.93946" lon="4.73696">
        <ele>172</ele>
        <time>2017-07-31T09:48:02Z</time>
      </trkpt>
      <trkpt lat="45.93944" lon="4.73703">
        <ele>172</ele>
        <time>2017-07-31T09:48:03Z</time>
      </trkpt>
      <trkpt lat="45.93944" lon="4.73709">
        <ele>172</ele>
        <time>2017-07-31T09:48:04Z</time>
      </trkpt>
      <trkpt lat="45.93944" lon="4.73721">
        <ele>172</ele>
        <time>2017-07-31T09:48:06Z</time>
      </trkpt>
      <trkpt lat="45.93943" lon="4.73726">
        <ele>172</ele>
        <time>2017-07-31T09:48:07Z</time>
      </trkpt>
      <trkpt lat="45.93942" lon="4.73736">
        <ele>172</ele>
        <time>2017-07-31T09:48:09Z</time>
      </trkpt>
      <trkpt lat="45.93942" lon="4.73741">
        <ele>172</ele>
        <time>2017-07-31T09:48:10Z</time>
      </trkpt>
      <trkpt lat="45.93942" lon="4.73754">
        <ele>172</ele>
        <time>2017-07-31T09:48:12Z</time>
      </trkpt>
      <trkpt lat="45.93942" lon="4.7376">
        <ele>172</ele>
        <time>2017-07-31T09:48:13Z</time>
      </trkpt>
      <trkpt lat="45.93942" lon="4.73767">
        <ele>172</ele>
        <time>2017-07-31T09:48:14Z</time>
      </trkpt>
      <trkpt lat="45.93941" lon="4.73775">
        <ele>172</ele>
        <time>2017-07-31T09:48:15Z</time>
      </trkpt>
      <trkpt lat="45.93941" lon="4.73782">
        <ele>172</ele>
        <time>2017-07-31T09:48:16Z</time>
      </trkpt>
      <trkpt lat="45.9394" lon="4.73789">
        <ele>172</ele>
        <time>2017-07-31T09:48:17Z</time>
      </trkpt>
      <trkpt lat="45.93939" lon="4.73797">
        <ele>172</ele>
        <time>2017-07-31T09:48:18Z</time>
      </trkpt>
      <trkpt lat="45.93937" lon="4.73805">
        <ele>172</ele>
        <time>2017-07-31T09:48:19Z</time>
      </trkpt>
      <trkpt lat="45.93937" lon="4.73812">
        <ele>171</ele>
        <time>2017-07-31T09:48:20Z</time>
      </trkpt>
      <trkpt lat="45.93937" lon="4.73818">
        <ele>171</ele>
        <time>2017-07-31T09:48:21Z</time>
      </trkpt>
      <trkpt lat="45.93936" lon="4.7383">
        <ele>171</ele>
        <time>2017-07-31T09:48:23Z</time>
      </trkpt>
      <trkpt lat="45.93935" lon="4.73835">
        <ele>171</ele>
        <time>2017-07-31T09:48:24Z</time>
      </trkpt>
      <trkpt lat="45.93935" lon="4.73845">
        <ele>171</ele>
        <time>2017-07-31T09:48:26Z</time>
      </trkpt>
      <trkpt lat="45.93935" lon="4.73851">
        <ele>171</ele>
        <time>2017-07-31T09:48:27Z</time>
      </trkpt>
      <trkpt lat="45.93935" lon="4.73861">
        <ele>171</ele>
        <time>2017-07-31T09:48:29Z</time>
      </trkpt>
      <trkpt lat="45.93934" lon="4.73867">
        <ele>172</ele>
        <time>2017-07-31T09:48:30Z</time>
      </trkpt>
      <trkpt lat="45.93933" lon="4.73873">
        <ele>172</ele>
        <time>2017-07-31T09:48:31Z</time>
      </trkpt>
      <trkpt lat="45.93933" lon="4.7388">
        <ele>172</ele>
        <time>2017-07-31T09:48:32Z</time>
      </trkpt>
      <trkpt lat="45.93932" lon="4.73887">
        <ele>172</ele>
        <time>2017-07-31T09:48:33Z</time>
      </trkpt>
      <trkpt lat="45.9393" lon="4.73894">
        <ele>172</ele>
        <time>2017-07-31T09:48:34Z</time>
      </trkpt>
      <trkpt lat="45.93929" lon="4.73902">
        <ele>171</ele>
        <time>2017-07-31T09:48:35Z</time>
      </trkpt>
      <trkpt lat="45.93928" lon="4.73909">
        <ele>171</ele>
        <time>2017-07-31T09:48:36Z</time>
      </trkpt>
      <trkpt lat="45.93926" lon="4.73916">
        <ele>171</ele>
        <time>2017-07-31T09:48:37Z</time>
      </trkpt>
      <trkpt lat="45.93925" lon="4.73922">
        <ele>171</ele>
        <time>2017-07-31T09:48:38Z</time>
      </trkpt>
      <trkpt lat="45.93923" lon="4.73934">
        <ele>171</ele>
        <time>2017-07-31T09:48:40Z</time>
      </trkpt>
      <trkpt lat="45.93922" lon="4.7394">
        <ele>172</ele>
        <time>2017-07-31T09:48:41Z</time>
      </trkpt>
      <trkpt lat="45.9392" lon="4.7395">
        <ele>172</ele>
        <time>2017-07-31T09:48:43Z</time>
      </trkpt>
      <trkpt lat="45.93919" lon="4.73955">
        <ele>172</ele>
        <time>2017-07-31T09:48:44Z</time>
      </trkpt>
      <trkpt lat="45.93918" lon="4.73965">
        <ele>172</ele>
        <time>2017-07-31T09:48:46Z</time>
      </trkpt>
      <trkpt lat="45.93917" lon="4.73971">
        <ele>172</ele>
        <time>2017-07-31T09:48:47Z</time>
      </trkpt>
      <trkpt lat="45.93917" lon="4.73978">
        <ele>172</ele>
        <time>2017-07-31T09:48:48Z</time>
      </trkpt>
      <trkpt lat="45.93917" lon="4.73984">
        <ele>171</ele>
        <time>2017-07-31T09:48:49Z</time>
      </trkpt>
      <trkpt lat="45.93916" lon="4.73996">
        <ele>172</ele>
        <time>2017-07-31T09:48:51Z</time>
      </trkpt>
      <trkpt lat="45.93916" lon="4.74002">
        <ele>172</ele>
        <time>2017-07-31T09:48:52Z</time>
      </trkpt>
      <trkpt lat="45.93915" lon="4.74014">
        <ele>171</ele>
        <time>2017-07-31T09:48:54Z</time>
      </trkpt>
      <trkpt lat="45.93914" lon="4.74019">
        <ele>171</ele>
        <time>2017-07-31T09:48:55Z</time>
      </trkpt>
      <trkpt lat="45.93914" lon="4.7403">
        <ele>170</ele>
        <time>2017-07-31T09:48:57Z</time>
      </trkpt>
      <trkpt lat="45.93914" lon="4.74035">
        <ele>170</ele>
        <time>2017-07-31T09:48:58Z</time>
      </trkpt>
      <trkpt lat="45.93912" lon="4.74047">
        <ele>170</ele>
        <time>2017-07-31T09:49:00Z</time>
      </trkpt>
      <trkpt lat="45.93911" lon="4.74053">
        <ele>170</ele>
        <time>2017-07-31T09:49:01Z</time>
      </trkpt>
      <trkpt lat="45.9391" lon="4.7406">
        <ele>170</ele>
        <time>2017-07-31T09:49:02Z</time>
      </trkpt>
      <trkpt lat="45.9391" lon="4.74067">
        <ele>170</ele>
        <time>2017-07-31T09:49:03Z</time>
      </trkpt>
      <trkpt lat="45.93909" lon="4.74074">
        <ele>170</ele>
        <time>2017-07-31T09:49:04Z</time>
      </trkpt>
      <trkpt lat="45.93908" lon="4.74083">
        <ele>170</ele>
        <time>2017-07-31T09:49:05Z</time>
      </trkpt>
      <trkpt lat="45.93908" lon="4.74089">
        <ele>170</ele>
        <time>2017-07-31T09:49:06Z</time>
      </trkpt>
      <trkpt lat="45.93907" lon="4.74096">
        <ele>170</ele>
        <time>2017-07-31T09:49:07Z</time>
      </trkpt>
      <trkpt lat="45.93906" lon="4.74107">
        <ele>170</ele>
        <time>2017-07-31T09:49:09Z</time>
      </trkpt>
      <trkpt lat="45.93906" lon="4.74112">
        <ele>170</ele>
        <time>2017-07-31T09:49:10Z</time>
      </trkpt>
      <trkpt lat="45.93905" lon="4.74121">
        <ele>170</ele>
        <time>2017-07-31T09:49:12Z</time>
      </trkpt>
      <trkpt lat="45.93905" lon="4.74127">
        <ele>170</ele>
        <time>2017-07-31T09:49:13Z</time>
      </trkpt>
      <trkpt lat="45.93904" lon="4.74137">
        <ele>169</ele>
        <time>2017-07-31T09:49:15Z</time>
      </trkpt>
      <trkpt lat="45.93904" lon="4.74143">
        <ele>169</ele>
        <time>2017-07-31T09:49:16Z</time>
      </trkpt>
      <trkpt lat="45.93903" lon="4.74156">
        <ele>169</ele>
        <time>2017-07-31T09:49:18Z</time>
      </trkpt>
      <trkpt lat="45.93903" lon="4.74162">
        <ele>169</ele>
        <time>2017-07-31T09:49:19Z</time>
      </trkpt>
      <trkpt lat="45.93902" lon="4.74173">
        <ele>169</ele>
        <time>2017-07-31T09:49:21Z</time>
      </trkpt>
      <trkpt lat="45.93901" lon="4.74178">
        <ele>169</ele>
        <time>2017-07-31T09:49:22Z</time>
      </trkpt>
      <trkpt lat="45.939" lon="4.74188">
        <ele>169</ele>
        <time>2017-07-31T09:49:24Z</time>
      </trkpt>
      <trkpt lat="45.93899" lon="4.74192">
        <ele>169</ele>
        <time>2017-07-31T09:49:25Z</time>
      </trkpt>
      <trkpt lat="45.93899" lon="4.74202">
        <ele>169</ele>
        <time>2017-07-31T09:49:27Z</time>
      </trkpt>
      <trkpt lat="45.93899" lon="4.74208">
        <ele>169</ele>
        <time>2017-07-31T09:49:28Z</time>
      </trkpt>
      <trkpt lat="45.93898" lon="4.7422">
        <ele>169</ele>
        <time>2017-07-31T09:49:30Z</time>
      </trkpt>
      <trkpt lat="45.93897" lon="4.74227">
        <ele>170</ele>
        <time>2017-07-31T09:49:31Z</time>
      </trkpt>
      <trkpt lat="45.93897" lon="4.74234">
        <ele>170</ele>
        <time>2017-07-31T09:49:32Z</time>
      </trkpt>
      <trkpt lat="45.93897" lon="4.74241">
        <ele>170</ele>
        <time>2017-07-31T09:49:33Z</time>
      </trkpt>
      <trkpt lat="45.93896" lon="4.74249">
        <ele>170</ele>
        <time>2017-07-31T09:49:34Z</time>
      </trkpt>
      <trkpt lat="45.93896" lon="4.74256">
        <ele>170</ele>
        <time>2017-07-31T09:49:35Z</time>
      </trkpt>
      <trkpt lat="45.93896" lon="4.74263">
        <ele>170</ele>
        <time>2017-07-31T09:49:36Z</time>
      </trkpt>
      <trkpt lat="45.93897" lon="4.7427">
        <ele>170</ele>
        <time>2017-07-31T09:49:37Z</time>
      </trkpt>
      <trkpt lat="45.93897" lon="4.74277">
        <ele>170</ele>
        <time>2017-07-31T09:49:38Z</time>
      </trkpt>
      <trkpt lat="45.93897" lon="4.74283">
        <ele>170</ele>
        <time>2017-07-31T09:49:39Z</time>
      </trkpt>
      <trkpt lat="45.93898" lon="4.74295">
        <ele>170</ele>
        <time>2017-07-31T09:49:41Z</time>
      </trkpt>
      <trkpt lat="45.93898" lon="4.74301">
        <ele>170</ele>
        <time>2017-07-31T09:49:42Z</time>
      </trkpt>
      <trkpt lat="45.93898" lon="4.74312">
        <ele>170</ele>
        <time>2017-07-31T09:49:44Z</time>
      </trkpt>
      <trkpt lat="45.93898" lon="4.74319">
        <ele>170</ele>
        <time>2017-07-31T09:49:45Z</time>
      </trkpt>
      <trkpt lat="45.93898" lon="4.74325">
        <ele>170</ele>
        <time>2017-07-31T09:49:46Z</time>
      </trkpt>
      <trkpt lat="45.93898" lon="4.74332">
        <ele>170</ele>
        <time>2017-07-31T09:49:47Z</time>
      </trkpt>
      <trkpt lat="45.93898" lon="4.74343">
        <ele>171</ele>
        <time>2017-07-31T09:49:49Z</time>
      </trkpt>
      <trkpt lat="45.93898" lon="4.74348">
        <ele>171</ele>
        <time>2017-07-31T09:49:50Z</time>
      </trkpt>
      <trkpt lat="45.93897" lon="4.74358">
        <ele>171</ele>
        <time>2017-07-31T09:49:52Z</time>
      </trkpt>
      <trkpt lat="45.93898" lon="4.74363">
        <ele>171</ele>
        <time>2017-07-31T09:49:53Z</time>
      </trkpt>
      <trkpt lat="45.93898" lon="4.74374">
        <ele>171</ele>
        <time>2017-07-31T09:49:55Z</time>
      </trkpt>
      <trkpt lat="45.93898" lon="4.74381">
        <ele>171</ele>
        <time>2017-07-31T09:49:56Z</time>
      </trkpt>
      <trkpt lat="45.93898" lon="4.74388">
        <ele>171</ele>
        <time>2017-07-31T09:49:57Z</time>
      </trkpt>
      <trkpt lat="45.93899" lon="4.74394">
        <ele>171</ele>
        <time>2017-07-31T09:49:58Z</time>
      </trkpt>
      <trkpt lat="45.939" lon="4.74401">
        <ele>171</ele>
        <time>2017-07-31T09:49:59Z</time>
      </trkpt>
      <trkpt lat="45.93901" lon="4.74408">
        <ele>171</ele>
        <time>2017-07-31T09:50:00Z</time>
      </trkpt>
      <trkpt lat="45.93901" lon="4.74419">
        <ele>171</ele>
        <time>2017-07-31T09:50:02Z</time>
      </trkpt>
      <trkpt lat="45.93902" lon="4.74424">
        <ele>171</ele>
        <time>2017-07-31T09:50:03Z</time>
      </trkpt>
      <trkpt lat="45.93902" lon="4.74436">
        <ele>171</ele>
        <time>2017-07-31T09:50:06Z</time>
      </trkpt>
      <trkpt lat="45.93902" lon="4.7444">
        <ele>171</ele>
        <time>2017-07-31T09:50:07Z</time>
      </trkpt>
      <trkpt lat="45.93903" lon="4.74452">
        <ele>171</ele>
        <time>2017-07-31T09:50:09Z</time>
      </trkpt>
      <trkpt lat="45.93903" lon="4.74458">
        <ele>171</ele>
        <time>2017-07-31T09:50:10Z</time>
      </trkpt>
      <trkpt lat="45.93901" lon="4.74468">
        <ele>171</ele>
        <time>2017-07-31T09:50:12Z</time>
      </trkpt>
      <trkpt lat="45.93901" lon="4.74474">
        <ele>171</ele>
        <time>2017-07-31T09:50:13Z</time>
      </trkpt>
      <trkpt lat="45.939" lon="4.74484">
        <ele>171</ele>
        <time>2017-07-31T09:50:15Z</time>
      </trkpt>
      <trkpt lat="45.939" lon="4.74489">
        <ele>171</ele>
        <time>2017-07-31T09:50:16Z</time>
      </trkpt>
      <trkpt lat="45.93898" lon="4.74497">
        <ele>171</ele>
        <time>2017-07-31T09:50:18Z</time>
      </trkpt>
      <trkpt lat="45.93898" lon="4.74501">
        <ele>170</ele>
        <time>2017-07-31T09:50:19Z</time>
      </trkpt>
      <trkpt lat="45.93896" lon="4.74512">
        <ele>170</ele>
        <time>2017-07-31T09:50:21Z</time>
      </trkpt>
      <trkpt lat="45.93896" lon="4.74518">
        <ele>170</ele>
        <time>2017-07-31T09:50:22Z</time>
      </trkpt>
      <trkpt lat="45.93896" lon="4.74524">
        <ele>170</ele>
        <time>2017-07-31T09:50:23Z</time>
      </trkpt>
      <trkpt lat="45.93896" lon="4.74531">
        <ele>170</ele>
        <time>2017-07-31T09:50:24Z</time>
      </trkpt>
      <trkpt lat="45.93895" lon="4.74543">
        <ele>170</ele>
        <time>2017-07-31T09:50:26Z</time>
      </trkpt>
      <trkpt lat="45.93894" lon="4.74549">
        <ele>170</ele>
        <time>2017-07-31T09:50:27Z</time>
      </trkpt>
      <trkpt lat="45.93892" lon="4.7456">
        <ele>170</ele>
        <time>2017-07-31T09:50:29Z</time>
      </trkpt>
      <trkpt lat="45.93891" lon="4.74565">
        <ele>170</ele>
        <time>2017-07-31T09:50:30Z</time>
      </trkpt>
      <trkpt lat="45.93888" lon="4.74574">
        <ele>170</ele>
        <time>2017-07-31T09:50:32Z</time>
      </trkpt>
      <trkpt lat="45.93887" lon="4.74579">
        <ele>170</ele>
        <time>2017-07-31T09:50:33Z</time>
      </trkpt>
      <trkpt lat="45.93883" lon="4.7459">
        <ele>170</ele>
        <time>2017-07-31T09:50:35Z</time>
      </trkpt>
      <trkpt lat="45.93881" lon="4.74597">
        <ele>170</ele>
        <time>2017-07-31T09:50:36Z</time>
      </trkpt>
      <trkpt lat="45.93879" lon="4.74603">
        <ele>170</ele>
        <time>2017-07-31T09:50:37Z</time>
      </trkpt>
      <trkpt lat="45.93877" lon="4.74611">
        <ele>170</ele>
        <time>2017-07-31T09:50:38Z</time>
      </trkpt>
      <trkpt lat="45.93875" lon="4.74618">
        <ele>170</ele>
        <time>2017-07-31T09:50:39Z</time>
      </trkpt>
      <trkpt lat="45.93873" lon="4.74625">
        <ele>170</ele>
        <time>2017-07-31T09:50:40Z</time>
      </trkpt>
      <trkpt lat="45.93872" lon="4.74632">
        <ele>170</ele>
        <time>2017-07-31T09:50:41Z</time>
      </trkpt>
      <trkpt lat="45.93871" lon="4.74638">
        <ele>170</ele>
        <time>2017-07-31T09:50:42Z</time>
      </trkpt>
      <trkpt lat="45.93869" lon="4.74648">
        <ele>170</ele>
        <time>2017-07-31T09:50:44Z</time>
      </trkpt>
      <trkpt lat="45.93868" lon="4.74653">
        <ele>170</ele>
        <time>2017-07-31T09:50:45Z</time>
      </trkpt>
      <trkpt lat="45.93866" lon="4.74663">
        <ele>170</ele>
        <time>2017-07-31T09:50:47Z</time>
      </trkpt>
      <trkpt lat="45.93864" lon="4.74667">
        <ele>170</ele>
        <time>2017-07-31T09:50:48Z</time>
      </trkpt>
      <trkpt lat="45.93861" lon="4.74676">
        <ele>170</ele>
        <time>2017-07-31T09:50:50Z</time>
      </trkpt>
      <trkpt lat="45.93859" lon="4.74681">
        <ele>170</ele>
        <time>2017-07-31T09:50:51Z</time>
      </trkpt>
      <trkpt lat="45.93853" lon="4.74691">
        <ele>170</ele>
        <time>2017-07-31T09:50:53Z</time>
      </trkpt>
      <trkpt lat="45.9385" lon="4.74696">
        <ele>170</ele>
        <time>2017-07-31T09:50:54Z</time>
      </trkpt>
      <trkpt lat="45.93844" lon="4.74705">
        <ele>169</ele>
        <time>2017-07-31T09:50:56Z</time>
      </trkpt>
      <trkpt lat="45.93841" lon="4.74709">
        <ele>169</ele>
        <time>2017-07-31T09:50:57Z</time>
      </trkpt>
      <trkpt lat="45.93837" lon="4.74716">
        <ele>169</ele>
        <time>2017-07-31T09:50:59Z</time>
      </trkpt>
      <trkpt lat="45.93834" lon="4.74719">
        <ele>169</ele>
        <time>2017-07-31T09:51:00Z</time>
      </trkpt>
      <trkpt lat="45.93827" lon="4.74725">
        <ele>168</ele>
        <time>2017-07-31T09:51:03Z</time>
      </trkpt>
      <trkpt lat="45.93825" lon="4.74726">
        <ele>168</ele>
        <time>2017-07-31T09:51:04Z</time>
      </trkpt>
      <trkpt lat="45.93818" lon="4.74732">
        <ele>168</ele>
        <time>2017-07-31T09:51:08Z</time>
      </trkpt>
      <trkpt lat="45.93814" lon="4.74734">
        <ele>168</ele>
        <time>2017-07-31T09:51:09Z</time>
      </trkpt>
      <trkpt lat="45.93807" lon="4.74737">
        <ele>168</ele>
        <time>2017-07-31T09:51:11Z</time>
      </trkpt>
      <trkpt lat="45.93802" lon="4.74738">
        <ele>168</ele>
        <time>2017-07-31T09:51:12Z</time>
      </trkpt>
      <trkpt lat="45.93797" lon="4.74746">
        <ele>168</ele>
        <time>2017-07-31T09:51:15Z</time>
      </trkpt>
      <trkpt lat="45.93795" lon="4.74747">
        <ele>168</ele>
        <time>2017-07-31T09:51:16Z</time>
      </trkpt>
      <trkpt lat="45.93789" lon="4.74752">
        <ele>167</ele>
        <time>2017-07-31T09:51:19Z</time>
      </trkpt>
      <trkpt lat="45.93786" lon="4.74753">
        <ele>167</ele>
        <time>2017-07-31T09:51:20Z</time>
      </trkpt>
      <trkpt lat="45.93779" lon="4.74757">
        <ele>167</ele>
        <time>2017-07-31T09:51:22Z</time>
      </trkpt>
      <trkpt lat="45.93777" lon="4.7476">
        <ele>167</ele>
        <time>2017-07-31T09:51:23Z</time>
      </trkpt>
      <trkpt lat="45.9377" lon="4.74767">
        <ele>167</ele>
        <time>2017-07-31T09:51:25Z</time>
      </trkpt>
      <trkpt lat="45.93768" lon="4.74771">
        <ele>167</ele>
        <time>2017-07-31T09:51:26Z</time>
      </trkpt>
      <trkpt lat="45.93764" lon="4.74777">
        <ele>167</ele>
        <time>2017-07-31T09:51:27Z</time>
      </trkpt>
      <trkpt lat="45.93761" lon="4.74783">
        <ele>167</ele>
        <time>2017-07-31T09:51:28Z</time>
      </trkpt>
      <trkpt lat="45.93758" lon="4.74788">
        <ele>167</ele>
        <time>2017-07-31T09:51:29Z</time>
      </trkpt>
      <trkpt lat="45.93754" lon="4.74792">
        <ele>167</ele>
        <time>2017-07-31T09:51:30Z</time>
      </trkpt>
      <trkpt lat="45.9375" lon="4.74796">
        <ele>166</ele>
        <time>2017-07-31T09:51:31Z</time>
      </trkpt>
      <trkpt lat="45.93746" lon="4.74799">
        <ele>166</ele>
        <time>2017-07-31T09:51:32Z</time>
      </trkpt>
      <trkpt lat="45.93739" lon="4.74806">
        <ele>166</ele>
        <time>2017-07-31T09:51:34Z</time>
      </trkpt>
      <trkpt lat="45.93737" lon="4.7481">
        <ele>166</ele>
        <time>2017-07-31T09:51:35Z</time>
      </trkpt>
      <trkpt lat="45.93732" lon="4.74819">
        <ele>166</ele>
        <time>2017-07-31T09:51:37Z</time>
      </trkpt>
      <trkpt lat="45.9373" lon="4.74825">
        <ele>166</ele>
        <time>2017-07-31T09:51:38Z</time>
      </trkpt>
      <trkpt lat="45.93727" lon="4.7483">
        <ele>166</ele>
        <time>2017-07-31T09:51:39Z</time>
      </trkpt>
      <trkpt lat="45.93724" lon="4.74835">
        <ele>167</ele>
        <time>2017-07-31T09:51:40Z</time>
      </trkpt>
      <trkpt lat="45.9372" lon="4.7484">
        <ele>167</ele>
        <time>2017-07-31T09:51:41Z</time>
      </trkpt>
      <trkpt lat="45.93717" lon="4.74845">
        <ele>167</ele>
        <time>2017-07-31T09:51:42Z</time>
      </trkpt>
      <trkpt lat="45.93711" lon="4.74854">
        <ele>167</ele>
        <time>2017-07-31T09:51:44Z</time>
      </trkpt>
      <trkpt lat="45.9371" lon="4.74863">
        <ele>167</ele>
        <time>2017-07-31T09:51:45Z</time>
      </trkpt>
      <trkpt lat="45.9371" lon="4.74872">
        <ele>167</ele>
        <time>2017-07-31T09:51:46Z</time>
      </trkpt>
      <trkpt lat="45.93712" lon="4.74883">
        <ele>167</ele>
        <time>2017-07-31T09:51:47Z</time>
      </trkpt>
      <trkpt lat="45.93712" lon="4.74893">
        <ele>168</ele>
        <time>2017-07-31T09:51:48Z</time>
      </trkpt>
      <trkpt lat="45.93713" lon="4.74901">
        <ele>168</ele>
        <time>2017-07-31T09:51:49Z</time>
      </trkpt>
      <trkpt lat="45.93714" lon="4.74911">
        <ele>168</ele>
        <time>2017-07-31T09:51:50Z</time>
      </trkpt>
      <trkpt lat="45.93715" lon="4.7492">
        <ele>168</ele>
        <time>2017-07-31T09:51:51Z</time>
      </trkpt>
      <trkpt lat="45.93716" lon="4.74929">
        <ele>168</ele>
        <time>2017-07-31T09:51:52Z</time>
      </trkpt>
      <trkpt lat="45.93717" lon="4.74937">
        <ele>168</ele>
        <time>2017-07-31T09:51:53Z</time>
      </trkpt>
      <trkpt lat="45.93717" lon="4.74943">
        <ele>168</ele>
        <time>2017-07-31T09:51:54Z</time>
      </trkpt>
      <trkpt lat="45.93715" lon="4.7495">
        <ele>168</ele>
        <time>2017-07-31T09:51:55Z</time>
      </trkpt>
      <trkpt lat="45.93713" lon="4.74955">
        <ele>168</ele>
        <time>2017-07-31T09:51:56Z</time>
      </trkpt>
      <trkpt lat="45.9371" lon="4.74961">
        <ele>168</ele>
        <time>2017-07-31T09:51:57Z</time>
      </trkpt>
      <trkpt lat="45.93706" lon="4.74966">
        <ele>168</ele>
        <time>2017-07-31T09:51:58Z</time>
      </trkpt>
      <trkpt lat="45.93703" lon="4.74971">
        <ele>168</ele>
        <time>2017-07-31T09:51:59Z</time>
      </trkpt>
      <trkpt lat="45.93699" lon="4.74976">
        <ele>168</ele>
        <time>2017-07-31T09:52:00Z</time>
      </trkpt>
      <trkpt lat="45.93696" lon="4.74983">
        <ele>168</ele>
        <time>2017-07-31T09:52:01Z</time>
      </trkpt>
      <trkpt lat="45.93695" lon="4.74992">
        <ele>167</ele>
        <time>2017-07-31T09:52:02Z</time>
      </trkpt>
      <trkpt lat="45.93692" lon="4.74997">
        <ele>167</ele>
        <time>2017-07-31T09:52:03Z</time>
      </trkpt>
      <trkpt lat="45.93689" lon="4.75002">
        <ele>167</ele>
        <time>2017-07-31T09:52:04Z</time>
      </trkpt>
      <trkpt lat="45.93687" lon="4.75009">
        <ele>167</ele>
        <time>2017-07-31T09:52:05Z</time>
      </trkpt>
      <trkpt lat="45.93683" lon="4.75021">
        <ele>167</ele>
        <time>2017-07-31T09:52:07Z</time>
      </trkpt>
      <trkpt lat="45.9368" lon="4.75024">
        <ele>167</ele>
        <time>2017-07-31T09:52:08Z</time>
      </trkpt>
      <trkpt lat="45.93676" lon="4.75031">
        <ele>167</ele>
        <time>2017-07-31T09:52:10Z</time>
      </trkpt>
      <trkpt lat="45.93674" lon="4.75034">
        <ele>167</ele>
        <time>2017-07-31T09:52:11Z</time>
      </trkpt>
      <trkpt lat="45.9367" lon="4.75041">
        <ele>167</ele>
        <time>2017-07-31T09:52:13Z</time>
      </trkpt>
      <trkpt lat="45.93667" lon="4.75045">
        <ele>167</ele>
        <time>2017-07-31T09:52:14Z</time>
      </trkpt>
      <trkpt lat="45.93662" lon="4.75054">
        <ele>166</ele>
        <time>2017-07-31T09:52:16Z</time>
      </trkpt>
      <trkpt lat="45.93659" lon="4.75058">
        <ele>166</ele>
        <time>2017-07-31T09:52:17Z</time>
      </trkpt>
      <trkpt lat="45.93656" lon="4.75066">
        <ele>167</ele>
        <time>2017-07-31T09:52:19Z</time>
      </trkpt>
      <trkpt lat="45.93654" lon="4.7507">
        <ele>167</ele>
        <time>2017-07-31T09:52:20Z</time>
      </trkpt>
      <trkpt lat="45.9365" lon="4.75079">
        <ele>167</ele>
        <time>2017-07-31T09:52:22Z</time>
      </trkpt>
      <trkpt lat="45.93648" lon="4.75083">
        <ele>167</ele>
        <time>2017-07-31T09:52:23Z</time>
      </trkpt>
      <trkpt lat="45.93643" lon="4.75093">
        <ele>167</ele>
        <time>2017-07-31T09:52:25Z</time>
      </trkpt>
      <trkpt lat="45.93641" lon="4.75099">
        <ele>167</ele>
        <time>2017-07-31T09:52:26Z</time>
      </trkpt>
      <trkpt lat="45.93638" lon="4.75105">
        <ele>167</ele>
        <time>2017-07-31T09:52:27Z</time>
      </trkpt>
      <trkpt lat="45.93635" lon="4.75111">
        <ele>167</ele>
        <time>2017-07-31T09:52:28Z</time>
      </trkpt>
      <trkpt lat="45.93632" lon="4.75116">
        <ele>167</ele>
        <time>2017-07-31T09:52:29Z</time>
      </trkpt>
      <trkpt lat="45.9363" lon="4.75122">
        <ele>167</ele>
        <time>2017-07-31T09:52:30Z</time>
      </trkpt>
      <trkpt lat="45.93628" lon="4.75127">
        <ele>167</ele>
        <time>2017-07-31T09:52:31Z</time>
      </trkpt>
      <trkpt lat="45.93626" lon="4.75133">
        <ele>167</ele>
        <time>2017-07-31T09:52:32Z</time>
      </trkpt>
      <trkpt lat="45.93623" lon="4.75145">
        <ele>167</ele>
        <time>2017-07-31T09:52:34Z</time>
      </trkpt>
      <trkpt lat="45.93622" lon="4.75153">
        <ele>167</ele>
        <time>2017-07-31T09:52:35Z</time>
      </trkpt>
      <trkpt lat="45.93621" lon="4.75164">
        <ele>167</ele>
        <time>2017-07-31T09:52:36Z</time>
      </trkpt>
      <trkpt lat="45.9362" lon="4.75171">
        <ele>167</ele>
        <time>2017-07-31T09:52:37Z</time>
      </trkpt>
      <trkpt lat="45.93617" lon="4.7518">
        <ele>167</ele>
        <time>2017-07-31T09:52:39Z</time>
      </trkpt>
      <trkpt lat="45.93615" lon="4.75185">
        <ele>167</ele>
        <time>2017-07-31T09:52:40Z</time>
      </trkpt>
      <trkpt lat="45.9361" lon="4.75195">
        <ele>167</ele>
        <time>2017-07-31T09:52:42Z</time>
      </trkpt>
      <trkpt lat="45.93606" lon="4.75199">
        <ele>167</ele>
        <time>2017-07-31T09:52:43Z</time>
      </trkpt>
      <trkpt lat="45.93601" lon="4.75207">
        <ele>167</ele>
        <time>2017-07-31T09:52:45Z</time>
      </trkpt>
      <trkpt lat="45.93598" lon="4.75212">
        <ele>167</ele>
        <time>2017-07-31T09:52:46Z</time>
      </trkpt>
      <trkpt lat="45.93597" lon="4.75221">
        <ele>167</ele>
        <time>2017-07-31T09:52:47Z</time>
      </trkpt>
      <trkpt lat="45.93596" lon="4.75231">
        <ele>167</ele>
        <time>2017-07-31T09:52:48Z</time>
      </trkpt>
      <trkpt lat="45.93595" lon="4.75238">
        <ele>167</ele>
        <time>2017-07-31T09:52:49Z</time>
      </trkpt>
      <trkpt lat="45.93594" lon="4.75244">
        <ele>167</ele>
        <time>2017-07-31T09:52:50Z</time>
      </trkpt>
      <trkpt lat="45.93592" lon="4.75253">
        <ele>167</ele>
        <time>2017-07-31T09:52:52Z</time>
      </trkpt>
      <trkpt lat="45.9359" lon="4.75257">
        <ele>167</ele>
        <time>2017-07-31T09:52:53Z</time>
      </trkpt>
      <trkpt lat="45.93586" lon="4.75267">
        <ele>167</ele>
        <time>2017-07-31T09:52:55Z</time>
      </trkpt>
      <trkpt lat="45.93584" lon="4.75274">
        <ele>167</ele>
        <time>2017-07-31T09:52:56Z</time>
      </trkpt>
      <trkpt lat="45.93582" lon="4.75286">
        <ele>167</ele>
        <time>2017-07-31T09:52:58Z</time>
      </trkpt>
      <trkpt lat="45.9358" lon="4.75291">
        <ele>167</ele>
        <time>2017-07-31T09:52:59Z</time>
      </trkpt>
      <trkpt lat="45.93577" lon="4.753">
        <ele>168</ele>
        <time>2017-07-31T09:53:01Z</time>
      </trkpt>
      <trkpt lat="45.93574" lon="4.75303">
        <ele>168</ele>
        <time>2017-07-31T09:53:02Z</time>
      </trkpt>
      <trkpt lat="45.93571" lon="4.75311">
        <ele>168</ele>
        <time>2017-07-31T09:53:04Z</time>
      </trkpt>
      <trkpt lat="45.9357" lon="4.75315">
        <ele>168</ele>
        <time>2017-07-31T09:53:05Z</time>
      </trkpt>
      <trkpt lat="45.93566" lon="4.75322">
        <ele>168</ele>
        <time>2017-07-31T09:53:07Z</time>
      </trkpt>
      <trkpt lat="45.93565" lon="4.75326">
        <ele>168</ele>
        <time>2017-07-31T09:53:08Z</time>
      </trkpt>
      <trkpt lat="45.93562" lon="4.75337">
        <ele>168</ele>
        <time>2017-07-31T09:53:10Z</time>
      </trkpt>
      <trkpt lat="45.9356" lon="4.75344">
        <ele>168</ele>
        <time>2017-07-31T09:53:11Z</time>
      </trkpt>
      <trkpt lat="45.93558" lon="4.75349">
        <ele>168</ele>
        <time>2017-07-31T09:53:12Z</time>
      </trkpt>
      <trkpt lat="45.93555" lon="4.75355">
        <ele>168</ele>
        <time>2017-07-31T09:53:13Z</time>
      </trkpt>
      <trkpt lat="45.93554" lon="4.75362">
        <ele>168</ele>
        <time>2017-07-31T09:53:14Z</time>
      </trkpt>
      <trkpt lat="45.93556" lon="4.75379">
        <ele>168</ele>
        <time>2017-07-31T09:53:15Z</time>
      </trkpt>
      <trkpt lat="45.93557" lon="4.75393">
        <ele>168</ele>
        <time>2017-07-31T09:53:16Z</time>
      </trkpt>
      <trkpt lat="45.93557" lon="4.75403">
        <ele>168</ele>
        <time>2017-07-31T09:53:17Z</time>
      </trkpt>
      <trkpt lat="45.93557" lon="4.75411">
        <ele>168</ele>
        <time>2017-07-31T09:53:18Z</time>
      </trkpt>
      <trkpt lat="45.93558" lon="4.75421">
        <ele>168</ele>
        <time>2017-07-31T09:53:20Z</time>
      </trkpt>
      <trkpt lat="45.93558" lon="4.75426">
        <ele>168</ele>
        <time>2017-07-31T09:53:21Z</time>
      </trkpt>
      <trkpt lat="45.93558" lon="4.75438">
        <ele>168</ele>
        <time>2017-07-31T09:53:23Z</time>
      </trkpt>
      <trkpt lat="45.93557" lon="4.75445">
        <ele>168</ele>
        <time>2017-07-31T09:53:24Z</time>
      </trkpt>
      <trkpt lat="45.93558" lon="4.75453">
        <ele>168</ele>
        <time>2017-07-31T09:53:25Z</time>
      </trkpt>
      <trkpt lat="45.93557" lon="4.75461">
        <ele>168</ele>
        <time>2017-07-31T09:53:26Z</time>
      </trkpt>
      <trkpt lat="45.93556" lon="4.7547">
        <ele>168</ele>
        <time>2017-07-31T09:53:27Z</time>
      </trkpt>
      <trkpt lat="45.93555" lon="4.75476">
        <ele>168</ele>
        <time>2017-07-31T09:53:28Z</time>
      </trkpt>
      <trkpt lat="45.93557" lon="4.75483">
        <ele>168</ele>
        <time>2017-07-31T09:53:29Z</time>
      </trkpt>
      <trkpt lat="45.93557" lon="4.7549">
        <ele>168</ele>
        <time>2017-07-31T09:53:30Z</time>
      </trkpt>
      <trkpt lat="45.93558" lon="4.75497">
        <ele>168</ele>
        <time>2017-07-31T09:53:31Z</time>
      </trkpt>
      <trkpt lat="45.93558" lon="4.75504">
        <ele>169</ele>
        <time>2017-07-31T09:53:32Z</time>
      </trkpt>
      <trkpt lat="45.93558" lon="4.75514">
        <ele>169</ele>
        <time>2017-07-31T09:53:34Z</time>
      </trkpt>
      <trkpt lat="45.93558" lon="4.75519">
        <ele>169</ele>
        <time>2017-07-31T09:53:35Z</time>
      </trkpt>
      <trkpt lat="45.93555" lon="4.75529">
        <ele>169</ele>
        <time>2017-07-31T09:53:37Z</time>
      </trkpt>
      <trkpt lat="45.93554" lon="4.75535">
        <ele>169</ele>
        <time>2017-07-31T09:53:38Z</time>
      </trkpt>
      <trkpt lat="45.93553" lon="4.75541">
        <ele>169</ele>
        <time>2017-07-31T09:53:39Z</time>
      </trkpt>
      <trkpt lat="45.93552" lon="4.75548">
        <ele>169</ele>
        <time>2017-07-31T09:53:40Z</time>
      </trkpt>
      <trkpt lat="45.9355" lon="4.75555">
        <ele>169</ele>
        <time>2017-07-31T09:53:41Z</time>
      </trkpt>
      <trkpt lat="45.9355" lon="4.75562">
        <ele>169</ele>
        <time>2017-07-31T09:53:42Z</time>
      </trkpt>
      <trkpt lat="45.93549" lon="4.7557">
        <ele>169</ele>
        <time>2017-07-31T09:53:43Z</time>
      </trkpt>
      <trkpt lat="45.93548" lon="4.75576">
        <ele>169</ele>
        <time>2017-07-31T09:53:44Z</time>
      </trkpt>
      <trkpt lat="45.93547" lon="4.75583">
        <ele>169</ele>
        <time>2017-07-31T09:53:45Z</time>
      </trkpt>
      <trkpt lat="45.93546" lon="4.75589">
        <ele>170</ele>
        <time>2017-07-31T09:53:46Z</time>
      </trkpt>
      <trkpt lat="45.93544" lon="4.75599">
        <ele>169</ele>
        <time>2017-07-31T09:53:48Z</time>
      </trkpt>
      <trkpt lat="45.93543" lon="4.75604">
        <ele>169</ele>
        <time>2017-07-31T09:53:49Z</time>
      </trkpt>
      <trkpt lat="45.93541" lon="4.75615">
        <ele>169</ele>
        <time>2017-07-31T09:53:51Z</time>
      </trkpt>
      <trkpt lat="45.9354" lon="4.75621">
        <ele>169</ele>
        <time>2017-07-31T09:53:52Z</time>
      </trkpt>
      <trkpt lat="45.9354" lon="4.75627">
        <ele>169</ele>
        <time>2017-07-31T09:53:53Z</time>
      </trkpt>
      <trkpt lat="45.93539" lon="4.75634">
        <ele>169</ele>
        <time>2017-07-31T09:53:54Z</time>
      </trkpt>
      <trkpt lat="45.93536" lon="4.75645">
        <ele>169</ele>
        <time>2017-07-31T09:53:56Z</time>
      </trkpt>
      <trkpt lat="45.93534" lon="4.7565">
        <ele>169</ele>
        <time>2017-07-31T09:53:57Z</time>
      </trkpt>
      <trkpt lat="45.93532" lon="4.75657">
        <ele>169</ele>
        <time>2017-07-31T09:53:58Z</time>
      </trkpt>
      <trkpt lat="45.9353" lon="4.75663">
        <ele>169</ele>
        <time>2017-07-31T09:53:59Z</time>
      </trkpt>
      <trkpt lat="45.9353" lon="4.75673">
        <ele>169</ele>
        <time>2017-07-31T09:54:01Z</time>
      </trkpt>
      <trkpt lat="45.93528" lon="4.75676">
        <ele>169</ele>
        <time>2017-07-31T09:54:02Z</time>
      </trkpt>
      <trkpt lat="45.93522" lon="4.75686">
        <ele>169</ele>
        <time>2017-07-31T09:54:05Z</time>
      </trkpt>
      <trkpt lat="45.9352" lon="4.7569">
        <ele>169</ele>
        <time>2017-07-31T09:54:06Z</time>
      </trkpt>
      <trkpt lat="45.93519" lon="4.75696">
        <ele>169</ele>
        <time>2017-07-31T09:54:07Z</time>
      </trkpt>
      <trkpt lat="45.93519" lon="4.75703">
        <ele>169</ele>
        <time>2017-07-31T09:54:08Z</time>
      </trkpt>
      <trkpt lat="45.93517" lon="4.75711">
        <ele>169</ele>
        <time>2017-07-31T09:54:09Z</time>
      </trkpt>
      <trkpt lat="45.93516" lon="4.75717">
        <ele>169</ele>
        <time>2017-07-31T09:54:10Z</time>
      </trkpt>
      <trkpt lat="45.93514" lon="4.75728">
        <ele>168</ele>
        <time>2017-07-31T09:54:12Z</time>
      </trkpt>
      <trkpt lat="45.93514" lon="4.75734">
        <ele>168</ele>
        <time>2017-07-31T09:54:13Z</time>
      </trkpt>
      <trkpt lat="45.93513" lon="4.75743">
        <ele>168</ele>
        <time>2017-07-31T09:54:15Z</time>
      </trkpt>
      <trkpt lat="45.93512" lon="4.75747">
        <ele>168</ele>
        <time>2017-07-31T09:54:16Z</time>
      </trkpt>
      <trkpt lat="45.93511" lon="4.75756">
        <ele>167</ele>
        <time>2017-07-31T09:54:18Z</time>
      </trkpt>
      <trkpt lat="45.93511" lon="4.75761">
        <ele>168</ele>
        <time>2017-07-31T09:54:19Z</time>
      </trkpt>
      <trkpt lat="45.93509" lon="4.75771">
        <ele>168</ele>
        <time>2017-07-31T09:54:21Z</time>
      </trkpt>
      <trkpt lat="45.93508" lon="4.75777">
        <ele>168</ele>
        <time>2017-07-31T09:54:22Z</time>
      </trkpt>
      <trkpt lat="45.93508" lon="4.75782">
        <ele>168</ele>
        <time>2017-07-31T09:54:23Z</time>
      </trkpt>
      <trkpt lat="45.93509" lon="4.7579">
        <ele>168</ele>
        <time>2017-07-31T09:54:24Z</time>
      </trkpt>
      <trkpt lat="45.93509" lon="4.75799">
        <ele>168</ele>
        <time>2017-07-31T09:54:25Z</time>
      </trkpt>
      <trkpt lat="45.9351" lon="4.75806">
        <ele>168</ele>
        <time>2017-07-31T09:54:26Z</time>
      </trkpt>
      <trkpt lat="45.93512" lon="4.75818">
        <ele>168</ele>
        <time>2017-07-31T09:54:28Z</time>
      </trkpt>
      <trkpt lat="45.93512" lon="4.75823">
        <ele>168</ele>
        <time>2017-07-31T09:54:29Z</time>
      </trkpt>
      <trkpt lat="45.93513" lon="4.75831">
        <ele>168</ele>
        <time>2017-07-31T09:54:31Z</time>
      </trkpt>
      <trkpt lat="45.93513" lon="4.75836">
        <ele>167</ele>
        <time>2017-07-31T09:54:32Z</time>
      </trkpt>
      <trkpt lat="45.93514" lon="4.75843">
        <ele>167</ele>
        <time>2017-07-31T09:54:34Z</time>
      </trkpt>
      <trkpt lat="45.93515" lon="4.75849">
        <ele>168</ele>
        <time>2017-07-31T09:54:35Z</time>
      </trkpt>
      <trkpt lat="45.93517" lon="4.75861">
        <ele>168</ele>
        <time>2017-07-31T09:54:37Z</time>
      </trkpt>
      <trkpt lat="45.93518" lon="4.75868">
        <ele>168</ele>
        <time>2017-07-31T09:54:38Z</time>
      </trkpt>
      <trkpt lat="45.93522" lon="4.75878">
        <ele>168</ele>
        <time>2017-07-31T09:54:40Z</time>
      </trkpt>
      <trkpt lat="45.93524" lon="4.75882">
        <ele>168</ele>
        <time>2017-07-31T09:54:41Z</time>
      </trkpt>
      <trkpt lat="45.93525" lon="4.75891">
        <ele>168</ele>
        <time>2017-07-31T09:54:43Z</time>
      </trkpt>
      <trkpt lat="45.93527" lon="4.75894">
        <ele>168</ele>
        <time>2017-07-31T09:54:44Z</time>
      </trkpt>
      <trkpt lat="45.9353" lon="4.75903">
        <ele>168</ele>
        <time>2017-07-31T09:54:46Z</time>
      </trkpt>
      <trkpt lat="45.93531" lon="4.7591">
        <ele>168</ele>
        <time>2017-07-31T09:54:47Z</time>
      </trkpt>
      <trkpt lat="45.93535" lon="4.7592">
        <ele>168</ele>
        <time>2017-07-31T09:54:49Z</time>
      </trkpt>
      <trkpt lat="45.93537" lon="4.75927">
        <ele>168</ele>
        <time>2017-07-31T09:54:50Z</time>
      </trkpt>
      <trkpt lat="45.93539" lon="4.75933">
        <ele>168</ele>
        <time>2017-07-31T09:54:51Z</time>
      </trkpt>
      <trkpt lat="45.93542" lon="4.75939">
        <ele>168</ele>
        <time>2017-07-31T09:54:52Z</time>
      </trkpt>
      <trkpt lat="45.93545" lon="4.7595">
        <ele>169</ele>
        <time>2017-07-31T09:54:54Z</time>
      </trkpt>
      <trkpt lat="45.93547" lon="4.75956">
        <ele>169</ele>
        <time>2017-07-31T09:54:55Z</time>
      </trkpt>
      <trkpt lat="45.9355" lon="4.75966">
        <ele>169</ele>
        <time>2017-07-31T09:54:57Z</time>
      </trkpt>
      <trkpt lat="45.93552" lon="4.7597">
        <ele>169</ele>
        <time>2017-07-31T09:54:58Z</time>
      </trkpt>
      <trkpt lat="45.93555" lon="4.75975">
        <ele>169</ele>
        <time>2017-07-31T09:54:59Z</time>
      </trkpt>
      <trkpt lat="45.9356" lon="4.75981">
        <ele>169</ele>
        <time>2017-07-31T09:55:00Z</time>
      </trkpt>
      <trkpt lat="45.93563" lon="4.75986">
        <ele>170</ele>
        <time>2017-07-31T09:55:01Z</time>
      </trkpt>
      <trkpt lat="45.93567" lon="4.75991">
        <ele>170</ele>
        <time>2017-07-31T09:55:02Z</time>
      </trkpt>
      <trkpt lat="45.93574" lon="4.75998">
        <ele>171</ele>
        <time>2017-07-31T09:55:03Z</time>
      </trkpt>
      <trkpt lat="45.93579" lon="4.76008">
        <ele>171</ele>
        <time>2017-07-31T09:55:05Z</time>
      </trkpt>
      <trkpt lat="45.9358" lon="4.76014">
        <ele>170</ele>
        <time>2017-07-31T09:55:06Z</time>
      </trkpt>
      <trkpt lat="45.93581" lon="4.76025">
        <ele>170</ele>
        <time>2017-07-31T09:55:08Z</time>
      </trkpt>
      <trkpt lat="45.93582" lon="4.76026">
        <ele>170</ele>
        <time>2017-07-31T09:55:09Z</time>
      </trkpt>
      <trkpt lat="45.9359" lon="4.76027">
        <ele>170</ele>
        <time>2017-07-31T09:55:34Z</time>
      </trkpt>
      <trkpt lat="45.93597" lon="4.76032">
        <ele>170</ele>
        <time>2017-07-31T09:55:35Z</time>
      </trkpt>
      <trkpt lat="45.93596" lon="4.76044">
        <ele>170</ele>
        <time>2017-07-31T09:55:52Z</time>
      </trkpt>
      <trkpt lat="45.93594" lon="4.76046">
        <ele>170</ele>
        <time>2017-07-31T09:55:53Z</time>
      </trkpt>
      <trkpt lat="45.93597" lon="4.76058">
        <ele>170</ele>
        <time>2017-07-31T09:59:52Z</time>
      </trkpt>
      <trkpt lat="45.93597" lon="4.7606">
        <ele>170</ele>
        <time>2017-07-31T09:59:53Z</time>
      </trkpt>
      <trkpt lat="45.93597" lon="4.76071">
        <ele>170</ele>
        <time>2017-07-31T09:59:57Z</time>
      </trkpt>
      <trkpt lat="45.936" lon="4.76076">
        <ele>170</ele>
        <time>2017-07-31T09:59:58Z</time>
      </trkpt>
      <trkpt lat="45.93603" lon="4.76088">
        <ele>170</ele>
        <time>2017-07-31T10:00:00Z</time>
      </trkpt>
      <trkpt lat="45.93605" lon="4.76093">
        <ele>170</ele>
        <time>2017-07-31T10:00:01Z</time>
      </trkpt>
      <trkpt lat="45.93609" lon="4.76103">
        <ele>170</ele>
        <time>2017-07-31T10:00:03Z</time>
      </trkpt>
      <trkpt lat="45.93611" lon="4.76109">
        <ele>169</ele>
        <time>2017-07-31T10:00:04Z</time>
      </trkpt>
      <trkpt lat="45.93614" lon="4.76119">
        <ele>169</ele>
        <time>2017-07-31T10:00:06Z</time>
      </trkpt>
      <trkpt lat="45.93616" lon="4.76123">
        <ele>169</ele>
        <time>2017-07-31T10:00:07Z</time>
      </trkpt>
      <trkpt lat="45.93619" lon="4.76131">
        <ele>169</ele>
        <time>2017-07-31T10:00:09Z</time>
      </trkpt>
      <trkpt lat="45.93619" lon="4.76136">
        <ele>169</ele>
        <time>2017-07-31T10:00:10Z</time>
      </trkpt>
      <trkpt lat="45.93618" lon="4.76149">
        <ele>169</ele>
        <time>2017-07-31T10:00:12Z</time>
      </trkpt>
      <trkpt lat="45.93619" lon="4.76156">
        <ele>169</ele>
        <time>2017-07-31T10:00:13Z</time>
      </trkpt>
      <trkpt lat="45.93622" lon="4.76163">
        <ele>169</ele>
        <time>2017-07-31T10:00:14Z</time>
      </trkpt>
      <trkpt lat="45.93624" lon="4.7617">
        <ele>169</ele>
        <time>2017-07-31T10:00:15Z</time>
      </trkpt>
      <trkpt lat="45.93625" lon="4.76177">
        <ele>169</ele>
        <time>2017-07-31T10:00:16Z</time>
      </trkpt>
      <trkpt lat="45.93627" lon="4.76183">
        <ele>169</ele>
        <time>2017-07-31T10:00:17Z</time>
      </trkpt>
      <trkpt lat="45.93631" lon="4.76194">
        <ele>169</ele>
        <time>2017-07-31T10:00:19Z</time>
      </trkpt>
      <trkpt lat="45.93633" lon="4.76199">
        <ele>169</ele>
        <time>2017-07-31T10:00:20Z</time>
      </trkpt>
      <trkpt lat="45.93635" lon="4.76207">
        <ele>169</ele>
        <time>2017-07-31T10:00:22Z</time>
      </trkpt>
      <trkpt lat="45.93637" lon="4.76211">
        <ele>169</ele>
        <time>2017-07-31T10:00:23Z</time>
      </trkpt>
      <trkpt lat="45.93642" lon="4.76216">
        <ele>169</ele>
        <time>2017-07-31T10:00:24Z</time>
      </trkpt>
      <trkpt lat="45.93644" lon="4.7622">
        <ele>169</ele>
        <time>2017-07-31T10:00:25Z</time>
      </trkpt>
      <trkpt lat="45.93645" lon="4.76229">
        <ele>169</ele>
        <time>2017-07-31T10:00:27Z</time>
      </trkpt>
      <trkpt lat="45.93648" lon="4.76235">
        <ele>169</ele>
        <time>2017-07-31T10:00:28Z</time>
      </trkpt>
      <trkpt lat="45.93651" lon="4.76244">
        <ele>169</ele>
        <time>2017-07-31T10:00:29Z</time>
      </trkpt>
      <trkpt lat="45.93653" lon="4.7625">
        <ele>169</ele>
        <time>2017-07-31T10:00:30Z</time>
      </trkpt>
      <trkpt lat="45.93657" lon="4.76261">
        <ele>169</ele>
        <time>2017-07-31T10:00:32Z</time>
      </trkpt>
      <trkpt lat="45.93659" lon="4.76267">
        <ele>169</ele>
        <time>2017-07-31T10:00:33Z</time>
      </trkpt>
      <trkpt lat="45.93662" lon="4.76276">
        <ele>169</ele>
        <time>2017-07-31T10:00:35Z</time>
      </trkpt>
      <trkpt lat="45.93664" lon="4.76281">
        <ele>169</ele>
        <time>2017-07-31T10:00:36Z</time>
      </trkpt>
      <trkpt lat="45.93668" lon="4.76289">
        <ele>170</ele>
        <time>2017-07-31T10:00:38Z</time>
      </trkpt>
      <trkpt lat="45.93669" lon="4.76292">
        <ele>170</ele>
        <time>2017-07-31T10:00:39Z</time>
      </trkpt>
      <trkpt lat="45.93673" lon="4.76299">
        <ele>170</ele>
        <time>2017-07-31T10:00:41Z</time>
      </trkpt>
      <trkpt lat="45.93674" lon="4.76303">
        <ele>170</ele>
        <time>2017-07-31T10:00:42Z</time>
      </trkpt>
      <trkpt lat="45.93677" lon="4.76308">
        <ele>170</ele>
        <time>2017-07-31T10:00:43Z</time>
      </trkpt>
      <trkpt lat="45.9368" lon="4.76313">
        <ele>170</ele>
        <time>2017-07-31T10:00:44Z</time>
      </trkpt>
      <trkpt lat="45.93685" lon="4.76318">
        <ele>170</ele>
        <time>2017-07-31T10:00:45Z</time>
      </trkpt>
      <trkpt lat="45.93688" lon="4.76324">
        <ele>170</ele>
        <time>2017-07-31T10:00:46Z</time>
      </trkpt>
      <trkpt lat="45.93691" lon="4.76335">
        <ele>169</ele>
        <time>2017-07-31T10:00:48Z</time>
      </trkpt>
      <trkpt lat="45.9369" lon="4.76343">
        <ele>169</ele>
        <time>2017-07-31T10:00:49Z</time>
      </trkpt>
      <trkpt lat="45.93692" lon="4.76349">
        <ele>169</ele>
        <time>2017-07-31T10:00:50Z</time>
      </trkpt>
      <trkpt lat="45.93693" lon="4.76355">
        <ele>169</ele>
        <time>2017-07-31T10:00:51Z</time>
      </trkpt>
      <trkpt lat="45.93697" lon="4.76366">
        <ele>169</ele>
        <time>2017-07-31T10:00:53Z</time>
      </trkpt>
      <trkpt lat="45.93698" lon="4.7637">
        <ele>169</ele>
        <time>2017-07-31T10:00:54Z</time>
      </trkpt>
      <trkpt lat="45.93702" lon="4.76379">
        <ele>169</ele>
        <time>2017-07-31T10:00:56Z</time>
      </trkpt>
      <trkpt lat="45.93703" lon="4.76385">
        <ele>169</ele>
        <time>2017-07-31T10:00:57Z</time>
      </trkpt>
      <trkpt lat="45.93706" lon="4.76392">
        <ele>169</ele>
        <time>2017-07-31T10:00:58Z</time>
      </trkpt>
      <trkpt lat="45.93709" lon="4.76398">
        <ele>169</ele>
        <time>2017-07-31T10:00:59Z</time>
      </trkpt>
      <trkpt lat="45.93711" lon="4.76403">
        <ele>169</ele>
        <time>2017-07-31T10:01:00Z</time>
      </trkpt>
      <trkpt lat="45.93714" lon="4.76409">
        <ele>169</ele>
        <time>2017-07-31T10:01:01Z</time>
      </trkpt>
      <trkpt lat="45.93717" lon="4.76415">
        <ele>169</ele>
        <time>2017-07-31T10:01:02Z</time>
      </trkpt>
      <trkpt lat="45.93718" lon="4.76421">
        <ele>169</ele>
        <time>2017-07-31T10:01:03Z</time>
      </trkpt>
      <trkpt lat="45.93721" lon="4.76428">
        <ele>169</ele>
        <time>2017-07-31T10:01:04Z</time>
      </trkpt>
      <trkpt lat="45.93724" lon="4.76435">
        <ele>169</ele>
        <time>2017-07-31T10:01:05Z</time>
      </trkpt>
      <trkpt lat="45.93726" lon="4.76441">
        <ele>169</ele>
        <time>2017-07-31T10:01:06Z</time>
      </trkpt>
      <trkpt lat="45.93728" lon="4.76446">
        <ele>169</ele>
        <time>2017-07-31T10:01:07Z</time>
      </trkpt>
      <trkpt lat="45.93733" lon="4.76455">
        <ele>169</ele>
        <time>2017-07-31T10:01:09Z</time>
      </trkpt>
      <trkpt lat="45.93735" lon="4.76459">
        <ele>169</ele>
        <time>2017-07-31T10:01:10Z</time>
      </trkpt>
      <trkpt lat="45.93737" lon="4.76468">
        <ele>169</ele>
        <time>2017-07-31T10:01:12Z</time>
      </trkpt>
      <trkpt lat="45.93739" lon="4.76473">
        <ele>169</ele>
        <time>2017-07-31T10:01:13Z</time>
      </trkpt>
      <trkpt lat="45.93742" lon="4.76479">
        <ele>169</ele>
        <time>2017-07-31T10:01:14Z</time>
      </trkpt>
      <trkpt lat="45.93744" lon="4.76485">
        <ele>169</ele>
        <time>2017-07-31T10:01:15Z</time>
      </trkpt>
      <trkpt lat="45.93746" lon="4.76491">
        <ele>169</ele>
        <time>2017-07-31T10:01:16Z</time>
      </trkpt>
      <trkpt lat="45.93749" lon="4.76498">
        <ele>170</ele>
        <time>2017-07-31T10:01:17Z</time>
      </trkpt>
      <trkpt lat="45.93751" lon="4.76504">
        <ele>170</ele>
        <time>2017-07-31T10:01:18Z</time>
      </trkpt>
      <trkpt lat="45.93753" lon="4.7651">
        <ele>170</ele>
        <time>2017-07-31T10:01:19Z</time>
      </trkpt>
      <trkpt lat="45.93758" lon="4.7652">
        <ele>170</ele>
        <time>2017-07-31T10:01:21Z</time>
      </trkpt>
      <trkpt lat="45.93761" lon="4.76526">
        <ele>170</ele>
        <time>2017-07-31T10:01:22Z</time>
      </trkpt>
      <trkpt lat="45.93763" lon="4.76531">
        <ele>170</ele>
        <time>2017-07-31T10:01:23Z</time>
      </trkpt>
      <trkpt lat="45.93765" lon="4.76537">
        <ele>170</ele>
        <time>2017-07-31T10:01:24Z</time>
      </trkpt>
      <trkpt lat="45.93766" lon="4.76544">
        <ele>170</ele>
        <time>2017-07-31T10:01:25Z</time>
      </trkpt>
      <trkpt lat="45.93768" lon="4.7655">
        <ele>170</ele>
        <time>2017-07-31T10:01:26Z</time>
      </trkpt>
      <trkpt lat="45.93771" lon="4.76557">
        <ele>170</ele>
        <time>2017-07-31T10:01:27Z</time>
      </trkpt>
      <trkpt lat="45.93773" lon="4.76564">
        <ele>170</ele>
        <time>2017-07-31T10:01:28Z</time>
      </trkpt>
      <trkpt lat="45.93773" lon="4.76571">
        <ele>170</ele>
        <time>2017-07-31T10:01:29Z</time>
      </trkpt>
      <trkpt lat="45.93774" lon="4.76578">
        <ele>170</ele>
        <time>2017-07-31T10:01:30Z</time>
      </trkpt>
      <trkpt lat="45.93777" lon="4.7659">
        <ele>169</ele>
        <time>2017-07-31T10:01:32Z</time>
      </trkpt>
      <trkpt lat="45.93778" lon="4.76595">
        <ele>169</ele>
        <time>2017-07-31T10:01:33Z</time>
      </trkpt>
      <trkpt lat="45.93781" lon="4.76605">
        <ele>169</ele>
        <time>2017-07-31T10:01:35Z</time>
      </trkpt>
      <trkpt lat="45.93783" lon="4.7661">
        <ele>169</ele>
        <time>2017-07-31T10:01:36Z</time>
      </trkpt>
      <trkpt lat="45.93786" lon="4.76621">
        <ele>169</ele>
        <time>2017-07-31T10:01:38Z</time>
      </trkpt>
      <trkpt lat="45.93789" lon="4.76628">
        <ele>169</ele>
        <time>2017-07-31T10:01:39Z</time>
      </trkpt>
      <trkpt lat="45.93791" lon="4.76634">
        <ele>169</ele>
        <time>2017-07-31T10:01:40Z</time>
      </trkpt>
      <trkpt lat="45.93793" lon="4.7664">
        <ele>169</ele>
        <time>2017-07-31T10:01:41Z</time>
      </trkpt>
      <trkpt lat="45.93796" lon="4.76646">
        <ele>169</ele>
        <time>2017-07-31T10:01:42Z</time>
      </trkpt>
      <trkpt lat="45.93798" lon="4.76652">
        <ele>169</ele>
        <time>2017-07-31T10:01:43Z</time>
      </trkpt>
      <trkpt lat="45.938" lon="4.76657">
        <ele>169</ele>
        <time>2017-07-31T10:01:44Z</time>
      </trkpt>
      <trkpt lat="45.93803" lon="4.76662">
        <ele>169</ele>
        <time>2017-07-31T10:01:45Z</time>
      </trkpt>
      <trkpt lat="45.93809" lon="4.76671">
        <ele>170</ele>
        <time>2017-07-31T10:01:47Z</time>
      </trkpt>
      <trkpt lat="45.93811" lon="4.76676">
        <ele>170</ele>
        <time>2017-07-31T10:01:48Z</time>
      </trkpt>
      <trkpt lat="45.93817" lon="4.76685">
        <ele>170</ele>
        <time>2017-07-31T10:01:50Z</time>
      </trkpt>
      <trkpt lat="45.93819" lon="4.7669">
        <ele>170</ele>
        <time>2017-07-31T10:01:51Z</time>
      </trkpt>
      <trkpt lat="45.93823" lon="4.76695">
        <ele>170</ele>
        <time>2017-07-31T10:01:52Z</time>
      </trkpt>
      <trkpt lat="45.93826" lon="4.767">
        <ele>170</ele>
        <time>2017-07-31T10:01:53Z</time>
      </trkpt>
      <trkpt lat="45.93829" lon="4.76705">
        <ele>170</ele>
        <time>2017-07-31T10:01:54Z</time>
      </trkpt>
      <trkpt lat="45.93832" lon="4.7671">
        <ele>170</ele>
        <time>2017-07-31T10:01:55Z</time>
      </trkpt>
      <trkpt lat="45.93835" lon="4.76714">
        <ele>172</ele>
        <time>2017-07-31T10:01:56Z</time>
      </trkpt>
      <trkpt lat="45.93838" lon="4.76719">
        <ele>172</ele>
        <time>2017-07-31T10:01:57Z</time>
      </trkpt>
      <trkpt lat="45.93843" lon="4.76727">
        <ele>172</ele>
        <time>2017-07-31T10:01:59Z</time>
      </trkpt>
      <trkpt lat="45.93844" lon="4.76731">
        <ele>172</ele>
        <time>2017-07-31T10:02:00Z</time>
      </trkpt>
      <trkpt lat="45.93848" lon="4.76738">
        <ele>173</ele>
        <time>2017-07-31T10:02:02Z</time>
      </trkpt>
      <trkpt lat="45.9385" lon="4.76742">
        <ele>173</ele>
        <time>2017-07-31T10:02:03Z</time>
      </trkpt>
      <trkpt lat="45.93856" lon="4.7675">
        <ele>172</ele>
        <time>2017-07-31T10:02:05Z</time>
      </trkpt>
      <trkpt lat="45.93859" lon="4.76755">
        <ele>172</ele>
        <time>2017-07-31T10:02:06Z</time>
      </trkpt>
      <trkpt lat="45.93862" lon="4.7676">
        <ele>172</ele>
        <time>2017-07-31T10:02:07Z</time>
      </trkpt>
      <trkpt lat="45.93865" lon="4.76765">
        <ele>171</ele>
        <time>2017-07-31T10:02:08Z</time>
      </trkpt>
      <trkpt lat="45.93869" lon="4.7677">
        <ele>171</ele>
        <time>2017-07-31T10:02:09Z</time>
      </trkpt>
      <trkpt lat="45.93872" lon="4.76775">
        <ele>171</ele>
        <time>2017-07-31T10:02:10Z</time>
      </trkpt>
      <trkpt lat="45.93877" lon="4.76784">
        <ele>171</ele>
        <time>2017-07-31T10:02:12Z</time>
      </trkpt>
      <trkpt lat="45.9388" lon="4.76788">
        <ele>171</ele>
        <time>2017-07-31T10:02:13Z</time>
      </trkpt>
      <trkpt lat="45.93886" lon="4.76795">
        <ele>171</ele>
        <time>2017-07-31T10:02:15Z</time>
      </trkpt>
      <trkpt lat="45.93888" lon="4.76799">
        <ele>171</ele>
        <time>2017-07-31T10:02:16Z</time>
      </trkpt>
      <trkpt lat="45.93892" lon="4.76806">
        <ele>171</ele>
        <time>2017-07-31T10:02:18Z</time>
      </trkpt>
      <trkpt lat="45.93894" lon="4.76809">
        <ele>171</ele>
        <time>2017-07-31T10:02:19Z</time>
      </trkpt>
      <trkpt lat="45.93899" lon="4.76814">
        <ele>171</ele>
        <time>2017-07-31T10:02:21Z</time>
      </trkpt>
      <trkpt lat="45.93901" lon="4.76818">
        <ele>172</ele>
        <time>2017-07-31T10:02:22Z</time>
      </trkpt>
      <trkpt lat="45.93906" lon="4.76827">
        <ele>172</ele>
        <time>2017-07-31T10:02:24Z</time>
      </trkpt>
      <trkpt lat="45.93909" lon="4.76832">
        <ele>172</ele>
        <time>2017-07-31T10:02:25Z</time>
      </trkpt>
      <trkpt lat="45.93912" lon="4.76837">
        <ele>172</ele>
        <time>2017-07-31T10:02:26Z</time>
      </trkpt>
      <trkpt lat="45.93915" lon="4.76842">
        <ele>172</ele>
        <time>2017-07-31T10:02:27Z</time>
      </trkpt>
      <trkpt lat="45.93921" lon="4.7685">
        <ele>172</ele>
        <time>2017-07-31T10:02:29Z</time>
      </trkpt>
      <trkpt lat="45.93924" lon="4.76855">
        <ele>172</ele>
        <time>2017-07-31T10:02:30Z</time>
      </trkpt>
      <trkpt lat="45.93929" lon="4.76863">
        <ele>172</ele>
        <time>2017-07-31T10:02:32Z</time>
      </trkpt>
      <trkpt lat="45.93931" lon="4.76867">
        <ele>172</ele>
        <time>2017-07-31T10:02:33Z</time>
      </trkpt>
      <trkpt lat="45.93935" lon="4.76873">
        <ele>172</ele>
        <time>2017-07-31T10:02:35Z</time>
      </trkpt>
      <trkpt lat="45.93938" lon="4.76877">
        <ele>172</ele>
        <time>2017-07-31T10:02:36Z</time>
      </trkpt>
      <trkpt lat="45.93941" lon="4.76885">
        <ele>172</ele>
        <time>2017-07-31T10:02:38Z</time>
      </trkpt>
      <trkpt lat="45.93943" lon="4.76889">
        <ele>172</ele>
        <time>2017-07-31T10:02:39Z</time>
      </trkpt>
      <trkpt lat="45.93945" lon="4.76899">
        <ele>172</ele>
        <time>2017-07-31T10:02:41Z</time>
      </trkpt>
      <trkpt lat="45.93946" lon="4.76905">
        <ele>172</ele>
        <time>2017-07-31T10:02:42Z</time>
      </trkpt>
      <trkpt lat="45.93944" lon="4.76917">
        <ele>172</ele>
        <time>2017-07-31T10:02:44Z</time>
      </trkpt>
      <trkpt lat="45.93942" lon="4.76922">
        <ele>171</ele>
        <time>2017-07-31T10:02:45Z</time>
      </trkpt>
      <trkpt lat="45.93941" lon="4.76932">
        <ele>171</ele>
        <time>2017-07-31T10:02:47Z</time>
      </trkpt>
      <trkpt lat="45.93941" lon="4.76936">
        <ele>171</ele>
        <time>2017-07-31T10:02:48Z</time>
      </trkpt>
      <trkpt lat="45.93944" lon="4.76947">
        <ele>170</ele>
        <time>2017-07-31T10:02:51Z</time>
      </trkpt>
      <trkpt lat="45.93945" lon="4.76951">
        <ele>170</ele>
        <time>2017-07-31T10:02:52Z</time>
      </trkpt>
      <trkpt lat="45.9395" lon="4.76961">
        <ele>170</ele>
        <time>2017-07-31T10:02:55Z</time>
      </trkpt>
      <trkpt lat="45.93953" lon="4.76964">
        <ele>170</ele>
        <time>2017-07-31T10:02:56Z</time>
      </trkpt>
      <trkpt lat="45.93958" lon="4.76968">
        <ele>170</ele>
        <time>2017-07-31T10:02:58Z</time>
      </trkpt>
      <trkpt lat="45.93961" lon="4.76971">
        <ele>170</ele>
        <time>2017-07-31T10:02:59Z</time>
      </trkpt>
      <trkpt lat="45.93966" lon="4.76977">
        <ele>170</ele>
        <time>2017-07-31T10:03:01Z</time>
      </trkpt>
      <trkpt lat="45.93968" lon="4.7698">
        <ele>170</ele>
        <time>2017-07-31T10:03:02Z</time>
      </trkpt>
      <trkpt lat="45.93973" lon="4.76989">
        <ele>170</ele>
        <time>2017-07-31T10:03:06Z</time>
      </trkpt>
      <trkpt lat="45.93973" lon="4.76991">
        <ele>170</ele>
        <time>2017-07-31T10:03:07Z</time>
      </trkpt>
      <trkpt lat="45.93978" lon="4.76998">
        <ele>170</ele>
        <time>2017-07-31T10:03:12Z</time>
      </trkpt>
      <trkpt lat="45.93979" lon="4.76998">
        <ele>170</ele>
        <time>2017-07-31T10:03:13Z</time>
      </trkpt>
      <trkpt lat="45.9398" lon="4.76998">
        <ele>170</ele>
        <time>2017-07-31T10:03:23Z</time>
      </trkpt>
      <trkpt lat="45.9398" lon="4.76997">
        <ele>170</ele>
        <time>2017-07-31T10:03:24Z</time>
      </trkpt>
      <trkpt lat="45.9398" lon="4.76996">
        <ele>170</ele>
        <time>2017-07-31T10:06:23Z</time>
      </trkpt>
      <trkpt lat="45.93972" lon="4.77002">
        <ele>169</ele>
        <time>2017-07-31T10:06:24Z</time>
      </trkpt>
      <trkpt lat="45.93971" lon="4.77006">
        <ele>169</ele>
        <time>2017-07-31T10:06:25Z</time>
      </trkpt>
      <trkpt lat="45.9397" lon="4.7701">
        <ele>169</ele>
        <time>2017-07-31T10:06:26Z</time>
      </trkpt>
      <trkpt lat="45.93971" lon="4.77019">
        <ele>169</ele>
        <time>2017-07-31T10:06:28Z</time>
      </trkpt>
      <trkpt lat="45.93971" lon="4.77024">
        <ele>169</ele>
        <time>2017-07-31T10:06:29Z</time>
      </trkpt>
      <trkpt lat="45.93969" lon="4.77036">
        <ele>169</ele>
        <time>2017-07-31T10:06:33Z</time>
      </trkpt>
      <trkpt lat="45.93969" lon="4.77039">
        <ele>169</ele>
        <time>2017-07-31T10:06:34Z</time>
      </trkpt>
      <trkpt lat="45.93968" lon="4.77048">
        <ele>169</ele>
        <time>2017-07-31T10:06:36Z</time>
      </trkpt>
      <trkpt lat="45.9397" lon="4.77053">
        <ele>169</ele>
        <time>2017-07-31T10:06:37Z</time>
      </trkpt>
      <trkpt lat="45.93972" lon="4.77064">
        <ele>169</ele>
        <time>2017-07-31T10:06:39Z</time>
      </trkpt>
      <trkpt lat="45.93973" lon="4.77069">
        <ele>170</ele>
        <time>2017-07-31T10:06:40Z</time>
      </trkpt>
      <trkpt lat="45.93976" lon="4.77079">
        <ele>170</ele>
        <time>2017-07-31T10:06:42Z</time>
      </trkpt>
      <trkpt lat="45.93977" lon="4.77083">
        <ele>170</ele>
        <time>2017-07-31T10:06:43Z</time>
      </trkpt>
      <trkpt lat="45.93982" lon="4.77094">
        <ele>170</ele>
        <time>2017-07-31T10:06:46Z</time>
      </trkpt>
      <trkpt lat="45.93983" lon="4.77097">
        <ele>170</ele>
        <time>2017-07-31T10:06:47Z</time>
      </trkpt>
      <trkpt lat="45.93984" lon="4.77108">
        <ele>170</ele>
        <time>2017-07-31T10:06:50Z</time>
      </trkpt>
      <trkpt lat="45.93985" lon="4.77113">
        <ele>170</ele>
        <time>2017-07-31T10:06:51Z</time>
      </trkpt>
      <trkpt lat="45.93987" lon="4.77123">
        <ele>170</ele>
        <time>2017-07-31T10:06:53Z</time>
      </trkpt>
      <trkpt lat="45.93988" lon="4.77129">
        <ele>170</ele>
        <time>2017-07-31T10:06:54Z</time>
      </trkpt>
      <trkpt lat="45.93989" lon="4.7714">
        <ele>170</ele>
        <time>2017-07-31T10:06:56Z</time>
      </trkpt>
      <trkpt lat="45.9399" lon="4.77146">
        <ele>170</ele>
        <time>2017-07-31T10:06:57Z</time>
      </trkpt>
      <trkpt lat="45.93991" lon="4.77156">
        <ele>171</ele>
        <time>2017-07-31T10:06:59Z</time>
      </trkpt>
      <trkpt lat="45.93992" lon="4.7716">
        <ele>171</ele>
        <time>2017-07-31T10:07:00Z</time>
      </trkpt>
      <trkpt lat="45.93993" lon="4.7717">
        <ele>171</ele>
        <time>2017-07-31T10:07:02Z</time>
      </trkpt>
      <trkpt lat="45.93993" lon="4.77175">
        <ele>171</ele>
        <time>2017-07-31T10:07:03Z</time>
      </trkpt>
      <trkpt lat="45.93993" lon="4.77184">
        <ele>170</ele>
        <time>2017-07-31T10:07:05Z</time>
      </trkpt>
      <trkpt lat="45.93993" lon="4.77189">
        <ele>170</ele>
        <time>2017-07-31T10:07:06Z</time>
      </trkpt>
      <trkpt lat="45.93994" lon="4.77201">
        <ele>170</ele>
        <time>2017-07-31T10:07:09Z</time>
      </trkpt>
      <trkpt lat="45.93994" lon="4.77204">
        <ele>169</ele>
        <time>2017-07-31T10:07:10Z</time>
      </trkpt>
      <trkpt lat="45.93992" lon="4.77214">
        <ele>169</ele>
        <time>2017-07-31T10:07:13Z</time>
      </trkpt>
      <trkpt lat="45.93992" lon="4.77218">
        <ele>169</ele>
        <time>2017-07-31T10:07:14Z</time>
      </trkpt>
      <trkpt lat="45.93994" lon="4.77227">
        <ele>169</ele>
        <time>2017-07-31T10:07:16Z</time>
      </trkpt>
      <trkpt lat="45.93997" lon="4.77231">
        <ele>169</ele>
        <time>2017-07-31T10:07:17Z</time>
      </trkpt>
      <trkpt lat="45.94004" lon="4.7723">
        <ele>173</ele>
        <time>2017-07-31T10:07:19Z</time>
      </trkpt>
      <trkpt lat="45.94006" lon="4.77228">
        <ele>173</ele>
        <time>2017-07-31T10:07:20Z</time>
      </trkpt>
      <trkpt lat="45.94008" lon="4.77218">
        <ele>174</ele>
        <time>2017-07-31T10:07:23Z</time>
      </trkpt>
      <trkpt lat="45.94008" lon="4.77214">
        <ele>174</ele>
        <time>2017-07-31T10:07:24Z</time>
      </trkpt>
      <trkpt lat="45.94013" lon="4.77224">
        <ele>174</ele>
        <time>2017-07-31T10:07:35Z</time>
      </trkpt>
      <trkpt lat="45.94012" lon="4.77227">
        <ele>173</ele>
        <time>2017-07-31T10:07:36Z</time>
      </trkpt>
      <trkpt lat="45.94009" lon="4.77237">
        <ele>173</ele>
        <time>2017-07-31T10:07:41Z</time>
      </trkpt>
      <trkpt lat="45.94008" lon="4.77239">
        <ele>172</ele>
        <time>2017-07-31T10:07:42Z</time>
      </trkpt>
      <trkpt lat="45.94001" lon="4.77245">
        <ele>171</ele>
        <time>2017-07-31T10:07:47Z</time>
      </trkpt>
      <trkpt lat="45.93997" lon="4.77247">
        <ele>170</ele>
        <time>2017-07-31T10:07:48Z</time>
      </trkpt>
      <trkpt lat="45.93989" lon="4.77249">
        <ele>169</ele>
        <time>2017-07-31T10:07:52Z</time>
      </trkpt>
      <trkpt lat="45.93987" lon="4.77248">
        <ele>169</ele>
        <time>2017-07-31T10:07:53Z</time>
      </trkpt>
      <trkpt lat="45.9398" lon="4.77246">
        <ele>169</ele>
        <time>2017-07-31T10:07:56Z</time>
      </trkpt>
      <trkpt lat="45.93978" lon="4.77246">
        <ele>169</ele>
        <time>2017-07-31T10:07:57Z</time>
      </trkpt>
      <trkpt lat="45.93969" lon="4.77245">
        <ele>169</ele>
        <time>2017-07-31T10:08:00Z</time>
      </trkpt>
      <trkpt lat="45.93966" lon="4.77245">
        <ele>169</ele>
        <time>2017-07-31T10:08:01Z</time>
      </trkpt>
      <trkpt lat="45.93958" lon="4.77242">
        <ele>168</ele>
        <time>2017-07-31T10:08:04Z</time>
      </trkpt>
      <trkpt lat="45.93955" lon="4.77241">
        <ele>168</ele>
        <time>2017-07-31T10:08:05Z</time>
      </trkpt>
      <trkpt lat="45.93949" lon="4.7724">
        <ele>168</ele>
        <time>2017-07-31T10:08:07Z</time>
      </trkpt>
      <trkpt lat="45.93946" lon="4.7724">
        <ele>168</ele>
        <time>2017-07-31T10:08:08Z</time>
      </trkpt>
      <trkpt lat="45.93939" lon="4.77238">
        <ele>168</ele>
        <time>2017-07-31T10:08:11Z</time>
      </trkpt>
      <trkpt lat="45.93937" lon="4.77237">
        <ele>168</ele>
        <time>2017-07-31T10:08:12Z</time>
      </trkpt>
      <trkpt lat="45.93929" lon="4.77236">
        <ele>167</ele>
        <time>2017-07-31T10:08:15Z</time>
      </trkpt>
      <trkpt lat="45.93926" lon="4.77235">
        <ele>167</ele>
        <time>2017-07-31T10:08:16Z</time>
      </trkpt>
      <trkpt lat="45.93919" lon="4.77234">
        <ele>167</ele>
        <time>2017-07-31T10:08:19Z</time>
      </trkpt>
      <trkpt lat="45.93916" lon="4.77233">
        <ele>167</ele>
        <time>2017-07-31T10:08:20Z</time>
      </trkpt>
      <trkpt lat="45.93909" lon="4.77232">
        <ele>167</ele>
        <time>2017-07-31T10:08:23Z</time>
      </trkpt>
      <trkpt lat="45.93905" lon="4.77231">
        <ele>167</ele>
        <time>2017-07-31T10:08:24Z</time>
      </trkpt>
      <trkpt lat="45.93899" lon="4.7723">
        <ele>167</ele>
        <time>2017-07-31T10:08:26Z</time>
      </trkpt>
      <trkpt lat="45.93896" lon="4.77229">
        <ele>167</ele>
        <time>2017-07-31T10:08:27Z</time>
      </trkpt>
      <trkpt lat="45.93892" lon="4.77228">
        <ele>167</ele>
        <time>2017-07-31T10:08:28Z</time>
      </trkpt>
      <trkpt lat="45.93887" lon="4.77226">
        <ele>167</ele>
        <time>2017-07-31T10:08:29Z</time>
      </trkpt>
      <trkpt lat="45.93882" lon="4.77224">
        <ele>168</ele>
        <time>2017-07-31T10:08:30Z</time>
      </trkpt>
      <trkpt lat="45.93876" lon="4.77223">
        <ele>168</ele>
        <time>2017-07-31T10:08:31Z</time>
      </trkpt>
      <trkpt lat="45.93871" lon="4.77222">
        <ele>168</ele>
        <time>2017-07-31T10:08:32Z</time>
      </trkpt>
      <trkpt lat="45.93865" lon="4.7722">
        <ele>168</ele>
        <time>2017-07-31T10:08:33Z</time>
      </trkpt>
      <trkpt lat="45.9386" lon="4.77219">
        <ele>168</ele>
        <time>2017-07-31T10:08:34Z</time>
      </trkpt>
      <trkpt lat="45.93856" lon="4.77219">
        <ele>168</ele>
        <time>2017-07-31T10:08:35Z</time>
      </trkpt>
      <trkpt lat="45.93849" lon="4.77218">
        <ele>168</ele>
        <time>2017-07-31T10:08:37Z</time>
      </trkpt>
      <trkpt lat="45.93847" lon="4.77218">
        <ele>168</ele>
        <time>2017-07-31T10:08:38Z</time>
      </trkpt>
      <trkpt lat="45.9384" lon="4.77212">
        <ele>168</ele>
        <time>2017-07-31T10:08:41Z</time>
      </trkpt>
      <trkpt lat="45.93837" lon="4.77212">
        <ele>168</ele>
        <time>2017-07-31T10:08:42Z</time>
      </trkpt>
      <trkpt lat="45.9383" lon="4.7721">
        <ele>170</ele>
        <time>2017-07-31T10:08:45Z</time>
      </trkpt>
      <trkpt lat="45.93828" lon="4.7721">
        <ele>170</ele>
        <time>2017-07-31T10:08:46Z</time>
      </trkpt>
      <trkpt lat="45.93823" lon="4.77203">
        <ele>169</ele>
        <time>2017-07-31T10:08:48Z</time>
      </trkpt>
      <trkpt lat="45.93822" lon="4.77199">
        <ele>169</ele>
        <time>2017-07-31T10:08:49Z</time>
      </trkpt>
      <trkpt lat="45.93821" lon="4.77189">
        <ele>169</ele>
        <time>2017-07-31T10:08:52Z</time>
      </trkpt>
      <trkpt lat="45.93821" lon="4.77185">
        <ele>169</ele>
        <time>2017-07-31T10:08:53Z</time>
      </trkpt>
      <trkpt lat="45.9382" lon="4.77172">
        <ele>168</ele>
        <time>2017-07-31T10:08:56Z</time>
      </trkpt>
      <trkpt lat="45.93819" lon="4.77168">
        <ele>168</ele>
        <time>2017-07-31T10:08:57Z</time>
      </trkpt>
      <trkpt lat="45.93815" lon="4.77157">
        <ele>168</ele>
        <time>2017-07-31T10:09:00Z</time>
      </trkpt>
      <trkpt lat="45.93813" lon="4.77153">
        <ele>168</ele>
        <time>2017-07-31T10:09:01Z</time>
      </trkpt>
      <trkpt lat="45.93812" lon="4.77142">
        <ele>168</ele>
        <time>2017-07-31T10:09:03Z</time>
      </trkpt>
      <trkpt lat="45.93812" lon="4.77136">
        <ele>168</ele>
        <time>2017-07-31T10:09:04Z</time>
      </trkpt>
      <trkpt lat="45.93812" lon="4.77129">
        <ele>168</ele>
        <time>2017-07-31T10:09:05Z</time>
      </trkpt>
      <trkpt lat="45.93811" lon="4.77122">
        <ele>168</ele>
        <time>2017-07-31T10:09:06Z</time>
      </trkpt>
      <trkpt lat="45.9381" lon="4.77116">
        <ele>168</ele>
        <time>2017-07-31T10:09:07Z</time>
      </trkpt>
      <trkpt lat="45.93808" lon="4.77108">
        <ele>168</ele>
        <time>2017-07-31T10:09:08Z</time>
      </trkpt>
      <trkpt lat="45.93806" lon="4.77102">
        <ele>168</ele>
        <time>2017-07-31T10:09:09Z</time>
      </trkpt>
      <trkpt lat="45.93805" lon="4.77094">
        <ele>168</ele>
        <time>2017-07-31T10:09:10Z</time>
      </trkpt>
      <trkpt lat="45.93804" lon="4.77088">
        <ele>168</ele>
        <time>2017-07-31T10:09:11Z</time>
      </trkpt>
      <trkpt lat="45.93802" lon="4.77081">
        <ele>168</ele>
        <time>2017-07-31T10:09:12Z</time>
      </trkpt>
      <trkpt lat="45.93799" lon="4.77076">
        <ele>168</ele>
        <time>2017-07-31T10:09:13Z</time>
      </trkpt>
      <trkpt lat="45.93796" lon="4.7707">
        <ele>168</ele>
        <time>2017-07-31T10:09:14Z</time>
      </trkpt>
      <trkpt lat="45.93793" lon="4.77065">
        <ele>168</ele>
        <time>2017-07-31T10:09:15Z</time>
      </trkpt>
      <trkpt lat="45.93791" lon="4.77059">
        <ele>168</ele>
        <time>2017-07-31T10:09:16Z</time>
      </trkpt>
      <trkpt lat="45.93786" lon="4.77048">
        <ele>168</ele>
        <time>2017-07-31T10:09:18Z</time>
      </trkpt>
      <trkpt lat="45.93785" lon="4.77041">
        <ele>168</ele>
        <time>2017-07-31T10:09:19Z</time>
      </trkpt>
      <trkpt lat="45.9378" lon="4.77032">
        <ele>168</ele>
        <time>2017-07-31T10:09:21Z</time>
      </trkpt>
      <trkpt lat="45.93779" lon="4.77028">
        <ele>168</ele>
        <time>2017-07-31T10:09:22Z</time>
      </trkpt>
      <trkpt lat="45.93775" lon="4.77019">
        <ele>168</ele>
        <time>2017-07-31T10:09:24Z</time>
      </trkpt>
      <trkpt lat="45.93773" lon="4.77015">
        <ele>168</ele>
        <time>2017-07-31T10:09:25Z</time>
      </trkpt>
      <trkpt lat="45.93771" lon="4.77009">
        <ele>169</ele>
        <time>2017-07-31T10:09:26Z</time>
      </trkpt>
      <trkpt lat="45.93768" lon="4.77003">
        <ele>169</ele>
        <time>2017-07-31T10:09:27Z</time>
      </trkpt>
      <trkpt lat="45.93766" lon="4.76997">
        <ele>168</ele>
        <time>2017-07-31T10:09:28Z</time>
      </trkpt>
      <trkpt lat="45.93763" lon="4.76992">
        <ele>168</ele>
        <time>2017-07-31T10:09:29Z</time>
      </trkpt>
      <trkpt lat="45.93761" lon="4.76984">
        <ele>168</ele>
        <time>2017-07-31T10:09:30Z</time>
      </trkpt>
      <trkpt lat="45.93758" lon="4.76978">
        <ele>168</ele>
        <time>2017-07-31T10:09:31Z</time>
      </trkpt>
      <trkpt lat="45.93753" lon="4.76968">
        <ele>168</ele>
        <time>2017-07-31T10:09:33Z</time>
      </trkpt>
      <trkpt lat="45.93751" lon="4.76963">
        <ele>168</ele>
        <time>2017-07-31T10:09:34Z</time>
      </trkpt>
      <trkpt lat="45.93747" lon="4.76956">
        <ele>169</ele>
        <time>2017-07-31T10:09:36Z</time>
      </trkpt>
      <trkpt lat="45.93745" lon="4.76952">
        <ele>169</ele>
        <time>2017-07-31T10:09:37Z</time>
      </trkpt>
      <trkpt lat="45.93741" lon="4.76942">
        <ele>169</ele>
        <time>2017-07-31T10:09:39Z</time>
      </trkpt>
      <trkpt lat="45.93739" lon="4.76937">
        <ele>169</ele>
        <time>2017-07-31T10:09:40Z</time>
      </trkpt>
      <trkpt lat="45.93735" lon="4.76927">
        <ele>169</ele>
        <time>2017-07-31T10:09:42Z</time>
      </trkpt>
      <trkpt lat="45.93732" lon="4.76923">
        <ele>169</ele>
        <time>2017-07-31T10:09:43Z</time>
      </trkpt>
      <trkpt lat="45.93728" lon="4.76917">
        <ele>168</ele>
        <time>2017-07-31T10:09:45Z</time>
      </trkpt>
      <trkpt lat="45.93726" lon="4.76913">
        <ele>168</ele>
        <time>2017-07-31T10:09:46Z</time>
      </trkpt>
      <trkpt lat="45.93721" lon="4.76905">
        <ele>168</ele>
        <time>2017-07-31T10:09:48Z</time>
      </trkpt>
      <trkpt lat="45.93719" lon="4.76901">
        <ele>168</ele>
        <time>2017-07-31T10:09:49Z</time>
      </trkpt>
      <trkpt lat="45.93714" lon="4.76893">
        <ele>168</ele>
        <time>2017-07-31T10:09:51Z</time>
      </trkpt>
      <trkpt lat="45.93711" lon="4.76889">
        <ele>167</ele>
        <time>2017-07-31T10:09:52Z</time>
      </trkpt>
      <trkpt lat="45.93705" lon="4.7688">
        <ele>167</ele>
        <time>2017-07-31T10:09:54Z</time>
      </trkpt>
      <trkpt lat="45.93703" lon="4.76876">
        <ele>167</ele>
        <time>2017-07-31T10:09:55Z</time>
      </trkpt>
      <trkpt lat="45.93699" lon="4.76869">
        <ele>167</ele>
        <time>2017-07-31T10:09:57Z</time>
      </trkpt>
      <trkpt lat="45.93697" lon="4.76865">
        <ele>167</ele>
        <time>2017-07-31T10:09:58Z</time>
      </trkpt>
      <trkpt lat="45.93694" lon="4.76857">
        <ele>167</ele>
        <time>2017-07-31T10:10:00Z</time>
      </trkpt>
      <trkpt lat="45.93692" lon="4.76853">
        <ele>167</ele>
        <time>2017-07-31T10:10:01Z</time>
      </trkpt>
      <trkpt lat="45.93689" lon="4.76844">
        <ele>167</ele>
        <time>2017-07-31T10:10:03Z</time>
      </trkpt>
      <trkpt lat="45.93687" lon="4.76839">
        <ele>167</ele>
        <time>2017-07-31T10:10:04Z</time>
      </trkpt>
      <trkpt lat="45.93685" lon="4.76832">
        <ele>166</ele>
        <time>2017-07-31T10:10:05Z</time>
      </trkpt>
      <trkpt lat="45.93683" lon="4.76827">
        <ele>166</ele>
        <time>2017-07-31T10:10:06Z</time>
      </trkpt>
      <trkpt lat="45.93678" lon="4.76819">
        <ele>166</ele>
        <time>2017-07-31T10:10:08Z</time>
      </trkpt>
      <trkpt lat="45.93676" lon="4.76814">
        <ele>166</ele>
        <time>2017-07-31T10:10:09Z</time>
      </trkpt>
      <trkpt lat="45.93672" lon="4.76806">
        <ele>166</ele>
        <time>2017-07-31T10:10:11Z</time>
      </trkpt>
      <trkpt lat="45.93669" lon="4.76803">
        <ele>166</ele>
        <time>2017-07-31T10:10:12Z</time>
      </trkpt>
      <trkpt lat="45.93668" lon="4.76794">
        <ele>166</ele>
        <time>2017-07-31T10:10:13Z</time>
      </trkpt>
      <trkpt lat="45.93665" lon="4.7679">
        <ele>167</ele>
        <time>2017-07-31T10:10:14Z</time>
      </trkpt>
      <trkpt lat="45.93661" lon="4.76785">
        <ele>167</ele>
        <time>2017-07-31T10:10:15Z</time>
      </trkpt>
      <trkpt lat="45.93658" lon="4.7678">
        <ele>167</ele>
        <time>2017-07-31T10:10:16Z</time>
      </trkpt>
      <trkpt lat="45.93651" lon="4.76772">
        <ele>167</ele>
        <time>2017-07-31T10:10:18Z</time>
      </trkpt>
      <trkpt lat="45.93648" lon="4.76769">
        <ele>167</ele>
        <time>2017-07-31T10:10:19Z</time>
      </trkpt>
      <trkpt lat="45.93647" lon="4.76761">
        <ele>167</ele>
        <time>2017-07-31T10:10:20Z</time>
      </trkpt>
      <trkpt lat="45.93645" lon="4.76756">
        <ele>167</ele>
        <time>2017-07-31T10:10:21Z</time>
      </trkpt>
      <trkpt lat="45.9364" lon="4.76748">
        <ele>168</ele>
        <time>2017-07-31T10:10:23Z</time>
      </trkpt>
      <trkpt lat="45.93638" lon="4.76744">
        <ele>168</ele>
        <time>2017-07-31T10:10:24Z</time>
      </trkpt>
      <trkpt lat="45.93634" lon="4.7674">
        <ele>168</ele>
        <time>2017-07-31T10:10:25Z</time>
      </trkpt>
      <trkpt lat="45.93631" lon="4.76735">
        <ele>168</ele>
        <time>2017-07-31T10:10:26Z</time>
      </trkpt>
      <trkpt lat="45.93624" lon="4.76728">
        <ele>169</ele>
        <time>2017-07-31T10:10:28Z</time>
      </trkpt>
      <trkpt lat="45.93622" lon="4.76725">
        <ele>169</ele>
        <time>2017-07-31T10:10:29Z</time>
      </trkpt>
      <trkpt lat="45.93617" lon="4.76717">
        <ele>169</ele>
        <time>2017-07-31T10:10:31Z</time>
      </trkpt>
      <trkpt lat="45.93616" lon="4.76713">
        <ele>169</ele>
        <time>2017-07-31T10:10:32Z</time>
      </trkpt>
      <trkpt lat="45.93612" lon="4.76704">
        <ele>169</ele>
        <time>2017-07-31T10:10:35Z</time>
      </trkpt>
      <trkpt lat="45.93609" lon="4.76701">
        <ele>169</ele>
        <time>2017-07-31T10:10:36Z</time>
      </trkpt>
      <trkpt lat="45.93604" lon="4.76693">
        <ele>169</ele>
        <time>2017-07-31T10:10:38Z</time>
      </trkpt>
      <trkpt lat="45.93601" lon="4.76687">
        <ele>169</ele>
        <time>2017-07-31T10:10:39Z</time>
      </trkpt>
      <trkpt lat="45.93596" lon="4.76678">
        <ele>170</ele>
        <time>2017-07-31T10:10:41Z</time>
      </trkpt>
      <trkpt lat="45.93594" lon="4.76674">
        <ele>170</ele>
        <time>2017-07-31T10:10:42Z</time>
      </trkpt>
      <trkpt lat="45.93591" lon="4.76666">
        <ele>170</ele>
        <time>2017-07-31T10:10:44Z</time>
      </trkpt>
      <trkpt lat="45.93589" lon="4.76662">
        <ele>170</ele>
        <time>2017-07-31T10:10:45Z</time>
      </trkpt>
      <trkpt lat="45.93585" lon="4.76651">
        <ele>169</ele>
        <time>2017-07-31T10:10:48Z</time>
      </trkpt>
      <trkpt lat="45.93584" lon="4.76647">
        <ele>169</ele>
        <time>2017-07-31T10:10:49Z</time>
      </trkpt>
      <trkpt lat="45.9358" lon="4.76639">
        <ele>170</ele>
        <time>2017-07-31T10:10:51Z</time>
      </trkpt>
      <trkpt lat="45.93577" lon="4.76635">
        <ele>170</ele>
        <time>2017-07-31T10:10:52Z</time>
      </trkpt>
      <trkpt lat="45.93574" lon="4.76629">
        <ele>169</ele>
        <time>2017-07-31T10:10:53Z</time>
      </trkpt>
      <trkpt lat="45.93572" lon="4.76624">
        <ele>169</ele>
        <time>2017-07-31T10:10:54Z</time>
      </trkpt>
      <trkpt lat="45.93567" lon="4.76615">
        <ele>169</ele>
        <time>2017-07-31T10:10:56Z</time>
      </trkpt>
      <trkpt lat="45.93565" lon="4.76611">
        <ele>169</ele>
        <time>2017-07-31T10:10:57Z</time>
      </trkpt>
      <trkpt lat="45.93559" lon="4.76605">
        <ele>169</ele>
        <time>2017-07-31T10:10:59Z</time>
      </trkpt>
      <trkpt lat="45.93556" lon="4.76601">
        <ele>169</ele>
        <time>2017-07-31T10:11:00Z</time>
      </trkpt>
      <trkpt lat="45.9355" lon="4.76591">
        <ele>169</ele>
        <time>2017-07-31T10:11:03Z</time>
      </trkpt>
      <trkpt lat="45.93549" lon="4.76589">
        <ele>169</ele>
        <time>2017-07-31T10:11:04Z</time>
      </trkpt>
      <trkpt lat="45.93542" lon="4.76584">
        <ele>169</ele>
        <time>2017-07-31T10:11:06Z</time>
      </trkpt>
      <trkpt lat="45.9354" lon="4.76583">
        <ele>167</ele>
        <time>2017-07-31T10:11:07Z</time>
      </trkpt>
      <trkpt lat="45.93535" lon="4.76573">
        <ele>168</ele>
        <time>2017-07-31T10:11:10Z</time>
      </trkpt>
      <trkpt lat="45.93535" lon="4.76568">
        <ele>167</ele>
        <time>2017-07-31T10:11:11Z</time>
      </trkpt>
      <trkpt lat="45.93529" lon="4.76558">
        <ele>167</ele>
        <time>2017-07-31T10:11:13Z</time>
      </trkpt>
      <trkpt lat="45.93527" lon="4.76554">
        <ele>167</ele>
        <time>2017-07-31T10:11:14Z</time>
      </trkpt>
      <trkpt lat="45.93521" lon="4.76547">
        <ele>167</ele>
        <time>2017-07-31T10:11:16Z</time>
      </trkpt>
      <trkpt lat="45.93519" lon="4.76543">
        <ele>167</ele>
        <time>2017-07-31T10:11:17Z</time>
      </trkpt>
      <trkpt lat="45.93514" lon="4.76537">
        <ele>167</ele>
        <time>2017-07-31T10:11:19Z</time>
      </trkpt>
      <trkpt lat="45.93512" lon="4.76533">
        <ele>167</ele>
        <time>2017-07-31T10:11:20Z</time>
      </trkpt>
      <trkpt lat="45.93505" lon="4.76528">
        <ele>167</ele>
        <time>2017-07-31T10:11:23Z</time>
      </trkpt>
      <trkpt lat="45.935" lon="4.76528">
        <ele>168</ele>
        <time>2017-07-31T10:11:24Z</time>
      </trkpt>
      <trkpt lat="45.93493" lon="4.76527">
        <ele>168</ele>
        <time>2017-07-31T10:11:25Z</time>
      </trkpt>
      <trkpt lat="45.93489" lon="4.76524">
        <ele>168</ele>
        <time>2017-07-31T10:11:26Z</time>
      </trkpt>
      <trkpt lat="45.93483" lon="4.76522">
        <ele>168</ele>
        <time>2017-07-31T10:11:27Z</time>
      </trkpt>
      <trkpt lat="45.9348" lon="4.76519">
        <ele>168</ele>
        <time>2017-07-31T10:11:28Z</time>
      </trkpt>
      <trkpt lat="45.93474" lon="4.76512">
        <ele>168</ele>
        <time>2017-07-31T10:11:30Z</time>
      </trkpt>
      <trkpt lat="45.93471" lon="4.7651">
        <ele>168</ele>
        <time>2017-07-31T10:11:31Z</time>
      </trkpt>
      <trkpt lat="45.93467" lon="4.76502">
        <ele>168</ele>
        <time>2017-07-31T10:11:33Z</time>
      </trkpt>
      <trkpt lat="45.93464" lon="4.76499">
        <ele>167</ele>
        <time>2017-07-31T10:11:34Z</time>
      </trkpt>
      <trkpt lat="45.9346" lon="4.76493">
        <ele>167</ele>
        <time>2017-07-31T10:11:36Z</time>
      </trkpt>
      <trkpt lat="45.93458" lon="4.7649">
        <ele>167</ele>
        <time>2017-07-31T10:11:37Z</time>
      </trkpt>
      <trkpt lat="45.93451" lon="4.76481">
        <ele>167</ele>
        <time>2017-07-31T10:11:39Z</time>
      </trkpt>
      <trkpt lat="45.93449" lon="4.76475">
        <ele>167</ele>
        <time>2017-07-31T10:11:40Z</time>
      </trkpt>
      <trkpt lat="45.93444" lon="4.76465">
        <ele>167</ele>
        <time>2017-07-31T10:11:42Z</time>
      </trkpt>
      <trkpt lat="45.93441" lon="4.76461">
        <ele>167</ele>
        <time>2017-07-31T10:11:43Z</time>
      </trkpt>
      <trkpt lat="45.93436" lon="4.76452">
        <ele>167</ele>
        <time>2017-07-31T10:11:45Z</time>
      </trkpt>
      <trkpt lat="45.93432" lon="4.76448">
        <ele>167</ele>
        <time>2017-07-31T10:11:46Z</time>
      </trkpt>
      <trkpt lat="45.93426" lon="4.76441">
        <ele>167</ele>
        <time>2017-07-31T10:11:48Z</time>
      </trkpt>
      <trkpt lat="45.93424" lon="4.76438">
        <ele>167</ele>
        <time>2017-07-31T10:11:49Z</time>
      </trkpt>
      <trkpt lat="45.93419" lon="4.76427">
        <ele>166</ele>
        <time>2017-07-31T10:11:52Z</time>
      </trkpt>
      <trkpt lat="45.93418" lon="4.76423">
        <ele>166</ele>
        <time>2017-07-31T10:11:53Z</time>
      </trkpt>
      <trkpt lat="45.93414" lon="4.76416">
        <ele>166</ele>
        <time>2017-07-31T10:11:55Z</time>
      </trkpt>
      <trkpt lat="45.9341" lon="4.76413">
        <ele>166</ele>
        <time>2017-07-31T10:11:56Z</time>
      </trkpt>
      <trkpt lat="45.93405" lon="4.76405">
        <ele>167</ele>
        <time>2017-07-31T10:11:58Z</time>
      </trkpt>
      <trkpt lat="45.93403" lon="4.76402">
        <ele>167</ele>
        <time>2017-07-31T10:11:59Z</time>
      </trkpt>
      <trkpt lat="45.934" lon="4.76391">
        <ele>167</ele>
        <time>2017-07-31T10:12:01Z</time>
      </trkpt>
      <trkpt lat="45.93398" lon="4.76388">
        <ele>167</ele>
        <time>2017-07-31T10:12:02Z</time>
      </trkpt>
      <trkpt lat="45.93392" lon="4.7638">
        <ele>167</ele>
        <time>2017-07-31T10:12:04Z</time>
      </trkpt>
      <trkpt lat="45.93389" lon="4.76375">
        <ele>167</ele>
        <time>2017-07-31T10:12:05Z</time>
      </trkpt>
      <trkpt lat="45.93387" lon="4.7637">
        <ele>167</ele>
        <time>2017-07-31T10:12:06Z</time>
      </trkpt>
      <trkpt lat="45.93381" lon="4.76364">
        <ele>168</ele>
        <time>2017-07-31T10:12:07Z</time>
      </trkpt>
      <trkpt lat="45.93377" lon="4.7636">
        <ele>168</ele>
        <time>2017-07-31T10:12:08Z</time>
      </trkpt>
      <trkpt lat="45.93371" lon="4.76355">
        <ele>168</ele>
        <time>2017-07-31T10:12:09Z</time>
      </trkpt>
      <trkpt lat="45.93367" lon="4.76352">
        <ele>168</ele>
        <time>2017-07-31T10:12:10Z</time>
      </trkpt>
      <trkpt lat="45.93363" lon="4.76348">
        <ele>168</ele>
        <time>2017-07-31T10:12:11Z</time>
      </trkpt>
      <trkpt lat="45.93357" lon="4.7634">
        <ele>168</ele>
        <time>2017-07-31T10:12:13Z</time>
      </trkpt>
      <trkpt lat="45.93354" lon="4.76336">
        <ele>168</ele>
        <time>2017-07-31T10:12:14Z</time>
      </trkpt>
      <trkpt lat="45.93348" lon="4.76327">
        <ele>169</ele>
        <time>2017-07-31T10:12:16Z</time>
      </trkpt>
      <trkpt lat="45.93344" lon="4.76324">
        <ele>169</ele>
        <time>2017-07-31T10:12:17Z</time>
      </trkpt>
      <trkpt lat="45.93339" lon="4.7632">
        <ele>169</ele>
        <time>2017-07-31T10:12:18Z</time>
      </trkpt>
      <trkpt lat="45.93335" lon="4.76318">
        <ele>169</ele>
        <time>2017-07-31T10:12:19Z</time>
      </trkpt>
      <trkpt lat="45.93327" lon="4.76315">
        <ele>168</ele>
        <time>2017-07-31T10:12:21Z</time>
      </trkpt>
      <trkpt lat="45.93324" lon="4.76313">
        <ele>168</ele>
        <time>2017-07-31T10:12:22Z</time>
      </trkpt>
      <trkpt lat="45.93316" lon="4.76309">
        <ele>168</ele>
        <time>2017-07-31T10:12:25Z</time>
      </trkpt>
      <trkpt lat="45.93314" lon="4.76307">
        <ele>168</ele>
        <time>2017-07-31T10:12:26Z</time>
      </trkpt>
      <trkpt lat="45.93306" lon="4.76304">
        <ele>168</ele>
        <time>2017-07-31T10:12:29Z</time>
      </trkpt>
      <trkpt lat="45.93303" lon="4.76304">
        <ele>168</ele>
        <time>2017-07-31T10:12:30Z</time>
      </trkpt>
      <trkpt lat="45.93295" lon="4.763">
        <ele>168</ele>
        <time>2017-07-31T10:12:34Z</time>
      </trkpt>
      <trkpt lat="45.93293" lon="4.76299">
        <ele>168</ele>
        <time>2017-07-31T10:12:35Z</time>
      </trkpt>
      <trkpt lat="45.93285" lon="4.76295">
        <ele>168</ele>
        <time>2017-07-31T10:12:41Z</time>
      </trkpt>
      <trkpt lat="45.93284" lon="4.76296">
        <ele>168</ele>
        <time>2017-07-31T10:12:42Z</time>
      </trkpt>
      <trkpt lat="45.93278" lon="4.76292">
        <ele>168</ele>
        <time>2017-07-31T10:12:46Z</time>
      </trkpt>
      <trkpt lat="45.93274" lon="4.76292">
        <ele>168</ele>
        <time>2017-07-31T10:12:47Z</time>
      </trkpt>
      <trkpt lat="45.93268" lon="4.763">
        <ele>168</ele>
        <time>2017-07-31T10:12:50Z</time>
      </trkpt>
      <trkpt lat="45.93266" lon="4.76304">
        <ele>168</ele>
        <time>2017-07-31T10:12:51Z</time>
      </trkpt>
      <trkpt lat="45.93264" lon="4.76307">
        <ele>168</ele>
        <time>2017-07-31T10:12:52Z</time>
      </trkpt>
      <trkpt lat="45.93258" lon="4.76312">
        <ele>168</ele>
        <time>2017-07-31T10:12:53Z</time>
      </trkpt>
      <trkpt lat="45.93253" lon="4.76321">
        <ele>168</ele>
        <time>2017-07-31T10:12:55Z</time>
      </trkpt>
      <trkpt lat="45.93248" lon="4.76327">
        <ele>168</ele>
        <time>2017-07-31T10:12:56Z</time>
      </trkpt>
      <trkpt lat="45.93243" lon="4.76333">
        <ele>168</ele>
        <time>2017-07-31T10:12:57Z</time>
      </trkpt>
      <trkpt lat="45.93241" lon="4.7634">
        <ele>168</ele>
        <time>2017-07-31T10:12:58Z</time>
      </trkpt>
      <trkpt lat="45.93237" lon="4.76351">
        <ele>168</ele>
        <time>2017-07-31T10:13:00Z</time>
      </trkpt>
      <trkpt lat="45.93236" lon="4.76355">
        <ele>168</ele>
        <time>2017-07-31T10:13:01Z</time>
      </trkpt>
      <trkpt lat="45.93235" lon="4.76364">
        <ele>168</ele>
        <time>2017-07-31T10:13:03Z</time>
      </trkpt>
      <trkpt lat="45.93234" lon="4.76369">
        <ele>168</ele>
        <time>2017-07-31T10:13:04Z</time>
      </trkpt>
      <trkpt lat="45.93234" lon="4.76379">
        <ele>168</ele>
        <time>2017-07-31T10:13:06Z</time>
      </trkpt>
      <trkpt lat="45.93232" lon="4.76383">
        <ele>168</ele>
        <time>2017-07-31T10:13:07Z</time>
      </trkpt>
      <trkpt lat="45.93229" lon="4.76394">
        <ele>168</ele>
        <time>2017-07-31T10:13:10Z</time>
      </trkpt>
      <trkpt lat="45.93227" lon="4.76397">
        <ele>168</ele>
        <time>2017-07-31T10:13:11Z</time>
      </trkpt>
      <trkpt lat="45.93225" lon="4.76407">
        <ele>168</ele>
        <time>2017-07-31T10:13:13Z</time>
      </trkpt>
      <trkpt lat="45.93224" lon="4.76412">
        <ele>168</ele>
        <time>2017-07-31T10:13:14Z</time>
      </trkpt>
      <trkpt lat="45.93223" lon="4.76424">
        <ele>168</ele>
        <time>2017-07-31T10:13:16Z</time>
      </trkpt>
      <trkpt lat="45.93222" lon="4.76431">
        <ele>168</ele>
        <time>2017-07-31T10:13:17Z</time>
      </trkpt>
      <trkpt lat="45.93221" lon="4.76443">
        <ele>168</ele>
        <time>2017-07-31T10:13:19Z</time>
      </trkpt>
      <trkpt lat="45.93219" lon="4.76448">
        <ele>168</ele>
        <time>2017-07-31T10:13:20Z</time>
      </trkpt>
      <trkpt lat="45.93218" lon="4.76459">
        <ele>169</ele>
        <time>2017-07-31T10:13:22Z</time>
      </trkpt>
      <trkpt lat="45.93218" lon="4.76464">
        <ele>169</ele>
        <time>2017-07-31T10:13:23Z</time>
      </trkpt>
      <trkpt lat="45.93217" lon="4.76475">
        <ele>169</ele>
        <time>2017-07-31T10:13:25Z</time>
      </trkpt>
      <trkpt lat="45.93216" lon="4.7648">
        <ele>169</ele>
        <time>2017-07-31T10:13:26Z</time>
      </trkpt>
      <trkpt lat="45.93214" lon="4.76491">
        <ele>169</ele>
        <time>2017-07-31T10:13:28Z</time>
      </trkpt>
      <trkpt lat="45.93213" lon="4.76496">
        <ele>169</ele>
        <time>2017-07-31T10:13:29Z</time>
      </trkpt>
      <trkpt lat="45.93211" lon="4.76506">
        <ele>169</ele>
        <time>2017-07-31T10:13:31Z</time>
      </trkpt>
      <trkpt lat="45.93209" lon="4.7651">
        <ele>169</ele>
        <time>2017-07-31T10:13:32Z</time>
      </trkpt>
      <trkpt lat="45.93209" lon="4.76518">
        <ele>169</ele>
        <time>2017-07-31T10:13:34Z</time>
      </trkpt>
      <trkpt lat="45.93208" lon="4.76523">
        <ele>169</ele>
        <time>2017-07-31T10:13:35Z</time>
      </trkpt>
      <trkpt lat="45.93206" lon="4.76534">
        <ele>169</ele>
        <time>2017-07-31T10:13:37Z</time>
      </trkpt>
      <trkpt lat="45.93204" lon="4.7654">
        <ele>169</ele>
        <time>2017-07-31T10:13:38Z</time>
      </trkpt>
      <trkpt lat="45.93204" lon="4.76547">
        <ele>169</ele>
        <time>2017-07-31T10:13:39Z</time>
      </trkpt>
      <trkpt lat="45.93203" lon="4.76553">
        <ele>169</ele>
        <time>2017-07-31T10:13:40Z</time>
      </trkpt>
      <trkpt lat="45.93201" lon="4.76559">
        <ele>169</ele>
        <time>2017-07-31T10:13:41Z</time>
      </trkpt>
      <trkpt lat="45.93199" lon="4.76565">
        <ele>169</ele>
        <time>2017-07-31T10:13:42Z</time>
      </trkpt>
      <trkpt lat="45.93195" lon="4.76574">
        <ele>169</ele>
        <time>2017-07-31T10:13:44Z</time>
      </trkpt>
      <trkpt lat="45.93193" lon="4.76577">
        <ele>170</ele>
        <time>2017-07-31T10:13:45Z</time>
      </trkpt>
      <trkpt lat="45.93187" lon="4.76586">
        <ele>171</ele>
        <time>2017-07-31T10:13:49Z</time>
      </trkpt>
      <trkpt lat="45.93185" lon="4.76587">
        <ele>171</ele>
        <time>2017-07-31T10:13:50Z</time>
      </trkpt>
      <trkpt lat="45.9318" lon="4.76581">
        <ele>170</ele>
        <time>2017-07-31T10:13:52Z</time>
      </trkpt>
      <trkpt lat="45.93177" lon="4.76579">
        <ele>170</ele>
        <time>2017-07-31T10:13:53Z</time>
      </trkpt>
      <trkpt lat="45.93172" lon="4.76573">
        <ele>170</ele>
        <time>2017-07-31T10:13:55Z</time>
      </trkpt>
      <trkpt lat="45.93169" lon="4.7657">
        <ele>170</ele>
        <time>2017-07-31T10:13:56Z</time>
      </trkpt>
      <trkpt lat="45.93164" lon="4.76561">
        <ele>170</ele>
        <time>2017-07-31T10:13:59Z</time>
      </trkpt>
      <trkpt lat="45.93161" lon="4.76557">
        <ele>170</ele>
        <time>2017-07-31T10:14:00Z</time>
      </trkpt>
      <trkpt lat="45.93156" lon="4.76553">
        <ele>170</ele>
        <time>2017-07-31T10:14:02Z</time>
      </trkpt>
      <trkpt lat="45.93152" lon="4.7655">
        <ele>170</ele>
        <time>2017-07-31T10:14:03Z</time>
      </trkpt>
      <trkpt lat="45.93145" lon="4.76543">
        <ele>170</ele>
        <time>2017-07-31T10:14:05Z</time>
      </trkpt>
      <trkpt lat="45.93141" lon="4.76539">
        <ele>170</ele>
        <time>2017-07-31T10:14:06Z</time>
      </trkpt>
      <trkpt lat="45.93134" lon="4.76532">
        <ele>170</ele>
        <time>2017-07-31T10:14:08Z</time>
      </trkpt>
      <trkpt lat="45.93131" lon="4.76528">
        <ele>170</ele>
        <time>2017-07-31T10:14:09Z</time>
      </trkpt>
      <trkpt lat="45.93125" lon="4.76522">
        <ele>170</ele>
        <time>2017-07-31T10:14:11Z</time>
      </trkpt>
      <trkpt lat="45.93122" lon="4.76519">
        <ele>170</ele>
        <time>2017-07-31T10:14:12Z</time>
      </trkpt>
      <trkpt lat="45.93116" lon="4.76513">
        <ele>170</ele>
        <time>2017-07-31T10:14:14Z</time>
      </trkpt>
      <trkpt lat="45.93113" lon="4.7651">
        <ele>170</ele>
        <time>2017-07-31T10:14:15Z</time>
      </trkpt>
      <trkpt lat="45.93106" lon="4.76504">
        <ele>170</ele>
        <time>2017-07-31T10:14:17Z</time>
      </trkpt>
      <trkpt lat="45.93103" lon="4.76501">
        <ele>170</ele>
        <time>2017-07-31T10:14:18Z</time>
      </trkpt>
      <trkpt lat="45.93097" lon="4.76494">
        <ele>170</ele>
        <time>2017-07-31T10:14:20Z</time>
      </trkpt>
      <trkpt lat="45.93094" lon="4.7649">
        <ele>170</ele>
        <time>2017-07-31T10:14:21Z</time>
      </trkpt>
      <trkpt lat="45.93088" lon="4.76484">
        <ele>170</ele>
        <time>2017-07-31T10:14:23Z</time>
      </trkpt>
      <trkpt lat="45.93085" lon="4.76482">
        <ele>169</ele>
        <time>2017-07-31T10:14:24Z</time>
      </trkpt>
      <trkpt lat="45.9308" lon="4.76475">
        <ele>169</ele>
        <time>2017-07-31T10:14:26Z</time>
      </trkpt>
      <trkpt lat="45.93076" lon="4.76471">
        <ele>169</ele>
        <time>2017-07-31T10:14:27Z</time>
      </trkpt>
      <trkpt lat="45.93073" lon="4.76467">
        <ele>169</ele>
        <time>2017-07-31T10:14:28Z</time>
      </trkpt>
      <trkpt lat="45.93069" lon="4.76462">
        <ele>169</ele>
        <time>2017-07-31T10:14:29Z</time>
      </trkpt>
      <trkpt lat="45.93062" lon="4.76455">
        <ele>169</ele>
        <time>2017-07-31T10:14:31Z</time>
      </trkpt>
      <trkpt lat="45.93057" lon="4.76451">
        <ele>169</ele>
        <time>2017-07-31T10:14:32Z</time>
      </trkpt>
      <trkpt lat="45.93051" lon="4.76445">
        <ele>169</ele>
        <time>2017-07-31T10:14:34Z</time>
      </trkpt>
      <trkpt lat="45.93048" lon="4.76442">
        <ele>169</ele>
        <time>2017-07-31T10:14:35Z</time>
      </trkpt>
      <trkpt lat="45.9304" lon="4.76437">
        <ele>169</ele>
        <time>2017-07-31T10:14:37Z</time>
      </trkpt>
      <trkpt lat="45.93037" lon="4.76434">
        <ele>169</ele>
        <time>2017-07-31T10:14:38Z</time>
      </trkpt>
      <trkpt lat="45.9303" lon="4.76428">
        <ele>169</ele>
        <time>2017-07-31T10:14:40Z</time>
      </trkpt>
      <trkpt lat="45.93027" lon="4.76425">
        <ele>169</ele>
        <time>2017-07-31T10:14:41Z</time>
      </trkpt>
      <trkpt lat="45.93022" lon="4.76422">
        <ele>169</ele>
        <time>2017-07-31T10:14:42Z</time>
      </trkpt>
      <trkpt lat="45.93018" lon="4.76418">
        <ele>169</ele>
        <time>2017-07-31T10:14:43Z</time>
      </trkpt>
      <trkpt lat="45.93014" lon="4.76414">
        <ele>169</ele>
        <time>2017-07-31T10:14:44Z</time>
      </trkpt>
      <trkpt lat="45.9301" lon="4.7641">
        <ele>169</ele>
        <time>2017-07-31T10:14:45Z</time>
      </trkpt>
      <trkpt lat="45.93004" lon="4.76402">
        <ele>169</ele>
        <time>2017-07-31T10:14:47Z</time>
      </trkpt>
      <trkpt lat="45.92998" lon="4.76396">
        <ele>169</ele>
        <time>2017-07-31T10:14:48Z</time>
      </trkpt>
      <trkpt lat="45.92993" lon="4.7639">
        <ele>169</ele>
        <time>2017-07-31T10:14:49Z</time>
      </trkpt>
      <trkpt lat="45.9299" lon="4.76387">
        <ele>169</ele>
        <time>2017-07-31T10:14:50Z</time>
      </trkpt>
      <trkpt lat="45.92984" lon="4.7638">
        <ele>169</ele>
        <time>2017-07-31T10:14:52Z</time>
      </trkpt>
      <trkpt lat="45.9298" lon="4.76376">
        <ele>169</ele>
        <time>2017-07-31T10:14:53Z</time>
      </trkpt>
      <trkpt lat="45.92976" lon="4.76373">
        <ele>169</ele>
        <time>2017-07-31T10:14:54Z</time>
      </trkpt>
      <trkpt lat="45.92972" lon="4.7637">
        <ele>169</ele>
        <time>2017-07-31T10:14:55Z</time>
      </trkpt>
      <trkpt lat="45.92968" lon="4.76366">
        <ele>169</ele>
        <time>2017-07-31T10:14:56Z</time>
      </trkpt>
      <trkpt lat="45.92963" lon="4.76361">
        <ele>169</ele>
        <time>2017-07-31T10:14:57Z</time>
      </trkpt>
      <trkpt lat="45.92959" lon="4.76357">
        <ele>169</ele>
        <time>2017-07-31T10:14:58Z</time>
      </trkpt>
      <trkpt lat="45.92955" lon="4.76353">
        <ele>169</ele>
        <time>2017-07-31T10:14:59Z</time>
      </trkpt>
      <trkpt lat="45.9295" lon="4.76349">
        <ele>169</ele>
        <time>2017-07-31T10:15:00Z</time>
      </trkpt>
      <trkpt lat="45.92943" lon="4.76344">
        <ele>169</ele>
        <time>2017-07-31T10:15:01Z</time>
      </trkpt>
      <trkpt lat="45.92938" lon="4.76341">
        <ele>169</ele>
        <time>2017-07-31T10:15:02Z</time>
      </trkpt>
      <trkpt lat="45.92935" lon="4.76337">
        <ele>169</ele>
        <time>2017-07-31T10:15:03Z</time>
      </trkpt>
      <trkpt lat="45.92928" lon="4.7633">
        <ele>169</ele>
        <time>2017-07-31T10:15:05Z</time>
      </trkpt>
      <trkpt lat="45.92924" lon="4.76326">
        <ele>169</ele>
        <time>2017-07-31T10:15:06Z</time>
      </trkpt>
      <trkpt lat="45.92919" lon="4.76321">
        <ele>169</ele>
        <time>2017-07-31T10:15:07Z</time>
      </trkpt>
      <trkpt lat="45.92915" lon="4.76317">
        <ele>169</ele>
        <time>2017-07-31T10:15:08Z</time>
      </trkpt>
      <trkpt lat="45.92911" lon="4.76312">
        <ele>169</ele>
        <time>2017-07-31T10:15:09Z</time>
      </trkpt>
      <trkpt lat="45.92907" lon="4.76308">
        <ele>169</ele>
        <time>2017-07-31T10:15:10Z</time>
      </trkpt>
      <trkpt lat="45.92902" lon="4.76304">
        <ele>169</ele>
        <time>2017-07-31T10:15:11Z</time>
      </trkpt>
      <trkpt lat="45.92899" lon="4.763">
        <ele>169</ele>
        <time>2017-07-31T10:15:12Z</time>
      </trkpt>
      <trkpt lat="45.92893" lon="4.76296">
        <ele>169</ele>
        <time>2017-07-31T10:15:13Z</time>
      </trkpt>
      <trkpt lat="45.92887" lon="4.76295">
        <ele>169</ele>
        <time>2017-07-31T10:15:14Z</time>
      </trkpt>
      <trkpt lat="45.92878" lon="4.76298">
        <ele>169</ele>
        <time>2017-07-31T10:15:16Z</time>
      </trkpt>
      <trkpt lat="45.92874" lon="4.76302">
        <ele>169</ele>
        <time>2017-07-31T10:15:17Z</time>
      </trkpt>
      <trkpt lat="45.9287" lon="4.76305">
        <ele>169</ele>
        <time>2017-07-31T10:15:18Z</time>
      </trkpt>
      <trkpt lat="45.92866" lon="4.7631">
        <ele>169</ele>
        <time>2017-07-31T10:15:19Z</time>
      </trkpt>
      <trkpt lat="45.92862" lon="4.76316">
        <ele>169</ele>
        <time>2017-07-31T10:15:20Z</time>
      </trkpt>
      <trkpt lat="45.92859" lon="4.76321">
        <ele>169</ele>
        <time>2017-07-31T10:15:21Z</time>
      </trkpt>
      <trkpt lat="45.92855" lon="4.76327">
        <ele>169</ele>
        <time>2017-07-31T10:15:22Z</time>
      </trkpt>
      <trkpt lat="45.9285" lon="4.76332">
        <ele>170</ele>
        <time>2017-07-31T10:15:23Z</time>
      </trkpt>
      <trkpt lat="45.92846" lon="4.76336">
        <ele>170</ele>
        <time>2017-07-31T10:15:24Z</time>
      </trkpt>
      <trkpt lat="45.92842" lon="4.7634">
        <ele>170</ele>
        <time>2017-07-31T10:15:25Z</time>
      </trkpt>
      <trkpt lat="45.92835" lon="4.76347">
        <ele>170</ele>
        <time>2017-07-31T10:15:27Z</time>
      </trkpt>
      <trkpt lat="45.92832" lon="4.7635">
        <ele>170</ele>
        <time>2017-07-31T10:15:28Z</time>
      </trkpt>
      <trkpt lat="45.92826" lon="4.76356">
        <ele>170</ele>
        <time>2017-07-31T10:15:30Z</time>
      </trkpt>
      <trkpt lat="45.92823" lon="4.76358">
        <ele>169</ele>
        <time>2017-07-31T10:15:31Z</time>
      </trkpt>
      <trkpt lat="45.92817" lon="4.76364">
        <ele>169</ele>
        <time>2017-07-31T10:15:33Z</time>
      </trkpt>
      <trkpt lat="45.92815" lon="4.76368">
        <ele>169</ele>
        <time>2017-07-31T10:15:34Z</time>
      </trkpt>
      <trkpt lat="45.92811" lon="4.76377">
        <ele>169</ele>
        <time>2017-07-31T10:15:37Z</time>
      </trkpt>
      <trkpt lat="45.92808" lon="4.76378">
        <ele>169</ele>
        <time>2017-07-31T10:15:38Z</time>
      </trkpt>
      <trkpt lat="45.92799" lon="4.76376">
        <ele>169</ele>
        <time>2017-07-31T10:15:40Z</time>
      </trkpt>
      <trkpt lat="45.92795" lon="4.76374">
        <ele>169</ele>
        <time>2017-07-31T10:15:41Z</time>
      </trkpt>
      <trkpt lat="45.92788" lon="4.76372">
        <ele>169</ele>
        <time>2017-07-31T10:15:42Z</time>
      </trkpt>
      <trkpt lat="45.92783" lon="4.76371">
        <ele>169</ele>
        <time>2017-07-31T10:15:43Z</time>
      </trkpt>
      <trkpt lat="45.92775" lon="4.76368">
        <ele>169</ele>
        <time>2017-07-31T10:15:45Z</time>
      </trkpt>
      <trkpt lat="45.9277" lon="4.76365">
        <ele>169</ele>
        <time>2017-07-31T10:15:46Z</time>
      </trkpt>
      <trkpt lat="45.92762" lon="4.76362">
        <ele>169</ele>
        <time>2017-07-31T10:15:48Z</time>
      </trkpt>
      <trkpt lat="45.92758" lon="4.7636">
        <ele>169</ele>
        <time>2017-07-31T10:15:49Z</time>
      </trkpt>
      <trkpt lat="45.92753" lon="4.76358">
        <ele>169</ele>
        <time>2017-07-31T10:15:50Z</time>
      </trkpt>
      <trkpt lat="45.92749" lon="4.76357">
        <ele>169</ele>
        <time>2017-07-31T10:15:51Z</time>
      </trkpt>
      <trkpt lat="45.9274" lon="4.76353">
        <ele>169</ele>
        <time>2017-07-31T10:15:53Z</time>
      </trkpt>
      <trkpt lat="45.92736" lon="4.76351">
        <ele>169</ele>
        <time>2017-07-31T10:15:54Z</time>
      </trkpt>
      <trkpt lat="45.9273" lon="4.76349">
        <ele>169</ele>
        <time>2017-07-31T10:15:55Z</time>
      </trkpt>
      <trkpt lat="45.92724" lon="4.76348">
        <ele>169</ele>
        <time>2017-07-31T10:15:56Z</time>
      </trkpt>
      <trkpt lat="45.92719" lon="4.76346">
        <ele>169</ele>
        <time>2017-07-31T10:15:57Z</time>
      </trkpt>
      <trkpt lat="45.92713" lon="4.76344">
        <ele>169</ele>
        <time>2017-07-31T10:15:58Z</time>
      </trkpt>
      <trkpt lat="45.92708" lon="4.76343">
        <ele>168</ele>
        <time>2017-07-31T10:15:59Z</time>
      </trkpt>
      <trkpt lat="45.92704" lon="4.76341">
        <ele>168</ele>
        <time>2017-07-31T10:16:00Z</time>
      </trkpt>
      <trkpt lat="45.92696" lon="4.76339">
        <ele>168</ele>
        <time>2017-07-31T10:16:02Z</time>
      </trkpt>
      <trkpt lat="45.92692" lon="4.76338">
        <ele>168</ele>
        <time>2017-07-31T10:16:03Z</time>
      </trkpt>
      <trkpt lat="45.92685" lon="4.76337">
        <ele>168</ele>
        <time>2017-07-31T10:16:05Z</time>
      </trkpt>
      <trkpt lat="45.92682" lon="4.76337">
        <ele>168</ele>
        <time>2017-07-31T10:16:06Z</time>
      </trkpt>
      <trkpt lat="45.92678" lon="4.76336">
        <ele>168</ele>
        <time>2017-07-31T10:16:07Z</time>
      </trkpt>
      <trkpt lat="45.92673" lon="4.76334">
        <ele>168</ele>
        <time>2017-07-31T10:16:08Z</time>
      </trkpt>
      <trkpt lat="45.92667" lon="4.76332">
        <ele>168</ele>
        <time>2017-07-31T10:16:09Z</time>
      </trkpt>
      <trkpt lat="45.92662" lon="4.76331">
        <ele>168</ele>
        <time>2017-07-31T10:16:10Z</time>
      </trkpt>
      <trkpt lat="45.92656" lon="4.76329">
        <ele>168</ele>
        <time>2017-07-31T10:16:11Z</time>
      </trkpt>
      <trkpt lat="45.9265" lon="4.76327">
        <ele>168</ele>
        <time>2017-07-31T10:16:12Z</time>
      </trkpt>
      <trkpt lat="45.92645" lon="4.76325">
        <ele>168</ele>
        <time>2017-07-31T10:16:13Z</time>
      </trkpt>
      <trkpt lat="45.9264" lon="4.76323">
        <ele>168</ele>
        <time>2017-07-31T10:16:14Z</time>
      </trkpt>
      <trkpt lat="45.92636" lon="4.76321">
        <ele>168</ele>
        <time>2017-07-31T10:16:15Z</time>
      </trkpt>
      <trkpt lat="45.92631" lon="4.76318">
        <ele>168</ele>
        <time>2017-07-31T10:16:16Z</time>
      </trkpt>
      <trkpt lat="45.92623" lon="4.76313">
        <ele>167</ele>
        <time>2017-07-31T10:16:18Z</time>
      </trkpt>
      <trkpt lat="45.92619" lon="4.76311">
        <ele>167</ele>
        <time>2017-07-31T10:16:19Z</time>
      </trkpt>
      <trkpt lat="45.92612" lon="4.76306">
        <ele>167</ele>
        <time>2017-07-31T10:16:21Z</time>
      </trkpt>
      <trkpt lat="45.92608" lon="4.76304">
        <ele>167</ele>
        <time>2017-07-31T10:16:22Z</time>
      </trkpt>
      <trkpt lat="45.926" lon="4.76299">
        <ele>167</ele>
        <time>2017-07-31T10:16:24Z</time>
      </trkpt>
      <trkpt lat="45.92596" lon="4.76296">
        <ele>167</ele>
        <time>2017-07-31T10:16:25Z</time>
      </trkpt>
      <trkpt lat="45.92591" lon="4.76293">
        <ele>167</ele>
        <time>2017-07-31T10:16:26Z</time>
      </trkpt>
      <trkpt lat="45.92586" lon="4.7629">
        <ele>168</ele>
        <time>2017-07-31T10:16:27Z</time>
      </trkpt>
      <trkpt lat="45.92582" lon="4.76287">
        <ele>168</ele>
        <time>2017-07-31T10:16:28Z</time>
      </trkpt>
      <trkpt lat="45.92578" lon="4.76284">
        <ele>168</ele>
        <time>2017-07-31T10:16:29Z</time>
      </trkpt>
      <trkpt lat="45.92569" lon="4.7628">
        <ele>168</ele>
        <time>2017-07-31T10:16:31Z</time>
      </trkpt>
      <trkpt lat="45.92565" lon="4.76278">
        <ele>168</ele>
        <time>2017-07-31T10:16:32Z</time>
      </trkpt>
      <trkpt lat="45.9256" lon="4.76276">
        <ele>168</ele>
        <time>2017-07-31T10:16:33Z</time>
      </trkpt>
      <trkpt lat="45.92555" lon="4.76274">
        <ele>168</ele>
        <time>2017-07-31T10:16:34Z</time>
      </trkpt>
      <trkpt lat="45.92551" lon="4.76272">
        <ele>168</ele>
        <time>2017-07-31T10:16:35Z</time>
      </trkpt>
      <trkpt lat="45.92546" lon="4.76269">
        <ele>168</ele>
        <time>2017-07-31T10:16:36Z</time>
      </trkpt>
      <trkpt lat="45.92541" lon="4.76266">
        <ele>168</ele>
        <time>2017-07-31T10:16:37Z</time>
      </trkpt>
      <trkpt lat="45.92537" lon="4.76263">
        <ele>168</ele>
        <time>2017-07-31T10:16:38Z</time>
      </trkpt>
      <trkpt lat="45.92532" lon="4.7626">
        <ele>168</ele>
        <time>2017-07-31T10:16:39Z</time>
      </trkpt>
      <trkpt lat="45.92527" lon="4.76257">
        <ele>168</ele>
        <time>2017-07-31T10:16:40Z</time>
      </trkpt>
      <trkpt lat="45.92523" lon="4.76256">
        <ele>168</ele>
        <time>2017-07-31T10:16:41Z</time>
      </trkpt>
      <trkpt lat="45.92518" lon="4.76254">
        <ele>168</ele>
        <time>2017-07-31T10:16:42Z</time>
      </trkpt>
      <trkpt lat="45.9251" lon="4.76253">
        <ele>168</ele>
        <time>2017-07-31T10:16:44Z</time>
      </trkpt>
      <trkpt lat="45.92506" lon="4.76254">
        <ele>168</ele>
        <time>2017-07-31T10:16:45Z</time>
      </trkpt>
      <trkpt lat="45.92498" lon="4.76256">
        <ele>168</ele>
        <time>2017-07-31T10:16:47Z</time>
      </trkpt>
      <trkpt lat="45.92495" lon="4.76258">
        <ele>168</ele>
        <time>2017-07-31T10:16:48Z</time>
      </trkpt>
      <trkpt lat="45.92488" lon="4.76262">
        <ele>169</ele>
        <time>2017-07-31T10:16:50Z</time>
      </trkpt>
      <trkpt lat="45.92484" lon="4.76264">
        <ele>169</ele>
        <time>2017-07-31T10:16:51Z</time>
      </trkpt>
      <trkpt lat="45.9248" lon="4.76266">
        <ele>169</ele>
        <time>2017-07-31T10:16:52Z</time>
      </trkpt>
      <trkpt lat="45.92475" lon="4.76268">
        <ele>169</ele>
        <time>2017-07-31T10:16:53Z</time>
      </trkpt>
      <trkpt lat="45.9247" lon="4.7627">
        <ele>169</ele>
        <time>2017-07-31T10:16:54Z</time>
      </trkpt>
      <trkpt lat="45.92466" lon="4.76273">
        <ele>169</ele>
        <time>2017-07-31T10:16:55Z</time>
      </trkpt>
      <trkpt lat="45.92458" lon="4.76277">
        <ele>169</ele>
        <time>2017-07-31T10:16:57Z</time>
      </trkpt>
      <trkpt lat="45.92455" lon="4.7628">
        <ele>169</ele>
        <time>2017-07-31T10:16:58Z</time>
      </trkpt>
      <trkpt lat="45.92449" lon="4.76287">
        <ele>169</ele>
        <time>2017-07-31T10:17:00Z</time>
      </trkpt>
      <trkpt lat="45.92446" lon="4.76292">
        <ele>169</ele>
        <time>2017-07-31T10:17:01Z</time>
      </trkpt>
      <trkpt lat="45.92443" lon="4.76298">
        <ele>169</ele>
        <time>2017-07-31T10:17:02Z</time>
      </trkpt>
      <trkpt lat="45.9244" lon="4.76303">
        <ele>169</ele>
        <time>2017-07-31T10:17:03Z</time>
      </trkpt>
      <trkpt lat="45.92433" lon="4.7631">
        <ele>169</ele>
        <time>2017-07-31T10:17:05Z</time>
      </trkpt>
      <trkpt lat="45.92431" lon="4.76314">
        <ele>170</ele>
        <time>2017-07-31T10:17:06Z</time>
      </trkpt>
      <trkpt lat="45.92429" lon="4.76321">
        <ele>170</ele>
        <time>2017-07-31T10:17:07Z</time>
      </trkpt>
      <trkpt lat="45.92427" lon="4.76327">
        <ele>170</ele>
        <time>2017-07-31T10:17:08Z</time>
      </trkpt>
      <trkpt lat="45.92424" lon="4.76338">
        <ele>170</ele>
        <time>2017-07-31T10:17:10Z</time>
      </trkpt>
      <trkpt lat="45.92421" lon="4.76343">
        <ele>170</ele>
        <time>2017-07-31T10:17:11Z</time>
      </trkpt>
      <trkpt lat="45.92417" lon="4.76353">
        <ele>169</ele>
        <time>2017-07-31T10:17:13Z</time>
      </trkpt>
      <trkpt lat="45.92414" lon="4.76358">
        <ele>169</ele>
        <time>2017-07-31T10:17:14Z</time>
      </trkpt>
      <trkpt lat="45.92409" lon="4.76365">
        <ele>169</ele>
        <time>2017-07-31T10:17:16Z</time>
      </trkpt>
      <trkpt lat="45.92406" lon="4.76367">
        <ele>169</ele>
        <time>2017-07-31T10:17:17Z</time>
      </trkpt>
      <trkpt lat="45.92399" lon="4.76372">
        <ele>169</ele>
        <time>2017-07-31T10:17:21Z</time>
      </trkpt>
      <trkpt lat="45.92397" lon="4.76371">
        <ele>169</ele>
        <time>2017-07-31T10:17:22Z</time>
      </trkpt>
      <trkpt lat="45.92389" lon="4.76366">
        <ele>169</ele>
        <time>2017-07-31T10:17:26Z</time>
      </trkpt>
      <trkpt lat="45.92387" lon="4.76365">
        <ele>168</ele>
        <time>2017-07-31T10:17:27Z</time>
      </trkpt>
      <trkpt lat="45.92382" lon="4.76363">
        <ele>168</ele>
        <time>2017-07-31T10:17:30Z</time>
      </trkpt>
      <trkpt lat="45.92379" lon="4.76358">
        <ele>168</ele>
        <time>2017-07-31T10:17:31Z</time>
      </trkpt>
      <trkpt lat="45.92374" lon="4.76349">
        <ele>168</ele>
        <time>2017-07-31T10:17:33Z</time>
      </trkpt>
      <trkpt lat="45.92367" lon="4.76345">
        <ele>168</ele>
        <time>2017-07-31T10:17:34Z</time>
      </trkpt>
      <trkpt lat="45.92359" lon="4.76342">
        <ele>168</ele>
        <time>2017-07-31T10:17:36Z</time>
      </trkpt>
      <trkpt lat="45.92355" lon="4.76342">
        <ele>168</ele>
        <time>2017-07-31T10:17:37Z</time>
      </trkpt>
      <trkpt lat="45.92348" lon="4.76346">
        <ele>168</ele>
        <time>2017-07-31T10:17:39Z</time>
      </trkpt>
      <trkpt lat="45.92345" lon="4.7635">
        <ele>168</ele>
        <time>2017-07-31T10:17:40Z</time>
      </trkpt>
      <trkpt lat="45.92339" lon="4.76355">
        <ele>168</ele>
        <time>2017-07-31T10:17:42Z</time>
      </trkpt>
      <trkpt lat="45.92335" lon="4.76356">
        <ele>168</ele>
        <time>2017-07-31T10:17:43Z</time>
      </trkpt>
      <trkpt lat="45.9233" lon="4.76357">
        <ele>167</ele>
        <time>2017-07-31T10:17:44Z</time>
      </trkpt>
      <trkpt lat="45.92325" lon="4.76359">
        <ele>167</ele>
        <time>2017-07-31T10:17:45Z</time>
      </trkpt>
      <trkpt lat="45.92321" lon="4.76361">
        <ele>167</ele>
        <time>2017-07-31T10:17:46Z</time>
      </trkpt>
      <trkpt lat="45.92316" lon="4.76362">
        <ele>167</ele>
        <time>2017-07-31T10:17:47Z</time>
      </trkpt>
      <trkpt lat="45.92308" lon="4.76365">
        <ele>167</ele>
        <time>2017-07-31T10:17:49Z</time>
      </trkpt>
      <trkpt lat="45.92304" lon="4.76367">
        <ele>167</ele>
        <time>2017-07-31T10:17:50Z</time>
      </trkpt>
      <trkpt lat="45.92297" lon="4.76369">
        <ele>167</ele>
        <time>2017-07-31T10:17:52Z</time>
      </trkpt>
      <trkpt lat="45.92294" lon="4.7637">
        <ele>167</ele>
        <time>2017-07-31T10:17:53Z</time>
      </trkpt>
      <trkpt lat="45.92286" lon="4.76374">
        <ele>167</ele>
        <time>2017-07-31T10:17:55Z</time>
      </trkpt>
      <trkpt lat="45.92282" lon="4.76376">
        <ele>167</ele>
        <time>2017-07-31T10:17:56Z</time>
      </trkpt>
      <trkpt lat="45.92273" lon="4.76379">
        <ele>167</ele>
        <time>2017-07-31T10:17:58Z</time>
      </trkpt>
      <trkpt lat="45.92269" lon="4.7638">
        <ele>167</ele>
        <time>2017-07-31T10:17:59Z</time>
      </trkpt>
      <trkpt lat="45.92261" lon="4.76383">
        <ele>167</ele>
        <time>2017-07-31T10:18:01Z</time>
      </trkpt>
      <trkpt lat="45.92257" lon="4.76385">
        <ele>167</ele>
        <time>2017-07-31T10:18:02Z</time>
      </trkpt>
      <trkpt lat="45.92249" lon="4.76387">
        <ele>168</ele>
        <time>2017-07-31T10:18:04Z</time>
      </trkpt>
      <trkpt lat="45.92245" lon="4.76387">
        <ele>168</ele>
        <time>2017-07-31T10:18:05Z</time>
      </trkpt>
      <trkpt lat="45.92238" lon="4.76387">
        <ele>168</ele>
        <time>2017-07-31T10:18:07Z</time>
      </trkpt>
      <trkpt lat="45.92235" lon="4.76386">
        <ele>168</ele>
        <time>2017-07-31T10:18:08Z</time>
      </trkpt>
      <trkpt lat="45.92228" lon="4.76384">
        <ele>168</ele>
        <time>2017-07-31T10:18:10Z</time>
      </trkpt>
      <trkpt lat="45.92225" lon="4.76382">
        <ele>168</ele>
        <time>2017-07-31T10:18:11Z</time>
      </trkpt>
      <trkpt lat="45.92218" lon="4.76376">
        <ele>168</ele>
        <time>2017-07-31T10:18:13Z</time>
      </trkpt>
      <trkpt lat="45.92213" lon="4.76374">
        <ele>168</ele>
        <time>2017-07-31T10:18:14Z</time>
      </trkpt>
      <trkpt lat="45.92209" lon="4.76371">
        <ele>168</ele>
        <time>2017-07-31T10:18:15Z</time>
      </trkpt>
      <trkpt lat="45.92205" lon="4.76369">
        <ele>168</ele>
        <time>2017-07-31T10:18:16Z</time>
      </trkpt>
      <trkpt lat="45.92197" lon="4.76363">
        <ele>168</ele>
        <time>2017-07-31T10:18:18Z</time>
      </trkpt>
      <trkpt lat="45.92194" lon="4.76361">
        <ele>168</ele>
        <time>2017-07-31T10:18:19Z</time>
      </trkpt>
      <trkpt lat="45.92189" lon="4.76359">
        <ele>168</ele>
        <time>2017-07-31T10:18:20Z</time>
      </trkpt>
      <trkpt lat="45.92185" lon="4.76356">
        <ele>168</ele>
        <time>2017-07-31T10:18:21Z</time>
      </trkpt>
      <trkpt lat="45.9218" lon="4.76353">
        <ele>168</ele>
        <time>2017-07-31T10:18:22Z</time>
      </trkpt>
      <trkpt lat="45.92176" lon="4.7635">
        <ele>168</ele>
        <time>2017-07-31T10:18:23Z</time>
      </trkpt>
      <trkpt lat="45.92171" lon="4.76348">
        <ele>169</ele>
        <time>2017-07-31T10:18:24Z</time>
      </trkpt>
      <trkpt lat="45.92166" lon="4.76345">
        <ele>169</ele>
        <time>2017-07-31T10:18:25Z</time>
      </trkpt>
      <trkpt lat="45.92162" lon="4.76342">
        <ele>169</ele>
        <time>2017-07-31T10:18:26Z</time>
      </trkpt>
      <trkpt lat="45.92158" lon="4.76339">
        <ele>169</ele>
        <time>2017-07-31T10:18:27Z</time>
      </trkpt>
      <trkpt lat="45.9215" lon="4.76334">
        <ele>169</ele>
        <time>2017-07-31T10:18:29Z</time>
      </trkpt>
      <trkpt lat="45.92146" lon="4.76332">
        <ele>169</ele>
        <time>2017-07-31T10:18:30Z</time>
      </trkpt>
      <trkpt lat="45.92139" lon="4.76327">
        <ele>169</ele>
        <time>2017-07-31T10:18:32Z</time>
      </trkpt>
      <trkpt lat="45.92136" lon="4.76324">
        <ele>169</ele>
        <time>2017-07-31T10:18:33Z</time>
      </trkpt>
      <trkpt lat="45.92128" lon="4.76319">
        <ele>169</ele>
        <time>2017-07-31T10:18:35Z</time>
      </trkpt>
      <trkpt lat="45.92124" lon="4.76316">
        <ele>169</ele>
        <time>2017-07-31T10:18:36Z</time>
      </trkpt>
      <trkpt lat="45.92116" lon="4.76312">
        <ele>169</ele>
        <time>2017-07-31T10:18:38Z</time>
      </trkpt>
      <trkpt lat="45.92113" lon="4.76309">
        <ele>169</ele>
        <time>2017-07-31T10:18:39Z</time>
      </trkpt>
      <trkpt lat="45.92106" lon="4.76305">
        <ele>169</ele>
        <time>2017-07-31T10:18:41Z</time>
      </trkpt>
      <trkpt lat="45.92103" lon="4.76303">
        <ele>169</ele>
        <time>2017-07-31T10:18:42Z</time>
      </trkpt>
      <trkpt lat="45.92095" lon="4.763">
        <ele>169</ele>
        <time>2017-07-31T10:18:44Z</time>
      </trkpt>
      <trkpt lat="45.92091" lon="4.76299">
        <ele>169</ele>
        <time>2017-07-31T10:18:45Z</time>
      </trkpt>
      <trkpt lat="45.92084" lon="4.76295">
        <ele>169</ele>
        <time>2017-07-31T10:18:47Z</time>
      </trkpt>
      <trkpt lat="45.9208" lon="4.76292">
        <ele>169</ele>
        <time>2017-07-31T10:18:48Z</time>
      </trkpt>
      <trkpt lat="45.92072" lon="4.76287">
        <ele>169</ele>
        <time>2017-07-31T10:18:50Z</time>
      </trkpt>
      <trkpt lat="45.92068" lon="4.76284">
        <ele>169</ele>
        <time>2017-07-31T10:18:51Z</time>
      </trkpt>
      <trkpt lat="45.92062" lon="4.7628">
        <ele>169</ele>
        <time>2017-07-31T10:18:53Z</time>
      </trkpt>
      <trkpt lat="45.92059" lon="4.76278">
        <ele>169</ele>
        <time>2017-07-31T10:18:54Z</time>
      </trkpt>
      <trkpt lat="45.92054" lon="4.76274">
        <ele>169</ele>
        <time>2017-07-31T10:18:56Z</time>
      </trkpt>
      <trkpt lat="45.92051" lon="4.76273">
        <ele>169</ele>
        <time>2017-07-31T10:18:57Z</time>
      </trkpt>
      <trkpt lat="45.92044" lon="4.76269">
        <ele>169</ele>
        <time>2017-07-31T10:18:59Z</time>
      </trkpt>
      <trkpt lat="45.9204" lon="4.76267">
        <ele>169</ele>
        <time>2017-07-31T10:19:00Z</time>
      </trkpt>
      <trkpt lat="45.92032" lon="4.76262">
        <ele>169</ele>
        <time>2017-07-31T10:19:02Z</time>
      </trkpt>
      <trkpt lat="45.92028" lon="4.7626">
        <ele>169</ele>
        <time>2017-07-31T10:19:03Z</time>
      </trkpt>
      <trkpt lat="45.92021" lon="4.76255">
        <ele>169</ele>
        <time>2017-07-31T10:19:05Z</time>
      </trkpt>
      <trkpt lat="45.92017" lon="4.76253">
        <ele>169</ele>
        <time>2017-07-31T10:19:06Z</time>
      </trkpt>
      <trkpt lat="45.92011" lon="4.76249">
        <ele>170</ele>
        <time>2017-07-31T10:19:08Z</time>
      </trkpt>
      <trkpt lat="45.92007" lon="4.76247">
        <ele>170</ele>
        <time>2017-07-31T10:19:09Z</time>
      </trkpt>
      <trkpt lat="45.92" lon="4.76244">
        <ele>170</ele>
        <time>2017-07-31T10:19:11Z</time>
      </trkpt>
      <trkpt lat="45.91997" lon="4.76242">
        <ele>170</ele>
        <time>2017-07-31T10:19:12Z</time>
      </trkpt>
      <trkpt lat="45.91989" lon="4.76239">
        <ele>170</ele>
        <time>2017-07-31T10:19:14Z</time>
      </trkpt>
      <trkpt lat="45.91986" lon="4.76237">
        <ele>170</ele>
        <time>2017-07-31T10:19:15Z</time>
      </trkpt>
      <trkpt lat="45.91981" lon="4.76235">
        <ele>170</ele>
        <time>2017-07-31T10:19:16Z</time>
      </trkpt>
      <trkpt lat="45.91977" lon="4.76233">
        <ele>171</ele>
        <time>2017-07-31T10:19:17Z</time>
      </trkpt>
      <trkpt lat="45.91969" lon="4.7623">
        <ele>171</ele>
        <time>2017-07-31T10:19:19Z</time>
      </trkpt>
      <trkpt lat="45.91966" lon="4.76228">
        <ele>171</ele>
        <time>2017-07-31T10:19:20Z</time>
      </trkpt>
      <trkpt lat="45.9196" lon="4.76225">
        <ele>171</ele>
        <time>2017-07-31T10:19:22Z</time>
      </trkpt>
      <trkpt lat="45.91958" lon="4.76223">
        <ele>171</ele>
        <time>2017-07-31T10:19:23Z</time>
      </trkpt>
      <trkpt lat="45.91951" lon="4.7622">
        <ele>171</ele>
        <time>2017-07-31T10:19:25Z</time>
      </trkpt>
      <trkpt lat="45.91948" lon="4.76218">
        <ele>171</ele>
        <time>2017-07-31T10:19:26Z</time>
      </trkpt>
      <trkpt lat="45.9194" lon="4.76213">
        <ele>171</ele>
        <time>2017-07-31T10:19:28Z</time>
      </trkpt>
      <trkpt lat="45.91937" lon="4.76211">
        <ele>171</ele>
        <time>2017-07-31T10:19:29Z</time>
      </trkpt>
      <trkpt lat="45.91931" lon="4.76207">
        <ele>171</ele>
        <time>2017-07-31T10:19:31Z</time>
      </trkpt>
      <trkpt lat="45.91928" lon="4.76206">
        <ele>171</ele>
        <time>2017-07-31T10:19:32Z</time>
      </trkpt>
      <trkpt lat="45.91922" lon="4.76202">
        <ele>171</ele>
        <time>2017-07-31T10:19:34Z</time>
      </trkpt>
      <trkpt lat="45.91917" lon="4.762">
        <ele>171</ele>
        <time>2017-07-31T10:19:35Z</time>
      </trkpt>
      <trkpt lat="45.91909" lon="4.76196">
        <ele>172</ele>
        <time>2017-07-31T10:19:37Z</time>
      </trkpt>
      <trkpt lat="45.91905" lon="4.76194">
        <ele>172</ele>
        <time>2017-07-31T10:19:38Z</time>
      </trkpt>
      <trkpt lat="45.91898" lon="4.7619">
        <ele>172</ele>
        <time>2017-07-31T10:19:40Z</time>
      </trkpt>
      <trkpt lat="45.91894" lon="4.76188">
        <ele>172</ele>
        <time>2017-07-31T10:19:41Z</time>
      </trkpt>
      <trkpt lat="45.91888" lon="4.76185">
        <ele>172</ele>
        <time>2017-07-31T10:19:43Z</time>
      </trkpt>
      <trkpt lat="45.91884" lon="4.76183">
        <ele>172</ele>
        <time>2017-07-31T10:19:44Z</time>
      </trkpt>
      <trkpt lat="45.91878" lon="4.7618">
        <ele>172</ele>
        <time>2017-07-31T10:19:46Z</time>
      </trkpt>
      <trkpt lat="45.91874" lon="4.76178">
        <ele>172</ele>
        <time>2017-07-31T10:19:47Z</time>
      </trkpt>
      <trkpt lat="45.91868" lon="4.76175">
        <ele>172</ele>
        <time>2017-07-31T10:19:49Z</time>
      </trkpt>
      <trkpt lat="45.91865" lon="4.76175">
        <ele>172</ele>
        <time>2017-07-31T10:19:50Z</time>
      </trkpt>
      <trkpt lat="45.91858" lon="4.76177">
        <ele>172</ele>
        <time>2017-07-31T10:19:52Z</time>
      </trkpt>
      <trkpt lat="45.91855" lon="4.7618">
        <ele>172</ele>
        <time>2017-07-31T10:19:53Z</time>
      </trkpt>
      <trkpt lat="45.9185" lon="4.76188">
        <ele>172</ele>
        <time>2017-07-31T10:19:55Z</time>
      </trkpt>
      <trkpt lat="45.91848" lon="4.76192">
        <ele>172</ele>
        <time>2017-07-31T10:19:56Z</time>
      </trkpt>
      <trkpt lat="45.91846" lon="4.76202">
        <ele>172</ele>
        <time>2017-07-31T10:19:58Z</time>
      </trkpt>
      <trkpt lat="45.91845" lon="4.76207">
        <ele>172</ele>
        <time>2017-07-31T10:19:59Z</time>
      </trkpt>
      <trkpt lat="45.91843" lon="4.76217">
        <ele>172</ele>
        <time>2017-07-31T10:20:01Z</time>
      </trkpt>
      <trkpt lat="45.91842" lon="4.76223">
        <ele>172</ele>
        <time>2017-07-31T10:20:02Z</time>
      </trkpt>
      <trkpt lat="45.91839" lon="4.76232">
        <ele>173</ele>
        <time>2017-07-31T10:20:04Z</time>
      </trkpt>
      <trkpt lat="45.91838" lon="4.76237">
        <ele>173</ele>
        <time>2017-07-31T10:20:05Z</time>
      </trkpt>
      <trkpt lat="45.91836" lon="4.76246">
        <ele>173</ele>
        <time>2017-07-31T10:20:07Z</time>
      </trkpt>
      <trkpt lat="45.91835" lon="4.76252">
        <ele>173</ele>
        <time>2017-07-31T10:20:08Z</time>
      </trkpt>
      <trkpt lat="45.91832" lon="4.76262">
        <ele>174</ele>
        <time>2017-07-31T10:20:10Z</time>
      </trkpt>
      <trkpt lat="45.91831" lon="4.76267">
        <ele>174</ele>
        <time>2017-07-31T10:20:11Z</time>
      </trkpt>
      <trkpt lat="45.91829" lon="4.76275">
        <ele>174</ele>
        <time>2017-07-31T10:20:13Z</time>
      </trkpt>
      <trkpt lat="45.91827" lon="4.7628">
        <ele>174</ele>
        <time>2017-07-31T10:20:14Z</time>
      </trkpt>
      <trkpt lat="45.91826" lon="4.76289">
        <ele>174</ele>
        <time>2017-07-31T10:20:17Z</time>
      </trkpt>
      <trkpt lat="45.91825" lon="4.76293">
        <ele>174</ele>
        <time>2017-07-31T10:20:18Z</time>
      </trkpt>
      <trkpt lat="45.91822" lon="4.76301">
        <ele>174</ele>
        <time>2017-07-31T10:20:20Z</time>
      </trkpt>
      <trkpt lat="45.9182" lon="4.76306">
        <ele>174</ele>
        <time>2017-07-31T10:20:21Z</time>
      </trkpt>
      <trkpt lat="45.91817" lon="4.76316">
        <ele>174</ele>
        <time>2017-07-31T10:20:23Z</time>
      </trkpt>
      <trkpt lat="45.91816" lon="4.7632">
        <ele>174</ele>
        <time>2017-07-31T10:20:24Z</time>
      </trkpt>
      <trkpt lat="45.91808" lon="4.76326">
        <ele>174</ele>
        <time>2017-07-31T10:20:29Z</time>
      </trkpt>
      <trkpt lat="45.91807" lon="4.76325">
        <ele>174</ele>
        <time>2017-07-31T10:20:30Z</time>
      </trkpt>
      <trkpt lat="45.91799" lon="4.76322">
        <ele>174</ele>
        <time>2017-07-31T10:20:35Z</time>
      </trkpt>
      <trkpt lat="45.91797" lon="4.76323">
        <ele>175</ele>
        <time>2017-07-31T10:20:36Z</time>
      </trkpt>
      <trkpt lat="45.91789" lon="4.76319">
        <ele>175</ele>
        <time>2017-07-31T10:20:43Z</time>
      </trkpt>
      <trkpt lat="45.91787" lon="4.76318">
        <ele>175</ele>
        <time>2017-07-31T10:20:44Z</time>
      </trkpt>
      <trkpt lat="45.9178" lon="4.76317">
        <ele>175</ele>
        <time>2017-07-31T10:20:50Z</time>
      </trkpt>
      <trkpt lat="45.91778" lon="4.76317">
        <ele>175</ele>
        <time>2017-07-31T10:20:51Z</time>
      </trkpt>
      <trkpt lat="45.9177" lon="4.76314">
        <ele>175</ele>
        <time>2017-07-31T10:20:56Z</time>
      </trkpt>
      <trkpt lat="45.91768" lon="4.76313">
        <ele>175</ele>
        <time>2017-07-31T10:20:57Z</time>
      </trkpt>
      <trkpt lat="45.91761" lon="4.76312">
        <ele>175</ele>
        <time>2017-07-31T10:21:00Z</time>
      </trkpt>
      <trkpt lat="45.91757" lon="4.76315">
        <ele>175</ele>
        <time>2017-07-31T10:21:01Z</time>
      </trkpt>
      <trkpt lat="45.9175" lon="4.7632">
        <ele>176</ele>
        <time>2017-07-31T10:21:04Z</time>
      </trkpt>
      <trkpt lat="45.91748" lon="4.76321">
        <ele>176</ele>
        <time>2017-07-31T10:21:05Z</time>
      </trkpt>
      <trkpt lat="45.9174" lon="4.76325">
        <ele>177</ele>
        <time>2017-07-31T10:21:09Z</time>
      </trkpt>
      <trkpt lat="45.91739" lon="4.76326">
        <ele>177</ele>
        <time>2017-07-31T10:21:10Z</time>
      </trkpt>
      <trkpt lat="45.91731" lon="4.76329">
        <ele>177</ele>
        <time>2017-07-31T10:21:14Z</time>
      </trkpt>
      <trkpt lat="45.91729" lon="4.7633">
        <ele>177</ele>
        <time>2017-07-31T10:21:15Z</time>
      </trkpt>
      <trkpt lat="45.91721" lon="4.76332">
        <ele>177</ele>
        <time>2017-07-31T10:21:19Z</time>
      </trkpt>
      <trkpt lat="45.91719" lon="4.76333">
        <ele>177</ele>
        <time>2017-07-31T10:21:20Z</time>
      </trkpt>
      <trkpt lat="45.91711" lon="4.76335">
        <ele>176</ele>
        <time>2017-07-31T10:21:25Z</time>
      </trkpt>
      <trkpt lat="45.91709" lon="4.76335">
        <ele>177</ele>
        <time>2017-07-31T10:21:26Z</time>
      </trkpt>
      <trkpt lat="45.91702" lon="4.76339">
        <ele>177</ele>
        <time>2017-07-31T10:21:30Z</time>
      </trkpt>
      <trkpt lat="45.917" lon="4.76339">
        <ele>177</ele>
        <time>2017-07-31T10:21:31Z</time>
      </trkpt>
      <trkpt lat="45.91692" lon="4.76342">
        <ele>177</ele>
        <time>2017-07-31T10:21:36Z</time>
      </trkpt>
      <trkpt lat="45.91691" lon="4.76343">
        <ele>177</ele>
        <time>2017-07-31T10:21:37Z</time>
      </trkpt>
      <trkpt lat="45.91682" lon="4.76344">
        <ele>177</ele>
        <time>2017-07-31T10:21:45Z</time>
      </trkpt>
      <trkpt lat="45.9168" lon="4.76344">
        <ele>177</ele>
        <time>2017-07-31T10:21:46Z</time>
      </trkpt>
      <trkpt lat="45.91673" lon="4.76343">
        <ele>177</ele>
        <time>2017-07-31T10:21:50Z</time>
      </trkpt>
      <trkpt lat="45.91671" lon="4.76343">
        <ele>177</ele>
        <time>2017-07-31T10:21:51Z</time>
      </trkpt>
      <trkpt lat="45.91662" lon="4.76341">
        <ele>177</ele>
        <time>2017-07-31T10:22:14Z</time>
      </trkpt>
      <trkpt lat="45.9166" lon="4.76341">
        <ele>177</ele>
        <time>2017-07-31T10:22:15Z</time>
      </trkpt>
      <trkpt lat="45.91654" lon="4.76339">
        <ele>177</ele>
        <time>2017-07-31T10:22:28Z</time>
      </trkpt>
      <trkpt lat="45.91654" lon="4.76339">
        <ele>177</ele>
        <time>2017-07-31T10:22:29Z</time>
      </trkpt>
      <trkpt lat="45.91648" lon="4.76337">
        <ele>177</ele>
        <time>2017-07-31T10:22:31Z</time>
      </trkpt>
      <trkpt lat="45.91644" lon="4.76336">
        <ele>177</ele>
        <time>2017-07-31T10:22:32Z</time>
      </trkpt>
      <trkpt lat="45.91635" lon="4.76334">
        <ele>176</ele>
        <time>2017-07-31T10:22:36Z</time>
      </trkpt>
      <trkpt lat="45.91633" lon="4.76334">
        <ele>176</ele>
        <time>2017-07-31T10:22:37Z</time>
      </trkpt>
      <trkpt lat="45.91625" lon="4.76332">
        <ele>177</ele>
        <time>2017-07-31T10:22:41Z</time>
      </trkpt>
      <trkpt lat="45.91622" lon="4.76331">
        <ele>177</ele>
        <time>2017-07-31T10:22:42Z</time>
      </trkpt>
      <trkpt lat="45.91614" lon="4.76327">
        <ele>177</ele>
        <time>2017-07-31T10:22:47Z</time>
      </trkpt>
      <trkpt lat="45.91613" lon="4.76327">
        <ele>177</ele>
        <time>2017-07-31T10:22:48Z</time>
      </trkpt>
      <trkpt lat="45.91606" lon="4.76324">
        <ele>176</ele>
        <time>2017-07-31T10:22:51Z</time>
      </trkpt>
      <trkpt lat="45.91604" lon="4.76323">
        <ele>176</ele>
        <time>2017-07-31T10:22:52Z</time>
      </trkpt>
      <trkpt lat="45.91596" lon="4.76321">
        <ele>176</ele>
        <time>2017-07-31T10:22:57Z</time>
      </trkpt>
      <trkpt lat="45.91595" lon="4.7632">
        <ele>176</ele>
        <time>2017-07-31T10:22:58Z</time>
      </trkpt>
      <trkpt lat="45.91587" lon="4.76319">
        <ele>176</ele>
        <time>2017-07-31T10:23:02Z</time>
      </trkpt>
      <trkpt lat="45.91585" lon="4.76319">
        <ele>176</ele>
        <time>2017-07-31T10:23:03Z</time>
      </trkpt>
      <trkpt lat="45.91578" lon="4.76317">
        <ele>176</ele>
        <time>2017-07-31T10:23:06Z</time>
      </trkpt>
      <trkpt lat="45.91575" lon="4.76316">
        <ele>176</ele>
        <time>2017-07-31T10:23:07Z</time>
      </trkpt>
      <trkpt lat="45.91567" lon="4.76316">
        <ele>176</ele>
        <time>2017-07-31T10:23:12Z</time>
      </trkpt>
      <trkpt lat="45.91565" lon="4.76316">
        <ele>176</ele>
        <time>2017-07-31T10:23:13Z</time>
      </trkpt>
      <trkpt lat="45.91557" lon="4.76312">
        <ele>177</ele>
        <time>2017-07-31T10:23:18Z</time>
      </trkpt>
      <trkpt lat="45.91555" lon="4.76312">
        <ele>177</ele>
        <time>2017-07-31T10:23:19Z</time>
      </trkpt>
      <trkpt lat="45.91548" lon="4.7631">
        <ele>177</ele>
        <time>2017-07-31T10:23:24Z</time>
      </trkpt>
      <trkpt lat="45.91546" lon="4.76311">
        <ele>177</ele>
        <time>2017-07-31T10:23:25Z</time>
      </trkpt>
      <trkpt lat="45.91541" lon="4.7632">
        <ele>177</ele>
        <time>2017-07-31T10:23:29Z</time>
      </trkpt>
      <trkpt lat="45.91539" lon="4.76322">
        <ele>177</ele>
        <time>2017-07-31T10:23:30Z</time>
      </trkpt>
      <trkpt lat="45.91534" lon="4.76327">
        <ele>177</ele>
        <time>2017-07-31T10:23:32Z</time>
      </trkpt>
      <trkpt lat="45.91531" lon="4.76331">
        <ele>177</ele>
        <time>2017-07-31T10:23:33Z</time>
      </trkpt>
      <trkpt lat="45.91527" lon="4.76337">
        <ele>176</ele>
        <time>2017-07-31T10:23:35Z</time>
      </trkpt>
      <trkpt lat="45.91525" lon="4.7634">
        <ele>176</ele>
        <time>2017-07-31T10:23:36Z</time>
      </trkpt>
      <trkpt lat="45.91519" lon="4.7635">
        <ele>176</ele>
        <time>2017-07-31T10:23:40Z</time>
      </trkpt>
      <trkpt lat="45.91518" lon="4.76352">
        <ele>176</ele>
        <time>2017-07-31T10:23:41Z</time>
      </trkpt>
      <trkpt lat="45.91513" lon="4.76361">
        <ele>176</ele>
        <time>2017-07-31T10:23:44Z</time>
      </trkpt>
      <trkpt lat="45.91512" lon="4.76364">
        <ele>176</ele>
        <time>2017-07-31T10:23:45Z</time>
      </trkpt>
      <trkpt lat="45.91506" lon="4.76374">
        <ele>176</ele>
        <time>2017-07-31T10:23:48Z</time>
      </trkpt>
      <trkpt lat="45.91504" lon="4.76378">
        <ele>176</ele>
        <time>2017-07-31T10:23:49Z</time>
      </trkpt>
      <trkpt lat="45.91498" lon="4.76386">
        <ele>177</ele>
        <time>2017-07-31T10:23:51Z</time>
      </trkpt>
      <trkpt lat="45.91496" lon="4.76391">
        <ele>176</ele>
        <time>2017-07-31T10:23:52Z</time>
      </trkpt>
      <trkpt lat="45.91491" lon="4.76398">
        <ele>176</ele>
        <time>2017-07-31T10:23:54Z</time>
      </trkpt>
      <trkpt lat="45.91489" lon="4.76402">
        <ele>176</ele>
        <time>2017-07-31T10:23:55Z</time>
      </trkpt>
      <trkpt lat="45.91484" lon="4.76409">
        <ele>176</ele>
        <time>2017-07-31T10:23:57Z</time>
      </trkpt>
      <trkpt lat="45.91482" lon="4.76412">
        <ele>176</ele>
        <time>2017-07-31T10:23:58Z</time>
      </trkpt>
      <trkpt lat="45.91478" lon="4.76418">
        <ele>176</ele>
        <time>2017-07-31T10:24:00Z</time>
      </trkpt>
      <trkpt lat="45.91476" lon="4.76423">
        <ele>176</ele>
        <time>2017-07-31T10:24:01Z</time>
      </trkpt>
      <trkpt lat="45.91472" lon="4.76431">
        <ele>176</ele>
        <time>2017-07-31T10:24:03Z</time>
      </trkpt>
      <trkpt lat="45.9147" lon="4.76435">
        <ele>176</ele>
        <time>2017-07-31T10:24:04Z</time>
      </trkpt>
      <trkpt lat="45.91466" lon="4.76444">
        <ele>177</ele>
        <time>2017-07-31T10:24:06Z</time>
      </trkpt>
      <trkpt lat="45.91463" lon="4.76448">
        <ele>177</ele>
        <time>2017-07-31T10:24:07Z</time>
      </trkpt>
      <trkpt lat="45.91459" lon="4.76454">
        <ele>177</ele>
        <time>2017-07-31T10:24:09Z</time>
      </trkpt>
      <trkpt lat="45.91457" lon="4.76458">
        <ele>177</ele>
        <time>2017-07-31T10:24:10Z</time>
      </trkpt>
      <trkpt lat="45.91453" lon="4.76467">
        <ele>177</ele>
        <time>2017-07-31T10:24:12Z</time>
      </trkpt>
      <trkpt lat="45.9145" lon="4.76471">
        <ele>177</ele>
        <time>2017-07-31T10:24:13Z</time>
      </trkpt>
      <trkpt lat="45.91447" lon="4.76477">
        <ele>177</ele>
        <time>2017-07-31T10:24:14Z</time>
      </trkpt>
      <trkpt lat="45.91444" lon="4.76483">
        <ele>177</ele>
        <time>2017-07-31T10:24:15Z</time>
      </trkpt>
      <trkpt lat="45.91441" lon="4.76489">
        <ele>177</ele>
        <time>2017-07-31T10:24:16Z</time>
      </trkpt>
      <trkpt lat="45.91438" lon="4.76495">
        <ele>177</ele>
        <time>2017-07-31T10:24:17Z</time>
      </trkpt>
      <trkpt lat="45.91435" lon="4.765">
        <ele>177</ele>
        <time>2017-07-31T10:24:18Z</time>
      </trkpt>
      <trkpt lat="45.91431" lon="4.76505">
        <ele>177</ele>
        <time>2017-07-31T10:24:19Z</time>
      </trkpt>
      <trkpt lat="45.91428" lon="4.7651">
        <ele>177</ele>
        <time>2017-07-31T10:24:20Z</time>
      </trkpt>
      <trkpt lat="45.91425" lon="4.76515">
        <ele>177</ele>
        <time>2017-07-31T10:24:21Z</time>
      </trkpt>
      <trkpt lat="45.9142" lon="4.76524">
        <ele>177</ele>
        <time>2017-07-31T10:24:23Z</time>
      </trkpt>
      <trkpt lat="45.91417" lon="4.76529">
        <ele>177</ele>
        <time>2017-07-31T10:24:24Z</time>
      </trkpt>
      <trkpt lat="45.91412" lon="4.76538">
        <ele>177</ele>
        <time>2017-07-31T10:24:26Z</time>
      </trkpt>
      <trkpt lat="45.9141" lon="4.76542">
        <ele>177</ele>
        <time>2017-07-31T10:24:27Z</time>
      </trkpt>
      <trkpt lat="45.91405" lon="4.7655">
        <ele>177</ele>
        <time>2017-07-31T10:24:29Z</time>
      </trkpt>
      <trkpt lat="45.91403" lon="4.76554">
        <ele>177</ele>
        <time>2017-07-31T10:24:30Z</time>
      </trkpt>
      <trkpt lat="45.914" lon="4.7656">
        <ele>177</ele>
        <time>2017-07-31T10:24:31Z</time>
      </trkpt>
      <trkpt lat="45.91397" lon="4.76565">
        <ele>177</ele>
        <time>2017-07-31T10:24:32Z</time>
      </trkpt>
      <trkpt lat="45.91391" lon="4.76575">
        <ele>177</ele>
        <time>2017-07-31T10:24:34Z</time>
      </trkpt>
      <trkpt lat="45.91389" lon="4.7658">
        <ele>177</ele>
        <time>2017-07-31T10:24:35Z</time>
      </trkpt>
      <trkpt lat="45.91383" lon="4.7659">
        <ele>176</ele>
        <time>2017-07-31T10:24:37Z</time>
      </trkpt>
      <trkpt lat="45.91381" lon="4.76594">
        <ele>176</ele>
        <time>2017-07-31T10:24:38Z</time>
      </trkpt>
      <trkpt lat="45.91377" lon="4.76603">
        <ele>176</ele>
        <time>2017-07-31T10:24:40Z</time>
      </trkpt>
      <trkpt lat="45.91375" lon="4.76607">
        <ele>176</ele>
        <time>2017-07-31T10:24:41Z</time>
      </trkpt>
      <trkpt lat="45.91371" lon="4.76615">
        <ele>176</ele>
        <time>2017-07-31T10:24:43Z</time>
      </trkpt>
      <trkpt lat="45.91368" lon="4.76619">
        <ele>176</ele>
        <time>2017-07-31T10:24:44Z</time>
      </trkpt>
      <trkpt lat="45.91363" lon="4.76628">
        <ele>176</ele>
        <time>2017-07-31T10:24:46Z</time>
      </trkpt>
      <trkpt lat="45.9136" lon="4.76634">
        <ele>176</ele>
        <time>2017-07-31T10:24:47Z</time>
      </trkpt>
      <trkpt lat="45.91355" lon="4.76644">
        <ele>176</ele>
        <time>2017-07-31T10:24:49Z</time>
      </trkpt>
      <trkpt lat="45.91353" lon="4.76649">
        <ele>176</ele>
        <time>2017-07-31T10:24:50Z</time>
      </trkpt>
      <trkpt lat="45.91348" lon="4.76659">
        <ele>176</ele>
        <time>2017-07-31T10:24:52Z</time>
      </trkpt>
      <trkpt lat="45.91345" lon="4.76663">
        <ele>176</ele>
        <time>2017-07-31T10:24:53Z</time>
      </trkpt>
      <trkpt lat="45.91341" lon="4.76671">
        <ele>176</ele>
        <time>2017-07-31T10:24:55Z</time>
      </trkpt>
      <trkpt lat="45.91338" lon="4.76676">
        <ele>176</ele>
        <time>2017-07-31T10:24:56Z</time>
      </trkpt>
      <trkpt lat="45.91334" lon="4.76686">
        <ele>176</ele>
        <time>2017-07-31T10:24:58Z</time>
      </trkpt>
      <trkpt lat="45.91332" lon="4.76691">
        <ele>176</ele>
        <time>2017-07-31T10:24:59Z</time>
      </trkpt>
      <trkpt lat="45.91329" lon="4.76703">
        <ele>176</ele>
        <time>2017-07-31T10:25:01Z</time>
      </trkpt>
      <trkpt lat="45.91328" lon="4.76709">
        <ele>176</ele>
        <time>2017-07-31T10:25:02Z</time>
      </trkpt>
      <trkpt lat="45.91327" lon="4.76716">
        <ele>176</ele>
        <time>2017-07-31T10:25:03Z</time>
      </trkpt>
      <trkpt lat="45.91327" lon="4.76723">
        <ele>176</ele>
        <time>2017-07-31T10:25:04Z</time>
      </trkpt>
      <trkpt lat="45.91326" lon="4.7673">
        <ele>176</ele>
        <time>2017-07-31T10:25:05Z</time>
      </trkpt>
      <trkpt lat="45.91325" lon="4.76737">
        <ele>176</ele>
        <time>2017-07-31T10:25:06Z</time>
      </trkpt>
      <trkpt lat="45.91324" lon="4.76744">
        <ele>176</ele>
        <time>2017-07-31T10:25:07Z</time>
      </trkpt>
      <trkpt lat="45.91324" lon="4.76752">
        <ele>176</ele>
        <time>2017-07-31T10:25:08Z</time>
      </trkpt>
      <trkpt lat="45.91323" lon="4.76759">
        <ele>176</ele>
        <time>2017-07-31T10:25:09Z</time>
      </trkpt>
      <trkpt lat="45.91323" lon="4.76767">
        <ele>176</ele>
        <time>2017-07-31T10:25:10Z</time>
      </trkpt>
      <trkpt lat="45.91323" lon="4.76774">
        <ele>176</ele>
        <time>2017-07-31T10:25:11Z</time>
      </trkpt>
      <trkpt lat="45.91322" lon="4.76781">
        <ele>175</ele>
        <time>2017-07-31T10:25:12Z</time>
      </trkpt>
      <trkpt lat="45.91322" lon="4.76789">
        <ele>175</ele>
        <time>2017-07-31T10:25:13Z</time>
      </trkpt>
      <trkpt lat="45.91322" lon="4.76797">
        <ele>175</ele>
        <time>2017-07-31T10:25:14Z</time>
      </trkpt>
      <trkpt lat="45.91322" lon="4.76804">
        <ele>175</ele>
        <time>2017-07-31T10:25:15Z</time>
      </trkpt>
      <trkpt lat="45.91322" lon="4.76811">
        <ele>175</ele>
        <time>2017-07-31T10:25:16Z</time>
      </trkpt>
      <trkpt lat="45.91322" lon="4.76818">
        <ele>175</ele>
        <time>2017-07-31T10:25:17Z</time>
      </trkpt>
      <trkpt lat="45.91322" lon="4.76825">
        <ele>175</ele>
        <time>2017-07-31T10:25:18Z</time>
      </trkpt>
      <trkpt lat="45.91322" lon="4.76832">
        <ele>175</ele>
        <time>2017-07-31T10:25:19Z</time>
      </trkpt>
      <trkpt lat="45.91322" lon="4.76839">
        <ele>174</ele>
        <time>2017-07-31T10:25:20Z</time>
      </trkpt>
      <trkpt lat="45.91322" lon="4.76847">
        <ele>175</ele>
        <time>2017-07-31T10:25:21Z</time>
      </trkpt>
      <trkpt lat="45.91322" lon="4.76856">
        <ele>175</ele>
        <time>2017-07-31T10:25:22Z</time>
      </trkpt>
      <trkpt lat="45.91322" lon="4.76864">
        <ele>175</ele>
        <time>2017-07-31T10:25:23Z</time>
      </trkpt>
      <trkpt lat="45.91321" lon="4.76872">
        <ele>175</ele>
        <time>2017-07-31T10:25:24Z</time>
      </trkpt>
      <trkpt lat="45.91321" lon="4.7688">
        <ele>175</ele>
        <time>2017-07-31T10:25:25Z</time>
      </trkpt>
      <trkpt lat="45.91321" lon="4.76889">
        <ele>175</ele>
        <time>2017-07-31T10:25:26Z</time>
      </trkpt>
      <trkpt lat="45.91321" lon="4.76897">
        <ele>175</ele>
        <time>2017-07-31T10:25:27Z</time>
      </trkpt>
      <trkpt lat="45.9132" lon="4.76905">
        <ele>175</ele>
        <time>2017-07-31T10:25:28Z</time>
      </trkpt>
      <trkpt lat="45.91319" lon="4.76913">
        <ele>175</ele>
        <time>2017-07-31T10:25:29Z</time>
      </trkpt>
      <trkpt lat="45.91319" lon="4.76922">
        <ele>175</ele>
        <time>2017-07-31T10:25:30Z</time>
      </trkpt>
      <trkpt lat="45.91319" lon="4.7693">
        <ele>175</ele>
        <time>2017-07-31T10:25:31Z</time>
      </trkpt>
      <trkpt lat="45.91319" lon="4.76937">
        <ele>175</ele>
        <time>2017-07-31T10:25:32Z</time>
      </trkpt>
      <trkpt lat="45.91318" lon="4.76945">
        <ele>175</ele>
        <time>2017-07-31T10:25:33Z</time>
      </trkpt>
      <trkpt lat="45.91318" lon="4.76952">
        <ele>175</ele>
        <time>2017-07-31T10:25:34Z</time>
      </trkpt>
      <trkpt lat="45.91317" lon="4.7696">
        <ele>175</ele>
        <time>2017-07-31T10:25:35Z</time>
      </trkpt>
      <trkpt lat="45.91317" lon="4.76966">
        <ele>175</ele>
        <time>2017-07-31T10:25:36Z</time>
      </trkpt>
      <trkpt lat="45.91317" lon="4.76974">
        <ele>175</ele>
        <time>2017-07-31T10:25:37Z</time>
      </trkpt>
      <trkpt lat="45.91317" lon="4.76981">
        <ele>175</ele>
        <time>2017-07-31T10:25:38Z</time>
      </trkpt>
      <trkpt lat="45.91318" lon="4.76988">
        <ele>175</ele>
        <time>2017-07-31T10:25:39Z</time>
      </trkpt>
      <trkpt lat="45.9132" lon="4.76995">
        <ele>176</ele>
        <time>2017-07-31T10:25:40Z</time>
      </trkpt>
      <trkpt lat="45.91323" lon="4.77002">
        <ele>176</ele>
        <time>2017-07-31T10:25:41Z</time>
      </trkpt>
      <trkpt lat="45.91325" lon="4.77009">
        <ele>176</ele>
        <time>2017-07-31T10:25:42Z</time>
      </trkpt>
      <trkpt lat="45.91328" lon="4.77015">
        <ele>176</ele>
        <time>2017-07-31T10:25:43Z</time>
      </trkpt>
      <trkpt lat="45.9133" lon="4.77021">
        <ele>176</ele>
        <time>2017-07-31T10:25:44Z</time>
      </trkpt>
      <trkpt lat="45.9133" lon="4.7703">
        <ele>176</ele>
        <time>2017-07-31T10:25:46Z</time>
      </trkpt>
      <trkpt lat="45.91331" lon="4.77035">
        <ele>176</ele>
        <time>2017-07-31T10:25:47Z</time>
      </trkpt>
      <trkpt lat="45.91334" lon="4.77046">
        <ele>176</ele>
        <time>2017-07-31T10:25:49Z</time>
      </trkpt>
      <trkpt lat="45.91337" lon="4.77051">
        <ele>176</ele>
        <time>2017-07-31T10:25:50Z</time>
      </trkpt>
      <trkpt lat="45.9134" lon="4.77059">
        <ele>176</ele>
        <time>2017-07-31T10:25:51Z</time>
      </trkpt>
      <trkpt lat="45.91341" lon="4.77066">
        <ele>176</ele>
        <time>2017-07-31T10:25:52Z</time>
      </trkpt>
      <trkpt lat="45.91343" lon="4.77072">
        <ele>177</ele>
        <time>2017-07-31T10:25:53Z</time>
      </trkpt>
      <trkpt lat="45.91344" lon="4.7708">
        <ele>177</ele>
        <time>2017-07-31T10:25:54Z</time>
      </trkpt>
      <trkpt lat="45.91346" lon="4.77088">
        <ele>177</ele>
        <time>2017-07-31T10:25:55Z</time>
      </trkpt>
      <trkpt lat="45.91346" lon="4.77095">
        <ele>177</ele>
        <time>2017-07-31T10:25:56Z</time>
      </trkpt>
      <trkpt lat="45.9135" lon="4.77105">
        <ele>177</ele>
        <time>2017-07-31T10:25:58Z</time>
      </trkpt>
      <trkpt lat="45.91352" lon="4.77109">
        <ele>177</ele>
        <time>2017-07-31T10:25:59Z</time>
      </trkpt>
      <trkpt lat="45.91352" lon="4.77119">
        <ele>177</ele>
        <time>2017-07-31T10:26:01Z</time>
      </trkpt>
      <trkpt lat="45.91352" lon="4.77124">
        <ele>177</ele>
        <time>2017-07-31T10:26:02Z</time>
      </trkpt>
      <trkpt lat="45.91354" lon="4.7713">
        <ele>177</ele>
        <time>2017-07-31T10:26:03Z</time>
      </trkpt>
      <trkpt lat="45.91355" lon="4.77137">
        <ele>177</ele>
        <time>2017-07-31T10:26:04Z</time>
      </trkpt>
      <trkpt lat="45.91356" lon="4.77143">
        <ele>177</ele>
        <time>2017-07-31T10:26:05Z</time>
      </trkpt>
      <trkpt lat="45.91357" lon="4.77149">
        <ele>177</ele>
        <time>2017-07-31T10:26:06Z</time>
      </trkpt>
      <trkpt lat="45.91359" lon="4.77156">
        <ele>177</ele>
        <time>2017-07-31T10:26:07Z</time>
      </trkpt>
      <trkpt lat="45.9136" lon="4.77162">
        <ele>177</ele>
        <time>2017-07-31T10:26:08Z</time>
      </trkpt>
      <trkpt lat="45.91361" lon="4.77169">
        <ele>176</ele>
        <time>2017-07-31T10:26:09Z</time>
      </trkpt>
      <trkpt lat="45.91362" lon="4.77175">
        <ele>176</ele>
        <time>2017-07-31T10:26:10Z</time>
      </trkpt>
      <trkpt lat="45.91363" lon="4.77182">
        <ele>176</ele>
        <time>2017-07-31T10:26:11Z</time>
      </trkpt>
      <trkpt lat="45.91364" lon="4.77188">
        <ele>176</ele>
        <time>2017-07-31T10:26:12Z</time>
      </trkpt>
      <trkpt lat="45.91365" lon="4.77195">
        <ele>176</ele>
        <time>2017-07-31T10:26:13Z</time>
      </trkpt>
      <trkpt lat="45.91367" lon="4.77202">
        <ele>176</ele>
        <time>2017-07-31T10:26:14Z</time>
      </trkpt>
      <trkpt lat="45.91369" lon="4.77208">
        <ele>176</ele>
        <time>2017-07-31T10:26:15Z</time>
      </trkpt>
      <trkpt lat="45.91371" lon="4.77214">
        <ele>176</ele>
        <time>2017-07-31T10:26:16Z</time>
      </trkpt>
      <trkpt lat="45.91373" lon="4.77221">
        <ele>176</ele>
        <time>2017-07-31T10:26:17Z</time>
      </trkpt>
      <trkpt lat="45.91373" lon="4.77231">
        <ele>176</ele>
        <time>2017-07-31T10:26:18Z</time>
      </trkpt>
      <trkpt lat="45.91374" lon="4.77241">
        <ele>176</ele>
        <time>2017-07-31T10:26:19Z</time>
      </trkpt>
      <trkpt lat="45.91375" lon="4.7725">
        <ele>176</ele>
        <time>2017-07-31T10:26:20Z</time>
      </trkpt>
      <trkpt lat="45.91376" lon="4.77259">
        <ele>175</ele>
        <time>2017-07-31T10:26:21Z</time>
      </trkpt>
      <trkpt lat="45.91376" lon="4.77267">
        <ele>175</ele>
        <time>2017-07-31T10:26:22Z</time>
      </trkpt>
      <trkpt lat="45.91377" lon="4.77276">
        <ele>175</ele>
        <time>2017-07-31T10:26:23Z</time>
      </trkpt>
      <trkpt lat="45.91378" lon="4.77284">
        <ele>175</ele>
        <time>2017-07-31T10:26:24Z</time>
      </trkpt>
      <trkpt lat="45.91378" lon="4.77292">
        <ele>175</ele>
        <time>2017-07-31T10:26:25Z</time>
      </trkpt>
      <trkpt lat="45.91379" lon="4.773">
        <ele>175</ele>
        <time>2017-07-31T10:26:26Z</time>
      </trkpt>
      <trkpt lat="45.91379" lon="4.77308">
        <ele>175</ele>
        <time>2017-07-31T10:26:27Z</time>
      </trkpt>
      <trkpt lat="45.91379" lon="4.77315">
        <ele>175</ele>
        <time>2017-07-31T10:26:28Z</time>
      </trkpt>
      <trkpt lat="45.91379" lon="4.77321">
        <ele>175</ele>
        <time>2017-07-31T10:26:29Z</time>
      </trkpt>
      <trkpt lat="45.91379" lon="4.77328">
        <ele>175</ele>
        <time>2017-07-31T10:26:30Z</time>
      </trkpt>
      <trkpt lat="45.9138" lon="4.7734">
        <ele>175</ele>
        <time>2017-07-31T10:26:32Z</time>
      </trkpt>
      <trkpt lat="45.91379" lon="4.77347">
        <ele>175</ele>
        <time>2017-07-31T10:26:33Z</time>
      </trkpt>
      <trkpt lat="45.91379" lon="4.77359">
        <ele>175</ele>
        <time>2017-07-31T10:26:35Z</time>
      </trkpt>
      <trkpt lat="45.9138" lon="4.77366">
        <ele>174</ele>
        <time>2017-07-31T10:26:36Z</time>
      </trkpt>
      <trkpt lat="45.9138" lon="4.77373">
        <ele>174</ele>
        <time>2017-07-31T10:26:37Z</time>
      </trkpt>
      <trkpt lat="45.91382" lon="4.77379">
        <ele>174</ele>
        <time>2017-07-31T10:26:38Z</time>
      </trkpt>
      <trkpt lat="45.91381" lon="4.77386">
        <ele>174</ele>
        <time>2017-07-31T10:26:39Z</time>
      </trkpt>
      <trkpt lat="45.91381" lon="4.77393">
        <ele>174</ele>
        <time>2017-07-31T10:26:40Z</time>
      </trkpt>
      <trkpt lat="45.9138" lon="4.77405">
        <ele>174</ele>
        <time>2017-07-31T10:26:42Z</time>
      </trkpt>
      <trkpt lat="45.91381" lon="4.77412">
        <ele>174</ele>
        <time>2017-07-31T10:26:43Z</time>
      </trkpt>
      <trkpt lat="45.91383" lon="4.77418">
        <ele>174</ele>
        <time>2017-07-31T10:26:44Z</time>
      </trkpt>
      <trkpt lat="45.91384" lon="4.77424">
        <ele>174</ele>
        <time>2017-07-31T10:26:45Z</time>
      </trkpt>
      <trkpt lat="45.91385" lon="4.77436">
        <ele>174</ele>
        <time>2017-07-31T10:26:47Z</time>
      </trkpt>
      <trkpt lat="45.91385" lon="4.77443">
        <ele>174</ele>
        <time>2017-07-31T10:26:48Z</time>
      </trkpt>
      <trkpt lat="45.91385" lon="4.77451">
        <ele>174</ele>
        <time>2017-07-31T10:26:49Z</time>
      </trkpt>
      <trkpt lat="45.91385" lon="4.77457">
        <ele>174</ele>
        <time>2017-07-31T10:26:50Z</time>
      </trkpt>
      <trkpt lat="45.91385" lon="4.77463">
        <ele>174</ele>
        <time>2017-07-31T10:26:51Z</time>
      </trkpt>
      <trkpt lat="45.91385" lon="4.77471">
        <ele>174</ele>
        <time>2017-07-31T10:26:52Z</time>
      </trkpt>
      <trkpt lat="45.91386" lon="4.77478">
        <ele>174</ele>
        <time>2017-07-31T10:26:53Z</time>
      </trkpt>
      <trkpt lat="45.91386" lon="4.77487">
        <ele>174</ele>
        <time>2017-07-31T10:26:54Z</time>
      </trkpt>
      <trkpt lat="45.91387" lon="4.77496">
        <ele>174</ele>
        <time>2017-07-31T10:26:55Z</time>
      </trkpt>
      <trkpt lat="45.91388" lon="4.77505">
        <ele>174</ele>
        <time>2017-07-31T10:26:56Z</time>
      </trkpt>
      <trkpt lat="45.91388" lon="4.77513">
        <ele>174</ele>
        <time>2017-07-31T10:26:57Z</time>
      </trkpt>
      <trkpt lat="45.91389" lon="4.7752">
        <ele>174</ele>
        <time>2017-07-31T10:26:58Z</time>
      </trkpt>
      <trkpt lat="45.9139" lon="4.77526">
        <ele>174</ele>
        <time>2017-07-31T10:26:59Z</time>
      </trkpt>
      <trkpt lat="45.91391" lon="4.77532">
        <ele>174</ele>
        <time>2017-07-31T10:27:00Z</time>
      </trkpt>
      <trkpt lat="45.91393" lon="4.77544">
        <ele>174</ele>
        <time>2017-07-31T10:27:02Z</time>
      </trkpt>
      <trkpt lat="45.91393" lon="4.77549">
        <ele>174</ele>
        <time>2017-07-31T10:27:03Z</time>
      </trkpt>
      <trkpt lat="45.91395" lon="4.77559">
        <ele>174</ele>
        <time>2017-07-31T10:27:05Z</time>
      </trkpt>
      <trkpt lat="45.91396" lon="4.77564">
        <ele>174</ele>
        <time>2017-07-31T10:27:06Z</time>
      </trkpt>
      <trkpt lat="45.91397" lon="4.77577">
        <ele>174</ele>
        <time>2017-07-31T10:27:08Z</time>
      </trkpt>
      <trkpt lat="45.91398" lon="4.77583">
        <ele>174</ele>
        <time>2017-07-31T10:27:09Z</time>
      </trkpt>
      <trkpt lat="45.91398" lon="4.77595">
        <ele>174</ele>
        <time>2017-07-31T10:27:11Z</time>
      </trkpt>
      <trkpt lat="45.91399" lon="4.77601">
        <ele>174</ele>
        <time>2017-07-31T10:27:12Z</time>
      </trkpt>
      <trkpt lat="45.914" lon="4.77611">
        <ele>174</ele>
        <time>2017-07-31T10:27:14Z</time>
      </trkpt>
      <trkpt lat="45.91402" lon="4.77615">
        <ele>175</ele>
        <time>2017-07-31T10:27:15Z</time>
      </trkpt>
      <trkpt lat="45.91402" lon="4.77627">
        <ele>175</ele>
        <time>2017-07-31T10:27:17Z</time>
      </trkpt>
      <trkpt lat="45.91401" lon="4.77637">
        <ele>175</ele>
        <time>2017-07-31T10:27:18Z</time>
      </trkpt>
      <trkpt lat="45.91402" lon="4.77643">
        <ele>175</ele>
        <time>2017-07-31T10:27:19Z</time>
      </trkpt>
      <trkpt lat="45.91403" lon="4.77651">
        <ele>175</ele>
        <time>2017-07-31T10:27:20Z</time>
      </trkpt>
      <trkpt lat="45.91404" lon="4.77658">
        <ele>175</ele>
        <time>2017-07-31T10:27:21Z</time>
      </trkpt>
      <trkpt lat="45.91404" lon="4.77666">
        <ele>175</ele>
        <time>2017-07-31T10:27:22Z</time>
      </trkpt>
      <trkpt lat="45.91405" lon="4.77673">
        <ele>176</ele>
        <time>2017-07-31T10:27:23Z</time>
      </trkpt>
      <trkpt lat="45.91407" lon="4.77679">
        <ele>176</ele>
        <time>2017-07-31T10:27:24Z</time>
      </trkpt>
      <trkpt lat="45.9141" lon="4.77688">
        <ele>176</ele>
        <time>2017-07-31T10:27:26Z</time>
      </trkpt>
      <trkpt lat="45.91412" lon="4.77691">
        <ele>176</ele>
        <time>2017-07-31T10:27:27Z</time>
      </trkpt>
      <trkpt lat="45.9141" lon="4.77704">
        <ele>176</ele>
        <time>2017-07-31T10:27:31Z</time>
      </trkpt>
      <trkpt lat="45.91408" lon="4.77706">
        <ele>176</ele>
        <time>2017-07-31T10:27:32Z</time>
      </trkpt>
      <trkpt lat="45.91403" lon="4.77709">
        <ele>176</ele>
        <time>2017-07-31T10:27:34Z</time>
      </trkpt>
      <trkpt lat="45.914" lon="4.77711">
        <ele>176</ele>
        <time>2017-07-31T10:27:35Z</time>
      </trkpt>
      <trkpt lat="45.91391" lon="4.77713">
        <ele>176</ele>
        <time>2017-07-31T10:27:38Z</time>
      </trkpt>
      <trkpt lat="45.91388" lon="4.77714">
        <ele>176</ele>
        <time>2017-07-31T10:27:39Z</time>
      </trkpt>
      <trkpt lat="45.9138" lon="4.77716">
        <ele>176</ele>
        <time>2017-07-31T10:27:42Z</time>
      </trkpt>
      <trkpt lat="45.91377" lon="4.77717">
        <ele>176</ele>
        <time>2017-07-31T10:27:43Z</time>
      </trkpt>
      <trkpt lat="45.9137" lon="4.77721">
        <ele>176</ele>
        <time>2017-07-31T10:27:45Z</time>
      </trkpt>
      <trkpt lat="45.91366" lon="4.77721">
        <ele>176</ele>
        <time>2017-07-31T10:27:46Z</time>
      </trkpt>
      <trkpt lat="45.91359" lon="4.77719">
        <ele>176</ele>
        <time>2017-07-31T10:27:48Z</time>
      </trkpt>
      <trkpt lat="45.91356" lon="4.7772">
        <ele>176</ele>
        <time>2017-07-31T10:27:49Z</time>
      </trkpt>
      <trkpt lat="45.91347" lon="4.7772">
        <ele>176</ele>
        <time>2017-07-31T10:27:52Z</time>
      </trkpt>
      <trkpt lat="45.91343" lon="4.77719">
        <ele>176</ele>
        <time>2017-07-31T10:27:53Z</time>
      </trkpt>
      <trkpt lat="45.91335" lon="4.77718">
        <ele>176</ele>
        <time>2017-07-31T10:27:55Z</time>
      </trkpt>
      <trkpt lat="45.91332" lon="4.77717">
        <ele>176</ele>
        <time>2017-07-31T10:27:56Z</time>
      </trkpt>
      <trkpt lat="45.91325" lon="4.77714">
        <ele>176</ele>
        <time>2017-07-31T10:27:58Z</time>
      </trkpt>
      <trkpt lat="45.91322" lon="4.77713">
        <ele>176</ele>
        <time>2017-07-31T10:27:59Z</time>
      </trkpt>
      <trkpt lat="45.91314" lon="4.7771">
        <ele>176</ele>
        <time>2017-07-31T10:28:01Z</time>
      </trkpt>
      <trkpt lat="45.9131" lon="4.77707">
        <ele>176</ele>
        <time>2017-07-31T10:28:02Z</time>
      </trkpt>
      <trkpt lat="45.91305" lon="4.77704">
        <ele>176</ele>
        <time>2017-07-31T10:28:03Z</time>
      </trkpt>
      <trkpt lat="45.91299" lon="4.777">
        <ele>176</ele>
        <time>2017-07-31T10:28:04Z</time>
      </trkpt>
      <trkpt lat="45.91293" lon="4.77697">
        <ele>176</ele>
        <time>2017-07-31T10:28:05Z</time>
      </trkpt>
      <trkpt lat="45.91288" lon="4.77694">
        <ele>176</ele>
        <time>2017-07-31T10:28:06Z</time>
      </trkpt>
      <trkpt lat="45.9128" lon="4.7769">
        <ele>176</ele>
        <time>2017-07-31T10:28:08Z</time>
      </trkpt>
      <trkpt lat="45.91275" lon="4.77688">
        <ele>176</ele>
        <time>2017-07-31T10:28:09Z</time>
      </trkpt>
      <trkpt lat="45.91271" lon="4.77686">
        <ele>176</ele>
        <time>2017-07-31T10:28:10Z</time>
      </trkpt>
      <trkpt lat="45.91266" lon="4.77685">
        <ele>176</ele>
        <time>2017-07-31T10:28:11Z</time>
      </trkpt>
      <trkpt lat="45.91261" lon="4.77685">
        <ele>176</ele>
        <time>2017-07-31T10:28:12Z</time>
      </trkpt>
      <trkpt lat="45.91251" lon="4.77683">
        <ele>176</ele>
        <time>2017-07-31T10:28:13Z</time>
      </trkpt>
      <trkpt lat="45.91245" lon="4.77683">
        <ele>176</ele>
        <time>2017-07-31T10:28:14Z</time>
      </trkpt>
      <trkpt lat="45.9124" lon="4.77683">
        <ele>176</ele>
        <time>2017-07-31T10:28:15Z</time>
      </trkpt>
      <trkpt lat="45.91232" lon="4.77685">
        <ele>176</ele>
        <time>2017-07-31T10:28:17Z</time>
      </trkpt>
      <trkpt lat="45.91227" lon="4.77685">
        <ele>176</ele>
        <time>2017-07-31T10:28:18Z</time>
      </trkpt>
      <trkpt lat="45.9122" lon="4.77684">
        <ele>176</ele>
        <time>2017-07-31T10:28:19Z</time>
      </trkpt>
      <trkpt lat="45.91215" lon="4.77685">
        <ele>176</ele>
        <time>2017-07-31T10:28:20Z</time>
      </trkpt>
      <trkpt lat="45.91208" lon="4.77686">
        <ele>176</ele>
        <time>2017-07-31T10:28:21Z</time>
      </trkpt>
      <trkpt lat="45.91202" lon="4.77687">
        <ele>176</ele>
        <time>2017-07-31T10:28:22Z</time>
      </trkpt>
      <trkpt lat="45.91198" lon="4.77691">
        <ele>176</ele>
        <time>2017-07-31T10:28:23Z</time>
      </trkpt>
      <trkpt lat="45.91193" lon="4.77693">
        <ele>176</ele>
        <time>2017-07-31T10:28:24Z</time>
      </trkpt>
      <trkpt lat="45.91188" lon="4.77695">
        <ele>176</ele>
        <time>2017-07-31T10:28:25Z</time>
      </trkpt>
      <trkpt lat="45.91184" lon="4.77696">
        <ele>176</ele>
        <time>2017-07-31T10:28:26Z</time>
      </trkpt>
      <trkpt lat="45.91176" lon="4.77699">
        <ele>176</ele>
        <time>2017-07-31T10:28:28Z</time>
      </trkpt>
      <trkpt lat="45.91172" lon="4.77701">
        <ele>176</ele>
        <time>2017-07-31T10:28:29Z</time>
      </trkpt>
      <trkpt lat="45.91164" lon="4.77704">
        <ele>177</ele>
        <time>2017-07-31T10:28:31Z</time>
      </trkpt>
      <trkpt lat="45.91159" lon="4.77705">
        <ele>177</ele>
        <time>2017-07-31T10:28:32Z</time>
      </trkpt>
      <trkpt lat="45.91151" lon="4.77709">
        <ele>177</ele>
        <time>2017-07-31T10:28:34Z</time>
      </trkpt>
      <trkpt lat="45.91147" lon="4.77712">
        <ele>177</ele>
        <time>2017-07-31T10:28:35Z</time>
      </trkpt>
      <trkpt lat="45.91142" lon="4.77714">
        <ele>177</ele>
        <time>2017-07-31T10:28:36Z</time>
      </trkpt>
      <trkpt lat="45.91137" lon="4.77717">
        <ele>177</ele>
        <time>2017-07-31T10:28:37Z</time>
      </trkpt>
      <trkpt lat="45.91128" lon="4.7772">
        <ele>177</ele>
        <time>2017-07-31T10:28:39Z</time>
      </trkpt>
      <trkpt lat="45.91125" lon="4.77721">
        <ele>177</ele>
        <time>2017-07-31T10:28:40Z</time>
      </trkpt>
      <trkpt lat="45.91119" lon="4.77725">
        <ele>178</ele>
        <time>2017-07-31T10:28:42Z</time>
      </trkpt>
      <trkpt lat="45.91115" lon="4.77727">
        <ele>178</ele>
        <time>2017-07-31T10:28:43Z</time>
      </trkpt>
      <trkpt lat="45.91109" lon="4.7773">
        <ele>178</ele>
        <time>2017-07-31T10:28:45Z</time>
      </trkpt>
      <trkpt lat="45.91106" lon="4.77732">
        <ele>178</ele>
        <time>2017-07-31T10:28:46Z</time>
      </trkpt>
      <trkpt lat="45.91101" lon="4.77735">
        <ele>178</ele>
        <time>2017-07-31T10:28:47Z</time>
      </trkpt>
      <trkpt lat="45.91096" lon="4.77738">
        <ele>178</ele>
        <time>2017-07-31T10:28:48Z</time>
      </trkpt>
      <trkpt lat="45.91091" lon="4.7774">
        <ele>178</ele>
        <time>2017-07-31T10:28:49Z</time>
      </trkpt>
      <trkpt lat="45.91085" lon="4.77742">
        <ele>179</ele>
        <time>2017-07-31T10:28:50Z</time>
      </trkpt>
      <trkpt lat="45.9108" lon="4.77744">
        <ele>179</ele>
        <time>2017-07-31T10:28:51Z</time>
      </trkpt>
      <trkpt lat="45.91074" lon="4.77748">
        <ele>179</ele>
        <time>2017-07-31T10:28:52Z</time>
      </trkpt>
      <trkpt lat="45.9107" lon="4.77752">
        <ele>179</ele>
        <time>2017-07-31T10:28:53Z</time>
      </trkpt>
      <trkpt lat="45.91065" lon="4.77755">
        <ele>178</ele>
        <time>2017-07-31T10:28:54Z</time>
      </trkpt>
      <trkpt lat="45.91061" lon="4.77758">
        <ele>178</ele>
        <time>2017-07-31T10:28:55Z</time>
      </trkpt>
      <trkpt lat="45.91056" lon="4.7776">
        <ele>178</ele>
        <time>2017-07-31T10:28:56Z</time>
      </trkpt>
      <trkpt lat="45.91052" lon="4.77762">
        <ele>178</ele>
        <time>2017-07-31T10:28:57Z</time>
      </trkpt>
      <trkpt lat="45.91046" lon="4.77763">
        <ele>178</ele>
        <time>2017-07-31T10:28:58Z</time>
      </trkpt>
      <trkpt lat="45.91041" lon="4.77766">
        <ele>178</ele>
        <time>2017-07-31T10:28:59Z</time>
      </trkpt>
      <trkpt lat="45.91034" lon="4.77769">
        <ele>178</ele>
        <time>2017-07-31T10:29:00Z</time>
      </trkpt>
      <trkpt lat="45.91029" lon="4.77771">
        <ele>178</ele>
        <time>2017-07-31T10:29:01Z</time>
      </trkpt>
      <trkpt lat="45.91023" lon="4.77773">
        <ele>178</ele>
        <time>2017-07-31T10:29:02Z</time>
      </trkpt>
      <trkpt lat="45.91017" lon="4.77774">
        <ele>178</ele>
        <time>2017-07-31T10:29:03Z</time>
      </trkpt>
      <trkpt lat="45.91013" lon="4.77775">
        <ele>178</ele>
        <time>2017-07-31T10:29:04Z</time>
      </trkpt>
      <trkpt lat="45.91005" lon="4.77776">
        <ele>178</ele>
        <time>2017-07-31T10:29:06Z</time>
      </trkpt>
      <trkpt lat="45.91001" lon="4.77777">
        <ele>178</ele>
        <time>2017-07-31T10:29:07Z</time>
      </trkpt>
      <trkpt lat="45.90994" lon="4.77778">
        <ele>177</ele>
        <time>2017-07-31T10:29:09Z</time>
      </trkpt>
      <trkpt lat="45.90991" lon="4.77779">
        <ele>177</ele>
        <time>2017-07-31T10:29:10Z</time>
      </trkpt>
      <trkpt lat="45.90985" lon="4.77781">
        <ele>177</ele>
        <time>2017-07-31T10:29:12Z</time>
      </trkpt>
      <trkpt lat="45.90981" lon="4.77782">
        <ele>177</ele>
        <time>2017-07-31T10:29:13Z</time>
      </trkpt>
      <trkpt lat="45.90977" lon="4.77783">
        <ele>177</ele>
        <time>2017-07-31T10:29:14Z</time>
      </trkpt>
      <trkpt lat="45.90972" lon="4.77783">
        <ele>177</ele>
        <time>2017-07-31T10:29:15Z</time>
      </trkpt>
      <trkpt lat="45.90963" lon="4.77783">
        <ele>177</ele>
        <time>2017-07-31T10:29:17Z</time>
      </trkpt>
      <trkpt lat="45.90961" lon="4.77781">
        <ele>177</ele>
        <time>2017-07-31T10:29:18Z</time>
      </trkpt>
      <trkpt lat="45.90956" lon="4.77774">
        <ele>177</ele>
        <time>2017-07-31T10:29:21Z</time>
      </trkpt>
      <trkpt lat="45.90952" lon="4.77772">
        <ele>177</ele>
        <time>2017-07-31T10:29:22Z</time>
      </trkpt>
      <trkpt lat="45.90948" lon="4.77772">
        <ele>177</ele>
        <time>2017-07-31T10:29:23Z</time>
      </trkpt>
      <trkpt lat="45.90943" lon="4.77772">
        <ele>177</ele>
        <time>2017-07-31T10:29:24Z</time>
      </trkpt>
      <trkpt lat="45.90935" lon="4.77769">
        <ele>177</ele>
        <time>2017-07-31T10:29:26Z</time>
      </trkpt>
      <trkpt lat="45.90932" lon="4.77765">
        <ele>177</ele>
        <time>2017-07-31T10:29:27Z</time>
      </trkpt>
      <trkpt lat="45.90928" lon="4.7776">
        <ele>176</ele>
        <time>2017-07-31T10:29:28Z</time>
      </trkpt>
      <trkpt lat="45.90924" lon="4.77755">
        <ele>176</ele>
        <time>2017-07-31T10:29:29Z</time>
      </trkpt>
      <trkpt lat="45.90921" lon="4.77751">
        <ele>176</ele>
        <time>2017-07-31T10:29:30Z</time>
      </trkpt>
      <trkpt lat="45.90918" lon="4.77746">
        <ele>176</ele>
        <time>2017-07-31T10:29:31Z</time>
      </trkpt>
      <trkpt lat="45.90912" lon="4.77738">
        <ele>177</ele>
        <time>2017-07-31T10:29:33Z</time>
      </trkpt>
      <trkpt lat="45.90908" lon="4.77733">
        <ele>177</ele>
        <time>2017-07-31T10:29:34Z</time>
      </trkpt>
      <trkpt lat="45.90902" lon="4.77724">
        <ele>177</ele>
        <time>2017-07-31T10:29:36Z</time>
      </trkpt>
      <trkpt lat="45.90899" lon="4.7772">
        <ele>177</ele>
        <time>2017-07-31T10:29:37Z</time>
      </trkpt>
      <trkpt lat="45.90891" lon="4.77713">
        <ele>177</ele>
        <time>2017-07-31T10:29:39Z</time>
      </trkpt>
      <trkpt lat="45.90888" lon="4.77709">
        <ele>177</ele>
        <time>2017-07-31T10:29:40Z</time>
      </trkpt>
      <trkpt lat="45.90881" lon="4.77702">
        <ele>177</ele>
        <time>2017-07-31T10:29:42Z</time>
      </trkpt>
      <trkpt lat="45.90877" lon="4.77698">
        <ele>177</ele>
        <time>2017-07-31T10:29:43Z</time>
      </trkpt>
      <trkpt lat="45.9087" lon="4.77693">
        <ele>178</ele>
        <time>2017-07-31T10:29:45Z</time>
      </trkpt>
      <trkpt lat="45.90867" lon="4.77691">
        <ele>178</ele>
        <time>2017-07-31T10:29:46Z</time>
      </trkpt>
      <trkpt lat="45.90863" lon="4.77688">
        <ele>178</ele>
        <time>2017-07-31T10:29:47Z</time>
      </trkpt>
      <trkpt lat="45.90858" lon="4.77686">
        <ele>178</ele>
        <time>2017-07-31T10:29:48Z</time>
      </trkpt>
      <trkpt lat="45.90853" lon="4.77684">
        <ele>178</ele>
        <time>2017-07-31T10:29:49Z</time>
      </trkpt>
      <trkpt lat="45.90848" lon="4.77683">
        <ele>178</ele>
        <time>2017-07-31T10:29:50Z</time>
      </trkpt>
      <trkpt lat="45.90844" lon="4.77681">
        <ele>178</ele>
        <time>2017-07-31T10:29:51Z</time>
      </trkpt>
      <trkpt lat="45.90839" lon="4.7768">
        <ele>178</ele>
        <time>2017-07-31T10:29:52Z</time>
      </trkpt>
      <trkpt lat="45.90831" lon="4.77677">
        <ele>179</ele>
        <time>2017-07-31T10:29:54Z</time>
      </trkpt>
      <trkpt lat="45.90828" lon="4.77675">
        <ele>179</ele>
        <time>2017-07-31T10:29:55Z</time>
      </trkpt>
      <trkpt lat="45.90821" lon="4.77671">
        <ele>179</ele>
        <time>2017-07-31T10:29:57Z</time>
      </trkpt>
      <trkpt lat="45.90817" lon="4.77671">
        <ele>179</ele>
        <time>2017-07-31T10:29:58Z</time>
      </trkpt>
      <trkpt lat="45.9081" lon="4.77668">
        <ele>179</ele>
        <time>2017-07-31T10:30:00Z</time>
      </trkpt>
      <trkpt lat="45.90807" lon="4.77666">
        <ele>179</ele>
        <time>2017-07-31T10:30:01Z</time>
      </trkpt>
      <trkpt lat="45.90798" lon="4.77665">
        <ele>179</ele>
        <time>2017-07-31T10:30:03Z</time>
      </trkpt>
      <trkpt lat="45.90795" lon="4.77665">
        <ele>179</ele>
        <time>2017-07-31T10:30:04Z</time>
      </trkpt>
      <trkpt lat="45.90789" lon="4.77663">
        <ele>179</ele>
        <time>2017-07-31T10:30:06Z</time>
      </trkpt>
      <trkpt lat="45.90785" lon="4.77663">
        <ele>179</ele>
        <time>2017-07-31T10:30:07Z</time>
      </trkpt>
      <trkpt lat="45.90777" lon="4.77659">
        <ele>180</ele>
        <time>2017-07-31T10:30:09Z</time>
      </trkpt>
      <trkpt lat="45.90774" lon="4.77658">
        <ele>180</ele>
        <time>2017-07-31T10:30:10Z</time>
      </trkpt>
      <trkpt lat="45.90768" lon="4.77654">
        <ele>180</ele>
        <time>2017-07-31T10:30:12Z</time>
      </trkpt>
      <trkpt lat="45.90766" lon="4.77651">
        <ele>180</ele>
        <time>2017-07-31T10:30:13Z</time>
      </trkpt>
      <trkpt lat="45.90764" lon="4.7764">
        <ele>180</ele>
        <time>2017-07-31T10:30:16Z</time>
      </trkpt>
      <trkpt lat="45.90764" lon="4.77636">
        <ele>179</ele>
        <time>2017-07-31T10:30:17Z</time>
      </trkpt>
      <trkpt lat="45.90769" lon="4.77627">
        <ele>179</ele>
        <time>2017-07-31T10:30:20Z</time>
      </trkpt>
      <trkpt lat="45.9077" lon="4.77623">
        <ele>179</ele>
        <time>2017-07-31T10:30:21Z</time>
      </trkpt>
      <trkpt lat="45.90775" lon="4.77616">
        <ele>179</ele>
        <time>2017-07-31T10:30:23Z</time>
      </trkpt>
      <trkpt lat="45.90777" lon="4.77612">
        <ele>179</ele>
        <time>2017-07-31T10:30:24Z</time>
      </trkpt>
      <trkpt lat="45.90783" lon="4.77605">
        <ele>179</ele>
        <time>2017-07-31T10:30:26Z</time>
      </trkpt>
      <trkpt lat="45.90786" lon="4.77601">
        <ele>179</ele>
        <time>2017-07-31T10:30:27Z</time>
      </trkpt>
      <trkpt lat="45.90793" lon="4.77592">
        <ele>179</ele>
        <time>2017-07-31T10:30:29Z</time>
      </trkpt>
      <trkpt lat="45.90796" lon="4.77588">
        <ele>179</ele>
        <time>2017-07-31T10:30:30Z</time>
      </trkpt>
      <trkpt lat="45.90803" lon="4.77581">
        <ele>178</ele>
        <time>2017-07-31T10:30:32Z</time>
      </trkpt>
      <trkpt lat="45.90807" lon="4.77575">
        <ele>178</ele>
        <time>2017-07-31T10:30:33Z</time>
      </trkpt>
      <trkpt lat="45.90811" lon="4.7757">
        <ele>178</ele>
        <time>2017-07-31T10:30:34Z</time>
      </trkpt>
      <trkpt lat="45.90815" lon="4.77565">
        <ele>178</ele>
        <time>2017-07-31T10:30:35Z</time>
      </trkpt>
      <trkpt lat="45.90819" lon="4.7756">
        <ele>178</ele>
        <time>2017-07-31T10:30:36Z</time>
      </trkpt>
      <trkpt lat="45.90823" lon="4.77555">
        <ele>178</ele>
        <time>2017-07-31T10:30:37Z</time>
      </trkpt>
      <trkpt lat="45.90827" lon="4.7755">
        <ele>178</ele>
        <time>2017-07-31T10:30:38Z</time>
      </trkpt>
      <trkpt lat="45.90831" lon="4.77545">
        <ele>178</ele>
        <time>2017-07-31T10:30:39Z</time>
      </trkpt>
      <trkpt lat="45.90835" lon="4.7754">
        <ele>178</ele>
        <time>2017-07-31T10:30:40Z</time>
      </trkpt>
      <trkpt lat="45.90838" lon="4.77534">
        <ele>178</ele>
        <time>2017-07-31T10:30:41Z</time>
      </trkpt>
      <trkpt lat="45.90842" lon="4.77529">
        <ele>178</ele>
        <time>2017-07-31T10:30:42Z</time>
      </trkpt>
      <trkpt lat="45.90845" lon="4.77524">
        <ele>178</ele>
        <time>2017-07-31T10:30:43Z</time>
      </trkpt>
      <trkpt lat="45.90849" lon="4.77518">
        <ele>178</ele>
        <time>2017-07-31T10:30:44Z</time>
      </trkpt>
      <trkpt lat="45.90852" lon="4.77513">
        <ele>178</ele>
        <time>2017-07-31T10:30:45Z</time>
      </trkpt>
      <trkpt lat="45.90855" lon="4.77507">
        <ele>178</ele>
        <time>2017-07-31T10:30:46Z</time>
      </trkpt>
      <trkpt lat="45.90858" lon="4.77502">
        <ele>178</ele>
        <time>2017-07-31T10:30:47Z</time>
      </trkpt>
      <trkpt lat="45.9086" lon="4.77495">
        <ele>178</ele>
        <time>2017-07-31T10:30:48Z</time>
      </trkpt>
      <trkpt lat="45.90863" lon="4.7749">
        <ele>178</ele>
        <time>2017-07-31T10:30:49Z</time>
      </trkpt>
      <trkpt lat="45.90866" lon="4.77483">
        <ele>178</ele>
        <time>2017-07-31T10:30:50Z</time>
      </trkpt>
      <trkpt lat="45.9087" lon="4.77477">
        <ele>178</ele>
        <time>2017-07-31T10:30:51Z</time>
      </trkpt>
      <trkpt lat="45.90873" lon="4.77469">
        <ele>178</ele>
        <time>2017-07-31T10:30:52Z</time>
      </trkpt>
      <trkpt lat="45.90877" lon="4.77463">
        <ele>178</ele>
        <time>2017-07-31T10:30:53Z</time>
      </trkpt>
      <trkpt lat="45.9088" lon="4.77456">
        <ele>178</ele>
        <time>2017-07-31T10:30:54Z</time>
      </trkpt>
      <trkpt lat="45.90884" lon="4.7745">
        <ele>178</ele>
        <time>2017-07-31T10:30:55Z</time>
      </trkpt>
      <trkpt lat="45.90889" lon="4.77443">
        <ele>177</ele>
        <time>2017-07-31T10:30:56Z</time>
      </trkpt>
      <trkpt lat="45.90892" lon="4.77437">
        <ele>177</ele>
        <time>2017-07-31T10:30:57Z</time>
      </trkpt>
      <trkpt lat="45.90895" lon="4.77431">
        <ele>177</ele>
        <time>2017-07-31T10:30:58Z</time>
      </trkpt>
      <trkpt lat="45.90898" lon="4.77425">
        <ele>177</ele>
        <time>2017-07-31T10:30:59Z</time>
      </trkpt>
      <trkpt lat="45.909" lon="4.7742">
        <ele>177</ele>
        <time>2017-07-31T10:31:00Z</time>
      </trkpt>
      <trkpt lat="45.90902" lon="4.77414">
        <ele>177</ele>
        <time>2017-07-31T10:31:01Z</time>
      </trkpt>
      <trkpt lat="45.90908" lon="4.77405">
        <ele>177</ele>
        <time>2017-07-31T10:31:03Z</time>
      </trkpt>
      <trkpt lat="45.9091" lon="4.77401">
        <ele>177</ele>
        <time>2017-07-31T10:31:04Z</time>
      </trkpt>
      <trkpt lat="45.90915" lon="4.77393">
        <ele>177</ele>
        <time>2017-07-31T10:31:06Z</time>
      </trkpt>
      <trkpt lat="45.90918" lon="4.77388">
        <ele>176</ele>
        <time>2017-07-31T10:31:07Z</time>
      </trkpt>
      <trkpt lat="45.90922" lon="4.77384">
        <ele>176</ele>
        <time>2017-07-31T10:31:08Z</time>
      </trkpt>
      <trkpt lat="45.90925" lon="4.77378">
        <ele>176</ele>
        <time>2017-07-31T10:31:09Z</time>
      </trkpt>
      <trkpt lat="45.90929" lon="4.77372">
        <ele>177</ele>
        <time>2017-07-31T10:31:10Z</time>
      </trkpt>
      <trkpt lat="45.90932" lon="4.77365">
        <ele>177</ele>
        <time>2017-07-31T10:31:11Z</time>
      </trkpt>
      <trkpt lat="45.90936" lon="4.77358">
        <ele>177</ele>
        <time>2017-07-31T10:31:12Z</time>
      </trkpt>
      <trkpt lat="45.9094" lon="4.77352">
        <ele>177</ele>
        <time>2017-07-31T10:31:13Z</time>
      </trkpt>
      <trkpt lat="45.90943" lon="4.77346">
        <ele>177</ele>
        <time>2017-07-31T10:31:14Z</time>
      </trkpt>
      <trkpt lat="45.90947" lon="4.7734">
        <ele>177</ele>
        <time>2017-07-31T10:31:15Z</time>
      </trkpt>
      <trkpt lat="45.9095" lon="4.77334">
        <ele>177</ele>
        <time>2017-07-31T10:31:16Z</time>
      </trkpt>
      <trkpt lat="45.90954" lon="4.77329">
        <ele>178</ele>
        <time>2017-07-31T10:31:17Z</time>
      </trkpt>
      <trkpt lat="45.90959" lon="4.77324">
        <ele>178</ele>
        <time>2017-07-31T10:31:18Z</time>
      </trkpt>
      <trkpt lat="45.90961" lon="4.77319">
        <ele>178</ele>
        <time>2017-07-31T10:31:19Z</time>
      </trkpt>
      <trkpt lat="45.90968" lon="4.77311">
        <ele>178</ele>
        <time>2017-07-31T10:31:21Z</time>
      </trkpt>
      <trkpt lat="45.90971" lon="4.77306">
        <ele>178</ele>
        <time>2017-07-31T10:31:22Z</time>
      </trkpt>
      <trkpt lat="45.90973" lon="4.773">
        <ele>178</ele>
        <time>2017-07-31T10:31:23Z</time>
      </trkpt>
      <trkpt lat="45.90975" lon="4.77292">
        <ele>178</ele>
        <time>2017-07-31T10:31:24Z</time>
      </trkpt>
      <trkpt lat="45.90978" lon="4.77281">
        <ele>178</ele>
        <time>2017-07-31T10:31:25Z</time>
      </trkpt>
      <trkpt lat="45.90978" lon="4.77272">
        <ele>178</ele>
        <time>2017-07-31T10:31:26Z</time>
      </trkpt>
      <trkpt lat="45.90979" lon="4.77265">
        <ele>178</ele>
        <time>2017-07-31T10:31:27Z</time>
      </trkpt>
      <trkpt lat="45.90979" lon="4.77258">
        <ele>178</ele>
        <time>2017-07-31T10:31:28Z</time>
      </trkpt>
      <trkpt lat="45.90978" lon="4.77251">
        <ele>178</ele>
        <time>2017-07-31T10:31:29Z</time>
      </trkpt>
      <trkpt lat="45.90976" lon="4.77244">
        <ele>178</ele>
        <time>2017-07-31T10:31:30Z</time>
      </trkpt>
      <trkpt lat="45.90973" lon="4.77238">
        <ele>177</ele>
        <time>2017-07-31T10:31:31Z</time>
      </trkpt>
      <trkpt lat="45.90971" lon="4.77232">
        <ele>177</ele>
        <time>2017-07-31T10:31:32Z</time>
      </trkpt>
      <trkpt lat="45.90966" lon="4.7722">
        <ele>177</ele>
        <time>2017-07-31T10:31:34Z</time>
      </trkpt>
      <trkpt lat="45.90964" lon="4.77215">
        <ele>177</ele>
        <time>2017-07-31T10:31:35Z</time>
      </trkpt>
      <trkpt lat="45.9096" lon="4.77208">
        <ele>177</ele>
        <time>2017-07-31T10:31:36Z</time>
      </trkpt>
      <trkpt lat="45.90957" lon="4.77202">
        <ele>177</ele>
        <time>2017-07-31T10:31:37Z</time>
      </trkpt>
      <trkpt lat="45.90954" lon="4.77195">
        <ele>177</ele>
        <time>2017-07-31T10:31:38Z</time>
      </trkpt>
      <trkpt lat="45.9095" lon="4.7719">
        <ele>176</ele>
        <time>2017-07-31T10:31:39Z</time>
      </trkpt>
      <trkpt lat="45.90946" lon="4.77184">
        <ele>176</ele>
        <time>2017-07-31T10:31:40Z</time>
      </trkpt>
      <trkpt lat="45.90942" lon="4.77177">
        <ele>176</ele>
        <time>2017-07-31T10:31:41Z</time>
      </trkpt>
      <trkpt lat="45.90937" lon="4.77171">
        <ele>176</ele>
        <time>2017-07-31T10:31:42Z</time>
      </trkpt>
      <trkpt lat="45.90932" lon="4.77164">
        <ele>176</ele>
        <time>2017-07-31T10:31:43Z</time>
      </trkpt>
      <trkpt lat="45.90928" lon="4.77158">
        <ele>176</ele>
        <time>2017-07-31T10:31:44Z</time>
      </trkpt>
      <trkpt lat="45.90924" lon="4.77152">
        <ele>176</ele>
        <time>2017-07-31T10:31:45Z</time>
      </trkpt>
      <trkpt lat="45.9092" lon="4.77146">
        <ele>176</ele>
        <time>2017-07-31T10:31:46Z</time>
      </trkpt>
      <trkpt lat="45.90916" lon="4.77141">
        <ele>176</ele>
        <time>2017-07-31T10:31:47Z</time>
      </trkpt>
      <trkpt lat="45.90912" lon="4.77135">
        <ele>176</ele>
        <time>2017-07-31T10:31:48Z</time>
      </trkpt>
      <trkpt lat="45.90909" lon="4.7713">
        <ele>176</ele>
        <time>2017-07-31T10:31:49Z</time>
      </trkpt>
      <trkpt lat="45.90906" lon="4.77125">
        <ele>176</ele>
        <time>2017-07-31T10:31:50Z</time>
      </trkpt>
      <trkpt lat="45.90902" lon="4.77121">
        <ele>176</ele>
        <time>2017-07-31T10:31:51Z</time>
      </trkpt>
      <trkpt lat="45.90899" lon="4.77116">
        <ele>176</ele>
        <time>2017-07-31T10:31:52Z</time>
      </trkpt>
      <trkpt lat="45.90895" lon="4.77112">
        <ele>176</ele>
        <time>2017-07-31T10:31:53Z</time>
      </trkpt>
      <trkpt lat="45.90891" lon="4.77107">
        <ele>176</ele>
        <time>2017-07-31T10:31:54Z</time>
      </trkpt>
      <trkpt lat="45.90887" lon="4.77102">
        <ele>176</ele>
        <time>2017-07-31T10:31:55Z</time>
      </trkpt>
      <trkpt lat="45.90882" lon="4.77097">
        <ele>176</ele>
        <time>2017-07-31T10:31:56Z</time>
      </trkpt>
      <trkpt lat="45.90878" lon="4.77093">
        <ele>176</ele>
        <time>2017-07-31T10:31:57Z</time>
      </trkpt>
      <trkpt lat="45.90874" lon="4.77089">
        <ele>176</ele>
        <time>2017-07-31T10:31:58Z</time>
      </trkpt>
      <trkpt lat="45.90871" lon="4.77085">
        <ele>176</ele>
        <time>2017-07-31T10:31:59Z</time>
      </trkpt>
      <trkpt lat="45.90867" lon="4.77081">
        <ele>177</ele>
        <time>2017-07-31T10:32:00Z</time>
      </trkpt>
      <trkpt lat="45.90863" lon="4.77077">
        <ele>177</ele>
        <time>2017-07-31T10:32:01Z</time>
      </trkpt>
      <trkpt lat="45.90856" lon="4.7707">
        <ele>177</ele>
        <time>2017-07-31T10:32:03Z</time>
      </trkpt>
      <trkpt lat="45.90853" lon="4.77066">
        <ele>177</ele>
        <time>2017-07-31T10:32:04Z</time>
      </trkpt>
      <trkpt lat="45.90846" lon="4.77059">
        <ele>177</ele>
        <time>2017-07-31T10:32:06Z</time>
      </trkpt>
      <trkpt lat="45.90842" lon="4.77056">
        <ele>177</ele>
        <time>2017-07-31T10:32:07Z</time>
      </trkpt>
      <trkpt lat="45.90838" lon="4.77052">
        <ele>177</ele>
        <time>2017-07-31T10:32:08Z</time>
      </trkpt>
      <trkpt lat="45.90833" lon="4.77048">
        <ele>177</ele>
        <time>2017-07-31T10:32:09Z</time>
      </trkpt>
      <trkpt lat="45.90829" lon="4.77043">
        <ele>177</ele>
        <time>2017-07-31T10:32:10Z</time>
      </trkpt>
      <trkpt lat="45.90824" lon="4.77039">
        <ele>177</ele>
        <time>2017-07-31T10:32:11Z</time>
      </trkpt>
      <trkpt lat="45.90819" lon="4.77035">
        <ele>177</ele>
        <time>2017-07-31T10:32:12Z</time>
      </trkpt>
      <trkpt lat="45.90815" lon="4.77031">
        <ele>177</ele>
        <time>2017-07-31T10:32:13Z</time>
      </trkpt>
      <trkpt lat="45.90811" lon="4.77027">
        <ele>177</ele>
        <time>2017-07-31T10:32:14Z</time>
      </trkpt>
      <trkpt lat="45.90807" lon="4.77023">
        <ele>177</ele>
        <time>2017-07-31T10:32:15Z</time>
      </trkpt>
      <trkpt lat="45.90799" lon="4.77017">
        <ele>177</ele>
        <time>2017-07-31T10:32:17Z</time>
      </trkpt>
      <trkpt lat="45.90796" lon="4.77013">
        <ele>177</ele>
        <time>2017-07-31T10:32:18Z</time>
      </trkpt>
      <trkpt lat="45.90789" lon="4.77006">
        <ele>178</ele>
        <time>2017-07-31T10:32:20Z</time>
      </trkpt>
      <trkpt lat="45.90785" lon="4.77002">
        <ele>178</ele>
        <time>2017-07-31T10:32:21Z</time>
      </trkpt>
      <trkpt lat="45.90778" lon="4.76994">
        <ele>178</ele>
        <time>2017-07-31T10:32:23Z</time>
      </trkpt>
      <trkpt lat="45.90774" lon="4.76991">
        <ele>178</ele>
        <time>2017-07-31T10:32:24Z</time>
      </trkpt>
      <trkpt lat="45.9077" lon="4.76987">
        <ele>178</ele>
        <time>2017-07-31T10:32:25Z</time>
      </trkpt>
      <trkpt lat="45.90766" lon="4.76984">
        <ele>178</ele>
        <time>2017-07-31T10:32:26Z</time>
      </trkpt>
      <trkpt lat="45.90761" lon="4.76981">
        <ele>178</ele>
        <time>2017-07-31T10:32:27Z</time>
      </trkpt>
      <trkpt lat="45.90757" lon="4.76979">
        <ele>178</ele>
        <time>2017-07-31T10:32:28Z</time>
      </trkpt>
      <trkpt lat="45.90748" lon="4.76975">
        <ele>179</ele>
        <time>2017-07-31T10:32:30Z</time>
      </trkpt>
      <trkpt lat="45.90745" lon="4.76973">
        <ele>179</ele>
        <time>2017-07-31T10:32:31Z</time>
      </trkpt>
      <trkpt lat="45.90738" lon="4.7697">
        <ele>179</ele>
        <time>2017-07-31T10:32:33Z</time>
      </trkpt>
      <trkpt lat="45.90735" lon="4.76968">
        <ele>179</ele>
        <time>2017-07-31T10:32:34Z</time>
      </trkpt>
      <trkpt lat="45.90727" lon="4.76963">
        <ele>179</ele>
        <time>2017-07-31T10:32:36Z</time>
      </trkpt>
      <trkpt lat="45.90724" lon="4.76961">
        <ele>179</ele>
        <time>2017-07-31T10:32:37Z</time>
      </trkpt>
      <trkpt lat="45.90719" lon="4.76958">
        <ele>179</ele>
        <time>2017-07-31T10:32:38Z</time>
      </trkpt>
      <trkpt lat="45.90715" lon="4.76956">
        <ele>179</ele>
        <time>2017-07-31T10:32:39Z</time>
      </trkpt>
      <trkpt lat="45.90707" lon="4.76951">
        <ele>179</ele>
        <time>2017-07-31T10:32:41Z</time>
      </trkpt>
      <trkpt lat="45.90703" lon="4.76949">
        <ele>179</ele>
        <time>2017-07-31T10:32:42Z</time>
      </trkpt>
      <trkpt lat="45.90695" lon="4.76946">
        <ele>179</ele>
        <time>2017-07-31T10:32:44Z</time>
      </trkpt>
      <trkpt lat="45.90692" lon="4.76944">
        <ele>179</ele>
        <time>2017-07-31T10:32:45Z</time>
      </trkpt>
      <trkpt lat="45.90685" lon="4.76939">
        <ele>179</ele>
        <time>2017-07-31T10:32:47Z</time>
      </trkpt>
      <trkpt lat="45.9068" lon="4.76938">
        <ele>179</ele>
        <time>2017-07-31T10:32:48Z</time>
      </trkpt>
      <trkpt lat="45.90672" lon="4.76934">
        <ele>179</ele>
        <time>2017-07-31T10:32:50Z</time>
      </trkpt>
      <trkpt lat="45.90669" lon="4.76933">
        <ele>179</ele>
        <time>2017-07-31T10:32:51Z</time>
      </trkpt>
      <trkpt lat="45.9066" lon="4.76932">
        <ele>179</ele>
        <time>2017-07-31T10:32:53Z</time>
      </trkpt>
      <trkpt lat="45.90657" lon="4.76931">
        <ele>179</ele>
        <time>2017-07-31T10:32:54Z</time>
      </trkpt>
      <trkpt lat="45.9065" lon="4.7693">
        <ele>179</ele>
        <time>2017-07-31T10:32:56Z</time>
      </trkpt>
      <trkpt lat="45.90647" lon="4.76929">
        <ele>179</ele>
        <time>2017-07-31T10:32:57Z</time>
      </trkpt>
      <trkpt lat="45.90641" lon="4.76928">
        <ele>180</ele>
        <time>2017-07-31T10:32:59Z</time>
      </trkpt>
      <trkpt lat="45.90637" lon="4.76927">
        <ele>180</ele>
        <time>2017-07-31T10:33:00Z</time>
      </trkpt>
      <trkpt lat="45.90631" lon="4.76926">
        <ele>180</ele>
        <time>2017-07-31T10:33:02Z</time>
      </trkpt>
      <trkpt lat="45.90628" lon="4.76924">
        <ele>180</ele>
        <time>2017-07-31T10:33:03Z</time>
      </trkpt>
      <trkpt lat="45.90621" lon="4.7692">
        <ele>180</ele>
        <time>2017-07-31T10:33:07Z</time>
      </trkpt>
      <trkpt lat="45.90619" lon="4.76918">
        <ele>180</ele>
        <time>2017-07-31T10:33:08Z</time>
      </trkpt>
      <trkpt lat="45.90611" lon="4.76916">
        <ele>179</ele>
        <time>2017-07-31T10:33:11Z</time>
      </trkpt>
      <trkpt lat="45.90608" lon="4.76915">
        <ele>179</ele>
        <time>2017-07-31T10:33:12Z</time>
      </trkpt>
      <trkpt lat="45.90601" lon="4.76913">
        <ele>179</ele>
        <time>2017-07-31T10:33:14Z</time>
      </trkpt>
      <trkpt lat="45.90597" lon="4.76911">
        <ele>180</ele>
        <time>2017-07-31T10:33:15Z</time>
      </trkpt>
      <trkpt lat="45.90588" lon="4.76908">
        <ele>180</ele>
        <time>2017-07-31T10:33:17Z</time>
      </trkpt>
      <trkpt lat="45.90584" lon="4.76907">
        <ele>180</ele>
        <time>2017-07-31T10:33:18Z</time>
      </trkpt>
      <trkpt lat="45.90577" lon="4.76905">
        <ele>180</ele>
        <time>2017-07-31T10:33:20Z</time>
      </trkpt>
      <trkpt lat="45.90573" lon="4.76905">
        <ele>180</ele>
        <time>2017-07-31T10:33:21Z</time>
      </trkpt>
      <trkpt lat="45.90566" lon="4.76904">
        <ele>180</ele>
        <time>2017-07-31T10:33:23Z</time>
      </trkpt>
      <trkpt lat="45.90562" lon="4.76903">
        <ele>180</ele>
        <time>2017-07-31T10:33:24Z</time>
      </trkpt>
      <trkpt lat="45.90555" lon="4.76901">
        <ele>180</ele>
        <time>2017-07-31T10:33:26Z</time>
      </trkpt>
      <trkpt lat="45.90551" lon="4.76899">
        <ele>180</ele>
        <time>2017-07-31T10:33:27Z</time>
      </trkpt>
      <trkpt lat="45.90543" lon="4.76897">
        <ele>180</ele>
        <time>2017-07-31T10:33:29Z</time>
      </trkpt>
      <trkpt lat="45.90539" lon="4.76896">
        <ele>180</ele>
        <time>2017-07-31T10:33:30Z</time>
      </trkpt>
      <trkpt lat="45.90532" lon="4.76894">
        <ele>180</ele>
        <time>2017-07-31T10:33:32Z</time>
      </trkpt>
      <trkpt lat="45.90529" lon="4.76893">
        <ele>180</ele>
        <time>2017-07-31T10:33:33Z</time>
      </trkpt>
      <trkpt lat="45.90523" lon="4.76891">
        <ele>180</ele>
        <time>2017-07-31T10:33:35Z</time>
      </trkpt>
      <trkpt lat="45.9052" lon="4.7689">
        <ele>180</ele>
        <time>2017-07-31T10:33:36Z</time>
      </trkpt>
      <trkpt lat="45.90513" lon="4.76888">
        <ele>180</ele>
        <time>2017-07-31T10:33:38Z</time>
      </trkpt>
      <trkpt lat="45.90509" lon="4.76887">
        <ele>180</ele>
        <time>2017-07-31T10:33:39Z</time>
      </trkpt>
      <trkpt lat="45.90501" lon="4.76885">
        <ele>180</ele>
        <time>2017-07-31T10:33:41Z</time>
      </trkpt>
      <trkpt lat="45.90497" lon="4.76884">
        <ele>181</ele>
        <time>2017-07-31T10:33:42Z</time>
      </trkpt>
      <trkpt lat="45.9049" lon="4.76881">
        <ele>181</ele>
        <time>2017-07-31T10:33:44Z</time>
      </trkpt>
      <trkpt lat="45.90487" lon="4.76881">
        <ele>181</ele>
        <time>2017-07-31T10:33:45Z</time>
      </trkpt>
      <trkpt lat="45.90481" lon="4.76879">
        <ele>181</ele>
        <time>2017-07-31T10:33:47Z</time>
      </trkpt>
      <trkpt lat="45.90478" lon="4.76877">
        <ele>181</ele>
        <time>2017-07-31T10:33:48Z</time>
      </trkpt>
      <trkpt lat="45.9047" lon="4.76875">
        <ele>181</ele>
        <time>2017-07-31T10:33:50Z</time>
      </trkpt>
      <trkpt lat="45.90466" lon="4.76874">
        <ele>181</ele>
        <time>2017-07-31T10:33:51Z</time>
      </trkpt>
      <trkpt lat="45.90458" lon="4.76873">
        <ele>181</ele>
        <time>2017-07-31T10:33:53Z</time>
      </trkpt>
      <trkpt lat="45.90454" lon="4.76873">
        <ele>181</ele>
        <time>2017-07-31T10:33:54Z</time>
      </trkpt>
      <trkpt lat="45.90447" lon="4.76872">
        <ele>181</ele>
        <time>2017-07-31T10:33:56Z</time>
      </trkpt>
      <trkpt lat="45.90444" lon="4.76871">
        <ele>181</ele>
        <time>2017-07-31T10:33:57Z</time>
      </trkpt>
      <trkpt lat="45.90437" lon="4.7687">
        <ele>181</ele>
        <time>2017-07-31T10:33:59Z</time>
      </trkpt>
      <trkpt lat="45.90433" lon="4.76869">
        <ele>181</ele>
        <time>2017-07-31T10:34:00Z</time>
      </trkpt>
      <trkpt lat="45.90426" lon="4.76869">
        <ele>181</ele>
        <time>2017-07-31T10:34:02Z</time>
      </trkpt>
      <trkpt lat="45.90422" lon="4.76868">
        <ele>181</ele>
        <time>2017-07-31T10:34:03Z</time>
      </trkpt>
      <trkpt lat="45.90415" lon="4.76867">
        <ele>182</ele>
        <time>2017-07-31T10:34:05Z</time>
      </trkpt>
      <trkpt lat="45.90413" lon="4.76867">
        <ele>182</ele>
        <time>2017-07-31T10:34:06Z</time>
      </trkpt>
      <trkpt lat="45.90406" lon="4.76865">
        <ele>182</ele>
        <time>2017-07-31T10:34:08Z</time>
      </trkpt>
      <trkpt lat="45.90403" lon="4.76865">
        <ele>182</ele>
        <time>2017-07-31T10:34:09Z</time>
      </trkpt>
      <trkpt lat="45.90395" lon="4.76864">
        <ele>182</ele>
        <time>2017-07-31T10:34:11Z</time>
      </trkpt>
      <trkpt lat="45.90392" lon="4.76864">
        <ele>182</ele>
        <time>2017-07-31T10:34:12Z</time>
      </trkpt>
      <trkpt lat="45.90383" lon="4.76864">
        <ele>182</ele>
        <time>2017-07-31T10:34:15Z</time>
      </trkpt>
      <trkpt lat="45.90381" lon="4.76864">
        <ele>182</ele>
        <time>2017-07-31T10:34:16Z</time>
      </trkpt>
      <trkpt lat="45.90375" lon="4.76863">
        <ele>182</ele>
        <time>2017-07-31T10:34:18Z</time>
      </trkpt>
      <trkpt lat="45.90371" lon="4.76863">
        <ele>182</ele>
        <time>2017-07-31T10:34:19Z</time>
      </trkpt>
      <trkpt lat="45.90363" lon="4.76864">
        <ele>182</ele>
        <time>2017-07-31T10:34:21Z</time>
      </trkpt>
      <trkpt lat="45.90359" lon="4.76864">
        <ele>182</ele>
        <time>2017-07-31T10:34:22Z</time>
      </trkpt>
      <trkpt lat="45.90353" lon="4.76863">
        <ele>182</ele>
        <time>2017-07-31T10:34:24Z</time>
      </trkpt>
      <trkpt lat="45.9035" lon="4.76863">
        <ele>182</ele>
        <time>2017-07-31T10:34:25Z</time>
      </trkpt>
      <trkpt lat="45.90341" lon="4.7686">
        <ele>182</ele>
        <time>2017-07-31T10:34:28Z</time>
      </trkpt>
      <trkpt lat="45.90339" lon="4.76858">
        <ele>182</ele>
        <time>2017-07-31T10:34:29Z</time>
      </trkpt>
      <trkpt lat="45.90336" lon="4.76849">
        <ele>182</ele>
        <time>2017-07-31T10:34:31Z</time>
      </trkpt>
      <trkpt lat="45.90335" lon="4.76844">
        <ele>182</ele>
        <time>2017-07-31T10:34:32Z</time>
      </trkpt>
      <trkpt lat="45.90336" lon="4.76833">
        <ele>182</ele>
        <time>2017-07-31T10:34:34Z</time>
      </trkpt>
      <trkpt lat="45.90336" lon="4.76829">
        <ele>182</ele>
        <time>2017-07-31T10:34:35Z</time>
      </trkpt>
      <trkpt lat="45.90338" lon="4.76816">
        <ele>182</ele>
        <time>2017-07-31T10:34:38Z</time>
      </trkpt>
      <trkpt lat="45.90338" lon="4.76812">
        <ele>182</ele>
        <time>2017-07-31T10:34:39Z</time>
      </trkpt>
      <trkpt lat="45.90339" lon="4.76802">
        <ele>182</ele>
        <time>2017-07-31T10:34:41Z</time>
      </trkpt>
      <trkpt lat="45.9034" lon="4.76797">
        <ele>182</ele>
        <time>2017-07-31T10:34:42Z</time>
      </trkpt>
      <trkpt lat="45.9034" lon="4.76786">
        <ele>182</ele>
        <time>2017-07-31T10:34:44Z</time>
      </trkpt>
      <trkpt lat="45.90341" lon="4.76781">
        <ele>182</ele>
        <time>2017-07-31T10:34:45Z</time>
      </trkpt>
      <trkpt lat="45.90341" lon="4.76771">
        <ele>182</ele>
        <time>2017-07-31T10:34:47Z</time>
      </trkpt>
      <trkpt lat="45.90342" lon="4.76766">
        <ele>182</ele>
        <time>2017-07-31T10:34:48Z</time>
      </trkpt>
      <trkpt lat="45.90342" lon="4.76753">
        <ele>183</ele>
        <time>2017-07-31T10:34:51Z</time>
      </trkpt>
      <trkpt lat="45.90342" lon="4.76749">
        <ele>183</ele>
        <time>2017-07-31T10:34:52Z</time>
      </trkpt>
      <trkpt lat="45.90342" lon="4.7674">
        <ele>183</ele>
        <time>2017-07-31T10:34:54Z</time>
      </trkpt>
      <trkpt lat="45.90342" lon="4.76733">
        <ele>183</ele>
        <time>2017-07-31T10:34:55Z</time>
      </trkpt>
      <trkpt lat="45.90343" lon="4.76721">
        <ele>183</ele>
        <time>2017-07-31T10:34:57Z</time>
      </trkpt>
      <trkpt lat="45.90343" lon="4.76715">
        <ele>183</ele>
        <time>2017-07-31T10:34:58Z</time>
      </trkpt>
      <trkpt lat="45.90342" lon="4.76706">
        <ele>183</ele>
        <time>2017-07-31T10:35:00Z</time>
      </trkpt>
      <trkpt lat="45.90342" lon="4.76701">
        <ele>183</ele>
        <time>2017-07-31T10:35:01Z</time>
      </trkpt>
      <trkpt lat="45.90341" lon="4.76691">
        <ele>183</ele>
        <time>2017-07-31T10:35:04Z</time>
      </trkpt>
      <trkpt lat="45.90342" lon="4.76687">
        <ele>183</ele>
        <time>2017-07-31T10:35:05Z</time>
      </trkpt>
      <trkpt lat="45.90342" lon="4.76677">
        <ele>183</ele>
        <time>2017-07-31T10:35:07Z</time>
      </trkpt>
      <trkpt lat="45.90342" lon="4.76671">
        <ele>184</ele>
        <time>2017-07-31T10:35:08Z</time>
      </trkpt>
      <trkpt lat="45.90342" lon="4.7666">
        <ele>184</ele>
        <time>2017-07-31T10:35:10Z</time>
      </trkpt>
      <trkpt lat="45.90343" lon="4.76654">
        <ele>184</ele>
        <time>2017-07-31T10:35:11Z</time>
      </trkpt>
      <trkpt lat="45.90343" lon="4.76643">
        <ele>184</ele>
        <time>2017-07-31T10:35:13Z</time>
      </trkpt>
      <trkpt lat="45.90343" lon="4.76638">
        <ele>184</ele>
        <time>2017-07-31T10:35:14Z</time>
      </trkpt>
      <trkpt lat="45.90343" lon="4.76627">
        <ele>184</ele>
        <time>2017-07-31T10:35:16Z</time>
      </trkpt>
      <trkpt lat="45.90344" lon="4.76622">
        <ele>184</ele>
        <time>2017-07-31T10:35:17Z</time>
      </trkpt>
      <trkpt lat="45.90344" lon="4.76612">
        <ele>184</ele>
        <time>2017-07-31T10:35:19Z</time>
      </trkpt>
      <trkpt lat="45.90344" lon="4.76606">
        <ele>184</ele>
        <time>2017-07-31T10:35:20Z</time>
      </trkpt>
      <trkpt lat="45.90345" lon="4.76597">
        <ele>184</ele>
        <time>2017-07-31T10:35:22Z</time>
      </trkpt>
      <trkpt lat="45.90345" lon="4.76593">
        <ele>184</ele>
        <time>2017-07-31T10:35:23Z</time>
      </trkpt>
      <trkpt lat="45.90345" lon="4.76581">
        <ele>185</ele>
        <time>2017-07-31T10:35:26Z</time>
      </trkpt>
      <trkpt lat="45.90345" lon="4.76578">
        <ele>185</ele>
        <time>2017-07-31T10:35:27Z</time>
      </trkpt>
      <trkpt lat="45.90345" lon="4.76566">
        <ele>185</ele>
        <time>2017-07-31T10:35:30Z</time>
      </trkpt>
      <trkpt lat="45.90345" lon="4.76561">
        <ele>185</ele>
        <time>2017-07-31T10:35:31Z</time>
      </trkpt>
      <trkpt lat="45.90345" lon="4.76553">
        <ele>185</ele>
        <time>2017-07-31T10:35:33Z</time>
      </trkpt>
      <trkpt lat="45.90345" lon="4.76548">
        <ele>185</ele>
        <time>2017-07-31T10:35:34Z</time>
      </trkpt>
      <trkpt lat="45.90345" lon="4.7654">
        <ele>186</ele>
        <time>2017-07-31T10:35:36Z</time>
      </trkpt>
      <trkpt lat="45.90345" lon="4.76535">
        <ele>186</ele>
        <time>2017-07-31T10:35:37Z</time>
      </trkpt>
      <trkpt lat="45.90346" lon="4.76525">
        <ele>186</ele>
        <time>2017-07-31T10:35:39Z</time>
      </trkpt>
      <trkpt lat="45.90347" lon="4.76521">
        <ele>186</ele>
        <time>2017-07-31T10:35:40Z</time>
      </trkpt>
      <trkpt lat="45.90349" lon="4.76512">
        <ele>187</ele>
        <time>2017-07-31T10:35:43Z</time>
      </trkpt>
      <trkpt lat="45.9035" lon="4.76508">
        <ele>187</ele>
        <time>2017-07-31T10:35:44Z</time>
      </trkpt>
      <trkpt lat="45.90354" lon="4.765">
        <ele>188</ele>
        <time>2017-07-31T10:35:47Z</time>
      </trkpt>
      <trkpt lat="45.90356" lon="4.76497">
        <ele>188</ele>
        <time>2017-07-31T10:35:48Z</time>
      </trkpt>
      <trkpt lat="45.9036" lon="4.7649">
        <ele>188</ele>
        <time>2017-07-31T10:35:50Z</time>
      </trkpt>
      <trkpt lat="45.90362" lon="4.76487">
        <ele>188</ele>
        <time>2017-07-31T10:35:51Z</time>
      </trkpt>
      <trkpt lat="45.90367" lon="4.76481">
        <ele>188</ele>
        <time>2017-07-31T10:35:53Z</time>
      </trkpt>
      <trkpt lat="45.9037" lon="4.76478">
        <ele>188</ele>
        <time>2017-07-31T10:35:54Z</time>
      </trkpt>
      <trkpt lat="45.90376" lon="4.76474">
        <ele>188</ele>
        <time>2017-07-31T10:35:57Z</time>
      </trkpt>
      <trkpt lat="45.90378" lon="4.76474">
        <ele>188</ele>
        <time>2017-07-31T10:35:58Z</time>
      </trkpt>
      <trkpt lat="45.90385" lon="4.76475">
        <ele>188</ele>
        <time>2017-07-31T10:36:01Z</time>
      </trkpt>
      <trkpt lat="45.90388" lon="4.76475">
        <ele>188</ele>
        <time>2017-07-31T10:36:02Z</time>
      </trkpt>
      <trkpt lat="45.90394" lon="4.76475">
        <ele>188</ele>
        <time>2017-07-31T10:36:04Z</time>
      </trkpt>
      <trkpt lat="45.90397" lon="4.76476">
        <ele>188</ele>
        <time>2017-07-31T10:36:05Z</time>
      </trkpt>
      <trkpt lat="45.90404" lon="4.76477">
        <ele>188</ele>
        <time>2017-07-31T10:36:07Z</time>
      </trkpt>
      <trkpt lat="45.90408" lon="4.76476">
        <ele>187</ele>
        <time>2017-07-31T10:36:08Z</time>
      </trkpt>
      <trkpt lat="45.90414" lon="4.76473">
        <ele>188</ele>
        <time>2017-07-31T10:36:10Z</time>
      </trkpt>
      <trkpt lat="45.90416" lon="4.76471">
        <ele>188</ele>
        <time>2017-07-31T10:36:11Z</time>
      </trkpt>
      <trkpt lat="45.90421" lon="4.76461">
        <ele>186</ele>
        <time>2017-07-31T10:36:14Z</time>
      </trkpt>
      <trkpt lat="45.90423" lon="4.76457">
        <ele>186</ele>
        <time>2017-07-31T10:36:15Z</time>
      </trkpt>
      <trkpt lat="45.90425" lon="4.76446">
        <ele>186</ele>
        <time>2017-07-31T10:36:17Z</time>
      </trkpt>
      <trkpt lat="45.90427" lon="4.76441">
        <ele>187</ele>
        <time>2017-07-31T10:36:18Z</time>
      </trkpt>
      <trkpt lat="45.90431" lon="4.76431">
        <ele>187</ele>
        <time>2017-07-31T10:36:20Z</time>
      </trkpt>
      <trkpt lat="45.90433" lon="4.76427">
        <ele>187</ele>
        <time>2017-07-31T10:36:21Z</time>
      </trkpt>
      <trkpt lat="45.90437" lon="4.76416">
        <ele>187</ele>
        <time>2017-07-31T10:36:24Z</time>
      </trkpt>
      <trkpt lat="45.90439" lon="4.76413">
        <ele>187</ele>
        <time>2017-07-31T10:36:25Z</time>
      </trkpt>
      <trkpt lat="45.90442" lon="4.76406">
        <ele>187</ele>
        <time>2017-07-31T10:36:27Z</time>
      </trkpt>
      <trkpt lat="45.90443" lon="4.76401">
        <ele>187</ele>
        <time>2017-07-31T10:36:28Z</time>
      </trkpt>
      <trkpt lat="45.90447" lon="4.76391">
        <ele>187</ele>
        <time>2017-07-31T10:36:30Z</time>
      </trkpt>
      <trkpt lat="45.90449" lon="4.76387">
        <ele>187</ele>
        <time>2017-07-31T10:36:31Z</time>
      </trkpt>
      <trkpt lat="45.90453" lon="4.76378">
        <ele>186</ele>
        <time>2017-07-31T10:36:33Z</time>
      </trkpt>
      <trkpt lat="45.90454" lon="4.76373">
        <ele>186</ele>
        <time>2017-07-31T10:36:34Z</time>
      </trkpt>
      <trkpt lat="45.90457" lon="4.76365">
        <ele>186</ele>
        <time>2017-07-31T10:36:36Z</time>
      </trkpt>
      <trkpt lat="45.90458" lon="4.76361">
        <ele>186</ele>
        <time>2017-07-31T10:36:37Z</time>
      </trkpt>
      <trkpt lat="45.90461" lon="4.76349">
        <ele>186</ele>
        <time>2017-07-31T10:36:40Z</time>
      </trkpt>
      <trkpt lat="45.90463" lon="4.76345">
        <ele>186</ele>
        <time>2017-07-31T10:36:41Z</time>
      </trkpt>
      <trkpt lat="45.90466" lon="4.76335">
        <ele>186</ele>
        <time>2017-07-31T10:36:43Z</time>
      </trkpt>
      <trkpt lat="45.90467" lon="4.7633">
        <ele>186</ele>
        <time>2017-07-31T10:36:44Z</time>
      </trkpt>
      <trkpt lat="45.9047" lon="4.76321">
        <ele>186</ele>
        <time>2017-07-31T10:36:46Z</time>
      </trkpt>
      <trkpt lat="45.90471" lon="4.76317">
        <ele>186</ele>
        <time>2017-07-31T10:36:47Z</time>
      </trkpt>
      <trkpt lat="45.90473" lon="4.76307">
        <ele>186</ele>
        <time>2017-07-31T10:36:49Z</time>
      </trkpt>
      <trkpt lat="45.90475" lon="4.76303">
        <ele>186</ele>
        <time>2017-07-31T10:36:50Z</time>
      </trkpt>
      <trkpt lat="45.90477" lon="4.76294">
        <ele>186</ele>
        <time>2017-07-31T10:36:52Z</time>
      </trkpt>
      <trkpt lat="45.90479" lon="4.7629">
        <ele>186</ele>
        <time>2017-07-31T10:36:53Z</time>
      </trkpt>
      <trkpt lat="45.90481" lon="4.76281">
        <ele>186</ele>
        <time>2017-07-31T10:36:55Z</time>
      </trkpt>
      <trkpt lat="45.90483" lon="4.76277">
        <ele>186</ele>
        <time>2017-07-31T10:36:56Z</time>
      </trkpt>
      <trkpt lat="45.90486" lon="4.76268">
        <ele>186</ele>
        <time>2017-07-31T10:36:58Z</time>
      </trkpt>
      <trkpt lat="45.90487" lon="4.76264">
        <ele>185</ele>
        <time>2017-07-31T10:36:59Z</time>
      </trkpt>
      <trkpt lat="45.90489" lon="4.76252">
        <ele>185</ele>
        <time>2017-07-31T10:37:02Z</time>
      </trkpt>
      <trkpt lat="45.90489" lon="4.76248">
        <ele>185</ele>
        <time>2017-07-31T10:37:03Z</time>
      </trkpt>
      <trkpt lat="45.90487" lon="4.76239">
        <ele>185</ele>
        <time>2017-07-31T10:37:05Z</time>
      </trkpt>
      <trkpt lat="45.90484" lon="4.76234">
        <ele>185</ele>
        <time>2017-07-31T10:37:06Z</time>
      </trkpt>
      <trkpt lat="45.90477" lon="4.76228">
        <ele>185</ele>
        <time>2017-07-31T10:37:08Z</time>
      </trkpt>
      <trkpt lat="45.90474" lon="4.76226">
        <ele>185</ele>
        <time>2017-07-31T10:37:09Z</time>
      </trkpt>
      <trkpt lat="45.90467" lon="4.76224">
        <ele>185</ele>
        <time>2017-07-31T10:37:11Z</time>
      </trkpt>
      <trkpt lat="45.90464" lon="4.76222">
        <ele>185</ele>
        <time>2017-07-31T10:37:12Z</time>
      </trkpt>
      <trkpt lat="45.90458" lon="4.76219">
        <ele>186</ele>
        <time>2017-07-31T10:37:14Z</time>
      </trkpt>
      <trkpt lat="45.90455" lon="4.76217">
        <ele>186</ele>
        <time>2017-07-31T10:37:15Z</time>
      </trkpt>
      <trkpt lat="45.90449" lon="4.76214">
        <ele>186</ele>
        <time>2017-07-31T10:37:17Z</time>
      </trkpt>
      <trkpt lat="45.90447" lon="4.76212">
        <ele>186</ele>
        <time>2017-07-31T10:37:18Z</time>
      </trkpt>
      <trkpt lat="45.90439" lon="4.76208">
        <ele>186</ele>
        <time>2017-07-31T10:37:21Z</time>
      </trkpt>
      <trkpt lat="45.90437" lon="4.76206">
        <ele>186</ele>
        <time>2017-07-31T10:37:22Z</time>
      </trkpt>
      <trkpt lat="45.9043" lon="4.762">
        <ele>186</ele>
        <time>2017-07-31T10:37:26Z</time>
      </trkpt>
      <trkpt lat="45.90428" lon="4.76199">
        <ele>186</ele>
        <time>2017-07-31T10:37:27Z</time>
      </trkpt>
      <trkpt lat="45.90421" lon="4.76195">
        <ele>186</ele>
        <time>2017-07-31T10:37:30Z</time>
      </trkpt>
      <trkpt lat="45.90419" lon="4.76193">
        <ele>186</ele>
        <time>2017-07-31T10:37:31Z</time>
      </trkpt>
      <trkpt lat="45.90421" lon="4.76183">
        <ele>186</ele>
        <time>2017-07-31T10:37:34Z</time>
      </trkpt>
      <trkpt lat="45.90423" lon="4.76179">
        <ele>186</ele>
        <time>2017-07-31T10:37:35Z</time>
      </trkpt>
      <trkpt lat="45.90429" lon="4.76173">
        <ele>186</ele>
        <time>2017-07-31T10:37:37Z</time>
      </trkpt>
      <trkpt lat="45.90432" lon="4.7617">
        <ele>186</ele>
        <time>2017-07-31T10:37:38Z</time>
      </trkpt>
      <trkpt lat="45.90439" lon="4.76163">
        <ele>186</ele>
        <time>2017-07-31T10:37:40Z</time>
      </trkpt>
      <trkpt lat="45.90442" lon="4.76159">
        <ele>186</ele>
        <time>2017-07-31T10:37:41Z</time>
      </trkpt>
      <trkpt lat="45.90449" lon="4.76151">
        <ele>186</ele>
        <time>2017-07-31T10:37:43Z</time>
      </trkpt>
      <trkpt lat="45.90453" lon="4.76147">
        <ele>186</ele>
        <time>2017-07-31T10:37:44Z</time>
      </trkpt>
      <trkpt lat="45.90459" lon="4.76141">
        <ele>185</ele>
        <time>2017-07-31T10:37:46Z</time>
      </trkpt>
      <trkpt lat="45.90462" lon="4.76138">
        <ele>185</ele>
        <time>2017-07-31T10:37:47Z</time>
      </trkpt>
      <trkpt lat="45.90468" lon="4.7613">
        <ele>185</ele>
        <time>2017-07-31T10:37:49Z</time>
      </trkpt>
      <trkpt lat="45.9047" lon="4.76127">
        <ele>185</ele>
        <time>2017-07-31T10:37:50Z</time>
      </trkpt>
      <trkpt lat="45.90476" lon="4.76119">
        <ele>185</ele>
        <time>2017-07-31T10:37:52Z</time>
      </trkpt>
      <trkpt lat="45.90478" lon="4.76114">
        <ele>185</ele>
        <time>2017-07-31T10:37:53Z</time>
      </trkpt>
      <trkpt lat="45.90481" lon="4.76109">
        <ele>185</ele>
        <time>2017-07-31T10:37:54Z</time>
      </trkpt>
      <trkpt lat="45.90484" lon="4.76103">
        <ele>185</ele>
        <time>2017-07-31T10:37:55Z</time>
      </trkpt>
      <trkpt lat="45.90487" lon="4.76097">
        <ele>185</ele>
        <time>2017-07-31T10:37:56Z</time>
      </trkpt>
      <trkpt lat="45.9049" lon="4.76091">
        <ele>185</ele>
        <time>2017-07-31T10:37:57Z</time>
      </trkpt>
      <trkpt lat="45.90494" lon="4.76085">
        <ele>185</ele>
        <time>2017-07-31T10:37:58Z</time>
      </trkpt>
      <trkpt lat="45.90497" lon="4.76079">
        <ele>185</ele>
        <time>2017-07-31T10:37:59Z</time>
      </trkpt>
      <trkpt lat="45.90502" lon="4.76069">
        <ele>185</ele>
        <time>2017-07-31T10:38:01Z</time>
      </trkpt>
      <trkpt lat="45.90504" lon="4.76062">
        <ele>185</ele>
        <time>2017-07-31T10:38:02Z</time>
      </trkpt>
      <trkpt lat="45.90506" lon="4.76055">
        <ele>185</ele>
        <time>2017-07-31T10:38:03Z</time>
      </trkpt>
      <trkpt lat="45.90508" lon="4.76051">
        <ele>185</ele>
        <time>2017-07-31T10:38:04Z</time>
      </trkpt>
      <trkpt lat="45.9051" lon="4.76044">
        <ele>185</ele>
        <time>2017-07-31T10:38:05Z</time>
      </trkpt>
      <trkpt lat="45.90511" lon="4.76038">
        <ele>185</ele>
        <time>2017-07-31T10:38:06Z</time>
      </trkpt>
      <trkpt lat="45.90513" lon="4.76027">
        <ele>185</ele>
        <time>2017-07-31T10:38:08Z</time>
      </trkpt>
      <trkpt lat="45.90514" lon="4.76022">
        <ele>186</ele>
        <time>2017-07-31T10:38:09Z</time>
      </trkpt>
      <trkpt lat="45.90515" lon="4.76011">
        <ele>186</ele>
        <time>2017-07-31T10:38:11Z</time>
      </trkpt>
      <trkpt lat="45.90515" lon="4.76006">
        <ele>186</ele>
        <time>2017-07-31T10:38:12Z</time>
      </trkpt>
      <trkpt lat="45.90517" lon="4.75997">
        <ele>186</ele>
        <time>2017-07-31T10:38:14Z</time>
      </trkpt>
      <trkpt lat="45.90519" lon="4.75992">
        <ele>186</ele>
        <time>2017-07-31T10:38:15Z</time>
      </trkpt>
      <trkpt lat="45.90522" lon="4.7598">
        <ele>186</ele>
        <time>2017-07-31T10:38:17Z</time>
      </trkpt>
      <trkpt lat="45.90525" lon="4.75975">
        <ele>186</ele>
        <time>2017-07-31T10:38:18Z</time>
      </trkpt>
      <trkpt lat="45.9053" lon="4.75966">
        <ele>186</ele>
        <time>2017-07-31T10:38:20Z</time>
      </trkpt>
      <trkpt lat="45.90533" lon="4.75962">
        <ele>186</ele>
        <time>2017-07-31T10:38:21Z</time>
      </trkpt>
      <trkpt lat="45.9054" lon="4.75958">
        <ele>186</ele>
        <time>2017-07-31T10:38:23Z</time>
      </trkpt>
      <trkpt lat="45.90542" lon="4.75956">
        <ele>186</ele>
        <time>2017-07-31T10:38:24Z</time>
      </trkpt>
      <trkpt lat="45.90549" lon="4.75957">
        <ele>186</ele>
        <time>2017-07-31T10:38:26Z</time>
      </trkpt>
      <trkpt lat="45.90552" lon="4.75958">
        <ele>186</ele>
        <time>2017-07-31T10:38:27Z</time>
      </trkpt>
      <trkpt lat="45.90558" lon="4.75961">
        <ele>186</ele>
        <time>2017-07-31T10:38:29Z</time>
      </trkpt>
      <trkpt lat="45.90561" lon="4.75965">
        <ele>186</ele>
        <time>2017-07-31T10:38:30Z</time>
      </trkpt>
      <trkpt lat="45.90567" lon="4.75972">
        <ele>186</ele>
        <time>2017-07-31T10:38:34Z</time>
      </trkpt>
      <trkpt lat="45.90571" lon="4.75974">
        <ele>186</ele>
        <time>2017-07-31T10:38:35Z</time>
      </trkpt>
      <trkpt lat="45.90578" lon="4.7598">
        <ele>186</ele>
        <time>2017-07-31T10:38:36Z</time>
      </trkpt>
      <trkpt lat="45.90582" lon="4.75982">
        <ele>186</ele>
        <time>2017-07-31T10:38:37Z</time>
      </trkpt>
      <trkpt lat="45.90587" lon="4.75982">
        <ele>186</ele>
        <time>2017-07-31T10:38:38Z</time>
      </trkpt>
      <trkpt lat="45.90592" lon="4.75981">
        <ele>186</ele>
        <time>2017-07-31T10:38:39Z</time>
      </trkpt>
      <trkpt lat="45.90599" lon="4.75976">
        <ele>186</ele>
        <time>2017-07-31T10:38:41Z</time>
      </trkpt>
      <trkpt lat="45.90602" lon="4.75972">
        <ele>186</ele>
        <time>2017-07-31T10:38:42Z</time>
      </trkpt>
      <trkpt lat="45.90608" lon="4.75963">
        <ele>186</ele>
        <time>2017-07-31T10:38:44Z</time>
      </trkpt>
      <trkpt lat="45.90611" lon="4.75959">
        <ele>186</ele>
        <time>2017-07-31T10:38:45Z</time>
      </trkpt>
      <trkpt lat="45.90617" lon="4.7595">
        <ele>186</ele>
        <time>2017-07-31T10:38:47Z</time>
      </trkpt>
      <trkpt lat="45.90621" lon="4.75946">
        <ele>186</ele>
        <time>2017-07-31T10:38:48Z</time>
      </trkpt>
      <trkpt lat="45.90624" lon="4.75941">
        <ele>186</ele>
        <time>2017-07-31T10:38:49Z</time>
      </trkpt>
      <trkpt lat="45.90628" lon="4.75936">
        <ele>186</ele>
        <time>2017-07-31T10:38:50Z</time>
      </trkpt>
      <trkpt lat="45.90631" lon="4.7593">
        <ele>186</ele>
        <time>2017-07-31T10:38:51Z</time>
      </trkpt>
      <trkpt lat="45.90634" lon="4.75925">
        <ele>186</ele>
        <time>2017-07-31T10:38:52Z</time>
      </trkpt>
      <trkpt lat="45.90639" lon="4.75917">
        <ele>186</ele>
        <time>2017-07-31T10:38:54Z</time>
      </trkpt>
      <trkpt lat="45.90641" lon="4.75913">
        <ele>187</ele>
        <time>2017-07-31T10:38:55Z</time>
      </trkpt>
      <trkpt lat="45.90646" lon="4.75905">
        <ele>187</ele>
        <time>2017-07-31T10:38:57Z</time>
      </trkpt>
      <trkpt lat="45.9065" lon="4.75902">
        <ele>187</ele>
        <time>2017-07-31T10:38:58Z</time>
      </trkpt>
      <trkpt lat="45.90654" lon="4.75898">
        <ele>187</ele>
        <time>2017-07-31T10:38:59Z</time>
      </trkpt>
      <trkpt lat="45.90658" lon="4.75894">
        <ele>187</ele>
        <time>2017-07-31T10:39:00Z</time>
      </trkpt>
      <trkpt lat="45.90661" lon="4.75888">
        <ele>187</ele>
        <time>2017-07-31T10:39:01Z</time>
      </trkpt>
      <trkpt lat="45.90664" lon="4.75883">
        <ele>187</ele>
        <time>2017-07-31T10:39:02Z</time>
      </trkpt>
      <trkpt lat="45.90669" lon="4.7588">
        <ele>187</ele>
        <time>2017-07-31T10:39:03Z</time>
      </trkpt>
      <trkpt lat="45.90672" lon="4.75876">
        <ele>187</ele>
        <time>2017-07-31T10:39:04Z</time>
      </trkpt>
      <trkpt lat="45.90679" lon="4.75868">
        <ele>187</ele>
        <time>2017-07-31T10:39:06Z</time>
      </trkpt>
      <trkpt lat="45.90683" lon="4.75865">
        <ele>187</ele>
        <time>2017-07-31T10:39:07Z</time>
      </trkpt>
      <trkpt lat="45.90688" lon="4.75862">
        <ele>187</ele>
        <time>2017-07-31T10:39:08Z</time>
      </trkpt>
      <trkpt lat="45.90692" lon="4.75859">
        <ele>187</ele>
        <time>2017-07-31T10:39:09Z</time>
      </trkpt>
      <trkpt lat="45.90697" lon="4.75858">
        <ele>187</ele>
        <time>2017-07-31T10:39:10Z</time>
      </trkpt>
      <trkpt lat="45.90703" lon="4.75858">
        <ele>187</ele>
        <time>2017-07-31T10:39:11Z</time>
      </trkpt>
      <trkpt lat="45.90709" lon="4.75856">
        <ele>187</ele>
        <time>2017-07-31T10:39:12Z</time>
      </trkpt>
      <trkpt lat="45.90714" lon="4.75856">
        <ele>187</ele>
        <time>2017-07-31T10:39:13Z</time>
      </trkpt>
      <trkpt lat="45.90719" lon="4.75855">
        <ele>186</ele>
        <time>2017-07-31T10:39:14Z</time>
      </trkpt>
      <trkpt lat="45.90723" lon="4.75854">
        <ele>186</ele>
        <time>2017-07-31T10:39:15Z</time>
      </trkpt>
      <trkpt lat="45.90728" lon="4.75854">
        <ele>186</ele>
        <time>2017-07-31T10:39:16Z</time>
      </trkpt>
      <trkpt lat="45.90733" lon="4.75853">
        <ele>186</ele>
        <time>2017-07-31T10:39:17Z</time>
      </trkpt>
      <trkpt lat="45.90739" lon="4.7586">
        <ele>186</ele>
        <time>2017-07-31T10:39:18Z</time>
      </trkpt>
      <trkpt lat="45.90745" lon="4.75863">
        <ele>186</ele>
        <time>2017-07-31T10:39:19Z</time>
      </trkpt>
      <trkpt lat="45.90751" lon="4.75864">
        <ele>185</ele>
        <time>2017-07-31T10:39:20Z</time>
      </trkpt>
      <trkpt lat="45.90756" lon="4.75866">
        <ele>185</ele>
        <time>2017-07-31T10:39:21Z</time>
      </trkpt>
      <trkpt lat="45.9076" lon="4.75866">
        <ele>185</ele>
        <time>2017-07-31T10:39:22Z</time>
      </trkpt>
      <trkpt lat="45.90765" lon="4.75866">
        <ele>185</ele>
        <time>2017-07-31T10:39:23Z</time>
      </trkpt>
      <trkpt lat="45.90769" lon="4.75866">
        <ele>185</ele>
        <time>2017-07-31T10:39:24Z</time>
      </trkpt>
      <trkpt lat="45.90774" lon="4.75866">
        <ele>185</ele>
        <time>2017-07-31T10:39:25Z</time>
      </trkpt>
      <trkpt lat="45.90782" lon="4.75867">
        <ele>185</ele>
        <time>2017-07-31T10:39:27Z</time>
      </trkpt>
      <trkpt lat="45.90786" lon="4.75868">
        <ele>185</ele>
        <time>2017-07-31T10:39:28Z</time>
      </trkpt>
      <trkpt lat="45.90793" lon="4.75869">
        <ele>185</ele>
        <time>2017-07-31T10:39:30Z</time>
      </trkpt>
      <trkpt lat="45.90797" lon="4.7587">
        <ele>185</ele>
        <time>2017-07-31T10:39:31Z</time>
      </trkpt>
      <trkpt lat="45.90801" lon="4.75871">
        <ele>185</ele>
        <time>2017-07-31T10:39:32Z</time>
      </trkpt>
      <trkpt lat="45.90806" lon="4.75872">
        <ele>185</ele>
        <time>2017-07-31T10:39:33Z</time>
      </trkpt>
      <trkpt lat="45.90811" lon="4.75872">
        <ele>185</ele>
        <time>2017-07-31T10:39:34Z</time>
      </trkpt>
      <trkpt lat="45.90816" lon="4.75872">
        <ele>185</ele>
        <time>2017-07-31T10:39:35Z</time>
      </trkpt>
      <trkpt lat="45.90823" lon="4.75872">
        <ele>185</ele>
        <time>2017-07-31T10:39:37Z</time>
      </trkpt>
      <trkpt lat="45.90828" lon="4.75871">
        <ele>185</ele>
        <time>2017-07-31T10:39:38Z</time>
      </trkpt>
      <trkpt lat="45.90834" lon="4.75874">
        <ele>184</ele>
        <time>2017-07-31T10:39:39Z</time>
      </trkpt>
      <trkpt lat="45.90839" lon="4.75875">
        <ele>184</ele>
        <time>2017-07-31T10:39:40Z</time>
      </trkpt>
      <trkpt lat="45.90843" lon="4.75875">
        <ele>184</ele>
        <time>2017-07-31T10:39:41Z</time>
      </trkpt>
      <trkpt lat="45.90848" lon="4.75874">
        <ele>184</ele>
        <time>2017-07-31T10:39:42Z</time>
      </trkpt>
      <trkpt lat="45.90853" lon="4.75874">
        <ele>184</ele>
        <time>2017-07-31T10:39:43Z</time>
      </trkpt>
      <trkpt lat="45.90858" lon="4.75873">
        <ele>184</ele>
        <time>2017-07-31T10:39:44Z</time>
      </trkpt>
      <trkpt lat="45.90866" lon="4.75873">
        <ele>184</ele>
        <time>2017-07-31T10:39:46Z</time>
      </trkpt>
      <trkpt lat="45.90871" lon="4.75871">
        <ele>184</ele>
        <time>2017-07-31T10:39:47Z</time>
      </trkpt>
      <trkpt lat="45.9088" lon="4.75871">
        <ele>184</ele>
        <time>2017-07-31T10:39:49Z</time>
      </trkpt>
      <trkpt lat="45.90884" lon="4.75869">
        <ele>184</ele>
        <time>2017-07-31T10:39:50Z</time>
      </trkpt>
      <trkpt lat="45.90887" lon="4.75862">
        <ele>184</ele>
        <time>2017-07-31T10:39:52Z</time>
      </trkpt>
      <trkpt lat="45.90887" lon="4.75857">
        <ele>184</ele>
        <time>2017-07-31T10:39:53Z</time>
      </trkpt>
      <trkpt lat="45.90886" lon="4.75847">
        <ele>184</ele>
        <time>2017-07-31T10:39:55Z</time>
      </trkpt>
      <trkpt lat="45.90887" lon="4.75842">
        <ele>184</ele>
        <time>2017-07-31T10:39:56Z</time>
      </trkpt>
      <trkpt lat="45.90888" lon="4.75829">
        <ele>184</ele>
        <time>2017-07-31T10:39:58Z</time>
      </trkpt>
      <trkpt lat="45.90889" lon="4.75823">
        <ele>184</ele>
        <time>2017-07-31T10:39:59Z</time>
      </trkpt>
      <trkpt lat="45.9089" lon="4.75811">
        <ele>184</ele>
        <time>2017-07-31T10:40:01Z</time>
      </trkpt>
      <trkpt lat="45.90891" lon="4.75805">
        <ele>184</ele>
        <time>2017-07-31T10:40:02Z</time>
      </trkpt>
      <trkpt lat="45.90894" lon="4.75794">
        <ele>184</ele>
        <time>2017-07-31T10:40:04Z</time>
      </trkpt>
      <trkpt lat="45.90895" lon="4.7579">
        <ele>184</ele>
        <time>2017-07-31T10:40:05Z</time>
      </trkpt>
      <trkpt lat="45.90897" lon="4.7578">
        <ele>184</ele>
        <time>2017-07-31T10:40:07Z</time>
      </trkpt>
      <trkpt lat="45.90898" lon="4.75775">
        <ele>184</ele>
        <time>2017-07-31T10:40:08Z</time>
      </trkpt>
      <trkpt lat="45.90899" lon="4.75765">
        <ele>184</ele>
        <time>2017-07-31T10:40:10Z</time>
      </trkpt>
      <trkpt lat="45.90899" lon="4.75759">
        <ele>184</ele>
        <time>2017-07-31T10:40:11Z</time>
      </trkpt>
      <trkpt lat="45.909" lon="4.75747">
        <ele>184</ele>
        <time>2017-07-31T10:40:13Z</time>
      </trkpt>
      <trkpt lat="45.909" lon="4.75742">
        <ele>184</ele>
        <time>2017-07-31T10:40:14Z</time>
      </trkpt>
      <trkpt lat="45.90896" lon="4.75731">
        <ele>185</ele>
        <time>2017-07-31T10:40:16Z</time>
      </trkpt>
      <trkpt lat="45.90895" lon="4.75726">
        <ele>185</ele>
        <time>2017-07-31T10:40:17Z</time>
      </trkpt>
      <trkpt lat="45.90898" lon="4.75716">
        <ele>184</ele>
        <time>2017-07-31T10:40:19Z</time>
      </trkpt>
      <trkpt lat="45.90899" lon="4.75712">
        <ele>184</ele>
        <time>2017-07-31T10:40:20Z</time>
      </trkpt>
      <trkpt lat="45.909" lon="4.75702">
        <ele>184</ele>
        <time>2017-07-31T10:40:22Z</time>
      </trkpt>
      <trkpt lat="45.90901" lon="4.75698">
        <ele>184</ele>
        <time>2017-07-31T10:40:23Z</time>
      </trkpt>
      <trkpt lat="45.90901" lon="4.75686">
        <ele>184</ele>
        <time>2017-07-31T10:40:26Z</time>
      </trkpt>
      <trkpt lat="45.90902" lon="4.75682">
        <ele>184</ele>
        <time>2017-07-31T10:40:27Z</time>
      </trkpt>
      <trkpt lat="45.90902" lon="4.75672">
        <ele>184</ele>
        <time>2017-07-31T10:40:29Z</time>
      </trkpt>
      <trkpt lat="45.90903" lon="4.75666">
        <ele>184</ele>
        <time>2017-07-31T10:40:30Z</time>
      </trkpt>
      <trkpt lat="45.90903" lon="4.75655">
        <ele>184</ele>
        <time>2017-07-31T10:40:32Z</time>
      </trkpt>
      <trkpt lat="45.90902" lon="4.7565">
        <ele>184</ele>
        <time>2017-07-31T10:40:33Z</time>
      </trkpt>
      <trkpt lat="45.90903" lon="4.75637">
        <ele>185</ele>
        <time>2017-07-31T10:40:36Z</time>
      </trkpt>
      <trkpt lat="45.90902" lon="4.75633">
        <ele>185</ele>
        <time>2017-07-31T10:40:37Z</time>
      </trkpt>
      <trkpt lat="45.90901" lon="4.75623">
        <ele>185</ele>
        <time>2017-07-31T10:40:39Z</time>
      </trkpt>
      <trkpt lat="45.90901" lon="4.75618">
        <ele>185</ele>
        <time>2017-07-31T10:40:40Z</time>
      </trkpt>
      <trkpt lat="45.909" lon="4.75607">
        <ele>185</ele>
        <time>2017-07-31T10:40:42Z</time>
      </trkpt>
      <trkpt lat="45.90901" lon="4.75602">
        <ele>185</ele>
        <time>2017-07-31T10:40:43Z</time>
      </trkpt>
      <trkpt lat="45.90903" lon="4.75592">
        <ele>185</ele>
        <time>2017-07-31T10:40:45Z</time>
      </trkpt>
      <trkpt lat="45.90904" lon="4.75587">
        <ele>185</ele>
        <time>2017-07-31T10:40:46Z</time>
      </trkpt>
      <trkpt lat="45.90906" lon="4.75576">
        <ele>185</ele>
        <time>2017-07-31T10:40:48Z</time>
      </trkpt>
      <trkpt lat="45.90907" lon="4.75571">
        <ele>186</ele>
        <time>2017-07-31T10:40:49Z</time>
      </trkpt>
      <trkpt lat="45.90907" lon="4.75559">
        <ele>186</ele>
        <time>2017-07-31T10:40:52Z</time>
      </trkpt>
      <trkpt lat="45.90908" lon="4.75555">
        <ele>186</ele>
        <time>2017-07-31T10:40:53Z</time>
      </trkpt>
      <trkpt lat="45.90909" lon="4.75546">
        <ele>186</ele>
        <time>2017-07-31T10:40:55Z</time>
      </trkpt>
      <trkpt lat="45.9091" lon="4.7554">
        <ele>186</ele>
        <time>2017-07-31T10:40:56Z</time>
      </trkpt>
      <trkpt lat="45.90911" lon="4.75529">
        <ele>186</ele>
        <time>2017-07-31T10:40:58Z</time>
      </trkpt>
      <trkpt lat="45.90912" lon="4.75523">
        <ele>186</ele>
        <time>2017-07-31T10:40:59Z</time>
      </trkpt>
      <trkpt lat="45.90913" lon="4.75512">
        <ele>186</ele>
        <time>2017-07-31T10:41:01Z</time>
      </trkpt>
      <trkpt lat="45.90914" lon="4.75507">
        <ele>186</ele>
        <time>2017-07-31T10:41:02Z</time>
      </trkpt>
      <trkpt lat="45.90915" lon="4.75497">
        <ele>186</ele>
        <time>2017-07-31T10:41:04Z</time>
      </trkpt>
      <trkpt lat="45.90915" lon="4.75493">
        <ele>186</ele>
        <time>2017-07-31T10:41:05Z</time>
      </trkpt>
      <trkpt lat="45.90916" lon="4.7548">
        <ele>186</ele>
        <time>2017-07-31T10:41:08Z</time>
      </trkpt>
      <trkpt lat="45.90917" lon="4.75475">
        <ele>186</ele>
        <time>2017-07-31T10:41:09Z</time>
      </trkpt>
      <trkpt lat="45.90918" lon="4.75465">
        <ele>185</ele>
        <time>2017-07-31T10:41:11Z</time>
      </trkpt>
      <trkpt lat="45.90918" lon="4.75459">
        <ele>185</ele>
        <time>2017-07-31T10:41:12Z</time>
      </trkpt>
      <trkpt lat="45.90919" lon="4.75448">
        <ele>185</ele>
        <time>2017-07-31T10:41:14Z</time>
      </trkpt>
      <trkpt lat="45.9092" lon="4.75443">
        <ele>185</ele>
        <time>2017-07-31T10:41:15Z</time>
      </trkpt>
      <trkpt lat="45.90921" lon="4.75434">
        <ele>185</ele>
        <time>2017-07-31T10:41:17Z</time>
      </trkpt>
      <trkpt lat="45.90921" lon="4.75429">
        <ele>185</ele>
        <time>2017-07-31T10:41:18Z</time>
      </trkpt>
      <trkpt lat="45.90922" lon="4.75418">
        <ele>185</ele>
        <time>2017-07-31T10:41:20Z</time>
      </trkpt>
      <trkpt lat="45.90922" lon="4.75412">
        <ele>185</ele>
        <time>2017-07-31T10:41:21Z</time>
      </trkpt>
      <trkpt lat="45.90923" lon="4.75399">
        <ele>185</ele>
        <time>2017-07-31T10:41:23Z</time>
      </trkpt>
      <trkpt lat="45.90924" lon="4.75394">
        <ele>185</ele>
        <time>2017-07-31T10:41:24Z</time>
      </trkpt>
      <trkpt lat="45.90925" lon="4.75384">
        <ele>185</ele>
        <time>2017-07-31T10:41:26Z</time>
      </trkpt>
      <trkpt lat="45.90926" lon="4.75379">
        <ele>185</ele>
        <time>2017-07-31T10:41:27Z</time>
      </trkpt>
      <trkpt lat="45.90927" lon="4.75367">
        <ele>185</ele>
        <time>2017-07-31T10:41:30Z</time>
      </trkpt>
      <trkpt lat="45.90928" lon="4.75362">
        <ele>185</ele>
        <time>2017-07-31T10:41:31Z</time>
      </trkpt>
      <trkpt lat="45.90929" lon="4.75353">
        <ele>185</ele>
        <time>2017-07-31T10:41:33Z</time>
      </trkpt>
      <trkpt lat="45.9093" lon="4.75348">
        <ele>185</ele>
        <time>2017-07-31T10:41:34Z</time>
      </trkpt>
      <trkpt lat="45.90931" lon="4.75337">
        <ele>186</ele>
        <time>2017-07-31T10:41:36Z</time>
      </trkpt>
      <trkpt lat="45.90932" lon="4.75332">
        <ele>185</ele>
        <time>2017-07-31T10:41:37Z</time>
      </trkpt>
      <trkpt lat="45.90932" lon="4.75322">
        <ele>185</ele>
        <time>2017-07-31T10:41:39Z</time>
      </trkpt>
      <trkpt lat="45.90932" lon="4.75318">
        <ele>185</ele>
        <time>2017-07-31T10:41:40Z</time>
      </trkpt>
      <trkpt lat="45.90933" lon="4.75308">
        <ele>185</ele>
        <time>2017-07-31T10:41:42Z</time>
      </trkpt>
      <trkpt lat="45.90933" lon="4.75303">
        <ele>185</ele>
        <time>2017-07-31T10:41:43Z</time>
      </trkpt>
      <trkpt lat="45.90934" lon="4.75291">
        <ele>185</ele>
        <time>2017-07-31T10:41:46Z</time>
      </trkpt>
      <trkpt lat="45.90934" lon="4.75287">
        <ele>185</ele>
        <time>2017-07-31T10:41:47Z</time>
      </trkpt>
      <trkpt lat="45.90935" lon="4.75279">
        <ele>185</ele>
        <time>2017-07-31T10:41:49Z</time>
      </trkpt>
      <trkpt lat="45.90936" lon="4.75274">
        <ele>185</ele>
        <time>2017-07-31T10:41:50Z</time>
      </trkpt>
      <trkpt lat="45.90937" lon="4.75261">
        <ele>185</ele>
        <time>2017-07-31T10:41:52Z</time>
      </trkpt>
      <trkpt lat="45.90937" lon="4.75255">
        <ele>185</ele>
        <time>2017-07-31T10:41:53Z</time>
      </trkpt>
      <trkpt lat="45.90939" lon="4.75243">
        <ele>184</ele>
        <time>2017-07-31T10:41:55Z</time>
      </trkpt>
      <trkpt lat="45.90939" lon="4.75237">
        <ele>184</ele>
        <time>2017-07-31T10:41:56Z</time>
      </trkpt>
      <trkpt lat="45.9094" lon="4.75226">
        <ele>184</ele>
        <time>2017-07-31T10:41:58Z</time>
      </trkpt>
      <trkpt lat="45.90941" lon="4.7522">
        <ele>184</ele>
        <time>2017-07-31T10:41:59Z</time>
      </trkpt>
      <trkpt lat="45.90942" lon="4.75209">
        <ele>184</ele>
        <time>2017-07-31T10:42:01Z</time>
      </trkpt>
      <trkpt lat="45.90943" lon="4.75204">
        <ele>184</ele>
        <time>2017-07-31T10:42:02Z</time>
      </trkpt>
      <trkpt lat="45.90944" lon="4.75192">
        <ele>183</ele>
        <time>2017-07-31T10:42:04Z</time>
      </trkpt>
      <trkpt lat="45.90945" lon="4.75187">
        <ele>183</ele>
        <time>2017-07-31T10:42:05Z</time>
      </trkpt>
      <trkpt lat="45.90946" lon="4.75175">
        <ele>183</ele>
        <time>2017-07-31T10:42:07Z</time>
      </trkpt>
      <trkpt lat="45.90947" lon="4.7517">
        <ele>183</ele>
        <time>2017-07-31T10:42:08Z</time>
      </trkpt>
      <trkpt lat="45.90948" lon="4.75159">
        <ele>182</ele>
        <time>2017-07-31T10:42:10Z</time>
      </trkpt>
      <trkpt lat="45.90949" lon="4.75154">
        <ele>182</ele>
        <time>2017-07-31T10:42:11Z</time>
      </trkpt>
      <trkpt lat="45.90951" lon="4.75143">
        <ele>182</ele>
        <time>2017-07-31T10:42:13Z</time>
      </trkpt>
      <trkpt lat="45.90952" lon="4.75137">
        <ele>181</ele>
        <time>2017-07-31T10:42:14Z</time>
      </trkpt>
      <trkpt lat="45.90954" lon="4.75127">
        <ele>181</ele>
        <time>2017-07-31T10:42:16Z</time>
      </trkpt>
      <trkpt lat="45.90954" lon="4.75122">
        <ele>181</ele>
        <time>2017-07-31T10:42:17Z</time>
      </trkpt>
      <trkpt lat="45.90955" lon="4.75111">
        <ele>181</ele>
        <time>2017-07-31T10:42:19Z</time>
      </trkpt>
      <trkpt lat="45.90955" lon="4.75105">
        <ele>181</ele>
        <time>2017-07-31T10:42:20Z</time>
      </trkpt>
      <trkpt lat="45.90956" lon="4.75095">
        <ele>181</ele>
        <time>2017-07-31T10:42:22Z</time>
      </trkpt>
      <trkpt lat="45.90956" lon="4.75089">
        <ele>181</ele>
        <time>2017-07-31T10:42:23Z</time>
      </trkpt>
      <trkpt lat="45.90958" lon="4.75079">
        <ele>179</ele>
        <time>2017-07-31T10:42:25Z</time>
      </trkpt>
      <trkpt lat="45.90958" lon="4.75074">
        <ele>179</ele>
        <time>2017-07-31T10:42:26Z</time>
      </trkpt>
      <trkpt lat="45.90958" lon="4.75063">
        <ele>179</ele>
        <time>2017-07-31T10:42:28Z</time>
      </trkpt>
      <trkpt lat="45.90959" lon="4.75058">
        <ele>179</ele>
        <time>2017-07-31T10:42:29Z</time>
      </trkpt>
      <trkpt lat="45.90959" lon="4.75049">
        <ele>179</ele>
        <time>2017-07-31T10:42:31Z</time>
      </trkpt>
      <trkpt lat="45.9096" lon="4.75044">
        <ele>179</ele>
        <time>2017-07-31T10:42:32Z</time>
      </trkpt>
      <trkpt lat="45.90966" lon="4.75036">
        <ele>179</ele>
        <time>2017-07-31T10:42:35Z</time>
      </trkpt>
      <trkpt lat="45.90969" lon="4.75035">
        <ele>179</ele>
        <time>2017-07-31T10:42:36Z</time>
      </trkpt>
      <trkpt lat="45.90976" lon="4.75037">
        <ele>179</ele>
        <time>2017-07-31T10:42:38Z</time>
      </trkpt>
      <trkpt lat="45.9098" lon="4.75039">
        <ele>179</ele>
        <time>2017-07-31T10:42:39Z</time>
      </trkpt>
      <trkpt lat="45.90985" lon="4.75042">
        <ele>179</ele>
        <time>2017-07-31T10:42:40Z</time>
      </trkpt>
      <trkpt lat="45.90989" lon="4.75044">
        <ele>179</ele>
        <time>2017-07-31T10:42:41Z</time>
      </trkpt>
      <trkpt lat="45.90998" lon="4.75047">
        <ele>179</ele>
        <time>2017-07-31T10:42:43Z</time>
      </trkpt>
      <trkpt lat="45.91002" lon="4.75049">
        <ele>178</ele>
        <time>2017-07-31T10:42:44Z</time>
      </trkpt>
      <trkpt lat="45.91009" lon="4.75052">
        <ele>179</ele>
        <time>2017-07-31T10:42:46Z</time>
      </trkpt>
      <trkpt lat="45.91012" lon="4.75054">
        <ele>179</ele>
        <time>2017-07-31T10:42:47Z</time>
      </trkpt>
      <trkpt lat="45.9102" lon="4.75057">
        <ele>179</ele>
        <time>2017-07-31T10:42:49Z</time>
      </trkpt>
      <trkpt lat="45.91024" lon="4.75058">
        <ele>179</ele>
        <time>2017-07-31T10:42:50Z</time>
      </trkpt>
      <trkpt lat="45.91028" lon="4.75059">
        <ele>179</ele>
        <time>2017-07-31T10:42:51Z</time>
      </trkpt>
      <trkpt lat="45.91033" lon="4.7506">
        <ele>179</ele>
        <time>2017-07-31T10:42:52Z</time>
      </trkpt>
      <trkpt lat="45.91038" lon="4.75062">
        <ele>179</ele>
        <time>2017-07-31T10:42:53Z</time>
      </trkpt>
      <trkpt lat="45.91043" lon="4.75064">
        <ele>179</ele>
        <time>2017-07-31T10:42:54Z</time>
      </trkpt>
      <trkpt lat="45.91048" lon="4.75066">
        <ele>179</ele>
        <time>2017-07-31T10:42:55Z</time>
      </trkpt>
      <trkpt lat="45.91053" lon="4.75068">
        <ele>179</ele>
        <time>2017-07-31T10:42:56Z</time>
      </trkpt>
      <trkpt lat="45.91057" lon="4.7507">
        <ele>179</ele>
        <time>2017-07-31T10:42:57Z</time>
      </trkpt>
      <trkpt lat="45.91061" lon="4.75071">
        <ele>179</ele>
        <time>2017-07-31T10:42:58Z</time>
      </trkpt>
      <trkpt lat="45.91066" lon="4.75073">
        <ele>179</ele>
        <time>2017-07-31T10:42:59Z</time>
      </trkpt>
      <trkpt lat="45.91071" lon="4.75075">
        <ele>179</ele>
        <time>2017-07-31T10:43:00Z</time>
      </trkpt>
      <trkpt lat="45.91075" lon="4.75077">
        <ele>180</ele>
        <time>2017-07-31T10:43:01Z</time>
      </trkpt>
      <trkpt lat="45.9108" lon="4.7508">
        <ele>180</ele>
        <time>2017-07-31T10:43:02Z</time>
      </trkpt>
      <trkpt lat="45.91085" lon="4.75082">
        <ele>180</ele>
        <time>2017-07-31T10:43:03Z</time>
      </trkpt>
      <trkpt lat="45.91089" lon="4.75084">
        <ele>180</ele>
        <time>2017-07-31T10:43:04Z</time>
      </trkpt>
      <trkpt lat="45.91097" lon="4.75087">
        <ele>180</ele>
        <time>2017-07-31T10:43:06Z</time>
      </trkpt>
      <trkpt lat="45.91102" lon="4.75089">
        <ele>180</ele>
        <time>2017-07-31T10:43:07Z</time>
      </trkpt>
      <trkpt lat="45.9111" lon="4.75092">
        <ele>179</ele>
        <time>2017-07-31T10:43:09Z</time>
      </trkpt>
      <trkpt lat="45.91114" lon="4.75093">
        <ele>179</ele>
        <time>2017-07-31T10:43:10Z</time>
      </trkpt>
      <trkpt lat="45.91122" lon="4.75095">
        <ele>179</ele>
        <time>2017-07-31T10:43:12Z</time>
      </trkpt>
      <trkpt lat="45.91127" lon="4.75096">
        <ele>179</ele>
        <time>2017-07-31T10:43:13Z</time>
      </trkpt>
      <trkpt lat="45.91131" lon="4.75097">
        <ele>179</ele>
        <time>2017-07-31T10:43:14Z</time>
      </trkpt>
      <trkpt lat="45.91136" lon="4.75099">
        <ele>179</ele>
        <time>2017-07-31T10:43:15Z</time>
      </trkpt>
      <trkpt lat="45.9114" lon="4.75101">
        <ele>179</ele>
        <time>2017-07-31T10:43:16Z</time>
      </trkpt>
      <trkpt lat="45.91146" lon="4.75103">
        <ele>179</ele>
        <time>2017-07-31T10:43:17Z</time>
      </trkpt>
      <trkpt lat="45.91152" lon="4.75105">
        <ele>179</ele>
        <time>2017-07-31T10:43:18Z</time>
      </trkpt>
      <trkpt lat="45.91157" lon="4.75106">
        <ele>179</ele>
        <time>2017-07-31T10:43:19Z</time>
      </trkpt>
      <trkpt lat="45.91162" lon="4.75107">
        <ele>179</ele>
        <time>2017-07-31T10:43:20Z</time>
      </trkpt>
      <trkpt lat="45.91167" lon="4.75109">
        <ele>178</ele>
        <time>2017-07-31T10:43:21Z</time>
      </trkpt>
      <trkpt lat="45.91172" lon="4.7511">
        <ele>178</ele>
        <time>2017-07-31T10:43:22Z</time>
      </trkpt>
      <trkpt lat="45.91178" lon="4.75111">
        <ele>178</ele>
        <time>2017-07-31T10:43:23Z</time>
      </trkpt>
      <trkpt lat="45.91182" lon="4.75112">
        <ele>178</ele>
        <time>2017-07-31T10:43:24Z</time>
      </trkpt>
      <trkpt lat="45.91187" lon="4.75114">
        <ele>178</ele>
        <time>2017-07-31T10:43:25Z</time>
      </trkpt>
      <trkpt lat="45.91192" lon="4.75115">
        <ele>178</ele>
        <time>2017-07-31T10:43:26Z</time>
      </trkpt>
      <trkpt lat="45.91197" lon="4.75116">
        <ele>178</ele>
        <time>2017-07-31T10:43:27Z</time>
      </trkpt>
      <trkpt lat="45.91205" lon="4.75117">
        <ele>178</ele>
        <time>2017-07-31T10:43:29Z</time>
      </trkpt>
      <trkpt lat="45.9121" lon="4.75118">
        <ele>177</ele>
        <time>2017-07-31T10:43:30Z</time>
      </trkpt>
      <trkpt lat="45.91218" lon="4.7512">
        <ele>177</ele>
        <time>2017-07-31T10:43:32Z</time>
      </trkpt>
      <trkpt lat="45.91222" lon="4.75121">
        <ele>177</ele>
        <time>2017-07-31T10:43:33Z</time>
      </trkpt>
      <trkpt lat="45.91226" lon="4.75122">
        <ele>177</ele>
        <time>2017-07-31T10:43:34Z</time>
      </trkpt>
      <trkpt lat="45.91231" lon="4.75124">
        <ele>177</ele>
        <time>2017-07-31T10:43:35Z</time>
      </trkpt>
      <trkpt lat="45.91236" lon="4.75126">
        <ele>177</ele>
        <time>2017-07-31T10:43:36Z</time>
      </trkpt>
      <trkpt lat="45.91241" lon="4.75129">
        <ele>177</ele>
        <time>2017-07-31T10:43:37Z</time>
      </trkpt>
      <trkpt lat="45.91246" lon="4.75132">
        <ele>177</ele>
        <time>2017-07-31T10:43:38Z</time>
      </trkpt>
      <trkpt lat="45.9125" lon="4.75135">
        <ele>177</ele>
        <time>2017-07-31T10:43:39Z</time>
      </trkpt>
      <trkpt lat="45.91255" lon="4.75138">
        <ele>177</ele>
        <time>2017-07-31T10:43:40Z</time>
      </trkpt>
      <trkpt lat="45.91259" lon="4.75141">
        <ele>177</ele>
        <time>2017-07-31T10:43:41Z</time>
      </trkpt>
      <trkpt lat="45.91267" lon="4.75144">
        <ele>177</ele>
        <time>2017-07-31T10:43:43Z</time>
      </trkpt>
      <trkpt lat="45.91271" lon="4.75146">
        <ele>177</ele>
        <time>2017-07-31T10:43:44Z</time>
      </trkpt>
      <trkpt lat="45.91279" lon="4.75149">
        <ele>177</ele>
        <time>2017-07-31T10:43:46Z</time>
      </trkpt>
      <trkpt lat="45.91283" lon="4.75151">
        <ele>177</ele>
        <time>2017-07-31T10:43:47Z</time>
      </trkpt>
      <trkpt lat="45.9129" lon="4.75151">
        <ele>177</ele>
        <time>2017-07-31T10:43:49Z</time>
      </trkpt>
      <trkpt lat="45.91293" lon="4.75152">
        <ele>177</ele>
        <time>2017-07-31T10:43:50Z</time>
      </trkpt>
      <trkpt lat="45.91299" lon="4.75156">
        <ele>177</ele>
        <time>2017-07-31T10:43:52Z</time>
      </trkpt>
      <trkpt lat="45.91302" lon="4.75158">
        <ele>177</ele>
        <time>2017-07-31T10:43:53Z</time>
      </trkpt>
      <trkpt lat="45.91309" lon="4.75153">
        <ele>177</ele>
        <time>2017-07-31T10:43:56Z</time>
      </trkpt>
      <trkpt lat="45.91308" lon="4.75148">
        <ele>177</ele>
        <time>2017-07-31T10:43:57Z</time>
      </trkpt>
      <trkpt lat="45.91307" lon="4.75136">
        <ele>177</ele>
        <time>2017-07-31T10:43:59Z</time>
      </trkpt>
      <trkpt lat="45.91306" lon="4.7513">
        <ele>177</ele>
        <time>2017-07-31T10:44:00Z</time>
      </trkpt>
      <trkpt lat="45.91305" lon="4.75118">
        <ele>177</ele>
        <time>2017-07-31T10:44:02Z</time>
      </trkpt>
      <trkpt lat="45.91305" lon="4.75112">
        <ele>177</ele>
        <time>2017-07-31T10:44:03Z</time>
      </trkpt>
      <trkpt lat="45.91305" lon="4.75101">
        <ele>177</ele>
        <time>2017-07-31T10:44:05Z</time>
      </trkpt>
      <trkpt lat="45.91305" lon="4.75096">
        <ele>177</ele>
        <time>2017-07-31T10:44:06Z</time>
      </trkpt>
      <trkpt lat="45.91305" lon="4.75086">
        <ele>177</ele>
        <time>2017-07-31T10:44:08Z</time>
      </trkpt>
      <trkpt lat="45.91304" lon="4.75081">
        <ele>177</ele>
        <time>2017-07-31T10:44:09Z</time>
      </trkpt>
      <trkpt lat="45.91304" lon="4.75071">
        <ele>177</ele>
        <time>2017-07-31T10:44:11Z</time>
      </trkpt>
      <trkpt lat="45.91303" lon="4.75065">
        <ele>177</ele>
        <time>2017-07-31T10:44:12Z</time>
      </trkpt>
      <trkpt lat="45.91304" lon="4.75058">
        <ele>177</ele>
        <time>2017-07-31T10:44:13Z</time>
      </trkpt>
      <trkpt lat="45.91303" lon="4.75051">
        <ele>177</ele>
        <time>2017-07-31T10:44:14Z</time>
      </trkpt>
      <trkpt lat="45.91302" lon="4.75044">
        <ele>177</ele>
        <time>2017-07-31T10:44:15Z</time>
      </trkpt>
      <trkpt lat="45.91302" lon="4.75036">
        <ele>177</ele>
        <time>2017-07-31T10:44:16Z</time>
      </trkpt>
      <trkpt lat="45.91302" lon="4.75029">
        <ele>177</ele>
        <time>2017-07-31T10:44:17Z</time>
      </trkpt>
      <trkpt lat="45.91302" lon="4.75022">
        <ele>177</ele>
        <time>2017-07-31T10:44:18Z</time>
      </trkpt>
      <trkpt lat="45.91302" lon="4.75015">
        <ele>177</ele>
        <time>2017-07-31T10:44:19Z</time>
      </trkpt>
      <trkpt lat="45.91302" lon="4.75008">
        <ele>177</ele>
        <time>2017-07-31T10:44:20Z</time>
      </trkpt>
      <trkpt lat="45.91303" lon="4.74996">
        <ele>177</ele>
        <time>2017-07-31T10:44:22Z</time>
      </trkpt>
      <trkpt lat="45.91303" lon="4.7499">
        <ele>177</ele>
        <time>2017-07-31T10:44:23Z</time>
      </trkpt>
      <trkpt lat="45.91304" lon="4.74979">
        <ele>177</ele>
        <time>2017-07-31T10:44:25Z</time>
      </trkpt>
      <trkpt lat="45.91305" lon="4.74974">
        <ele>177</ele>
        <time>2017-07-31T10:44:26Z</time>
      </trkpt>
      <trkpt lat="45.91305" lon="4.74963">
        <ele>177</ele>
        <time>2017-07-31T10:44:28Z</time>
      </trkpt>
      <trkpt lat="45.91304" lon="4.74957">
        <ele>177</ele>
        <time>2017-07-31T10:44:29Z</time>
      </trkpt>
      <trkpt lat="45.91306" lon="4.7495">
        <ele>177</ele>
        <time>2017-07-31T10:44:30Z</time>
      </trkpt>
      <trkpt lat="45.91307" lon="4.74943">
        <ele>177</ele>
        <time>2017-07-31T10:44:31Z</time>
      </trkpt>
      <trkpt lat="45.91307" lon="4.74937">
        <ele>177</ele>
        <time>2017-07-31T10:44:32Z</time>
      </trkpt>
      <trkpt lat="45.91309" lon="4.7493">
        <ele>177</ele>
        <time>2017-07-31T10:44:33Z</time>
      </trkpt>
      <trkpt lat="45.9131" lon="4.74918">
        <ele>177</ele>
        <time>2017-07-31T10:44:35Z</time>
      </trkpt>
      <trkpt lat="45.9131" lon="4.74912">
        <ele>176</ele>
        <time>2017-07-31T10:44:36Z</time>
      </trkpt>
      <trkpt lat="45.91311" lon="4.74901">
        <ele>176</ele>
        <time>2017-07-31T10:44:38Z</time>
      </trkpt>
      <trkpt lat="45.91312" lon="4.74895">
        <ele>176</ele>
        <time>2017-07-31T10:44:39Z</time>
      </trkpt>
      <trkpt lat="45.91316" lon="4.74888">
        <ele>176</ele>
        <time>2017-07-31T10:44:41Z</time>
      </trkpt>
      <trkpt lat="45.91318" lon="4.74885">
        <ele>176</ele>
        <time>2017-07-31T10:44:42Z</time>
      </trkpt>
      <trkpt lat="45.91326" lon="4.74888">
        <ele>176</ele>
        <time>2017-07-31T10:44:45Z</time>
      </trkpt>
      <trkpt lat="45.91329" lon="4.74895">
        <ele>176</ele>
        <time>2017-07-31T10:44:46Z</time>
      </trkpt>
      <trkpt lat="45.91337" lon="4.74898">
        <ele>177</ele>
        <time>2017-07-31T10:44:48Z</time>
      </trkpt>
      <trkpt lat="45.91341" lon="4.74901">
        <ele>177</ele>
        <time>2017-07-31T10:44:49Z</time>
      </trkpt>
      <trkpt lat="45.91349" lon="4.74905">
        <ele>177</ele>
        <time>2017-07-31T10:44:51Z</time>
      </trkpt>
      <trkpt lat="45.91353" lon="4.74906">
        <ele>177</ele>
        <time>2017-07-31T10:44:52Z</time>
      </trkpt>
      <trkpt lat="45.91359" lon="4.74907">
        <ele>177</ele>
        <time>2017-07-31T10:44:53Z</time>
      </trkpt>
      <trkpt lat="45.91364" lon="4.74908">
        <ele>177</ele>
        <time>2017-07-31T10:44:54Z</time>
      </trkpt>
      <trkpt lat="45.91368" lon="4.7491">
        <ele>177</ele>
        <time>2017-07-31T10:44:55Z</time>
      </trkpt>
      <trkpt lat="45.91372" lon="4.74912">
        <ele>177</ele>
        <time>2017-07-31T10:44:56Z</time>
      </trkpt>
      <trkpt lat="45.91377" lon="4.74913">
        <ele>177</ele>
        <time>2017-07-31T10:44:57Z</time>
      </trkpt>
      <trkpt lat="45.91381" lon="4.74913">
        <ele>177</ele>
        <time>2017-07-31T10:44:58Z</time>
      </trkpt>
      <trkpt lat="45.9139" lon="4.74914">
        <ele>177</ele>
        <time>2017-07-31T10:45:00Z</time>
      </trkpt>
      <trkpt lat="45.91394" lon="4.74914">
        <ele>177</ele>
        <time>2017-07-31T10:45:01Z</time>
      </trkpt>
      <trkpt lat="45.91402" lon="4.74916">
        <ele>177</ele>
        <time>2017-07-31T10:45:03Z</time>
      </trkpt>
      <trkpt lat="45.91406" lon="4.74917">
        <ele>177</ele>
        <time>2017-07-31T10:45:04Z</time>
      </trkpt>
      <trkpt lat="45.91411" lon="4.74918">
        <ele>178</ele>
        <time>2017-07-31T10:45:05Z</time>
      </trkpt>
      <trkpt lat="45.91416" lon="4.74918">
        <ele>178</ele>
        <time>2017-07-31T10:45:06Z</time>
      </trkpt>
      <trkpt lat="45.91424" lon="4.7492">
        <ele>178</ele>
        <time>2017-07-31T10:45:08Z</time>
      </trkpt>
      <trkpt lat="45.91428" lon="4.7492">
        <ele>178</ele>
        <time>2017-07-31T10:45:09Z</time>
      </trkpt>
      <trkpt lat="45.91435" lon="4.74921">
        <ele>178</ele>
        <time>2017-07-31T10:45:11Z</time>
      </trkpt>
      <trkpt lat="45.91438" lon="4.7492">
        <ele>178</ele>
        <time>2017-07-31T10:45:12Z</time>
      </trkpt>
      <trkpt lat="45.91445" lon="4.74921">
        <ele>178</ele>
        <time>2017-07-31T10:45:14Z</time>
      </trkpt>
      <trkpt lat="45.91449" lon="4.74921">
        <ele>178</ele>
        <time>2017-07-31T10:45:15Z</time>
      </trkpt>
      <trkpt lat="45.91454" lon="4.74921">
        <ele>178</ele>
        <time>2017-07-31T10:45:16Z</time>
      </trkpt>
      <trkpt lat="45.91458" lon="4.74922">
        <ele>178</ele>
        <time>2017-07-31T10:45:17Z</time>
      </trkpt>
      <trkpt lat="45.91462" lon="4.74922">
        <ele>178</ele>
        <time>2017-07-31T10:45:18Z</time>
      </trkpt>
      <trkpt lat="45.91467" lon="4.74923">
        <ele>178</ele>
        <time>2017-07-31T10:45:19Z</time>
      </trkpt>
      <trkpt lat="45.91472" lon="4.74924">
        <ele>178</ele>
        <time>2017-07-31T10:45:20Z</time>
      </trkpt>
      <trkpt lat="45.91479" lon="4.7493">
        <ele>178</ele>
        <time>2017-07-31T10:45:21Z</time>
      </trkpt>
      <trkpt lat="45.91485" lon="4.74932">
        <ele>178</ele>
        <time>2017-07-31T10:45:22Z</time>
      </trkpt>
      <trkpt lat="45.91491" lon="4.74934">
        <ele>178</ele>
        <time>2017-07-31T10:45:23Z</time>
      </trkpt>
      <trkpt lat="45.91496" lon="4.74935">
        <ele>178</ele>
        <time>2017-07-31T10:45:24Z</time>
      </trkpt>
      <trkpt lat="45.91501" lon="4.74936">
        <ele>177</ele>
        <time>2017-07-31T10:45:25Z</time>
      </trkpt>
      <trkpt lat="45.91506" lon="4.74935">
        <ele>177</ele>
        <time>2017-07-31T10:45:26Z</time>
      </trkpt>
      <trkpt lat="45.9151" lon="4.74934">
        <ele>177</ele>
        <time>2017-07-31T10:45:27Z</time>
      </trkpt>
      <trkpt lat="45.91517" lon="4.74937">
        <ele>177</ele>
        <time>2017-07-31T10:45:29Z</time>
      </trkpt>
      <trkpt lat="45.91521" lon="4.74938">
        <ele>178</ele>
        <time>2017-07-31T10:45:30Z</time>
      </trkpt>
      <trkpt lat="45.91529" lon="4.74938">
        <ele>178</ele>
        <time>2017-07-31T10:45:32Z</time>
      </trkpt>
      <trkpt lat="45.91532" lon="4.74938">
        <ele>178</ele>
        <time>2017-07-31T10:45:33Z</time>
      </trkpt>
      <trkpt lat="45.9154" lon="4.7494">
        <ele>178</ele>
        <time>2017-07-31T10:45:35Z</time>
      </trkpt>
      <trkpt lat="45.91545" lon="4.74939">
        <ele>178</ele>
        <time>2017-07-31T10:45:36Z</time>
      </trkpt>
      <trkpt lat="45.9155" lon="4.74938">
        <ele>178</ele>
        <time>2017-07-31T10:45:37Z</time>
      </trkpt>
      <trkpt lat="45.91556" lon="4.74938">
        <ele>178</ele>
        <time>2017-07-31T10:45:38Z</time>
      </trkpt>
      <trkpt lat="45.91561" lon="4.74939">
        <ele>178</ele>
        <time>2017-07-31T10:45:39Z</time>
      </trkpt>
      <trkpt lat="45.91566" lon="4.74941">
        <ele>178</ele>
        <time>2017-07-31T10:45:40Z</time>
      </trkpt>
      <trkpt lat="45.91574" lon="4.74944">
        <ele>178</ele>
        <time>2017-07-31T10:45:42Z</time>
      </trkpt>
      <trkpt lat="45.91578" lon="4.74944">
        <ele>178</ele>
        <time>2017-07-31T10:45:43Z</time>
      </trkpt>
      <trkpt lat="45.91587" lon="4.74947">
        <ele>177</ele>
        <time>2017-07-31T10:45:46Z</time>
      </trkpt>
      <trkpt lat="45.9159" lon="4.74949">
        <ele>177</ele>
        <time>2017-07-31T10:45:47Z</time>
      </trkpt>
      <trkpt lat="45.91597" lon="4.74951">
        <ele>177</ele>
        <time>2017-07-31T10:45:49Z</time>
      </trkpt>
      <trkpt lat="45.91602" lon="4.74953">
        <ele>177</ele>
        <time>2017-07-31T10:45:50Z</time>
      </trkpt>
      <trkpt lat="45.91607" lon="4.74956">
        <ele>177</ele>
        <time>2017-07-31T10:45:51Z</time>
      </trkpt>
      <trkpt lat="45.91612" lon="4.74958">
        <ele>177</ele>
        <time>2017-07-31T10:45:52Z</time>
      </trkpt>
      <trkpt lat="45.91617" lon="4.74961">
        <ele>177</ele>
        <time>2017-07-31T10:45:53Z</time>
      </trkpt>
      <trkpt lat="45.91621" lon="4.74964">
        <ele>177</ele>
        <time>2017-07-31T10:45:54Z</time>
      </trkpt>
      <trkpt lat="45.91626" lon="4.74966">
        <ele>177</ele>
        <time>2017-07-31T10:45:55Z</time>
      </trkpt>
      <trkpt lat="45.9163" lon="4.74967">
        <ele>177</ele>
        <time>2017-07-31T10:45:56Z</time>
      </trkpt>
      <trkpt lat="45.91636" lon="4.7497">
        <ele>176</ele>
        <time>2017-07-31T10:45:58Z</time>
      </trkpt>
      <trkpt lat="45.91639" lon="4.74972">
        <ele>176</ele>
        <time>2017-07-31T10:45:59Z</time>
      </trkpt>
      <trkpt lat="45.91647" lon="4.74975">
        <ele>176</ele>
        <time>2017-07-31T10:46:01Z</time>
      </trkpt>
      <trkpt lat="45.91652" lon="4.74976">
        <ele>176</ele>
        <time>2017-07-31T10:46:02Z</time>
      </trkpt>
      <trkpt lat="45.91657" lon="4.74978">
        <ele>176</ele>
        <time>2017-07-31T10:46:03Z</time>
      </trkpt>
      <trkpt lat="45.91661" lon="4.7498">
        <ele>176</ele>
        <time>2017-07-31T10:46:04Z</time>
      </trkpt>
      <trkpt lat="45.91666" lon="4.74982">
        <ele>176</ele>
        <time>2017-07-31T10:46:05Z</time>
      </trkpt>
      <trkpt lat="45.9167" lon="4.74984">
        <ele>175</ele>
        <time>2017-07-31T10:46:06Z</time>
      </trkpt>
      <trkpt lat="45.91678" lon="4.74988">
        <ele>175</ele>
        <time>2017-07-31T10:46:08Z</time>
      </trkpt>
      <trkpt lat="45.91682" lon="4.74989">
        <ele>175</ele>
        <time>2017-07-31T10:46:09Z</time>
      </trkpt>
      <trkpt lat="45.91691" lon="4.74989">
        <ele>175</ele>
        <time>2017-07-31T10:46:11Z</time>
      </trkpt>
      <trkpt lat="45.91695" lon="4.74989">
        <ele>175</ele>
        <time>2017-07-31T10:46:12Z</time>
      </trkpt>
      <trkpt lat="45.91702" lon="4.74986">
        <ele>175</ele>
        <time>2017-07-31T10:46:14Z</time>
      </trkpt>
      <trkpt lat="45.91705" lon="4.74985">
        <ele>175</ele>
        <time>2017-07-31T10:46:15Z</time>
      </trkpt>
      <trkpt lat="45.91713" lon="4.74977">
        <ele>175</ele>
        <time>2017-07-31T10:46:18Z</time>
      </trkpt>
      <trkpt lat="45.91715" lon="4.74975">
        <ele>175</ele>
        <time>2017-07-31T10:46:19Z</time>
      </trkpt>
      <trkpt lat="45.91721" lon="4.7497">
        <ele>175</ele>
        <time>2017-07-31T10:46:21Z</time>
      </trkpt>
      <trkpt lat="45.91723" lon="4.74968">
        <ele>175</ele>
        <time>2017-07-31T10:46:22Z</time>
      </trkpt>
      <trkpt lat="45.91728" lon="4.74962">
        <ele>175</ele>
        <time>2017-07-31T10:46:24Z</time>
      </trkpt>
      <trkpt lat="45.9173" lon="4.74959">
        <ele>175</ele>
        <time>2017-07-31T10:46:25Z</time>
      </trkpt>
      <trkpt lat="45.91736" lon="4.74954">
        <ele>175</ele>
        <time>2017-07-31T10:46:27Z</time>
      </trkpt>
      <trkpt lat="45.9174" lon="4.7495">
        <ele>174</ele>
        <time>2017-07-31T10:46:28Z</time>
      </trkpt>
      <trkpt lat="45.91746" lon="4.74943">
        <ele>174</ele>
        <time>2017-07-31T10:46:30Z</time>
      </trkpt>
      <trkpt lat="45.9175" lon="4.7494">
        <ele>174</ele>
        <time>2017-07-31T10:46:31Z</time>
      </trkpt>
      <trkpt lat="45.91755" lon="4.74935">
        <ele>174</ele>
        <time>2017-07-31T10:46:32Z</time>
      </trkpt>
      <trkpt lat="45.91759" lon="4.74931">
        <ele>174</ele>
        <time>2017-07-31T10:46:33Z</time>
      </trkpt>
      <trkpt lat="45.91762" lon="4.74926">
        <ele>174</ele>
        <time>2017-07-31T10:46:34Z</time>
      </trkpt>
      <trkpt lat="45.91765" lon="4.74921">
        <ele>174</ele>
        <time>2017-07-31T10:46:35Z</time>
      </trkpt>
      <trkpt lat="45.91769" lon="4.74915">
        <ele>173</ele>
        <time>2017-07-31T10:46:36Z</time>
      </trkpt>
      <trkpt lat="45.91772" lon="4.74908">
        <ele>173</ele>
        <time>2017-07-31T10:46:37Z</time>
      </trkpt>
      <trkpt lat="45.91776" lon="4.74901">
        <ele>173</ele>
        <time>2017-07-31T10:46:38Z</time>
      </trkpt>
      <trkpt lat="45.91779" lon="4.74893">
        <ele>173</ele>
        <time>2017-07-31T10:46:39Z</time>
      </trkpt>
      <trkpt lat="45.91783" lon="4.74885">
        <ele>173</ele>
        <time>2017-07-31T10:46:40Z</time>
      </trkpt>
      <trkpt lat="45.91786" lon="4.74877">
        <ele>173</ele>
        <time>2017-07-31T10:46:41Z</time>
      </trkpt>
      <trkpt lat="45.9179" lon="4.74869">
        <ele>173</ele>
        <time>2017-07-31T10:46:42Z</time>
      </trkpt>
      <trkpt lat="45.91794" lon="4.74861">
        <ele>173</ele>
        <time>2017-07-31T10:46:43Z</time>
      </trkpt>
      <trkpt lat="45.91798" lon="4.74854">
        <ele>173</ele>
        <time>2017-07-31T10:46:44Z</time>
      </trkpt>
      <trkpt lat="45.91801" lon="4.74846">
        <ele>173</ele>
        <time>2017-07-31T10:46:45Z</time>
      </trkpt>
      <trkpt lat="45.91806" lon="4.74839">
        <ele>172</ele>
        <time>2017-07-31T10:46:46Z</time>
      </trkpt>
      <trkpt lat="45.9181" lon="4.74833">
        <ele>172</ele>
        <time>2017-07-31T10:46:47Z</time>
      </trkpt>
      <trkpt lat="45.91814" lon="4.74827">
        <ele>172</ele>
        <time>2017-07-31T10:46:48Z</time>
      </trkpt>
      <trkpt lat="45.91819" lon="4.74821">
        <ele>172</ele>
        <time>2017-07-31T10:46:49Z</time>
      </trkpt>
      <trkpt lat="45.91823" lon="4.74815">
        <ele>172</ele>
        <time>2017-07-31T10:46:50Z</time>
      </trkpt>
      <trkpt lat="45.91827" lon="4.7481">
        <ele>172</ele>
        <time>2017-07-31T10:46:51Z</time>
      </trkpt>
      <trkpt lat="45.91831" lon="4.74804">
        <ele>172</ele>
        <time>2017-07-31T10:46:52Z</time>
      </trkpt>
      <trkpt lat="45.91835" lon="4.74801">
        <ele>172</ele>
        <time>2017-07-31T10:46:53Z</time>
      </trkpt>
      <trkpt lat="45.91839" lon="4.74796">
        <ele>172</ele>
        <time>2017-07-31T10:46:54Z</time>
      </trkpt>
      <trkpt lat="45.91843" lon="4.74791">
        <ele>171</ele>
        <time>2017-07-31T10:46:55Z</time>
      </trkpt>
      <trkpt lat="45.91846" lon="4.74787">
        <ele>171</ele>
        <time>2017-07-31T10:46:56Z</time>
      </trkpt>
      <trkpt lat="45.9185" lon="4.74782">
        <ele>171</ele>
        <time>2017-07-31T10:46:57Z</time>
      </trkpt>
      <trkpt lat="45.91854" lon="4.74777">
        <ele>171</ele>
        <time>2017-07-31T10:46:58Z</time>
      </trkpt>
      <trkpt lat="45.91857" lon="4.74772">
        <ele>171</ele>
        <time>2017-07-31T10:46:59Z</time>
      </trkpt>
      <trkpt lat="45.91861" lon="4.74769">
        <ele>171</ele>
        <time>2017-07-31T10:47:00Z</time>
      </trkpt>
      <trkpt lat="45.91865" lon="4.74765">
        <ele>171</ele>
        <time>2017-07-31T10:47:01Z</time>
      </trkpt>
      <trkpt lat="45.9187" lon="4.74763">
        <ele>171</ele>
        <time>2017-07-31T10:47:02Z</time>
      </trkpt>
      <trkpt lat="45.91876" lon="4.74764">
        <ele>172</ele>
        <time>2017-07-31T10:47:03Z</time>
      </trkpt>
      <trkpt lat="45.91881" lon="4.74766">
        <ele>172</ele>
        <time>2017-07-31T10:47:04Z</time>
      </trkpt>
      <trkpt lat="45.91886" lon="4.74768">
        <ele>172</ele>
        <time>2017-07-31T10:47:05Z</time>
      </trkpt>
      <trkpt lat="45.91891" lon="4.74771">
        <ele>172</ele>
        <time>2017-07-31T10:47:06Z</time>
      </trkpt>
      <trkpt lat="45.91895" lon="4.74774">
        <ele>172</ele>
        <time>2017-07-31T10:47:07Z</time>
      </trkpt>
      <trkpt lat="45.919" lon="4.74777">
        <ele>172</ele>
        <time>2017-07-31T10:47:08Z</time>
      </trkpt>
      <trkpt lat="45.91904" lon="4.74779">
        <ele>172</ele>
        <time>2017-07-31T10:47:09Z</time>
      </trkpt>
      <trkpt lat="45.91911" lon="4.74783">
        <ele>172</ele>
        <time>2017-07-31T10:47:11Z</time>
      </trkpt>
      <trkpt lat="45.91916" lon="4.74786">
        <ele>172</ele>
        <time>2017-07-31T10:47:12Z</time>
      </trkpt>
      <trkpt lat="45.9192" lon="4.74789">
        <ele>171</ele>
        <time>2017-07-31T10:47:13Z</time>
      </trkpt>
      <trkpt lat="45.91924" lon="4.74792">
        <ele>171</ele>
        <time>2017-07-31T10:47:14Z</time>
      </trkpt>
      <trkpt lat="45.91929" lon="4.74795">
        <ele>170</ele>
        <time>2017-07-31T10:47:15Z</time>
      </trkpt>
      <trkpt lat="45.91934" lon="4.74798">
        <ele>170</ele>
        <time>2017-07-31T10:47:16Z</time>
      </trkpt>
      <trkpt lat="45.91938" lon="4.74801">
        <ele>170</ele>
        <time>2017-07-31T10:47:17Z</time>
      </trkpt>
      <trkpt lat="45.91942" lon="4.74803">
        <ele>170</ele>
        <time>2017-07-31T10:47:18Z</time>
      </trkpt>
      <trkpt lat="45.91947" lon="4.74806">
        <ele>170</ele>
        <time>2017-07-31T10:47:19Z</time>
      </trkpt>
      <trkpt lat="45.91951" lon="4.74808">
        <ele>170</ele>
        <time>2017-07-31T10:47:20Z</time>
      </trkpt>
      <trkpt lat="45.91959" lon="4.74812">
        <ele>170</ele>
        <time>2017-07-31T10:47:22Z</time>
      </trkpt>
      <trkpt lat="45.91963" lon="4.74814">
        <ele>170</ele>
        <time>2017-07-31T10:47:23Z</time>
      </trkpt>
      <trkpt lat="45.91968" lon="4.74818">
        <ele>170</ele>
        <time>2017-07-31T10:47:25Z</time>
      </trkpt>
      <trkpt lat="45.91972" lon="4.7482">
        <ele>170</ele>
        <time>2017-07-31T10:47:26Z</time>
      </trkpt>
      <trkpt lat="45.91976" lon="4.74822">
        <ele>169</ele>
        <time>2017-07-31T10:47:27Z</time>
      </trkpt>
      <trkpt lat="45.9198" lon="4.74824">
        <ele>169</ele>
        <time>2017-07-31T10:47:28Z</time>
      </trkpt>
      <trkpt lat="45.91985" lon="4.74827">
        <ele>169</ele>
        <time>2017-07-31T10:47:29Z</time>
      </trkpt>
      <trkpt lat="45.9199" lon="4.74829">
        <ele>169</ele>
        <time>2017-07-31T10:47:30Z</time>
      </trkpt>
      <trkpt lat="45.91995" lon="4.74831">
        <ele>168</ele>
        <time>2017-07-31T10:47:31Z</time>
      </trkpt>
      <trkpt lat="45.91999" lon="4.74833">
        <ele>168</ele>
        <time>2017-07-31T10:47:32Z</time>
      </trkpt>
      <trkpt lat="45.92007" lon="4.74837">
        <ele>168</ele>
        <time>2017-07-31T10:47:34Z</time>
      </trkpt>
      <trkpt lat="45.9201" lon="4.74839">
        <ele>168</ele>
        <time>2017-07-31T10:47:35Z</time>
      </trkpt>
      <trkpt lat="45.92018" lon="4.74843">
        <ele>169</ele>
        <time>2017-07-31T10:47:37Z</time>
      </trkpt>
      <trkpt lat="45.92021" lon="4.74846">
        <ele>169</ele>
        <time>2017-07-31T10:47:38Z</time>
      </trkpt>
      <trkpt lat="45.92029" lon="4.7485">
        <ele>169</ele>
        <time>2017-07-31T10:47:40Z</time>
      </trkpt>
      <trkpt lat="45.92034" lon="4.74852">
        <ele>169</ele>
        <time>2017-07-31T10:47:41Z</time>
      </trkpt>
      <trkpt lat="45.92038" lon="4.74855">
        <ele>169</ele>
        <time>2017-07-31T10:47:42Z</time>
      </trkpt>
      <trkpt lat="45.92042" lon="4.74857">
        <ele>169</ele>
        <time>2017-07-31T10:47:43Z</time>
      </trkpt>
      <trkpt lat="45.9205" lon="4.74861">
        <ele>169</ele>
        <time>2017-07-31T10:47:45Z</time>
      </trkpt>
      <trkpt lat="45.92054" lon="4.74864">
        <ele>169</ele>
        <time>2017-07-31T10:47:46Z</time>
      </trkpt>
      <trkpt lat="45.92062" lon="4.74867">
        <ele>169</ele>
        <time>2017-07-31T10:47:48Z</time>
      </trkpt>
      <trkpt lat="45.92065" lon="4.74869">
        <ele>169</ele>
        <time>2017-07-31T10:47:49Z</time>
      </trkpt>
      <trkpt lat="45.92072" lon="4.74873">
        <ele>169</ele>
        <time>2017-07-31T10:47:51Z</time>
      </trkpt>
      <trkpt lat="45.92075" lon="4.74875">
        <ele>169</ele>
        <time>2017-07-31T10:47:52Z</time>
      </trkpt>
      <trkpt lat="45.92081" lon="4.74878">
        <ele>169</ele>
        <time>2017-07-31T10:47:54Z</time>
      </trkpt>
      <trkpt lat="45.92085" lon="4.74882">
        <ele>170</ele>
        <time>2017-07-31T10:47:55Z</time>
      </trkpt>
      <trkpt lat="45.92092" lon="4.74888">
        <ele>170</ele>
        <time>2017-07-31T10:47:57Z</time>
      </trkpt>
      <trkpt lat="45.92096" lon="4.74891">
        <ele>170</ele>
        <time>2017-07-31T10:47:58Z</time>
      </trkpt>
      <trkpt lat="45.92101" lon="4.74894">
        <ele>170</ele>
        <time>2017-07-31T10:47:59Z</time>
      </trkpt>
      <trkpt lat="45.92105" lon="4.74897">
        <ele>170</ele>
        <time>2017-07-31T10:48:00Z</time>
      </trkpt>
      <trkpt lat="45.92113" lon="4.74902">
        <ele>170</ele>
        <time>2017-07-31T10:48:02Z</time>
      </trkpt>
      <trkpt lat="45.92117" lon="4.74904">
        <ele>170</ele>
        <time>2017-07-31T10:48:03Z</time>
      </trkpt>
      <trkpt lat="45.92124" lon="4.74907">
        <ele>170</ele>
        <time>2017-07-31T10:48:05Z</time>
      </trkpt>
      <trkpt lat="45.92128" lon="4.74909">
        <ele>170</ele>
        <time>2017-07-31T10:48:06Z</time>
      </trkpt>
      <trkpt lat="45.92136" lon="4.74913">
        <ele>170</ele>
        <time>2017-07-31T10:48:08Z</time>
      </trkpt>
      <trkpt lat="45.9214" lon="4.74916">
        <ele>170</ele>
        <time>2017-07-31T10:48:09Z</time>
      </trkpt>
      <trkpt lat="45.92144" lon="4.74919">
        <ele>170</ele>
        <time>2017-07-31T10:48:10Z</time>
      </trkpt>
      <trkpt lat="45.92149" lon="4.74922">
        <ele>170</ele>
        <time>2017-07-31T10:48:11Z</time>
      </trkpt>
      <trkpt lat="45.92154" lon="4.74925">
        <ele>170</ele>
        <time>2017-07-31T10:48:12Z</time>
      </trkpt>
      <trkpt lat="45.92159" lon="4.74927">
        <ele>170</ele>
        <time>2017-07-31T10:48:13Z</time>
      </trkpt>
      <trkpt lat="45.92164" lon="4.7493">
        <ele>170</ele>
        <time>2017-07-31T10:48:14Z</time>
      </trkpt>
      <trkpt lat="45.92169" lon="4.74932">
        <ele>171</ele>
        <time>2017-07-31T10:48:15Z</time>
      </trkpt>
      <trkpt lat="45.92173" lon="4.74934">
        <ele>171</ele>
        <time>2017-07-31T10:48:16Z</time>
      </trkpt>
      <trkpt lat="45.92177" lon="4.74936">
        <ele>171</ele>
        <time>2017-07-31T10:48:17Z</time>
      </trkpt>
      <trkpt lat="45.92185" lon="4.7494">
        <ele>171</ele>
        <time>2017-07-31T10:48:19Z</time>
      </trkpt>
      <trkpt lat="45.92189" lon="4.74942">
        <ele>171</ele>
        <time>2017-07-31T10:48:20Z</time>
      </trkpt>
      <trkpt lat="45.92197" lon="4.74946">
        <ele>171</ele>
        <time>2017-07-31T10:48:22Z</time>
      </trkpt>
      <trkpt lat="45.922" lon="4.74948">
        <ele>171</ele>
        <time>2017-07-31T10:48:23Z</time>
      </trkpt>
      <trkpt lat="45.92208" lon="4.74953">
        <ele>171</ele>
        <time>2017-07-31T10:48:25Z</time>
      </trkpt>
      <trkpt lat="45.92213" lon="4.74954">
        <ele>171</ele>
        <time>2017-07-31T10:48:26Z</time>
      </trkpt>
      <trkpt lat="45.92221" lon="4.74958">
        <ele>171</ele>
        <time>2017-07-31T10:48:28Z</time>
      </trkpt>
      <trkpt lat="45.92225" lon="4.74961">
        <ele>171</ele>
        <time>2017-07-31T10:48:29Z</time>
      </trkpt>
      <trkpt lat="45.92233" lon="4.74964">
        <ele>171</ele>
        <time>2017-07-31T10:48:31Z</time>
      </trkpt>
      <trkpt lat="45.92237" lon="4.74964">
        <ele>171</ele>
        <time>2017-07-31T10:48:32Z</time>
      </trkpt>
      <trkpt lat="45.92243" lon="4.74959">
        <ele>172</ele>
        <time>2017-07-31T10:48:34Z</time>
      </trkpt>
      <trkpt lat="45.92246" lon="4.74955">
        <ele>172</ele>
        <time>2017-07-31T10:48:35Z</time>
      </trkpt>
      <trkpt lat="45.92249" lon="4.74947">
        <ele>172</ele>
        <time>2017-07-31T10:48:37Z</time>
      </trkpt>
      <trkpt lat="45.9225" lon="4.74943">
        <ele>172</ele>
        <time>2017-07-31T10:48:38Z</time>
      </trkpt>
      <trkpt lat="45.92252" lon="4.74932">
        <ele>172</ele>
        <time>2017-07-31T10:48:40Z</time>
      </trkpt>
      <trkpt lat="45.92254" lon="4.74926">
        <ele>172</ele>
        <time>2017-07-31T10:48:41Z</time>
      </trkpt>
      <trkpt lat="45.92259" lon="4.74916">
        <ele>172</ele>
        <time>2017-07-31T10:48:43Z</time>
      </trkpt>
      <trkpt lat="45.92262" lon="4.74911">
        <ele>172</ele>
        <time>2017-07-31T10:48:44Z</time>
      </trkpt>
      <trkpt lat="45.92268" lon="4.74903">
        <ele>172</ele>
        <time>2017-07-31T10:48:46Z</time>
      </trkpt>
      <trkpt lat="45.92271" lon="4.74898">
        <ele>172</ele>
        <time>2017-07-31T10:48:47Z</time>
      </trkpt>
      <trkpt lat="45.92275" lon="4.74893">
        <ele>172</ele>
        <time>2017-07-31T10:48:48Z</time>
      </trkpt>
      <trkpt lat="45.92278" lon="4.74888">
        <ele>172</ele>
        <time>2017-07-31T10:48:49Z</time>
      </trkpt>
      <trkpt lat="45.92283" lon="4.7488">
        <ele>172</ele>
        <time>2017-07-31T10:48:51Z</time>
      </trkpt>
      <trkpt lat="45.92285" lon="4.74876">
        <ele>172</ele>
        <time>2017-07-31T10:48:52Z</time>
      </trkpt>
      <trkpt lat="45.9229" lon="4.74869">
        <ele>171</ele>
        <time>2017-07-31T10:48:54Z</time>
      </trkpt>
      <trkpt lat="45.92292" lon="4.74866">
        <ele>172</ele>
        <time>2017-07-31T10:48:55Z</time>
      </trkpt>
      <trkpt lat="45.92296" lon="4.74857">
        <ele>172</ele>
        <time>2017-07-31T10:48:57Z</time>
      </trkpt>
      <trkpt lat="45.92298" lon="4.74854">
        <ele>172</ele>
        <time>2017-07-31T10:48:58Z</time>
      </trkpt>
      <trkpt lat="45.92302" lon="4.74845">
        <ele>172</ele>
        <time>2017-07-31T10:49:00Z</time>
      </trkpt>
      <trkpt lat="45.92304" lon="4.74841">
        <ele>172</ele>
        <time>2017-07-31T10:49:01Z</time>
      </trkpt>
      <trkpt lat="45.92309" lon="4.74832">
        <ele>171</ele>
        <time>2017-07-31T10:49:03Z</time>
      </trkpt>
      <trkpt lat="45.92312" lon="4.74827">
        <ele>171</ele>
        <time>2017-07-31T10:49:04Z</time>
      </trkpt>
      <trkpt lat="45.92316" lon="4.74819">
        <ele>171</ele>
        <time>2017-07-31T10:49:06Z</time>
      </trkpt>
      <trkpt lat="45.92318" lon="4.74816">
        <ele>171</ele>
        <time>2017-07-31T10:49:07Z</time>
      </trkpt>
      <trkpt lat="45.92322" lon="4.7481">
        <ele>171</ele>
        <time>2017-07-31T10:49:09Z</time>
      </trkpt>
      <trkpt lat="45.92324" lon="4.74806">
        <ele>171</ele>
        <time>2017-07-31T10:49:10Z</time>
      </trkpt>
      <trkpt lat="45.92328" lon="4.74797">
        <ele>171</ele>
        <time>2017-07-31T10:49:12Z</time>
      </trkpt>
      <trkpt lat="45.9233" lon="4.74792">
        <ele>171</ele>
        <time>2017-07-31T10:49:13Z</time>
      </trkpt>
      <trkpt lat="45.92336" lon="4.74782">
        <ele>171</ele>
        <time>2017-07-31T10:49:15Z</time>
      </trkpt>
      <trkpt lat="45.92338" lon="4.74779">
        <ele>171</ele>
        <time>2017-07-31T10:49:16Z</time>
      </trkpt>
      <trkpt lat="45.92342" lon="4.74771">
        <ele>171</ele>
        <time>2017-07-31T10:49:18Z</time>
      </trkpt>
      <trkpt lat="45.92343" lon="4.74767">
        <ele>171</ele>
        <time>2017-07-31T10:49:19Z</time>
      </trkpt>
      <trkpt lat="45.92347" lon="4.7476">
        <ele>171</ele>
        <time>2017-07-31T10:49:21Z</time>
      </trkpt>
      <trkpt lat="45.92349" lon="4.74756">
        <ele>171</ele>
        <time>2017-07-31T10:49:22Z</time>
      </trkpt>
      <trkpt lat="45.92354" lon="4.74747">
        <ele>170</ele>
        <time>2017-07-31T10:49:24Z</time>
      </trkpt>
      <trkpt lat="45.92358" lon="4.74741">
        <ele>171</ele>
        <time>2017-07-31T10:49:25Z</time>
      </trkpt>
      <trkpt lat="45.92361" lon="4.74736">
        <ele>171</ele>
        <time>2017-07-31T10:49:26Z</time>
      </trkpt>
      <trkpt lat="45.92364" lon="4.74731">
        <ele>171</ele>
        <time>2017-07-31T10:49:27Z</time>
      </trkpt>
      <trkpt lat="45.92367" lon="4.74724">
        <ele>171</ele>
        <time>2017-07-31T10:49:28Z</time>
      </trkpt>
      <trkpt lat="45.9237" lon="4.74719">
        <ele>171</ele>
        <time>2017-07-31T10:49:29Z</time>
      </trkpt>
      <trkpt lat="45.92374" lon="4.7471">
        <ele>171</ele>
        <time>2017-07-31T10:49:31Z</time>
      </trkpt>
      <trkpt lat="45.92376" lon="4.74706">
        <ele>171</ele>
        <time>2017-07-31T10:49:32Z</time>
      </trkpt>
      <trkpt lat="45.9238" lon="4.74699">
        <ele>171</ele>
        <time>2017-07-31T10:49:34Z</time>
      </trkpt>
      <trkpt lat="45.92383" lon="4.74694">
        <ele>171</ele>
        <time>2017-07-31T10:49:35Z</time>
      </trkpt>
      <trkpt lat="45.92388" lon="4.74685">
        <ele>171</ele>
        <time>2017-07-31T10:49:37Z</time>
      </trkpt>
      <trkpt lat="45.9239" lon="4.7468">
        <ele>171</ele>
        <time>2017-07-31T10:49:38Z</time>
      </trkpt>
      <trkpt lat="45.92394" lon="4.74673">
        <ele>171</ele>
        <time>2017-07-31T10:49:40Z</time>
      </trkpt>
      <trkpt lat="45.92396" lon="4.7467">
        <ele>171</ele>
        <time>2017-07-31T10:49:41Z</time>
      </trkpt>
      <trkpt lat="45.924" lon="4.74662">
        <ele>171</ele>
        <time>2017-07-31T10:49:43Z</time>
      </trkpt>
      <trkpt lat="45.92405" lon="4.74657">
        <ele>171</ele>
        <time>2017-07-31T10:49:44Z</time>
      </trkpt>
      <trkpt lat="45.92408" lon="4.74652">
        <ele>171</ele>
        <time>2017-07-31T10:49:45Z</time>
      </trkpt>
      <trkpt lat="45.92411" lon="4.74648">
        <ele>171</ele>
        <time>2017-07-31T10:49:46Z</time>
      </trkpt>
      <trkpt lat="45.92416" lon="4.74641">
        <ele>171</ele>
        <time>2017-07-31T10:49:48Z</time>
      </trkpt>
      <trkpt lat="45.92418" lon="4.74637">
        <ele>171</ele>
        <time>2017-07-31T10:49:49Z</time>
      </trkpt>
      <trkpt lat="45.92422" lon="4.74629">
        <ele>171</ele>
        <time>2017-07-31T10:49:51Z</time>
      </trkpt>
      <trkpt lat="45.92424" lon="4.74625">
        <ele>171</ele>
        <time>2017-07-31T10:49:52Z</time>
      </trkpt>
      <trkpt lat="45.92425" lon="4.7462">
        <ele>171</ele>
        <time>2017-07-31T10:49:53Z</time>
      </trkpt>
      <trkpt lat="45.92422" lon="4.74609">
        <ele>171</ele>
        <time>2017-07-31T10:49:54Z</time>
      </trkpt>
      <trkpt lat="45.92421" lon="4.74597">
        <ele>171</ele>
        <time>2017-07-31T10:49:56Z</time>
      </trkpt>
      <trkpt lat="45.9242" lon="4.74592">
        <ele>171</ele>
        <time>2017-07-31T10:49:57Z</time>
      </trkpt>
      <trkpt lat="45.92416" lon="4.74584">
        <ele>171</ele>
        <time>2017-07-31T10:50:00Z</time>
      </trkpt>
      <trkpt lat="45.92413" lon="4.74581">
        <ele>171</ele>
        <time>2017-07-31T10:50:01Z</time>
      </trkpt>
      <trkpt lat="45.92408" lon="4.74577">
        <ele>171</ele>
        <time>2017-07-31T10:50:03Z</time>
      </trkpt>
      <trkpt lat="45.92404" lon="4.74575">
        <ele>171</ele>
        <time>2017-07-31T10:50:04Z</time>
      </trkpt>
      <trkpt lat="45.92397" lon="4.74569">
        <ele>171</ele>
        <time>2017-07-31T10:50:06Z</time>
      </trkpt>
      <trkpt lat="45.92392" lon="4.74566">
        <ele>171</ele>
        <time>2017-07-31T10:50:07Z</time>
      </trkpt>
      <trkpt lat="45.92388" lon="4.74564">
        <ele>171</ele>
        <time>2017-07-31T10:50:08Z</time>
      </trkpt>
      <trkpt lat="45.92383" lon="4.74562">
        <ele>171</ele>
        <time>2017-07-31T10:50:09Z</time>
      </trkpt>
      <trkpt lat="45.92374" lon="4.74557">
        <ele>170</ele>
        <time>2017-07-31T10:50:11Z</time>
      </trkpt>
      <trkpt lat="45.92371" lon="4.74555">
        <ele>170</ele>
        <time>2017-07-31T10:50:12Z</time>
      </trkpt>
      <trkpt lat="45.92365" lon="4.74551">
        <ele>170</ele>
        <time>2017-07-31T10:50:14Z</time>
      </trkpt>
      <trkpt lat="45.92362" lon="4.74549">
        <ele>170</ele>
        <time>2017-07-31T10:50:15Z</time>
      </trkpt>
      <trkpt lat="45.92357" lon="4.74545">
        <ele>170</ele>
        <time>2017-07-31T10:50:17Z</time>
      </trkpt>
      <trkpt lat="45.92353" lon="4.74542">
        <ele>170</ele>
        <time>2017-07-31T10:50:18Z</time>
      </trkpt>
      <trkpt lat="45.92346" lon="4.74536">
        <ele>171</ele>
        <time>2017-07-31T10:50:20Z</time>
      </trkpt>
      <trkpt lat="45.92342" lon="4.74534">
        <ele>171</ele>
        <time>2017-07-31T10:50:21Z</time>
      </trkpt>
      <trkpt lat="45.92335" lon="4.7453">
        <ele>171</ele>
        <time>2017-07-31T10:50:23Z</time>
      </trkpt>
      <trkpt lat="45.92332" lon="4.74529">
        <ele>171</ele>
        <time>2017-07-31T10:50:24Z</time>
      </trkpt>
      <trkpt lat="45.92326" lon="4.74526">
        <ele>171</ele>
        <time>2017-07-31T10:50:26Z</time>
      </trkpt>
      <trkpt lat="45.92323" lon="4.74524">
        <ele>171</ele>
        <time>2017-07-31T10:50:27Z</time>
      </trkpt>
      <trkpt lat="45.92316" lon="4.74519">
        <ele>171</ele>
        <time>2017-07-31T10:50:29Z</time>
      </trkpt>
      <trkpt lat="45.92312" lon="4.74516">
        <ele>171</ele>
        <time>2017-07-31T10:50:30Z</time>
      </trkpt>
      <trkpt lat="45.92305" lon="4.74511">
        <ele>171</ele>
        <time>2017-07-31T10:50:32Z</time>
      </trkpt>
      <trkpt lat="45.92302" lon="4.74509">
        <ele>171</ele>
        <time>2017-07-31T10:50:33Z</time>
      </trkpt>
      <trkpt lat="45.92297" lon="4.74506">
        <ele>171</ele>
        <time>2017-07-31T10:50:35Z</time>
      </trkpt>
      <trkpt lat="45.92294" lon="4.74504">
        <ele>171</ele>
        <time>2017-07-31T10:50:36Z</time>
      </trkpt>
      <trkpt lat="45.92287" lon="4.74498">
        <ele>171</ele>
        <time>2017-07-31T10:50:39Z</time>
      </trkpt>
      <trkpt lat="45.92284" lon="4.74497">
        <ele>171</ele>
        <time>2017-07-31T10:50:40Z</time>
      </trkpt>
      <trkpt lat="45.92276" lon="4.74494">
        <ele>171</ele>
        <time>2017-07-31T10:50:42Z</time>
      </trkpt>
      <trkpt lat="45.92272" lon="4.74491">
        <ele>171</ele>
        <time>2017-07-31T10:50:43Z</time>
      </trkpt>
      <trkpt lat="45.92267" lon="4.74489">
        <ele>171</ele>
        <time>2017-07-31T10:50:44Z</time>
      </trkpt>
      <trkpt lat="45.92263" lon="4.74486">
        <ele>171</ele>
        <time>2017-07-31T10:50:45Z</time>
      </trkpt>
      <trkpt lat="45.92255" lon="4.74482">
        <ele>171</ele>
        <time>2017-07-31T10:50:47Z</time>
      </trkpt>
      <trkpt lat="45.92252" lon="4.74479">
        <ele>171</ele>
        <time>2017-07-31T10:50:48Z</time>
      </trkpt>
      <trkpt lat="45.92245" lon="4.74474">
        <ele>171</ele>
        <time>2017-07-31T10:50:50Z</time>
      </trkpt>
      <trkpt lat="45.92243" lon="4.74471">
        <ele>171</ele>
        <time>2017-07-31T10:50:51Z</time>
      </trkpt>
      <trkpt lat="45.92239" lon="4.74461">
        <ele>171</ele>
        <time>2017-07-31T10:50:54Z</time>
      </trkpt>
      <trkpt lat="45.92238" lon="4.74456">
        <ele>171</ele>
        <time>2017-07-31T10:50:55Z</time>
      </trkpt>
      <trkpt lat="45.92239" lon="4.74446">
        <ele>171</ele>
        <time>2017-07-31T10:50:57Z</time>
      </trkpt>
      <trkpt lat="45.9224" lon="4.74441">
        <ele>171</ele>
        <time>2017-07-31T10:50:58Z</time>
      </trkpt>
      <trkpt lat="45.92242" lon="4.74431">
        <ele>171</ele>
        <time>2017-07-31T10:51:00Z</time>
      </trkpt>
      <trkpt lat="45.92243" lon="4.74425">
        <ele>171</ele>
        <time>2017-07-31T10:51:01Z</time>
      </trkpt>
      <trkpt lat="45.92246" lon="4.74416">
        <ele>171</ele>
        <time>2017-07-31T10:51:03Z</time>
      </trkpt>
      <trkpt lat="45.92247" lon="4.74411">
        <ele>171</ele>
        <time>2017-07-31T10:51:04Z</time>
      </trkpt>
      <trkpt lat="45.9225" lon="4.74403">
        <ele>171</ele>
        <time>2017-07-31T10:51:06Z</time>
      </trkpt>
      <trkpt lat="45.92252" lon="4.74399">
        <ele>171</ele>
        <time>2017-07-31T10:51:07Z</time>
      </trkpt>
      <trkpt lat="45.92255" lon="4.74391">
        <ele>171</ele>
        <time>2017-07-31T10:51:09Z</time>
      </trkpt>
      <trkpt lat="45.92257" lon="4.74386">
        <ele>171</ele>
        <time>2017-07-31T10:51:10Z</time>
      </trkpt>
      <trkpt lat="45.92262" lon="4.74376">
        <ele>171</ele>
        <time>2017-07-31T10:51:12Z</time>
      </trkpt>
      <trkpt lat="45.92265" lon="4.74371">
        <ele>171</ele>
        <time>2017-07-31T10:51:13Z</time>
      </trkpt>
      <trkpt lat="45.9227" lon="4.74363">
        <ele>171</ele>
        <time>2017-07-31T10:51:15Z</time>
      </trkpt>
      <trkpt lat="45.92272" lon="4.7436">
        <ele>171</ele>
        <time>2017-07-31T10:51:16Z</time>
      </trkpt>
      <trkpt lat="45.92278" lon="4.74352">
        <ele>171</ele>
        <time>2017-07-31T10:51:19Z</time>
      </trkpt>
      <trkpt lat="45.92281" lon="4.74349">
        <ele>171</ele>
        <time>2017-07-31T10:51:20Z</time>
      </trkpt>
      <trkpt lat="45.92288" lon="4.74341">
        <ele>171</ele>
        <time>2017-07-31T10:51:22Z</time>
      </trkpt>
      <trkpt lat="45.92291" lon="4.74337">
        <ele>171</ele>
        <time>2017-07-31T10:51:23Z</time>
      </trkpt>
      <trkpt lat="45.92298" lon="4.7433">
        <ele>170</ele>
        <time>2017-07-31T10:51:25Z</time>
      </trkpt>
      <trkpt lat="45.92301" lon="4.74327">
        <ele>170</ele>
        <time>2017-07-31T10:51:26Z</time>
      </trkpt>
      <trkpt lat="45.92307" lon="4.74321">
        <ele>170</ele>
        <time>2017-07-31T10:51:28Z</time>
      </trkpt>
      <trkpt lat="45.9231" lon="4.74318">
        <ele>170</ele>
        <time>2017-07-31T10:51:29Z</time>
      </trkpt>
      <trkpt lat="45.92317" lon="4.74312">
        <ele>170</ele>
        <time>2017-07-31T10:51:32Z</time>
      </trkpt>
      <trkpt lat="45.9232" lon="4.7431">
        <ele>170</ele>
        <time>2017-07-31T10:51:33Z</time>
      </trkpt>
      <trkpt lat="45.92324" lon="4.74305">
        <ele>170</ele>
        <time>2017-07-31T10:51:35Z</time>
      </trkpt>
      <trkpt lat="45.92328" lon="4.74303">
        <ele>170</ele>
        <time>2017-07-31T10:51:36Z</time>
      </trkpt>
      <trkpt lat="45.92335" lon="4.74301">
        <ele>170</ele>
        <time>2017-07-31T10:51:38Z</time>
      </trkpt>
      <trkpt lat="45.9234" lon="4.743">
        <ele>170</ele>
        <time>2017-07-31T10:51:39Z</time>
      </trkpt>
      <trkpt lat="45.92344" lon="4.74301">
        <ele>170</ele>
        <time>2017-07-31T10:51:40Z</time>
      </trkpt>
      <trkpt lat="45.92349" lon="4.74302">
        <ele>170</ele>
        <time>2017-07-31T10:51:41Z</time>
      </trkpt>
      <trkpt lat="45.92357" lon="4.74306">
        <ele>170</ele>
        <time>2017-07-31T10:51:43Z</time>
      </trkpt>
      <trkpt lat="45.92362" lon="4.74308">
        <ele>170</ele>
        <time>2017-07-31T10:51:44Z</time>
      </trkpt>
      <trkpt lat="45.92369" lon="4.74313">
        <ele>170</ele>
        <time>2017-07-31T10:51:46Z</time>
      </trkpt>
      <trkpt lat="45.92372" lon="4.74314">
        <ele>170</ele>
        <time>2017-07-31T10:51:47Z</time>
      </trkpt>
      <trkpt lat="45.92379" lon="4.74317">
        <ele>170</ele>
        <time>2017-07-31T10:51:49Z</time>
      </trkpt>
      <trkpt lat="45.92383" lon="4.74318">
        <ele>170</ele>
        <time>2017-07-31T10:51:50Z</time>
      </trkpt>
      <trkpt lat="45.92391" lon="4.74319">
        <ele>170</ele>
        <time>2017-07-31T10:51:52Z</time>
      </trkpt>
      <trkpt lat="45.92395" lon="4.74318">
        <ele>170</ele>
        <time>2017-07-31T10:51:53Z</time>
      </trkpt>
      <trkpt lat="45.92402" lon="4.74313">
        <ele>170</ele>
        <time>2017-07-31T10:51:55Z</time>
      </trkpt>
      <trkpt lat="45.92404" lon="4.74309">
        <ele>170</ele>
        <time>2017-07-31T10:51:56Z</time>
      </trkpt>
      <trkpt lat="45.92409" lon="4.74302">
        <ele>170</ele>
        <time>2017-07-31T10:51:58Z</time>
      </trkpt>
      <trkpt lat="45.92411" lon="4.74298">
        <ele>170</ele>
        <time>2017-07-31T10:51:59Z</time>
      </trkpt>
      <trkpt lat="45.92414" lon="4.74291">
        <ele>170</ele>
        <time>2017-07-31T10:52:01Z</time>
      </trkpt>
      <trkpt lat="45.92416" lon="4.74288">
        <ele>170</ele>
        <time>2017-07-31T10:52:02Z</time>
      </trkpt>
      <trkpt lat="45.92422" lon="4.7428">
        <ele>170</ele>
        <time>2017-07-31T10:52:04Z</time>
      </trkpt>
      <trkpt lat="45.92425" lon="4.74276">
        <ele>170</ele>
        <time>2017-07-31T10:52:05Z</time>
      </trkpt>
      <trkpt lat="45.9243" lon="4.74267">
        <ele>170</ele>
        <time>2017-07-31T10:52:07Z</time>
      </trkpt>
      <trkpt lat="45.92432" lon="4.74263">
        <ele>170</ele>
        <time>2017-07-31T10:52:08Z</time>
      </trkpt>
      <trkpt lat="45.92436" lon="4.74255">
        <ele>170</ele>
        <time>2017-07-31T10:52:10Z</time>
      </trkpt>
      <trkpt lat="45.92438" lon="4.74251">
        <ele>170</ele>
        <time>2017-07-31T10:52:11Z</time>
      </trkpt>
      <trkpt lat="45.92441" lon="4.74243">
        <ele>171</ele>
        <time>2017-07-31T10:52:13Z</time>
      </trkpt>
      <trkpt lat="45.92443" lon="4.74238">
        <ele>171</ele>
        <time>2017-07-31T10:52:14Z</time>
      </trkpt>
      <trkpt lat="45.92447" lon="4.74231">
        <ele>171</ele>
        <time>2017-07-31T10:52:16Z</time>
      </trkpt>
      <trkpt lat="45.92449" lon="4.74227">
        <ele>171</ele>
        <time>2017-07-31T10:52:17Z</time>
      </trkpt>
      <trkpt lat="45.92453" lon="4.74216">
        <ele>171</ele>
        <time>2017-07-31T10:52:19Z</time>
      </trkpt>
      <trkpt lat="45.92455" lon="4.74212">
        <ele>171</ele>
        <time>2017-07-31T10:52:20Z</time>
      </trkpt>
      <trkpt lat="45.92459" lon="4.74203">
        <ele>171</ele>
        <time>2017-07-31T10:52:22Z</time>
      </trkpt>
      <trkpt lat="45.92461" lon="4.74199">
        <ele>171</ele>
        <time>2017-07-31T10:52:23Z</time>
      </trkpt>
      <trkpt lat="45.92465" lon="4.74189">
        <ele>171</ele>
        <time>2017-07-31T10:52:26Z</time>
      </trkpt>
      <trkpt lat="45.92467" lon="4.74185">
        <ele>171</ele>
        <time>2017-07-31T10:52:27Z</time>
      </trkpt>
      <trkpt lat="45.9247" lon="4.74175">
        <ele>171</ele>
        <time>2017-07-31T10:52:29Z</time>
      </trkpt>
      <trkpt lat="45.92472" lon="4.74168">
        <ele>171</ele>
        <time>2017-07-31T10:52:30Z</time>
      </trkpt>
      <trkpt lat="45.92475" lon="4.74156">
        <ele>171</ele>
        <time>2017-07-31T10:52:32Z</time>
      </trkpt>
      <trkpt lat="45.92478" lon="4.7415">
        <ele>171</ele>
        <time>2017-07-31T10:52:33Z</time>
      </trkpt>
      <trkpt lat="45.9248" lon="4.74139">
        <ele>171</ele>
        <time>2017-07-31T10:52:35Z</time>
      </trkpt>
      <trkpt lat="45.92482" lon="4.74134">
        <ele>171</ele>
        <time>2017-07-31T10:52:36Z</time>
      </trkpt>
      <trkpt lat="45.92484" lon="4.74127">
        <ele>171</ele>
        <time>2017-07-31T10:52:38Z</time>
      </trkpt>
      <trkpt lat="45.92487" lon="4.74122">
        <ele>172</ele>
        <time>2017-07-31T10:52:39Z</time>
      </trkpt>
      <trkpt lat="45.92492" lon="4.74113">
        <ele>172</ele>
        <time>2017-07-31T10:52:41Z</time>
      </trkpt>
      <trkpt lat="45.92494" lon="4.7411">
        <ele>172</ele>
        <time>2017-07-31T10:52:42Z</time>
      </trkpt>
      <trkpt lat="45.92497" lon="4.741">
        <ele>172</ele>
        <time>2017-07-31T10:52:44Z</time>
      </trkpt>
      <trkpt lat="45.925" lon="4.74095">
        <ele>172</ele>
        <time>2017-07-31T10:52:45Z</time>
      </trkpt>
      <trkpt lat="45.92504" lon="4.74091">
        <ele>172</ele>
        <time>2017-07-31T10:52:46Z</time>
      </trkpt>
      <trkpt lat="45.92507" lon="4.74088">
        <ele>172</ele>
        <time>2017-07-31T10:52:47Z</time>
      </trkpt>
      <trkpt lat="45.92513" lon="4.74081">
        <ele>172</ele>
        <time>2017-07-31T10:52:49Z</time>
      </trkpt>
      <trkpt lat="45.92517" lon="4.74077">
        <ele>172</ele>
        <time>2017-07-31T10:52:50Z</time>
      </trkpt>
      <trkpt lat="45.92521" lon="4.74068">
        <ele>172</ele>
        <time>2017-07-31T10:52:53Z</time>
      </trkpt>
      <trkpt lat="45.92523" lon="4.74064">
        <ele>172</ele>
        <time>2017-07-31T10:52:54Z</time>
      </trkpt>
      <trkpt lat="45.92527" lon="4.74057">
        <ele>172</ele>
        <time>2017-07-31T10:52:56Z</time>
      </trkpt>
      <trkpt lat="45.9253" lon="4.74053">
        <ele>172</ele>
        <time>2017-07-31T10:52:57Z</time>
      </trkpt>
      <trkpt lat="45.92536" lon="4.74044">
        <ele>172</ele>
        <time>2017-07-31T10:52:59Z</time>
      </trkpt>
      <trkpt lat="45.92539" lon="4.7404">
        <ele>172</ele>
        <time>2017-07-31T10:53:00Z</time>
      </trkpt>
      <trkpt lat="45.92546" lon="4.74032">
        <ele>172</ele>
        <time>2017-07-31T10:53:02Z</time>
      </trkpt>
      <trkpt lat="45.92548" lon="4.74028">
        <ele>172</ele>
        <time>2017-07-31T10:53:03Z</time>
      </trkpt>
      <trkpt lat="45.92554" lon="4.7402">
        <ele>172</ele>
        <time>2017-07-31T10:53:05Z</time>
      </trkpt>
      <trkpt lat="45.92556" lon="4.74014">
        <ele>172</ele>
        <time>2017-07-31T10:53:06Z</time>
      </trkpt>
      <trkpt lat="45.92555" lon="4.74006">
        <ele>172</ele>
        <time>2017-07-31T10:53:08Z</time>
      </trkpt>
      <trkpt lat="45.92552" lon="4.74001">
        <ele>172</ele>
        <time>2017-07-31T10:53:09Z</time>
      </trkpt>
      <trkpt lat="45.92548" lon="4.73998">
        <ele>172</ele>
        <time>2017-07-31T10:53:10Z</time>
      </trkpt>
      <trkpt lat="45.92543" lon="4.73994">
        <ele>172</ele>
        <time>2017-07-31T10:53:11Z</time>
      </trkpt>
      <trkpt lat="45.92538" lon="4.73991">
        <ele>172</ele>
        <time>2017-07-31T10:53:12Z</time>
      </trkpt>
      <trkpt lat="45.92534" lon="4.73988">
        <ele>172</ele>
        <time>2017-07-31T10:53:13Z</time>
      </trkpt>
      <trkpt lat="45.92527" lon="4.73982">
        <ele>172</ele>
        <time>2017-07-31T10:53:15Z</time>
      </trkpt>
      <trkpt lat="45.92522" lon="4.7398">
        <ele>172</ele>
        <time>2017-07-31T10:53:16Z</time>
      </trkpt>
      <trkpt lat="45.92515" lon="4.73976">
        <ele>172</ele>
        <time>2017-07-31T10:53:18Z</time>
      </trkpt>
      <trkpt lat="45.9251" lon="4.73974">
        <ele>172</ele>
        <time>2017-07-31T10:53:19Z</time>
      </trkpt>
      <trkpt lat="45.92503" lon="4.73972">
        <ele>172</ele>
        <time>2017-07-31T10:53:21Z</time>
      </trkpt>
      <trkpt lat="45.925" lon="4.73971">
        <ele>172</ele>
        <time>2017-07-31T10:53:22Z</time>
      </trkpt>
      <trkpt lat="45.92492" lon="4.73968">
        <ele>172</ele>
        <time>2017-07-31T10:53:24Z</time>
      </trkpt>
      <trkpt lat="45.92488" lon="4.73965">
        <ele>172</ele>
        <time>2017-07-31T10:53:25Z</time>
      </trkpt>
      <trkpt lat="45.92479" lon="4.73961">
        <ele>172</ele>
        <time>2017-07-31T10:53:27Z</time>
      </trkpt>
      <trkpt lat="45.92475" lon="4.73959">
        <ele>172</ele>
        <time>2017-07-31T10:53:28Z</time>
      </trkpt>
      <trkpt lat="45.92469" lon="4.73956">
        <ele>172</ele>
        <time>2017-07-31T10:53:30Z</time>
      </trkpt>
      <trkpt lat="45.92466" lon="4.73954">
        <ele>172</ele>
        <time>2017-07-31T10:53:31Z</time>
      </trkpt>
      <trkpt lat="45.92462" lon="4.73945">
        <ele>172</ele>
        <time>2017-07-31T10:53:34Z</time>
      </trkpt>
      <trkpt lat="45.92462" lon="4.73939">
        <ele>172</ele>
        <time>2017-07-31T10:53:35Z</time>
      </trkpt>
      <trkpt lat="45.92462" lon="4.73926">
        <ele>172</ele>
        <time>2017-07-31T10:53:37Z</time>
      </trkpt>
      <trkpt lat="45.92461" lon="4.7392">
        <ele>172</ele>
        <time>2017-07-31T10:53:38Z</time>
      </trkpt>
      <trkpt lat="45.92463" lon="4.73907">
        <ele>171</ele>
        <time>2017-07-31T10:53:40Z</time>
      </trkpt>
      <trkpt lat="45.92463" lon="4.73901">
        <ele>171</ele>
        <time>2017-07-31T10:53:41Z</time>
      </trkpt>
      <trkpt lat="45.92463" lon="4.7389">
        <ele>171</ele>
        <time>2017-07-31T10:53:43Z</time>
      </trkpt>
      <trkpt lat="45.92463" lon="4.73884">
        <ele>171</ele>
        <time>2017-07-31T10:53:44Z</time>
      </trkpt>
      <trkpt lat="45.92463" lon="4.73872">
        <ele>171</ele>
        <time>2017-07-31T10:53:46Z</time>
      </trkpt>
      <trkpt lat="45.92463" lon="4.73867">
        <ele>171</ele>
        <time>2017-07-31T10:53:47Z</time>
      </trkpt>
      <trkpt lat="45.92463" lon="4.73856">
        <ele>171</ele>
        <time>2017-07-31T10:53:49Z</time>
      </trkpt>
      <trkpt lat="45.92463" lon="4.73852">
        <ele>171</ele>
        <time>2017-07-31T10:53:50Z</time>
      </trkpt>
      <trkpt lat="45.92463" lon="4.73843">
        <ele>171</ele>
        <time>2017-07-31T10:53:52Z</time>
      </trkpt>
      <trkpt lat="45.92463" lon="4.73838">
        <ele>171</ele>
        <time>2017-07-31T10:53:53Z</time>
      </trkpt>
      <trkpt lat="45.92463" lon="4.73826">
        <ele>172</ele>
        <time>2017-07-31T10:53:56Z</time>
      </trkpt>
      <trkpt lat="45.92464" lon="4.7382">
        <ele>172</ele>
        <time>2017-07-31T10:53:57Z</time>
      </trkpt>
      <trkpt lat="45.92465" lon="4.73808">
        <ele>172</ele>
        <time>2017-07-31T10:53:59Z</time>
      </trkpt>
      <trkpt lat="45.92465" lon="4.73802">
        <ele>172</ele>
        <time>2017-07-31T10:54:00Z</time>
      </trkpt>
      <trkpt lat="45.92466" lon="4.7379">
        <ele>172</ele>
        <time>2017-07-31T10:54:02Z</time>
      </trkpt>
      <trkpt lat="45.92467" lon="4.73784">
        <ele>172</ele>
        <time>2017-07-31T10:54:03Z</time>
      </trkpt>
      <trkpt lat="45.92468" lon="4.73774">
        <ele>173</ele>
        <time>2017-07-31T10:54:05Z</time>
      </trkpt>
      <trkpt lat="45.92469" lon="4.7377">
        <ele>173</ele>
        <time>2017-07-31T10:54:06Z</time>
      </trkpt>
      <trkpt lat="45.9247" lon="4.73761">
        <ele>173</ele>
        <time>2017-07-31T10:54:08Z</time>
      </trkpt>
      <trkpt lat="45.9247" lon="4.73756">
        <ele>173</ele>
        <time>2017-07-31T10:54:09Z</time>
      </trkpt>
      <trkpt lat="45.92468" lon="4.73746">
        <ele>174</ele>
        <time>2017-07-31T10:54:11Z</time>
      </trkpt>
      <trkpt lat="45.92465" lon="4.73742">
        <ele>174</ele>
        <time>2017-07-31T10:54:12Z</time>
      </trkpt>
      <trkpt lat="45.92466" lon="4.73733">
        <ele>174</ele>
        <time>2017-07-31T10:54:14Z</time>
      </trkpt>
      <trkpt lat="45.92467" lon="4.73728">
        <ele>174</ele>
        <time>2017-07-31T10:54:15Z</time>
      </trkpt>
      <trkpt lat="45.92466" lon="4.73718">
        <ele>174</ele>
        <time>2017-07-31T10:54:18Z</time>
      </trkpt>
      <trkpt lat="45.92465" lon="4.73715">
        <ele>174</ele>
        <time>2017-07-31T10:54:19Z</time>
      </trkpt>
      <trkpt lat="45.92465" lon="4.73714">
        <ele>174</ele>
        <time>2017-07-31T10:54:20Z</time>
      </trkpt>
      <trkpt lat="45.92466" lon="4.73714">
        <ele>174</ele>
        <time>2017-07-31T10:54:58.096Z</time>
      </trkpt>
    </trkseg>
  </trk>
</gpx>